<?xml version='1.0' encoding='UTF-8'?><gpx version="1.1" creator="JPX - https://github.com/jenetics/jpx" xmlns="http://www.topografix.com/GPX/1/1"><trk><trkseg><trkpt lat="44.99668957917383" lon="8.566684518450089"><ele>243.50000000000003</ele><time>2026-04-25T06:10:50Z</time></trkpt><trkpt lat="44.99662973037726" lon="8.566736864621943"><ele>242.0</ele><time>2026-04-25T06:10:53Z</time></trkpt><trkpt lat="44.996577965054854" lon="8.566667148890518"><ele>240.5</ele><time>2026-04-25T06:10:55Z</time></trkpt><trkpt lat="44.996612133729776" lon="8.566567562565421"><ele>239.0</ele><time>2026-04-25T06:10:57Z</time></trkpt><trkpt lat="44.99666275825796" lon="8.566500938522095"><ele>237.50000000000003</ele><time>2026-04-25T06:10:59Z</time></trkpt><trkpt lat="44.996666222812344" lon="8.566406113396319"><ele>236.0</ele><time>2026-04-25T06:11:01Z</time></trkpt><trkpt lat="44.996574010950326" lon="8.566376475614526"><ele>236.0</ele><time>2026-04-25T06:11:05.999Z</time></trkpt><trkpt lat="44.99650625337545" lon="8.566570941828418"><ele>236.00000000000003</ele><time>2026-04-25T06:11:07.999Z</time></trkpt><trkpt lat="44.996470701481435" lon="8.566691789536286"><ele>236.00000000000003</ele><time>2026-04-25T06:11:08.999Z</time></trkpt><trkpt lat="44.99642322748609" lon="8.566827054143797"><ele>236.0</ele><time>2026-04-25T06:11:09.999Z</time></trkpt><trkpt lat="44.996402970159174" lon="8.566960792984615"><ele>236.0</ele><time>2026-04-25T06:11:10.999Z</time></trkpt><trkpt lat="44.99640517798477" lon="8.567066766122695"><ele>235.4</ele><time>2026-04-25T06:11:11.999Z</time></trkpt><trkpt lat="44.996409110590356" lon="8.567230656699769"><ele>234.8</ele><time>2026-04-25T06:11:13.999Z</time></trkpt><trkpt lat="44.996426643513956" lon="8.56736489883688"><ele>234.20000000000002</ele><time>2026-04-25T06:11:15.999Z</time></trkpt><trkpt lat="44.99644182387511" lon="8.56746885035985"><ele>233.60000000000002</ele><time>2026-04-25T06:11:18.999Z</time></trkpt><trkpt lat="44.996547945452534" lon="8.567600051889075"><ele>233.0</ele><time>2026-04-25T06:11:20.999Z</time></trkpt><trkpt lat="44.99660669285685" lon="8.567654765663217"><ele>233.00000000000003</ele><time>2026-04-25T06:11:21.999Z</time></trkpt><trkpt lat="44.996665947999794" lon="8.567716708074103"><ele>233.0</ele><time>2026-04-25T06:11:22.999Z</time></trkpt><trkpt lat="44.996717184945645" lon="8.567792394660733"><ele>233.0</ele><time>2026-04-25T06:11:23.999Z</time></trkpt><trkpt lat="44.99681270455343" lon="8.56789486040764"><ele>233.0</ele><time>2026-04-25T06:11:25.999Z</time></trkpt><trkpt lat="44.996863996889594" lon="8.567949882328614"><ele>233.00000000000003</ele><time>2026-04-25T06:11:26.999Z</time></trkpt><trkpt lat="44.996928738851224" lon="8.568027692812464"><ele>233.0</ele><time>2026-04-25T06:11:28.999Z</time></trkpt><trkpt lat="44.9969899371473" lon="8.56811338931244"><ele>232.75</ele><time>2026-04-25T06:11:30.999Z</time></trkpt><trkpt lat="44.99714971779231" lon="8.567953499650564"><ele>232.5</ele><time>2026-04-25T06:11:33.999Z</time></trkpt><trkpt lat="44.99720871520529" lon="8.567912071301585"><ele>232.25</ele><time>2026-04-25T06:11:34.999Z</time></trkpt><trkpt lat="44.99730047915241" lon="8.567819938077294"><ele>232.0</ele><time>2026-04-25T06:11:37.001Z</time></trkpt><trkpt lat="44.99737043852409" lon="8.56773233303153"><ele>231.99999999999997</ele><time>2026-04-25T06:11:39.001Z</time></trkpt><trkpt lat="44.99742150851458" lon="8.567670341864197"><ele>232.0</ele><time>2026-04-25T06:11:51Z</time></trkpt><trkpt lat="44.99748202591966" lon="8.567632875907572"><ele>232.0</ele><time>2026-04-25T06:11:54Z</time></trkpt><trkpt lat="44.99752650009368" lon="8.56755676103964"><ele>232.0</ele><time>2026-04-25T06:11:56Z</time></trkpt><trkpt lat="44.99762303221724" lon="8.567486274911257"><ele>231.99999999999997</ele><time>2026-04-25T06:11:58Z</time></trkpt><trkpt lat="44.99773822646442" lon="8.56743410461952"><ele>232.0</ele><time>2026-04-25T06:12:00Z</time></trkpt><trkpt lat="44.99787266101665" lon="8.567389075982168"><ele>227.8</ele><time>2026-04-25T06:12:02Z</time></trkpt><trkpt lat="44.997942110529436" lon="8.567389725214449"><ele>223.6</ele><time>2026-04-25T06:12:03Z</time></trkpt><trkpt lat="44.998078566000856" lon="8.567365800935997"><ele>219.4</ele><time>2026-04-25T06:12:05Z</time></trkpt><trkpt lat="44.998152973599744" lon="8.567315221524204"><ele>215.20000000000002</ele><time>2026-04-25T06:12:06Z</time></trkpt><trkpt lat="44.998222120293214" lon="8.567256526885906"><ele>211.0</ele><time>2026-04-25T06:12:07Z</time></trkpt><trkpt lat="44.99829658654115" lon="8.567180773708976"><ele>210.8</ele><time>2026-04-25T06:12:08Z</time></trkpt><trkpt lat="44.9983754340721" lon="8.567099419596202"><ele>210.60000000000002</ele><time>2026-04-25T06:12:09Z</time></trkpt><trkpt lat="44.99845902695947" lon="8.567014887819498"><ele>210.4</ele><time>2026-04-25T06:12:10Z</time></trkpt><trkpt lat="44.99852790700021" lon="8.56694621419971"><ele>210.2</ele><time>2026-04-25T06:12:11Z</time></trkpt><trkpt lat="44.998597656878005" lon="8.566854481296227"><ele>210.0</ele><time>2026-04-25T06:12:12Z</time></trkpt><trkpt lat="44.998676340220875" lon="8.566804658930113"><ele>210.0</ele><time>2026-04-25T06:12:13Z</time></trkpt><trkpt lat="44.99874468097659" lon="8.56675164256632"><ele>210.0</ele><time>2026-04-25T06:12:14Z</time></trkpt><trkpt lat="44.998820336950914" lon="8.566727621779693"><ele>210.0</ele><time>2026-04-25T06:12:15Z</time></trkpt><trkpt lat="44.9988981979903" lon="8.566702245635147"><ele>210.0</ele><time>2026-04-25T06:12:16Z</time></trkpt><trkpt lat="44.998971499843655" lon="8.566660730333012"><ele>210.0</ele><time>2026-04-25T06:12:17Z</time></trkpt><trkpt lat="44.999062977897914" lon="8.566626435984048"><ele>210.0</ele><time>2026-04-25T06:12:18Z</time></trkpt><trkpt lat="44.9991427111676" lon="8.566582878446882"><ele>209.0</ele><time>2026-04-25T06:12:19Z</time></trkpt><trkpt lat="44.99922595520823" lon="8.566525452442358"><ele>208.0</ele><time>2026-04-25T06:12:20Z</time></trkpt><trkpt lat="44.99928518673517" lon="8.566454863934565"><ele>207.0</ele><time>2026-04-25T06:12:21Z</time></trkpt><trkpt lat="44.99935078215223" lon="8.566412864597476"><ele>206.0</ele><time>2026-04-25T06:12:22Z</time></trkpt><trkpt lat="44.99946297319003" lon="8.566395503838846"><ele>205.0</ele><time>2026-04-25T06:12:24Z</time></trkpt><trkpt lat="44.999541980249795" lon="8.566434320589018"><ele>204.0</ele><time>2026-04-25T06:12:25Z</time></trkpt><trkpt lat="44.99961458432361" lon="8.566464944824125"><ele>204.0</ele><time>2026-04-25T06:12:26Z</time></trkpt><trkpt lat="44.99968646181071" lon="8.5664952216645"><ele>204.0</ele><time>2026-04-25T06:12:27Z</time></trkpt><trkpt lat="44.99976335480521" lon="8.566516364715282"><ele>204.0</ele><time>2026-04-25T06:12:28Z</time></trkpt><trkpt lat="44.999841952285784" lon="8.566503489342596"><ele>204.0</ele><time>2026-04-25T06:12:29Z</time></trkpt><trkpt lat="44.99990761462695" lon="8.566503315465912"><ele>204.0</ele><time>2026-04-25T06:12:30Z</time></trkpt><trkpt lat="44.999974214882904" lon="8.566518415277775"><ele>204.0</ele><time>2026-04-25T06:12:31Z</time></trkpt><trkpt lat="45.00008468859162" lon="8.566490719027248"><ele>204.0</ele><time>2026-04-25T06:12:33Z</time></trkpt><trkpt lat="45.0001583707124" lon="8.566573051866673"><ele>204.0</ele><time>2026-04-25T06:12:35Z</time></trkpt><trkpt lat="45.000148934313174" lon="8.566669627412812"><ele>204.0</ele><time>2026-04-25T06:12:36Z</time></trkpt><trkpt lat="45.000160497922685" lon="8.566775882382629"><ele>204.0</ele><time>2026-04-25T06:12:37Z</time></trkpt><trkpt lat="45.00019462266371" lon="8.5668923736736"><ele>204.0</ele><time>2026-04-25T06:12:38Z</time></trkpt><trkpt lat="45.00022777631223" lon="8.567005717378898"><ele>204.0</ele><time>2026-04-25T06:12:39Z</time></trkpt><trkpt lat="45.00027244482972" lon="8.56710498147374"><ele>202.2</ele><time>2026-04-25T06:12:40Z</time></trkpt><trkpt lat="45.00033049634226" lon="8.56721670682241"><ele>200.39999999999998</ele><time>2026-04-25T06:12:41Z</time></trkpt><trkpt lat="45.00038886688822" lon="8.567313296115847"><ele>198.6</ele><time>2026-04-25T06:12:42Z</time></trkpt><trkpt lat="45.00045700115803" lon="8.567400470419575"><ele>196.8</ele><time>2026-04-25T06:12:43Z</time></trkpt><trkpt lat="45.00052045081004" lon="8.567480195000085"><ele>195.0</ele><time>2026-04-25T06:12:44Z</time></trkpt><trkpt lat="45.000577219265445" lon="8.567576214974856"><ele>195.0</ele><time>2026-04-25T06:12:45Z</time></trkpt><trkpt lat="45.00063892156889" lon="8.56766063418786"><ele>195.0</ele><time>2026-04-25T06:12:46Z</time></trkpt><trkpt lat="45.00070670307577" lon="8.567753911300715"><ele>195.0</ele><time>2026-04-25T06:12:47Z</time></trkpt><trkpt lat="45.000774699202616" lon="8.56784898232069"><ele>195.0</ele><time>2026-04-25T06:12:48Z</time></trkpt><trkpt lat="45.00083948568267" lon="8.567950207161049"><ele>195.0</ele><time>2026-04-25T06:12:49Z</time></trkpt><trkpt lat="45.00091262972769" lon="8.568042761997793"><ele>194.8</ele><time>2026-04-25T06:12:50Z</time></trkpt><trkpt lat="45.00097259334398" lon="8.568155683438029"><ele>194.6</ele><time>2026-04-25T06:12:51Z</time></trkpt><trkpt lat="45.00103483318513" lon="8.568275367875904"><ele>194.39999999999998</ele><time>2026-04-25T06:12:52Z</time></trkpt><trkpt lat="45.001090491846256" lon="8.568393150387235"><ele>194.2</ele><time>2026-04-25T06:12:53Z</time></trkpt><trkpt lat="45.00115906288852" lon="8.568505268252007"><ele>194.0</ele><time>2026-04-25T06:12:54Z</time></trkpt><trkpt lat="45.0012243640091" lon="8.56861458754023"><ele>193.0</ele><time>2026-04-25T06:12:55Z</time></trkpt><trkpt lat="45.0012910607645" lon="8.568696430211968"><ele>192.0</ele><time>2026-04-25T06:12:56Z</time></trkpt><trkpt lat="45.00136302546345" lon="8.568764537251255"><ele>191.0</ele><time>2026-04-25T06:12:57Z</time></trkpt><trkpt lat="45.00145237204725" lon="8.568818938238156"><ele>190.0</ele><time>2026-04-25T06:12:58Z</time></trkpt><trkpt lat="45.00155616550477" lon="8.568863807560943"><ele>189.0</ele><time>2026-04-25T06:12:59Z</time></trkpt><trkpt lat="45.00167705910088" lon="8.56889190160687"><ele>189.0</ele><time>2026-04-25T06:13:00Z</time></trkpt><trkpt lat="45.00178605239537" lon="8.568936367554766"><ele>189.0</ele><time>2026-04-25T06:13:01Z</time></trkpt><trkpt lat="45.001896706866546" lon="8.568954596655637"><ele>189.0</ele><time>2026-04-25T06:13:01.999Z</time></trkpt><trkpt lat="45.00200960356814" lon="8.568976798339017"><ele>189.0</ele><time>2026-04-25T06:13:02.999Z</time></trkpt><trkpt lat="45.002129922223354" lon="8.569009612019105"><ele>189.0</ele><time>2026-04-25T06:13:03.999Z</time></trkpt><trkpt lat="45.00224808970947" lon="8.569056448428126"><ele>189.0</ele><time>2026-04-25T06:13:04.999Z</time></trkpt><trkpt lat="45.002368831214454" lon="8.569082473622439"><ele>189.0</ele><time>2026-04-25T06:13:05.999Z</time></trkpt><trkpt lat="45.00248312991228" lon="8.569102967406312"><ele>189.0</ele><time>2026-04-25T06:13:06.999Z</time></trkpt><trkpt lat="45.00258771197575" lon="8.569124497227383"><ele>190.0</ele><time>2026-04-25T06:13:07.999Z</time></trkpt><trkpt lat="45.002685341438855" lon="8.569153347668909"><ele>191.0</ele><time>2026-04-25T06:13:08.999Z</time></trkpt><trkpt lat="45.00277856170915" lon="8.569194052417219"><ele>192.0</ele><time>2026-04-25T06:13:09.999Z</time></trkpt><trkpt lat="45.002860152674764" lon="8.569261985323648"><ele>193.0</ele><time>2026-04-25T06:13:10.999Z</time></trkpt><trkpt lat="45.002954982187276" lon="8.569327108331844"><ele>194.0</ele><time>2026-04-25T06:13:11.999Z</time></trkpt><trkpt lat="45.00303690403631" lon="8.569392546260817"><ele>194.00000000000003</ele><time>2026-04-25T06:13:12.999Z</time></trkpt><trkpt lat="45.00310757984245" lon="8.569452877694536"><ele>194.0</ele><time>2026-04-25T06:13:13.999Z</time></trkpt><trkpt lat="45.003187461698246" lon="8.569520703220398"><ele>194.0</ele><time>2026-04-25T06:13:14.999Z</time></trkpt><trkpt lat="45.00326910225863" lon="8.569588743163084"><ele>194.0</ele><time>2026-04-25T06:13:15.999Z</time></trkpt><trkpt lat="45.0033424694702" lon="8.569648700574179"><ele>194.00000000000003</ele><time>2026-04-25T06:13:16.999Z</time></trkpt><trkpt lat="45.00341220083961" lon="8.569705686545612"><ele>194.0</ele><time>2026-04-25T06:13:17.999Z</time></trkpt><trkpt lat="45.00349498610861" lon="8.569766127184305"><ele>191.6</ele><time>2026-04-25T06:13:18.999Z</time></trkpt><trkpt lat="45.00358224739614" lon="8.569798874008264"><ele>189.2</ele><time>2026-04-25T06:13:19.999Z</time></trkpt><trkpt lat="45.003671373830336" lon="8.569844114454552"><ele>186.79999999999998</ele><time>2026-04-25T06:13:20.999Z</time></trkpt><trkpt lat="45.003751813028664" lon="8.569897384106383"><ele>184.39999999999998</ele><time>2026-04-25T06:13:21.999Z</time></trkpt><trkpt lat="45.00385762626922" lon="8.569937277526845"><ele>182.0</ele><time>2026-04-25T06:13:22.999Z</time></trkpt><trkpt lat="45.00396668837273" lon="8.56997706922081"><ele>182.0</ele><time>2026-04-25T06:13:23.999Z</time></trkpt><trkpt lat="45.00407244397618" lon="8.570014612785874"><ele>182.0</ele><time>2026-04-25T06:13:24.999Z</time></trkpt><trkpt lat="45.00419067297864" lon="8.570055319994513"><ele>182.0</ele><time>2026-04-25T06:13:25.999Z</time></trkpt><trkpt lat="45.004293185497474" lon="8.570093437973027"><ele>182.0</ele><time>2026-04-25T06:13:26.999Z</time></trkpt><trkpt lat="45.004404648061204" lon="8.570124948215268"><ele>181.6</ele><time>2026-04-25T06:13:27.999Z</time></trkpt><trkpt lat="45.00449661756278" lon="8.570192528919234"><ele>181.2</ele><time>2026-04-25T06:13:28.999Z</time></trkpt><trkpt lat="45.00459396742197" lon="8.570252206152741"><ele>180.8</ele><time>2026-04-25T06:13:29.999Z</time></trkpt><trkpt lat="45.004677973429395" lon="8.570307051529047"><ele>180.4</ele><time>2026-04-25T06:13:30.999Z</time></trkpt><trkpt lat="45.00475820394737" lon="8.57036171567359"><ele>180.0</ele><time>2026-04-25T06:13:31.999Z</time></trkpt><trkpt lat="45.00482958063204" lon="8.570402502373458"><ele>179.16666666666666</ele><time>2026-04-25T06:13:32.999Z</time></trkpt><trkpt lat="45.00492718758735" lon="8.570482490203776"><ele>178.33333333333334</ele><time>2026-04-25T06:13:33.999Z</time></trkpt><trkpt lat="45.00501077027518" lon="8.570519569357723"><ele>177.5</ele><time>2026-04-25T06:13:34.999Z</time></trkpt><trkpt lat="45.00506852213985" lon="8.570591226881978"><ele>176.66666666666669</ele><time>2026-04-25T06:13:35.999Z</time></trkpt><trkpt lat="45.00514409412418" lon="8.570625630826537"><ele>175.83333333333334</ele><time>2026-04-25T06:13:36.999Z</time></trkpt><trkpt lat="45.00521127667737" lon="8.570673797606139"><ele>175.0</ele><time>2026-04-25T06:13:37.999Z</time></trkpt><trkpt lat="45.00528929060511" lon="8.570718066451903"><ele>173.85714285714286</ele><time>2026-04-25T06:13:38.999Z</time></trkpt><trkpt lat="45.00536001948627" lon="8.570739651935265"><ele>172.71428571428572</ele><time>2026-04-25T06:13:39.999Z</time></trkpt><trkpt lat="45.005430922958105" lon="8.570757898494596"><ele>171.57142857142856</ele><time>2026-04-25T06:13:40.999Z</time></trkpt><trkpt lat="45.00550590100365" lon="8.570781519034123"><ele>170.42857142857144</ele><time>2026-04-25T06:13:41.999Z</time></trkpt><trkpt lat="45.005581393380815" lon="8.570812905207257"><ele>169.28571428571428</ele><time>2026-04-25T06:13:43Z</time></trkpt><trkpt lat="45.00563373608859" lon="8.570875704336075"><ele>168.14285714285714</ele><time>2026-04-25T06:13:44Z</time></trkpt><trkpt lat="45.005687219668054" lon="8.570925356854556"><ele>167.0</ele><time>2026-04-25T06:13:45Z</time></trkpt><trkpt lat="45.005745724900976" lon="8.570994344138207"><ele>167.0</ele><time>2026-04-25T06:13:46Z</time></trkpt><trkpt lat="45.005822358248444" lon="8.571072732973633"><ele>167.0</ele><time>2026-04-25T06:13:47Z</time></trkpt><trkpt lat="45.00590795659267" lon="8.571127083435874"><ele>167.0</ele><time>2026-04-25T06:13:48Z</time></trkpt><trkpt lat="45.0059936299387" lon="8.571174429601314"><ele>167.0</ele><time>2026-04-25T06:13:49Z</time></trkpt><trkpt lat="45.00606717053665" lon="8.571201185132468"><ele>167.0</ele><time>2026-04-25T06:13:50Z</time></trkpt><trkpt lat="45.00613807610705" lon="8.57123939374356"><ele>167.0</ele><time>2026-04-25T06:13:51Z</time></trkpt><trkpt lat="45.00619174847835" lon="8.571305356648981"><ele>165.33333333333331</ele><time>2026-04-25T06:13:52Z</time></trkpt><trkpt lat="45.006242062716225" lon="8.571376199230745"><ele>163.66666666666666</ele><time>2026-04-25T06:13:53Z</time></trkpt><trkpt lat="45.00627946662625" lon="8.571482368674365"><ele>162.0</ele><time>2026-04-25T06:13:54Z</time></trkpt><trkpt lat="45.0063203107907" lon="8.571577076293327"><ele>160.33333333333334</ele><time>2026-04-25T06:13:55Z</time></trkpt><trkpt lat="45.00636154685562" lon="8.571661610283314"><ele>158.66666666666669</ele><time>2026-04-25T06:13:56Z</time></trkpt><trkpt lat="45.006417471532004" lon="8.571744680426061"><ele>157.0</ele><time>2026-04-25T06:13:57Z</time></trkpt><trkpt lat="45.00646404951319" lon="8.571825691100809"><ele>157.0</ele><time>2026-04-25T06:13:58Z</time></trkpt><trkpt lat="45.006497532774745" lon="8.571905597391657"><ele>157.0</ele><time>2026-04-25T06:13:59Z</time></trkpt><trkpt lat="45.00654466392794" lon="8.571975622448"><ele>157.0</ele><time>2026-04-25T06:14:00Z</time></trkpt><trkpt lat="45.006615757434815" lon="8.572042644146489"><ele>157.0</ele><time>2026-04-25T06:14:01Z</time></trkpt><trkpt lat="45.00668377110773" lon="8.572099672811909"><ele>157.0</ele><time>2026-04-25T06:14:02Z</time></trkpt><trkpt lat="45.00675567559472" lon="8.572146663604297"><ele>157.0</ele><time>2026-04-25T06:14:03Z</time></trkpt><trkpt lat="45.0068325247029" lon="8.572188500908897"><ele>155.14285714285714</ele><time>2026-04-25T06:14:04Z</time></trkpt><trkpt lat="45.00690262634468" lon="8.572222456717386"><ele>153.28571428571428</ele><time>2026-04-25T06:14:05Z</time></trkpt><trkpt lat="45.00697727218443" lon="8.572251823962805"><ele>151.42857142857144</ele><time>2026-04-25T06:14:06Z</time></trkpt><trkpt lat="45.007041222743" lon="8.572288320792998"><ele>149.57142857142856</ele><time>2026-04-25T06:14:07Z</time></trkpt><trkpt lat="45.0071053506903" lon="8.572306726527323"><ele>147.71428571428572</ele><time>2026-04-25T06:14:08Z</time></trkpt><trkpt lat="45.00717213938709" lon="8.57233011090662"><ele>145.85714285714286</ele><time>2026-04-25T06:14:09Z</time></trkpt><trkpt lat="45.00723531302786" lon="8.572345653687693"><ele>144.0</ele><time>2026-04-25T06:14:10Z</time></trkpt><trkpt lat="45.007365316067684" lon="8.57239915102008"><ele>144.0</ele><time>2026-04-25T06:14:12Z</time></trkpt><trkpt lat="45.00743119685914" lon="8.572390048763843"><ele>144.0</ele><time>2026-04-25T06:14:13Z</time></trkpt><trkpt lat="45.00750647701616" lon="8.572429290495759"><ele>144.0</ele><time>2026-04-25T06:14:14Z</time></trkpt><trkpt lat="45.00757185925068" lon="8.572446009745487"><ele>144.0</ele><time>2026-04-25T06:14:15Z</time></trkpt><trkpt lat="45.00764215264925" lon="8.572466037851962"><ele>144.0</ele><time>2026-04-25T06:14:16Z</time></trkpt><trkpt lat="45.0077128830685" lon="8.572489868332248"><ele>144.0</ele><time>2026-04-25T06:14:17Z</time></trkpt><trkpt lat="45.00780517950372" lon="8.572526413954133"><ele>142.5</ele><time>2026-04-25T06:14:18Z</time></trkpt><trkpt lat="45.007888962092196" lon="8.572543526156364"><ele>141.0</ele><time>2026-04-25T06:14:19Z</time></trkpt><trkpt lat="45.007970927292874" lon="8.572604187823277"><ele>139.5</ele><time>2026-04-25T06:14:20Z</time></trkpt><trkpt lat="45.00806682681892" lon="8.572648264020762"><ele>138.0</ele><time>2026-04-25T06:14:21Z</time></trkpt><trkpt lat="45.00815108348236" lon="8.572682365599997"><ele>136.5</ele><time>2026-04-25T06:14:22Z</time></trkpt><trkpt lat="45.00823355551782" lon="8.572684681227319"><ele>135.0</ele><time>2026-04-25T06:14:23Z</time></trkpt><trkpt lat="45.00830812966075" lon="8.572713041210006"><ele>134.0</ele><time>2026-04-25T06:14:24Z</time></trkpt><trkpt lat="45.008401583210905" lon="8.572708620843345"><ele>133.0</ele><time>2026-04-25T06:14:25Z</time></trkpt><trkpt lat="45.00850163261273" lon="8.572701428196812"><ele>132.0</ele><time>2026-04-25T06:14:26Z</time></trkpt><trkpt lat="45.00863028138166" lon="8.572670601847035"><ele>131.0</ele><time>2026-04-25T06:14:27Z</time></trkpt><trkpt lat="45.00876216453116" lon="8.572666238187152"><ele>131.0</ele><time>2026-04-25T06:14:28Z</time></trkpt><trkpt lat="45.008867369686634" lon="8.572656992573512"><ele>131.0</ele><time>2026-04-25T06:14:29Z</time></trkpt><trkpt lat="45.00896553081771" lon="8.572672631045819"><ele>131.0</ele><time>2026-04-25T06:14:30Z</time></trkpt><trkpt lat="45.00906697778111" lon="8.572664853743731"><ele>131.0</ele><time>2026-04-25T06:14:31Z</time></trkpt><trkpt lat="45.00916311784169" lon="8.57264236075774"><ele>131.0</ele><time>2026-04-25T06:14:32Z</time></trkpt><trkpt lat="45.00926423694505" lon="8.572593637362198"><ele>131.4</ele><time>2026-04-25T06:14:33Z</time></trkpt><trkpt lat="45.00936239584946" lon="8.572535340808223"><ele>131.8</ele><time>2026-04-25T06:14:34Z</time></trkpt><trkpt lat="45.00945602253641" lon="8.57249901568943"><ele>132.20000000000002</ele><time>2026-04-25T06:14:35Z</time></trkpt><trkpt lat="45.009555933470715" lon="8.572480382629665"><ele>132.6</ele><time>2026-04-25T06:14:36Z</time></trkpt><trkpt lat="45.00969879855452" lon="8.57249414872769"><ele>133.0</ele><time>2026-04-25T06:14:37Z</time></trkpt><trkpt lat="45.0098157926646" lon="8.572512046469546"><ele>133.0</ele><time>2026-04-25T06:14:38Z</time></trkpt><trkpt lat="45.00992546653603" lon="8.572530382468935"><ele>133.0</ele><time>2026-04-25T06:14:39Z</time></trkpt><trkpt lat="45.010029586526265" lon="8.572544447909934"><ele>133.0</ele><time>2026-04-25T06:14:40Z</time></trkpt><trkpt lat="45.010133267823825" lon="8.572532186648502"><ele>133.0</ele><time>2026-04-25T06:14:41Z</time></trkpt><trkpt lat="45.01023297907792" lon="8.57254255335176"><ele>133.0</ele><time>2026-04-25T06:14:42Z</time></trkpt><trkpt lat="45.01032555134311" lon="8.572547470051406"><ele>133.0</ele><time>2026-04-25T06:14:43Z</time></trkpt><trkpt lat="45.01042915882394" lon="8.572545187320902"><ele>133.0</ele><time>2026-04-25T06:14:44Z</time></trkpt><trkpt lat="45.010527304264336" lon="8.57254062807283"><ele>133.0</ele><time>2026-04-25T06:14:45Z</time></trkpt><trkpt lat="45.01062765657729" lon="8.572542219292506"><ele>133.0</ele><time>2026-04-25T06:14:46Z</time></trkpt><trkpt lat="45.01071896090662" lon="8.572537483445158"><ele>133.0</ele><time>2026-04-25T06:14:47Z</time></trkpt><trkpt lat="45.01080136477999" lon="8.572551290689967"><ele>133.4</ele><time>2026-04-25T06:14:48Z</time></trkpt><trkpt lat="45.01089421795175" lon="8.572529113070047"><ele>133.8</ele><time>2026-04-25T06:14:49Z</time></trkpt><trkpt lat="45.01097949433176" lon="8.57246960735045"><ele>134.2</ele><time>2026-04-25T06:14:50Z</time></trkpt><trkpt lat="45.01107195978969" lon="8.572415228232074"><ele>134.6</ele><time>2026-04-25T06:14:51Z</time></trkpt><trkpt lat="45.0111755070738" lon="8.572368522939753"><ele>135.0</ele><time>2026-04-25T06:14:52Z</time></trkpt><trkpt lat="45.01127453199214" lon="8.572320485605152"><ele>135.0</ele><time>2026-04-25T06:14:53Z</time></trkpt><trkpt lat="45.011364080688395" lon="8.572284744051379"><ele>135.0</ele><time>2026-04-25T06:14:54Z</time></trkpt><trkpt lat="45.011463205876424" lon="8.57226214023021"><ele>135.0</ele><time>2026-04-25T06:14:55Z</time></trkpt><trkpt lat="45.01155515480131" lon="8.572254534712954"><ele>135.0</ele><time>2026-04-25T06:14:56Z</time></trkpt><trkpt lat="45.01163683196285" lon="8.572259412981577"><ele>135.0</ele><time>2026-04-25T06:14:57Z</time></trkpt><trkpt lat="45.011707743883406" lon="8.57226696085426"><ele>135.0</ele><time>2026-04-25T06:14:58Z</time></trkpt><trkpt lat="45.01184377852914" lon="8.57229814583896"><ele>135.0</ele><time>2026-04-25T06:15:00Z</time></trkpt><trkpt lat="45.01192546373158" lon="8.572326878003366"><ele>135.0</ele><time>2026-04-25T06:15:01Z</time></trkpt><trkpt lat="45.01200621063795" lon="8.572368254213096"><ele>135.0</ele><time>2026-04-25T06:15:02Z</time></trkpt><trkpt lat="45.01207618673518" lon="8.572406779491034"><ele>135.0</ele><time>2026-04-25T06:15:03Z</time></trkpt><trkpt lat="45.01217905623808" lon="8.572478815811078"><ele>135.0</ele><time>2026-04-25T06:15:04.999Z</time></trkpt><trkpt lat="45.01223678843843" lon="8.572523157904316"><ele>135.0</ele><time>2026-04-25T06:15:06.999Z</time></trkpt><trkpt lat="45.01231226562644" lon="8.572583834917422"><ele>135.0</ele><time>2026-04-25T06:15:09.999Z</time></trkpt><trkpt lat="45.01237610564978" lon="8.57263472829118"><ele>135.0</ele><time>2026-04-25T06:15:13.999Z</time></trkpt><trkpt lat="45.01244170621622" lon="8.572383830703586"><ele>135.0</ele><time>2026-04-25T06:15:15.999Z</time></trkpt><trkpt lat="45.01247397533019" lon="8.572293109523784"><ele>135.0</ele><time>2026-04-25T06:15:16.999Z</time></trkpt><trkpt lat="45.012501402506835" lon="8.572183510336668"><ele>135.0</ele><time>2026-04-25T06:15:17.999Z</time></trkpt><trkpt lat="45.012531656186646" lon="8.572084109899693"><ele>134.0</ele><time>2026-04-25T06:15:18.999Z</time></trkpt><trkpt lat="45.0125692699703" lon="8.571977876847818"><ele>133.0</ele><time>2026-04-25T06:15:19.999Z</time></trkpt><trkpt lat="45.012613386933566" lon="8.57186592151672"><ele>132.0</ele><time>2026-04-25T06:15:20.999Z</time></trkpt><trkpt lat="45.01265471810374" lon="8.571731447172692"><ele>131.0</ele><time>2026-04-25T06:15:21.999Z</time></trkpt><trkpt lat="45.012712215460745" lon="8.571615247246061"><ele>130.0</ele><time>2026-04-25T06:15:22.999Z</time></trkpt><trkpt lat="45.01277137019893" lon="8.571490324700239"><ele>130.0</ele><time>2026-04-25T06:15:23.999Z</time></trkpt><trkpt lat="45.01283061867604" lon="8.571363213649644"><ele>130.0</ele><time>2026-04-25T06:15:24.999Z</time></trkpt><trkpt lat="45.01290529548022" lon="8.571236002736022"><ele>130.0</ele><time>2026-04-25T06:15:25.999Z</time></trkpt><trkpt lat="45.01296421730757" lon="8.571096049078625"><ele>130.0</ele><time>2026-04-25T06:15:26.999Z</time></trkpt><trkpt lat="45.01301273193454" lon="8.57096121664958"><ele>130.0</ele><time>2026-04-25T06:15:27.999Z</time></trkpt><trkpt lat="45.01305433423704" lon="8.570826438413823"><ele>130.2</ele><time>2026-04-25T06:15:28.999Z</time></trkpt><trkpt lat="45.01309486888988" lon="8.570698236160174"><ele>130.4</ele><time>2026-04-25T06:15:29.999Z</time></trkpt><trkpt lat="45.01313063816794" lon="8.570568910117217"><ele>130.6</ele><time>2026-04-25T06:15:30.999Z</time></trkpt><trkpt lat="45.01320127136927" lon="8.570461714673096"><ele>130.8</ele><time>2026-04-25T06:15:31.999Z</time></trkpt><trkpt lat="45.013276236369855" lon="8.57036130236903"><ele>131.0</ele><time>2026-04-25T06:15:32.999Z</time></trkpt><trkpt lat="45.01336258057964" lon="8.570265675310024"><ele>130.6</ele><time>2026-04-25T06:15:33.999Z</time></trkpt><trkpt lat="45.01343630447993" lon="8.57016217881616"><ele>130.2</ele><time>2026-04-25T06:15:34.999Z</time></trkpt><trkpt lat="45.01351234869682" lon="8.570086669181574"><ele>129.8</ele><time>2026-04-25T06:15:35.999Z</time></trkpt><trkpt lat="45.01357926585763" lon="8.569994705027321"><ele>129.4</ele><time>2026-04-25T06:15:36.999Z</time></trkpt><trkpt lat="45.013628552822134" lon="8.569900342466534"><ele>129.0</ele><time>2026-04-25T06:15:37.999Z</time></trkpt><trkpt lat="45.01365657259323" lon="8.569760400546018"><ele>129.0</ele><time>2026-04-25T06:15:38.999Z</time></trkpt><trkpt lat="45.01367472371626" lon="8.569599769346048"><ele>129.0</ele><time>2026-04-25T06:15:39.999Z</time></trkpt><trkpt lat="45.013676443060156" lon="8.569432578939981"><ele>129.0</ele><time>2026-04-25T06:15:40.999Z</time></trkpt><trkpt lat="45.0136579593565" lon="8.56926990542971"><ele>129.0</ele><time>2026-04-25T06:15:41.999Z</time></trkpt><trkpt lat="45.01360208917242" lon="8.56911979721512"><ele>129.0</ele><time>2026-04-25T06:15:42.999Z</time></trkpt><trkpt lat="45.01352669455196" lon="8.56897091294475"><ele>129.0</ele><time>2026-04-25T06:15:43.999Z</time></trkpt><trkpt lat="45.01344547267602" lon="8.568785726126757"><ele>129.0</ele><time>2026-04-25T06:15:44.999Z</time></trkpt><trkpt lat="45.01340800333956" lon="8.568595351955365"><ele>129.0</ele><time>2026-04-25T06:15:45.999Z</time></trkpt><trkpt lat="45.01338092280282" lon="8.568430891307338"><ele>129.25</ele><time>2026-04-25T06:15:46.999Z</time></trkpt><trkpt lat="45.01335199850051" lon="8.568261162978656"><ele>129.5</ele><time>2026-04-25T06:15:47.999Z</time></trkpt><trkpt lat="45.01330706723214" lon="8.568090444067883"><ele>129.75</ele><time>2026-04-25T06:15:49Z</time></trkpt><trkpt lat="45.0132747965452" lon="8.567903901340843"><ele>130.0</ele><time>2026-04-25T06:15:50Z</time></trkpt><trkpt lat="45.01324718841924" lon="8.567742231683914"><ele>130.0</ele><time>2026-04-25T06:15:51Z</time></trkpt><trkpt lat="45.013215006451645" lon="8.567579783468306"><ele>130.0</ele><time>2026-04-25T06:15:52Z</time></trkpt><trkpt lat="45.0131833379206" lon="8.567397102860545"><ele>130.0</ele><time>2026-04-25T06:15:53Z</time></trkpt><trkpt lat="45.013179952312115" lon="8.5672071728209"><ele>130.0</ele><time>2026-04-25T06:15:54Z</time></trkpt><trkpt lat="45.013196050773004" lon="8.567009812734176"><ele>130.0</ele><time>2026-04-25T06:15:55Z</time></trkpt><trkpt lat="45.0132233194413" lon="8.566807367294263"><ele>130.0</ele><time>2026-04-25T06:15:56Z</time></trkpt><trkpt lat="45.01325135035678" lon="8.566607646910676"><ele>130.0</ele><time>2026-04-25T06:15:57Z</time></trkpt><trkpt lat="45.01327695275287" lon="8.566418604239896"><ele>130.0</ele><time>2026-04-25T06:15:58Z</time></trkpt><trkpt lat="45.01329859255939" lon="8.566242728502639"><ele>130.5</ele><time>2026-04-25T06:15:59Z</time></trkpt><trkpt lat="45.0133191474905" lon="8.566065522013302"><ele>131.0</ele><time>2026-04-25T06:16:00Z</time></trkpt><trkpt lat="45.01332577120127" lon="8.565880645552497"><ele>131.5</ele><time>2026-04-25T06:16:01Z</time></trkpt><trkpt lat="45.01333403388206" lon="8.565730600034788"><ele>132.0</ele><time>2026-04-25T06:16:02Z</time></trkpt><trkpt lat="45.0133348527698" lon="8.565594881919763"><ele>131.2</ele><time>2026-04-25T06:16:03Z</time></trkpt><trkpt lat="45.013332528112564" lon="8.565479504094267"><ele>130.39999999999998</ele><time>2026-04-25T06:16:04Z</time></trkpt><trkpt lat="45.013345087908434" lon="8.565382948824606"><ele>129.60000000000002</ele><time>2026-04-25T06:16:05Z</time></trkpt><trkpt lat="45.01333837606778" lon="8.565256935094952"><ele>128.8</ele><time>2026-04-25T06:16:07Z</time></trkpt><trkpt lat="45.01345692674878" lon="8.565314847474822"><ele>128.0</ele><time>2026-04-25T06:16:09Z</time></trkpt><trkpt lat="45.01354330427799" lon="8.565343068240772"><ele>127.75</ele><time>2026-04-25T06:16:10Z</time></trkpt><trkpt lat="45.01364656486866" lon="8.565362763019568"><ele>127.5</ele><time>2026-04-25T06:16:11Z</time></trkpt><trkpt lat="45.0137655637823" lon="8.56539882126891"><ele>127.25</ele><time>2026-04-25T06:16:12Z</time></trkpt><trkpt lat="45.01389371976806" lon="8.56546226591756"><ele>127.0</ele><time>2026-04-25T06:16:13Z</time></trkpt><trkpt lat="45.01402852558943" lon="8.56550900820529"><ele>126.25</ele><time>2026-04-25T06:16:14Z</time></trkpt><trkpt lat="45.014164666851684" lon="8.565542994347473"><ele>125.5</ele><time>2026-04-25T06:16:15Z</time></trkpt><trkpt lat="45.01429900861633" lon="8.565579460914307"><ele>124.75</ele><time>2026-04-25T06:16:16Z</time></trkpt><trkpt lat="45.014442484624475" lon="8.565597828491898"><ele>124.0</ele><time>2026-04-25T06:16:17Z</time></trkpt><trkpt lat="45.01458561426802" lon="8.565622340413002"><ele>124.0</ele><time>2026-04-25T06:16:18Z</time></trkpt><trkpt lat="45.014728928926544" lon="8.565660971101986"><ele>124.0</ele><time>2026-04-25T06:16:19Z</time></trkpt><trkpt lat="45.01487238073715" lon="8.565672094440501"><ele>124.0</ele><time>2026-04-25T06:16:20Z</time></trkpt><trkpt lat="45.015011847022535" lon="8.5657129387234"><ele>124.0</ele><time>2026-04-25T06:16:21Z</time></trkpt><trkpt lat="45.01515376022117" lon="8.56573313415854"><ele>123.75</ele><time>2026-04-25T06:16:22Z</time></trkpt><trkpt lat="45.01528661752051" lon="8.56573320895233"><ele>123.5</ele><time>2026-04-25T06:16:23Z</time></trkpt><trkpt lat="45.01541187410166" lon="8.565769894910597"><ele>123.25</ele><time>2026-04-25T06:16:24Z</time></trkpt><trkpt lat="45.015543772730545" lon="8.565788680004397"><ele>123.0</ele><time>2026-04-25T06:16:25Z</time></trkpt><trkpt lat="45.01567493106739" lon="8.565807359652009"><ele>123.0</ele><time>2026-04-25T06:16:26Z</time></trkpt><trkpt lat="45.015796470460614" lon="8.565826818718389"><ele>123.00000000000001</ele><time>2026-04-25T06:16:27Z</time></trkpt><trkpt lat="45.0159086113665" lon="8.56584794564015"><ele>123.00000000000001</ele><time>2026-04-25T06:16:28Z</time></trkpt><trkpt lat="45.01600540648519" lon="8.565867860291457"><ele>123.0</ele><time>2026-04-25T06:16:29Z</time></trkpt><trkpt lat="45.016090489871" lon="8.565898562448124"><ele>123.0</ele><time>2026-04-25T06:16:30Z</time></trkpt><trkpt lat="45.01617110819247" lon="8.565928863009797"><ele>123.4</ele><time>2026-04-25T06:16:31Z</time></trkpt><trkpt lat="45.01625605344526" lon="8.565955671449636"><ele>123.80000000000001</ele><time>2026-04-25T06:16:32Z</time></trkpt><trkpt lat="45.016335151412854" lon="8.565972630611178"><ele>124.2</ele><time>2026-04-25T06:16:33Z</time></trkpt><trkpt lat="45.01640979076906" lon="8.565987552395688"><ele>124.6</ele><time>2026-04-25T06:16:34Z</time></trkpt><trkpt lat="45.016527823586536" lon="8.566016698118705"><ele>125.0</ele><time>2026-04-25T06:16:36Z</time></trkpt><trkpt lat="45.01661594113511" lon="8.566088462658932"><ele>124.6</ele><time>2026-04-25T06:16:38Z</time></trkpt><trkpt lat="45.01667754524392" lon="8.566293199146678"><ele>124.2</ele><time>2026-04-25T06:16:40Z</time></trkpt><trkpt lat="45.016726299827106" lon="8.566381200752517"><ele>123.80000000000001</ele><time>2026-04-25T06:16:41Z</time></trkpt><trkpt lat="45.016789486899526" lon="8.566468949367573"><ele>123.4</ele><time>2026-04-25T06:16:42Z</time></trkpt><trkpt lat="45.016863891446455" lon="8.56655204750011"><ele>123.0</ele><time>2026-04-25T06:16:43Z</time></trkpt><trkpt lat="45.01693353623349" lon="8.566617342890234"><ele>123.0</ele><time>2026-04-25T06:16:44Z</time></trkpt><trkpt lat="45.01700232776547" lon="8.566675012967272"><ele>123.00000000000001</ele><time>2026-04-25T06:16:45Z</time></trkpt><trkpt lat="45.01710034782402" lon="8.566726130608977"><ele>123.00000000000001</ele><time>2026-04-25T06:16:46Z</time></trkpt><trkpt lat="45.01716979774712" lon="8.566820612791089"><ele>123.0</ele><time>2026-04-25T06:16:47Z</time></trkpt><trkpt lat="45.01725458297152" lon="8.566908367409976"><ele>123.0</ele><time>2026-04-25T06:16:48Z</time></trkpt><trkpt lat="45.01740648078933" lon="8.56683856705374"><ele>122.33333333333333</ele><time>2026-04-25T06:16:49Z</time></trkpt><trkpt lat="45.01750433626555" lon="8.566883212229552"><ele>121.66666666666666</ele><time>2026-04-25T06:16:50Z</time></trkpt><trkpt lat="45.0176000667589" lon="8.566921268305727"><ele>121.0</ele><time>2026-04-25T06:16:51Z</time></trkpt><trkpt lat="45.01768021776563" lon="8.56696932485946"><ele>120.33333333333333</ele><time>2026-04-25T06:16:52Z</time></trkpt><trkpt lat="45.01775688236527" lon="8.567009289955536"><ele>119.66666666666666</ele><time>2026-04-25T06:16:53Z</time></trkpt><trkpt lat="45.01782577902158" lon="8.567039335997213"><ele>119.0</ele><time>2026-04-25T06:16:54Z</time></trkpt><trkpt lat="45.01790121083142" lon="8.56708414305278"><ele>118.80000000000001</ele><time>2026-04-25T06:16:55Z</time></trkpt><trkpt lat="45.01796952613117" lon="8.567129390441707"><ele>118.60000000000001</ele><time>2026-04-25T06:16:56Z</time></trkpt><trkpt lat="45.018056011614846" lon="8.567182609291335"><ele>118.4</ele><time>2026-04-25T06:16:57Z</time></trkpt><trkpt lat="45.018149045096315" lon="8.567268848706863"><ele>118.2</ele><time>2026-04-25T06:16:58Z</time></trkpt><trkpt lat="45.01824284455068" lon="8.567393242736436"><ele>118.0</ele><time>2026-04-25T06:17:00Z</time></trkpt><trkpt lat="45.01829984791784" lon="8.567448649876058"><ele>118.00000000000001</ele><time>2026-04-25T06:17:01Z</time></trkpt><trkpt lat="45.01840613647548" lon="8.567524627054834"><ele>118.0</ele><time>2026-04-25T06:17:02.999Z</time></trkpt><trkpt lat="45.0184655050639" lon="8.567586074041271"><ele>118.0</ele><time>2026-04-25T06:17:03.999Z</time></trkpt><trkpt lat="45.01853618333889" lon="8.567624292938314"><ele>118.0</ele><time>2026-04-25T06:17:04.999Z</time></trkpt><trkpt lat="45.01859976467451" lon="8.567663484143642"><ele>118.00000000000001</ele><time>2026-04-25T06:17:05.999Z</time></trkpt><trkpt lat="45.01866729390511" lon="8.567700710540214"><ele>118.0</ele><time>2026-04-25T06:17:06.999Z</time></trkpt><trkpt lat="45.018737678573565" lon="8.567736295907254"><ele>118.0</ele><time>2026-04-25T06:17:07.999Z</time></trkpt><trkpt lat="45.01883783161066" lon="8.567806428702294"><ele>118.00000000000001</ele><time>2026-04-25T06:17:09.999Z</time></trkpt><trkpt lat="45.01889818820924" lon="8.567839328309553"><ele>118.00000000000001</ele><time>2026-04-25T06:17:10.999Z</time></trkpt><trkpt lat="45.01898166138779" lon="8.567891807242512"><ele>118.0</ele><time>2026-04-25T06:17:12.999Z</time></trkpt><trkpt lat="45.01907092198729" lon="8.567954975472784"><ele>118.0</ele><time>2026-04-25T06:17:14.999Z</time></trkpt><trkpt lat="45.01914709236804" lon="8.56799893160407"><ele>117.80000000000001</ele><time>2026-04-25T06:17:15.999Z</time></trkpt><trkpt lat="45.01925781482113" lon="8.568058137804998"><ele>117.60000000000001</ele><time>2026-04-25T06:17:17.999Z</time></trkpt><trkpt lat="45.01931501248456" lon="8.568096827458934"><ele>117.39999999999999</ele><time>2026-04-25T06:17:18.999Z</time></trkpt><trkpt lat="45.01944539851879" lon="8.568163961404656"><ele>117.19999999999999</ele><time>2026-04-25T06:17:20.999Z</time></trkpt><trkpt lat="45.01951357479763" lon="8.568208549122906"><ele>117.0</ele><time>2026-04-25T06:17:21.999Z</time></trkpt><trkpt lat="45.01957518546002" lon="8.56823953122324"><ele>117.0</ele><time>2026-04-25T06:17:22.999Z</time></trkpt><trkpt lat="45.019640432766394" lon="8.568276491239507"><ele>117.00000000000001</ele><time>2026-04-25T06:17:23.999Z</time></trkpt><trkpt lat="45.019705075728574" lon="8.568312517928447"><ele>117.0</ele><time>2026-04-25T06:17:24.999Z</time></trkpt><trkpt lat="45.01977045336868" lon="8.568358904542015"><ele>117.0</ele><time>2026-04-25T06:17:25.999Z</time></trkpt><trkpt lat="45.01984638410338" lon="8.568403478967708"><ele>117.00000000000001</ele><time>2026-04-25T06:17:26.999Z</time></trkpt><trkpt lat="45.01991621920012" lon="8.568444952059302"><ele>117.0</ele><time>2026-04-25T06:17:27.999Z</time></trkpt><trkpt lat="45.01998295266862" lon="8.568493526132116"><ele>117.0</ele><time>2026-04-25T06:17:28.999Z</time></trkpt><trkpt lat="45.02012256382762" lon="8.568583091375636"><ele>117.0</ele><time>2026-04-25T06:17:30.999Z</time></trkpt><trkpt lat="45.02017563790964" lon="8.568634438955204"><ele>117.0</ele><time>2026-04-25T06:17:31.999Z</time></trkpt><trkpt lat="45.02024530013068" lon="8.568695499562807"><ele>117.0</ele><time>2026-04-25T06:17:32.999Z</time></trkpt><trkpt lat="45.02031568120838" lon="8.568741618090492"><ele>117.0</ele><time>2026-04-25T06:17:33.999Z</time></trkpt><trkpt lat="45.02043564002442" lon="8.568864752530475"><ele>117.0</ele><time>2026-04-25T06:17:35.999Z</time></trkpt><trkpt lat="45.020497500453644" lon="8.568927990941713"><ele>117.0</ele><time>2026-04-25T06:17:36.999Z</time></trkpt><trkpt lat="45.02060573332798" lon="8.569016072834984"><ele>117.0</ele><time>2026-04-25T06:17:38.999Z</time></trkpt><trkpt lat="45.020664842017396" lon="8.569063712933554"><ele>116.99999999999999</ele><time>2026-04-25T06:17:39.999Z</time></trkpt><trkpt lat="45.020782452047825" lon="8.569140166250815"><ele>116.99999999999999</ele><time>2026-04-25T06:17:41.999Z</time></trkpt><trkpt lat="45.02086137893496" lon="8.569174690542743"><ele>117.0</ele><time>2026-04-25T06:17:42.999Z</time></trkpt><trkpt lat="45.02095285579358" lon="8.569219208649223"><ele>117.0</ele><time>2026-04-25T06:17:43.999Z</time></trkpt><trkpt lat="45.02103817840212" lon="8.569261799859953"><ele>117.0</ele><time>2026-04-25T06:17:44.999Z</time></trkpt><trkpt lat="45.02110166671843" lon="8.569293930472705"><ele>116.99999999999999</ele><time>2026-04-25T06:17:45.999Z</time></trkpt><trkpt lat="45.021232993995184" lon="8.569332114015797"><ele>116.99999999999999</ele><time>2026-04-25T06:17:47.999Z</time></trkpt><trkpt lat="45.02130045177464" lon="8.569335136047536"><ele>117.0</ele><time>2026-04-25T06:17:48.999Z</time></trkpt><trkpt lat="45.0213792531654" lon="8.569326868306801"><ele>117.0</ele><time>2026-04-25T06:17:49.999Z</time></trkpt><trkpt lat="45.02149029528956" lon="8.56930692961986"><ele>117.0</ele><time>2026-04-25T06:17:51.999Z</time></trkpt><trkpt lat="45.0215998842902" lon="8.569218670820648"><ele>116.99999999999999</ele><time>2026-04-25T06:17:54Z</time></trkpt><trkpt lat="45.02170327121287" lon="8.56915355406453"><ele>116.99999999999999</ele><time>2026-04-25T06:17:56Z</time></trkpt><trkpt lat="45.02181305799433" lon="8.569190659039633"><ele>117.0</ele><time>2026-04-25T06:17:58Z</time></trkpt><trkpt lat="45.02188001044647" lon="8.569211642987918"><ele>117.0</ele><time>2026-04-25T06:17:59Z</time></trkpt><trkpt lat="45.021959612370004" lon="8.569241653025998"><ele>117.16666666666667</ele><time>2026-04-25T06:18:00Z</time></trkpt><trkpt lat="45.022026184626036" lon="8.569289187768732"><ele>117.33333333333334</ele><time>2026-04-25T06:18:01Z</time></trkpt><trkpt lat="45.02209887555428" lon="8.56933807859371"><ele>117.5</ele><time>2026-04-25T06:18:02Z</time></trkpt><trkpt lat="45.022167534595674" lon="8.569401519552489"><ele>117.66666666666667</ele><time>2026-04-25T06:18:03Z</time></trkpt><trkpt lat="45.022233439272945" lon="8.569467204852705"><ele>117.83333333333334</ele><time>2026-04-25T06:18:04Z</time></trkpt><trkpt lat="45.02229074347546" lon="8.569520776151613"><ele>118.0</ele><time>2026-04-25T06:18:05Z</time></trkpt><trkpt lat="45.0223599083683" lon="8.569579512821498"><ele>118.2</ele><time>2026-04-25T06:18:06Z</time></trkpt><trkpt lat="45.022417643519816" lon="8.569644405312898"><ele>118.4</ele><time>2026-04-25T06:18:07Z</time></trkpt><trkpt lat="45.02246714342326" lon="8.569702714865752"><ele>118.60000000000001</ele><time>2026-04-25T06:18:08Z</time></trkpt><trkpt lat="45.02256580148494" lon="8.569801921120435"><ele>118.80000000000001</ele><time>2026-04-25T06:18:10Z</time></trkpt><trkpt lat="45.02261846890965" lon="8.569854743784028"><ele>119.0</ele><time>2026-04-25T06:18:11Z</time></trkpt><trkpt lat="45.02273693882213" lon="8.569917835702551"><ele>118.33333333333333</ele><time>2026-04-25T06:18:13Z</time></trkpt><trkpt lat="45.022810846990446" lon="8.569944088257536"><ele>117.66666666666666</ele><time>2026-04-25T06:18:14Z</time></trkpt><trkpt lat="45.02288076791529" lon="8.569957184574902"><ele>117.0</ele><time>2026-04-25T06:18:15Z</time></trkpt><trkpt lat="45.022959315556776" lon="8.569973611248724"><ele>116.33333333333334</ele><time>2026-04-25T06:18:16Z</time></trkpt><trkpt lat="45.0230502129836" lon="8.570003491521685"><ele>115.66666666666667</ele><time>2026-04-25T06:18:17Z</time></trkpt><trkpt lat="45.02314415582847" lon="8.57001953081162"><ele>115.0</ele><time>2026-04-25T06:18:18Z</time></trkpt><trkpt lat="45.023207690317385" lon="8.570028397744059"><ele>115.0</ele><time>2026-04-25T06:18:19Z</time></trkpt><trkpt lat="45.0232791551556" lon="8.570049425624758"><ele>115.0</ele><time>2026-04-25T06:18:20Z</time></trkpt><trkpt lat="45.02338465679711" lon="8.570068839234239"><ele>115.0</ele><time>2026-04-25T06:18:22Z</time></trkpt><trkpt lat="45.02346840161175" lon="8.57008681438254"><ele>115.0</ele><time>2026-04-25T06:18:24Z</time></trkpt><trkpt lat="45.02355607500886" lon="8.570121261558317"><ele>115.0</ele><time>2026-04-25T06:18:26Z</time></trkpt><trkpt lat="45.02364904991629" lon="8.570179849199459"><ele>114.4</ele><time>2026-04-25T06:18:28Z</time></trkpt><trkpt lat="45.02375131794755" lon="8.570253505872667"><ele>113.8</ele><time>2026-04-25T06:18:30Z</time></trkpt><trkpt lat="45.0238214562627" lon="8.570310123546216"><ele>113.19999999999999</ele><time>2026-04-25T06:18:31Z</time></trkpt><trkpt lat="45.023924124356355" lon="8.570395773374377"><ele>112.6</ele><time>2026-04-25T06:18:33Z</time></trkpt><trkpt lat="45.02400716840044" lon="8.570464795539868"><ele>112.0</ele><time>2026-04-25T06:18:35Z</time></trkpt><trkpt lat="45.02411708821363" lon="8.57056196727113"><ele>111.8</ele><time>2026-04-25T06:18:37Z</time></trkpt><trkpt lat="45.02417927607202" lon="8.570612031161913"><ele>111.6</ele><time>2026-04-25T06:18:38Z</time></trkpt><trkpt lat="45.02426317060401" lon="8.570684174298274"><ele>111.39999999999999</ele><time>2026-04-25T06:18:40Z</time></trkpt><trkpt lat="45.024356805204796" lon="8.570754970951358"><ele>111.19999999999999</ele><time>2026-04-25T06:18:42Z</time></trkpt><trkpt lat="45.02441908112088" lon="8.570806479045892"><ele>111.0</ele><time>2026-04-25T06:18:43Z</time></trkpt><trkpt lat="45.02452860279601" lon="8.57085922795052"><ele>111.0</ele><time>2026-04-25T06:18:45Z</time></trkpt><trkpt lat="45.0245934115778" lon="8.570895552922886"><ele>111.0</ele><time>2026-04-25T06:18:46Z</time></trkpt><trkpt lat="45.024698379812705" lon="8.570926130377407"><ele>111.0</ele><time>2026-04-25T06:18:48Z</time></trkpt><trkpt lat="45.02476558509249" lon="8.570943512764806"><ele>111.0</ele><time>2026-04-25T06:18:49Z</time></trkpt><trkpt lat="45.024863361007405" lon="8.570982397714662"><ele>111.0</ele><time>2026-04-25T06:18:50Z</time></trkpt><trkpt lat="45.02493309572248" lon="8.570992403067368"><ele>111.0</ele><time>2026-04-25T06:18:51Z</time></trkpt><trkpt lat="45.02502507984924" lon="8.571018819592874"><ele>111.4</ele><time>2026-04-25T06:18:53Z</time></trkpt><trkpt lat="45.02509172760616" lon="8.571032775208275"><ele>111.8</ele><time>2026-04-25T06:18:54Z</time></trkpt><trkpt lat="45.025187942256736" lon="8.571040701233773"><ele>112.20000000000002</ele><time>2026-04-25T06:18:56Z</time></trkpt><trkpt lat="45.02528848332525" lon="8.571051117801344"><ele>112.60000000000001</ele><time>2026-04-25T06:18:59Z</time></trkpt><trkpt lat="45.025378475225324" lon="8.571050244453335"><ele>113.0</ele><time>2026-04-25T06:19:01Z</time></trkpt><trkpt lat="45.02548876179588" lon="8.571073602211737"><ele>112.99999999999999</ele><time>2026-04-25T06:19:03Z</time></trkpt><trkpt lat="45.025606175776375" lon="8.57110834234197"><ele>113.0</ele><time>2026-04-25T06:19:05Z</time></trkpt><trkpt lat="45.02567192192727" lon="8.571100525261786"><ele>113.0</ele><time>2026-04-25T06:19:06Z</time></trkpt><trkpt lat="45.025739946315916" lon="8.571090463018221"><ele>113.0</ele><time>2026-04-25T06:19:07Z</time></trkpt><trkpt lat="45.025831682000586" lon="8.571073102628997"><ele>112.99999999999999</ele><time>2026-04-25T06:19:08.999Z</time></trkpt><trkpt lat="45.02589620621177" lon="8.571070178388778"><ele>113.0</ele><time>2026-04-25T06:19:09.999Z</time></trkpt><trkpt lat="45.02596939271315" lon="8.571066891985806"><ele>112.66666666666666</ele><time>2026-04-25T06:19:11.999Z</time></trkpt><trkpt lat="45.026078343725295" lon="8.571061209488663"><ele>112.33333333333333</ele><time>2026-04-25T06:19:13.999Z</time></trkpt><trkpt lat="45.02616804206056" lon="8.571061769664368"><ele>112.0</ele><time>2026-04-25T06:19:15.999Z</time></trkpt><trkpt lat="45.02625879704558" lon="8.571085267680845"><ele>111.66666666666666</ele><time>2026-04-25T06:19:18.999Z</time></trkpt><trkpt lat="45.02633903814559" lon="8.571091559077418"><ele>111.33333333333333</ele><time>2026-04-25T06:19:20.999Z</time></trkpt><trkpt lat="45.026403470358865" lon="8.57109888237508"><ele>111.0</ele><time>2026-04-25T06:19:22.999Z</time></trkpt><trkpt lat="45.02648341881615" lon="8.571108550590285"><ele>111.0</ele><time>2026-04-25T06:19:24.999Z</time></trkpt><trkpt lat="45.026567641052125" lon="8.57112510310647"><ele>111.0</ele><time>2026-04-25T06:19:26.999Z</time></trkpt><trkpt lat="45.02664763984117" lon="8.571137795792687"><ele>111.0</ele><time>2026-04-25T06:19:28.999Z</time></trkpt><trkpt lat="45.026727416205276" lon="8.571156572705242"><ele>111.0</ele><time>2026-04-25T06:19:30.999Z</time></trkpt><trkpt lat="45.02681361288353" lon="8.571173309356187"><ele>111.0</ele><time>2026-04-25T06:19:32.999Z</time></trkpt><trkpt lat="45.026879569607054" lon="8.571197650011145"><ele>111.0</ele><time>2026-04-25T06:19:34.999Z</time></trkpt><trkpt lat="45.02698405281839" lon="8.571220547171732"><ele>111.4</ele><time>2026-04-25T06:19:36.999Z</time></trkpt><trkpt lat="45.02704899592864" lon="8.571219761452953"><ele>111.8</ele><time>2026-04-25T06:19:37.999Z</time></trkpt><trkpt lat="45.02717152592997" lon="8.571239158709881"><ele>112.20000000000002</ele><time>2026-04-25T06:19:39.999Z</time></trkpt><trkpt lat="45.027271436050675" lon="8.571261299900684"><ele>112.60000000000001</ele><time>2026-04-25T06:19:41.999Z</time></trkpt><trkpt lat="45.027390874233895" lon="8.571277135605847"><ele>113.0</ele><time>2026-04-25T06:19:43.999Z</time></trkpt><trkpt lat="45.027499868460026" lon="8.57129701027907"><ele>112.0</ele><time>2026-04-25T06:19:45.999Z</time></trkpt><trkpt lat="45.02757368568492" lon="8.571311331223022"><ele>111.00000000000001</ele><time>2026-04-25T06:19:46.999Z</time></trkpt><trkpt lat="45.02769267777392" lon="8.571349646808502"><ele>110.00000000000001</ele><time>2026-04-25T06:19:48.999Z</time></trkpt><trkpt lat="45.02778888507018" lon="8.571394871401289"><ele>109.0</ele><time>2026-04-25T06:19:50.999Z</time></trkpt><trkpt lat="45.027891248766934" lon="8.571459435652443"><ele>108.0</ele><time>2026-04-25T06:19:52.999Z</time></trkpt><trkpt lat="45.02799850491843" lon="8.57152901349554"><ele>108.0</ele><time>2026-04-25T06:19:54.999Z</time></trkpt><trkpt lat="45.02808328509374" lon="8.571611804867247"><ele>108.0</ele><time>2026-04-25T06:19:56.999Z</time></trkpt><trkpt lat="45.028177554041115" lon="8.571716800790487"><ele>108.0</ele><time>2026-04-25T06:19:58.999Z</time></trkpt><trkpt lat="45.02827405734088" lon="8.5718275682729"><ele>108.0</ele><time>2026-04-25T06:20:01Z</time></trkpt><trkpt lat="45.02835386663605" lon="8.57193261111895"><ele>108.0</ele><time>2026-04-25T06:20:03Z</time></trkpt><trkpt lat="45.02841230317571" lon="8.571991834528198"><ele>108.0</ele><time>2026-04-25T06:20:04Z</time></trkpt><trkpt lat="45.02847759389417" lon="8.572082042737552"><ele>108.0</ele><time>2026-04-25T06:20:05Z</time></trkpt><trkpt lat="45.02853674396908" lon="8.572151477062743"><ele>108.0</ele><time>2026-04-25T06:20:06Z</time></trkpt><trkpt lat="45.02858283720249" lon="8.57221367864436"><ele>108.0</ele><time>2026-04-25T06:20:07Z</time></trkpt><trkpt lat="45.02865918478188" lon="8.572291473149468"><ele>108.0</ele><time>2026-04-25T06:20:09Z</time></trkpt><trkpt lat="45.02875074388061" lon="8.572330562556996"><ele>108.0</ele><time>2026-04-25T06:20:11Z</time></trkpt><trkpt lat="45.028865046018105" lon="8.572319646780684"><ele>108.0</ele><time>2026-04-25T06:20:13Z</time></trkpt><trkpt lat="45.02892184015302" lon="8.572272990516657"><ele>108.0</ele><time>2026-04-25T06:20:14Z</time></trkpt><trkpt lat="45.02896853062379" lon="8.572212818910087"><ele>108.0</ele><time>2026-04-25T06:20:15Z</time></trkpt><trkpt lat="45.02901691628702" lon="8.572139528872402"><ele>108.0</ele><time>2026-04-25T06:20:16Z</time></trkpt><trkpt lat="45.029089347579585" lon="8.572032220832305"><ele>108.0</ele><time>2026-04-25T06:20:18Z</time></trkpt><trkpt lat="45.02917698101309" lon="8.57191253984749"><ele>107.60000000000001</ele><time>2026-04-25T06:20:20Z</time></trkpt><trkpt lat="45.02925082001374" lon="8.571820377322615"><ele>107.20000000000002</ele><time>2026-04-25T06:20:22Z</time></trkpt><trkpt lat="45.029339750460935" lon="8.571734486601056"><ele>106.8</ele><time>2026-04-25T06:20:24Z</time></trkpt><trkpt lat="45.02942387973505" lon="8.57171514953638"><ele>106.4</ele><time>2026-04-25T06:20:26Z</time></trkpt><trkpt lat="45.02949572298318" lon="8.571797095159289"><ele>106.0</ele><time>2026-04-25T06:20:28Z</time></trkpt><trkpt lat="45.029534202997674" lon="8.571876966863853"><ele>106.0</ele><time>2026-04-25T06:20:29Z</time></trkpt><trkpt lat="45.029593034845185" lon="8.571983190791743"><ele>106.0</ele><time>2026-04-25T06:20:31Z</time></trkpt><trkpt lat="45.02966424908057" lon="8.572098661626782"><ele>106.0</ele><time>2026-04-25T06:20:33Z</time></trkpt><trkpt lat="45.02972587069876" lon="8.572227813067403"><ele>106.0</ele><time>2026-04-25T06:20:35Z</time></trkpt><trkpt lat="45.02980316326953" lon="8.57235031837187"><ele>106.0</ele><time>2026-04-25T06:20:37Z</time></trkpt><trkpt lat="45.0298498002974" lon="8.572415186488577"><ele>106.0</ele><time>2026-04-25T06:20:38Z</time></trkpt><trkpt lat="45.02992850245654" lon="8.57249127816668"><ele>106.0</ele><time>2026-04-25T06:20:40Z</time></trkpt><trkpt lat="45.030040066019936" lon="8.57256361346527"><ele>106.0</ele><time>2026-04-25T06:20:42Z</time></trkpt><trkpt lat="45.03014751374956" lon="8.572611955693713"><ele>106.0</ele><time>2026-04-25T06:20:44Z</time></trkpt><trkpt lat="45.03022377468621" lon="8.572649221000052"><ele>106.0</ele><time>2026-04-25T06:20:46Z</time></trkpt><trkpt lat="45.03027897234266" lon="8.57254447856831"><ele>106.00000000000001</ele><time>2026-04-25T06:20:49Z</time></trkpt><trkpt lat="45.03028428828616" lon="8.572385440057195"><ele>106.0</ele><time>2026-04-25T06:20:51Z</time></trkpt><trkpt lat="45.03029965612889" lon="8.57228834207714"><ele>106.0</ele><time>2026-04-25T06:20:52Z</time></trkpt><trkpt lat="45.030315581838764" lon="8.572201439921496"><ele>106.0</ele><time>2026-04-25T06:20:53Z</time></trkpt><trkpt lat="45.030342007441746" lon="8.572109702511835"><ele>106.00000000000001</ele><time>2026-04-25T06:20:54Z</time></trkpt><trkpt lat="45.03035670541563" lon="8.571999529645277"><ele>106.0</ele><time>2026-04-25T06:20:56Z</time></trkpt><trkpt lat="45.03037744382673" lon="8.571914190641513"><ele>105.8</ele><time>2026-04-25T06:20:57Z</time></trkpt><trkpt lat="45.030401274138725" lon="8.571744504558515"><ele>105.6</ele><time>2026-04-25T06:20:59Z</time></trkpt><trkpt lat="45.03041068407489" lon="8.571651911817504"><ele>105.4</ele><time>2026-04-25T06:21:00Z</time></trkpt><trkpt lat="45.030435532239316" lon="8.571530049678934"><ele>105.2</ele><time>2026-04-25T06:21:01Z</time></trkpt><trkpt lat="45.030469579035476" lon="8.571394459244098"><ele>105.0</ele><time>2026-04-25T06:21:03Z</time></trkpt><trkpt lat="45.030557956497944" lon="8.571347608495142"><ele>105.0</ele><time>2026-04-25T06:21:05Z</time></trkpt><trkpt lat="45.030662531872984" lon="8.57138523292175"><ele>105.0</ele><time>2026-04-25T06:21:07Z</time></trkpt><trkpt lat="45.03071460820539" lon="8.571319269126507"><ele>105.0</ele><time>2026-04-25T06:21:08.999Z</time></trkpt><trkpt lat="45.03073970631502" lon="8.571186991007547"><ele>105.0</ele><time>2026-04-25T06:21:10.999Z</time></trkpt><trkpt lat="45.03077249628794" lon="8.571050874535121"><ele>105.0</ele><time>2026-04-25T06:21:12.999Z</time></trkpt><trkpt lat="45.030804713777066" lon="8.57090726455417"><ele>105.0</ele><time>2026-04-25T06:21:14.999Z</time></trkpt><trkpt lat="45.03084768745425" lon="8.570740803665934"><ele>105.0</ele><time>2026-04-25T06:21:16.999Z</time></trkpt><trkpt lat="45.03088168211334" lon="8.57062651247878"><ele>105.0</ele><time>2026-04-25T06:21:17.999Z</time></trkpt><trkpt lat="45.030922648618215" lon="8.570484841274672"><ele>105.0</ele><time>2026-04-25T06:21:19.999Z</time></trkpt><trkpt lat="45.030963195274325" lon="8.570334851298899"><ele>105.0</ele><time>2026-04-25T06:21:21.999Z</time></trkpt><trkpt lat="45.03098392756295" lon="8.570237560037182"><ele>105.0</ele><time>2026-04-25T06:21:22.999Z</time></trkpt><trkpt lat="45.03101498335378" lon="8.570112248536223"><ele>105.0</ele><time>2026-04-25T06:21:23.999Z</time></trkpt><trkpt lat="45.03104961296675" lon="8.569931984636504"><ele>105.0</ele><time>2026-04-25T06:21:25.999Z</time></trkpt><trkpt lat="45.03107530929783" lon="8.569844133012362"><ele>105.0</ele><time>2026-04-25T06:21:26.999Z</time></trkpt><trkpt lat="45.03112439714558" lon="8.569667786599465"><ele>105.0</ele><time>2026-04-25T06:21:28.999Z</time></trkpt><trkpt lat="45.03116000706895" lon="8.569545867642141"><ele>105.16666666666667</ele><time>2026-04-25T06:21:29.999Z</time></trkpt><trkpt lat="45.03118739396105" lon="8.569437020237197"><ele>105.33333333333334</ele><time>2026-04-25T06:21:30.999Z</time></trkpt><trkpt lat="45.031218513577706" lon="8.569327195350729"><ele>105.5</ele><time>2026-04-25T06:21:31.999Z</time></trkpt><trkpt lat="45.031242683655" lon="8.56922089815036"><ele>105.66666666666667</ele><time>2026-04-25T06:21:32.999Z</time></trkpt><trkpt lat="45.03126331063645" lon="8.56911365621205"><ele>105.83333333333334</ele><time>2026-04-25T06:21:33.999Z</time></trkpt><trkpt lat="45.03128973805227" lon="8.5690061050077"><ele>106.0</ele><time>2026-04-25T06:21:34.999Z</time></trkpt><trkpt lat="45.031322673250784" lon="8.568899311615858"><ele>106.0</ele><time>2026-04-25T06:21:35.999Z</time></trkpt><trkpt lat="45.031348418924274" lon="8.56880189532904"><ele>106.0</ele><time>2026-04-25T06:21:36.999Z</time></trkpt><trkpt lat="45.031392923742935" lon="8.568615684178953"><ele>106.0</ele><time>2026-04-25T06:21:38.999Z</time></trkpt><trkpt lat="45.03141990595071" lon="8.5685147954641"><ele>106.0</ele><time>2026-04-25T06:21:39.999Z</time></trkpt><trkpt lat="45.03145061674824" lon="8.56840935813418"><ele>106.0</ele><time>2026-04-25T06:21:40.999Z</time></trkpt><trkpt lat="45.031482123170676" lon="8.568289559599298"><ele>106.00000000000001</ele><time>2026-04-25T06:21:41.999Z</time></trkpt><trkpt lat="45.03149466289193" lon="8.568183090063497"><ele>106.0</ele><time>2026-04-25T06:21:42.999Z</time></trkpt><trkpt lat="45.03152360801715" lon="8.568071766826911"><ele>106.0</ele><time>2026-04-25T06:21:43.999Z</time></trkpt><trkpt lat="45.03155144577661" lon="8.567975244440786"><ele>106.0</ele><time>2026-04-25T06:21:44.999Z</time></trkpt><trkpt lat="45.03158127971505" lon="8.567858109861506"><ele>106.00000000000001</ele><time>2026-04-25T06:21:45.999Z</time></trkpt><trkpt lat="45.03160885056189" lon="8.56771289813208"><ele>106.0</ele><time>2026-04-25T06:21:47.999Z</time></trkpt><trkpt lat="45.03164050129228" lon="8.567509928634419"><ele>106.0</ele><time>2026-04-25T06:21:49.999Z</time></trkpt><trkpt lat="45.03166657213089" lon="8.567417103785427"><ele>106.0</ele><time>2026-04-25T06:21:50.999Z</time></trkpt><trkpt lat="45.03171302728705" lon="8.567259553381033"><ele>106.0</ele><time>2026-04-25T06:21:52.999Z</time></trkpt><trkpt lat="45.03173187449119" lon="8.56716540708231"><ele>106.0</ele><time>2026-04-25T06:21:53.999Z</time></trkpt><trkpt lat="45.03177790679714" lon="8.567003427858578"><ele>106.0</ele><time>2026-04-25T06:21:55.999Z</time></trkpt><trkpt lat="45.03180180657418" lon="8.566907111922578"><ele>106.16666666666667</ele><time>2026-04-25T06:21:56.999Z</time></trkpt><trkpt lat="45.0318327561059" lon="8.566787448783648"><ele>106.33333333333334</ele><time>2026-04-25T06:21:57.999Z</time></trkpt><trkpt lat="45.03185545984644" lon="8.566693321290638"><ele>106.5</ele><time>2026-04-25T06:21:58.999Z</time></trkpt><trkpt lat="45.031876364862434" lon="8.566591335889225"><ele>106.66666666666666</ele><time>2026-04-25T06:21:59.999Z</time></trkpt><trkpt lat="45.03190937264844" lon="8.566471829160461"><ele>106.83333333333333</ele><time>2026-04-25T06:22:00.999Z</time></trkpt><trkpt lat="45.03193186938443" lon="8.566373220581577"><ele>107.0</ele><time>2026-04-25T06:22:01.999Z</time></trkpt><trkpt lat="45.031966609253594" lon="8.56629454344228"><ele>106.83333333333333</ele><time>2026-04-25T06:22:02.999Z</time></trkpt><trkpt lat="45.032003288404496" lon="8.566168932144132"><ele>106.66666666666666</ele><time>2026-04-25T06:22:04.999Z</time></trkpt><trkpt lat="45.032041314461495" lon="8.566064758621623"><ele>106.5</ele><time>2026-04-25T06:22:07Z</time></trkpt><trkpt lat="45.03206131341353" lon="8.565976102015139"><ele>106.33333333333334</ele><time>2026-04-25T06:22:08Z</time></trkpt><trkpt lat="45.032085705408015" lon="8.565838562536365"><ele>106.16666666666667</ele><time>2026-04-25T06:22:10Z</time></trkpt><trkpt lat="45.032119397096885" lon="8.56574446656597"><ele>106.0</ele><time>2026-04-25T06:22:13Z</time></trkpt><trkpt lat="45.03219281837384" lon="8.565733230947663"><ele>106.00000000000001</ele><time>2026-04-25T06:22:15Z</time></trkpt><trkpt lat="45.03225548986194" lon="8.565773365204626"><ele>106.0</ele><time>2026-04-25T06:22:16Z</time></trkpt><trkpt lat="45.03232955429242" lon="8.56581397315309"><ele>106.0</ele><time>2026-04-25T06:22:17Z</time></trkpt><trkpt lat="45.03241237729294" lon="8.56585607165425"><ele>106.0</ele><time>2026-04-25T06:22:18Z</time></trkpt><trkpt lat="45.0325118635561" lon="8.565897057178145"><ele>106.00000000000001</ele><time>2026-04-25T06:22:19Z</time></trkpt><trkpt lat="45.03261487457286" lon="8.565942501936146"><ele>106.0</ele><time>2026-04-25T06:22:20Z</time></trkpt><trkpt lat="45.03270279167473" lon="8.565989736978542"><ele>106.0</ele><time>2026-04-25T06:22:21Z</time></trkpt><trkpt lat="45.032798395126946" lon="8.566037357614968"><ele>106.0</ele><time>2026-04-25T06:22:22Z</time></trkpt><trkpt lat="45.032914996158276" lon="8.566096208184192"><ele>106.0</ele><time>2026-04-25T06:22:23Z</time></trkpt><trkpt lat="45.03304427035788" lon="8.566148002174327"><ele>106.0</ele><time>2026-04-25T06:22:24Z</time></trkpt><trkpt lat="45.033184688292465" lon="8.566214951990874"><ele>105.66666666666667</ele><time>2026-04-25T06:22:25Z</time></trkpt><trkpt lat="45.03332808266706" lon="8.566286175645322"><ele>105.33333333333334</ele><time>2026-04-25T06:22:26Z</time></trkpt><trkpt lat="45.033481951632496" lon="8.56636571708692"><ele>105.0</ele><time>2026-04-25T06:22:27Z</time></trkpt><trkpt lat="45.03364004624712" lon="8.56644189689372"><ele>105.0</ele><time>2026-04-25T06:22:28Z</time></trkpt><trkpt lat="45.03379396112469" lon="8.566506402418817"><ele>105.0</ele><time>2026-04-25T06:22:29Z</time></trkpt><trkpt lat="45.033953258347516" lon="8.566570778361976"><ele>105.0</ele><time>2026-04-25T06:22:30Z</time></trkpt><trkpt lat="45.03411361517183" lon="8.566653070861102"><ele>105.25</ele><time>2026-04-25T06:22:31Z</time></trkpt><trkpt lat="45.03425472413188" lon="8.566734401442384"><ele>105.5</ele><time>2026-04-25T06:22:32Z</time></trkpt><trkpt lat="45.03436694914752" lon="8.566761926469258"><ele>105.75</ele><time>2026-04-25T06:22:33Z</time></trkpt><trkpt lat="45.03448829822052" lon="8.566822483305165"><ele>106.0</ele><time>2026-04-25T06:22:34Z</time></trkpt><trkpt lat="45.034621935021" lon="8.566877918352068"><ele>106.0</ele><time>2026-04-25T06:22:35Z</time></trkpt><trkpt lat="45.03476894360283" lon="8.566931027818681"><ele>106.0</ele><time>2026-04-25T06:22:36Z</time></trkpt><trkpt lat="45.03491169938979" lon="8.566965107613138"><ele>106.0</ele><time>2026-04-25T06:22:37Z</time></trkpt><trkpt lat="45.035038210490136" lon="8.56700630689919"><ele>106.0</ele><time>2026-04-25T06:22:38Z</time></trkpt><trkpt lat="45.035156615339375" lon="8.567033904707067"><ele>107.19999999999999</ele><time>2026-04-25T06:22:39Z</time></trkpt><trkpt lat="45.03527810134556" lon="8.567076903908415"><ele>108.39999999999999</ele><time>2026-04-25T06:22:40Z</time></trkpt><trkpt lat="45.03538444617174" lon="8.56711790824114"><ele>109.6</ele><time>2026-04-25T06:22:41Z</time></trkpt><trkpt lat="45.0354761557745" lon="8.567148123743088"><ele>110.8</ele><time>2026-04-25T06:22:42Z</time></trkpt><trkpt lat="45.03556210775664" lon="8.567174625362288"><ele>112.0</ele><time>2026-04-25T06:22:43Z</time></trkpt><trkpt lat="45.03563347094598" lon="8.567190726590136"><ele>112.00000000000001</ele><time>2026-04-25T06:22:44Z</time></trkpt><trkpt lat="45.03569505633843" lon="8.56721488548304"><ele>112.0</ele><time>2026-04-25T06:22:45Z</time></trkpt><trkpt lat="45.035794463960386" lon="8.567247502852856"><ele>112.0</ele><time>2026-04-25T06:22:47Z</time></trkpt><trkpt lat="45.03587114468716" lon="8.567263331421557"><ele>112.0</ele><time>2026-04-25T06:22:49Z</time></trkpt><trkpt lat="45.03594062373651" lon="8.567269700020315"><ele>112.00000000000001</ele><time>2026-04-25T06:22:52Z</time></trkpt><trkpt lat="45.03603728950016" lon="8.567260169683687"><ele>112.0</ele><time>2026-04-25T06:23:13Z</time></trkpt><trkpt lat="45.03611012347295" lon="8.567264966237333"><ele>112.25</ele><time>2026-04-25T06:23:15Z</time></trkpt><trkpt lat="45.03613912703983" lon="8.566936584866822"><ele>112.5</ele><time>2026-04-25T06:23:17.999Z</time></trkpt><trkpt lat="45.03611659594001" lon="8.566796505311315"><ele>112.75</ele><time>2026-04-25T06:23:18.999Z</time></trkpt><trkpt lat="45.03610338185581" lon="8.566647181895403"><ele>113.0</ele><time>2026-04-25T06:23:19.999Z</time></trkpt><trkpt lat="45.03609849323558" lon="8.56648101738315"><ele>113.0</ele><time>2026-04-25T06:23:20.999Z</time></trkpt><trkpt lat="45.036089689455" lon="8.566307274952198"><ele>113.0</ele><time>2026-04-25T06:23:21.999Z</time></trkpt><trkpt lat="45.03607813802518" lon="8.566122540075252"><ele>113.0</ele><time>2026-04-25T06:23:22.999Z</time></trkpt><trkpt lat="45.03606729115781" lon="8.565931997577549"><ele>113.0</ele><time>2026-04-25T06:23:23.999Z</time></trkpt><trkpt lat="45.03605987930346" lon="8.565741475844906"><ele>113.0</ele><time>2026-04-25T06:23:24.999Z</time></trkpt><trkpt lat="45.03604876452451" lon="8.565545521348806"><ele>113.0</ele><time>2026-04-25T06:23:25.999Z</time></trkpt><trkpt lat="45.03603873105147" lon="8.565338042188838"><ele>113.0</ele><time>2026-04-25T06:23:26.999Z</time></trkpt><trkpt lat="45.03602674447631" lon="8.565130944644366"><ele>113.0</ele><time>2026-04-25T06:23:27.999Z</time></trkpt><trkpt lat="45.03602053932351" lon="8.56492355824878"><ele>113.0</ele><time>2026-04-25T06:23:28.999Z</time></trkpt><trkpt lat="45.036009890126394" lon="8.564752652574416"><ele>113.00000000000001</ele><time>2026-04-25T06:23:29.999Z</time></trkpt><trkpt lat="45.036005607886224" lon="8.564602929668665"><ele>113.00000000000001</ele><time>2026-04-25T06:23:30.999Z</time></trkpt><trkpt lat="45.0359943284307" lon="8.56446268023735"><ele>113.0</ele><time>2026-04-25T06:23:31.999Z</time></trkpt><trkpt lat="45.03598805201405" lon="8.564339172236679"><ele>113.0</ele><time>2026-04-25T06:23:32.999Z</time></trkpt><trkpt lat="45.03598736780489" lon="8.564217656976341"><ele>112.99999999999999</ele><time>2026-04-25T06:23:33.999Z</time></trkpt><trkpt lat="45.03597724400067" lon="8.564118719799897"><ele>113.0</ele><time>2026-04-25T06:23:34.999Z</time></trkpt><trkpt lat="45.0359738883872" lon="8.564026702354647"><ele>113.0</ele><time>2026-04-25T06:23:35.999Z</time></trkpt><trkpt lat="45.03599837282384" lon="8.56391128153163"><ele>113.0</ele><time>2026-04-25T06:23:37.999Z</time></trkpt><trkpt lat="45.03612424643311" lon="8.5639923680819"><ele>112.99999999999999</ele><time>2026-04-25T06:23:41.999Z</time></trkpt><trkpt lat="45.03616956209177" lon="8.564071536552309"><ele>113.0</ele><time>2026-04-25T06:23:42.999Z</time></trkpt><trkpt lat="45.03623831631187" lon="8.56416277719545"><ele>113.0</ele><time>2026-04-25T06:23:43.999Z</time></trkpt><trkpt lat="45.03629325301502" lon="8.564265945639725"><ele>113.00000000000001</ele><time>2026-04-25T06:23:44.999Z</time></trkpt><trkpt lat="45.036355886374466" lon="8.564350711810782"><ele>113.00000000000001</ele><time>2026-04-25T06:23:45.999Z</time></trkpt><trkpt lat="45.0364297726084" lon="8.564443961250001"><ele>113.0</ele><time>2026-04-25T06:23:46.999Z</time></trkpt><trkpt lat="45.03650373729038" lon="8.564541623065526"><ele>113.0</ele><time>2026-04-25T06:23:47.999Z</time></trkpt><trkpt lat="45.03658186838763" lon="8.56464608828464"><ele>112.25</ele><time>2026-04-25T06:23:48.999Z</time></trkpt><trkpt lat="45.0366732274077" lon="8.564749415686773"><ele>111.5</ele><time>2026-04-25T06:23:49.999Z</time></trkpt><trkpt lat="45.036763504794166" lon="8.564861658351061"><ele>110.75</ele><time>2026-04-25T06:23:50.999Z</time></trkpt><trkpt lat="45.03685278109193" lon="8.564976094336341"><ele>110.0</ele><time>2026-04-25T06:23:51.999Z</time></trkpt><trkpt lat="45.03693763926782" lon="8.565078370404022"><ele>109.99999999999999</ele><time>2026-04-25T06:23:52.999Z</time></trkpt><trkpt lat="45.036996413630675" lon="8.56519000344965"><ele>110.0</ele><time>2026-04-25T06:23:53.999Z</time></trkpt><trkpt lat="45.037053592641705" lon="8.565274124512081"><ele>110.0</ele><time>2026-04-25T06:23:54.999Z</time></trkpt><trkpt lat="45.0371103933286" lon="8.565353363904169"><ele>110.0</ele><time>2026-04-25T06:23:55.999Z</time></trkpt><trkpt lat="45.037167812047215" lon="8.565445310738466"><ele>109.99999999999999</ele><time>2026-04-25T06:23:56.999Z</time></trkpt><trkpt lat="45.03723051997335" lon="8.56554534106992"><ele>110.0</ele><time>2026-04-25T06:23:57.999Z</time></trkpt><trkpt lat="45.03729819641577" lon="8.565661921882947"><ele>109.8</ele><time>2026-04-25T06:23:58.999Z</time></trkpt><trkpt lat="45.03736592366543" lon="8.565793038292721"><ele>109.6</ele><time>2026-04-25T06:23:59.999Z</time></trkpt><trkpt lat="45.037428860087374" lon="8.565923382627117"><ele>109.4</ele><time>2026-04-25T06:24:00.999Z</time></trkpt><trkpt lat="45.03748217948869" lon="8.566038953462192"><ele>109.2</ele><time>2026-04-25T06:24:01.999Z</time></trkpt><trkpt lat="45.03751878783083" lon="8.56613930818449"><ele>109.0</ele><time>2026-04-25T06:24:02.999Z</time></trkpt><trkpt lat="45.037564516795584" lon="8.566244463122853"><ele>109.33333333333334</ele><time>2026-04-25T06:24:03.999Z</time></trkpt><trkpt lat="45.03763083780841" lon="8.566380197248504"><ele>109.66666666666667</ele><time>2026-04-25T06:24:04.999Z</time></trkpt><trkpt lat="45.03767849919018" lon="8.56650858514012"><ele>110.0</ele><time>2026-04-25T06:24:05.999Z</time></trkpt><trkpt lat="45.0377174589051" lon="8.56659412600534"><ele>110.33333333333334</ele><time>2026-04-25T06:24:06.999Z</time></trkpt><trkpt lat="45.03774770934234" lon="8.56669425998033"><ele>110.66666666666667</ele><time>2026-04-25T06:24:07.999Z</time></trkpt><trkpt lat="45.0377908988759" lon="8.566763802493742"><ele>111.0</ele><time>2026-04-25T06:24:08.999Z</time></trkpt><trkpt lat="45.03782319733136" lon="8.566871594790806"><ele>111.0</ele><time>2026-04-25T06:24:10.999Z</time></trkpt><trkpt lat="45.03782592115681" lon="8.566963311115751"><ele>111.0</ele><time>2026-04-25T06:24:14Z</time></trkpt><trkpt lat="45.03780153776021" lon="8.566857359292015"><ele>111.0</ele><time>2026-04-25T06:24:18Z</time></trkpt><trkpt lat="45.037723590057" lon="8.566847213692501"><ele>111.0</ele><time>2026-04-25T06:24:19Z</time></trkpt><trkpt lat="45.03765632641404" lon="8.566816402284726"><ele>111.0</ele><time>2026-04-25T06:24:20Z</time></trkpt><trkpt lat="45.037594891496376" lon="8.56627857319013"><ele>111.19999999999999</ele><time>2026-04-25T06:24:22Z</time></trkpt><trkpt lat="45.03753342848222" lon="8.566149328644904"><ele>111.39999999999999</ele><time>2026-04-25T06:24:23Z</time></trkpt><trkpt lat="45.03747175961652" lon="8.566024191916753"><ele>111.6</ele><time>2026-04-25T06:24:24Z</time></trkpt><trkpt lat="45.03741532262643" lon="8.565893124991726"><ele>111.8</ele><time>2026-04-25T06:24:25Z</time></trkpt><trkpt lat="45.0373521067335" lon="8.56575735605244"><ele>112.0</ele><time>2026-04-25T06:24:26Z</time></trkpt><trkpt lat="45.037274573578955" lon="8.565626102617811"><ele>112.0</ele><time>2026-04-25T06:24:27Z</time></trkpt><trkpt lat="45.03720172611505" lon="8.565507974314336"><ele>111.99999999999999</ele><time>2026-04-25T06:24:28Z</time></trkpt><trkpt lat="45.03713842217182" lon="8.565395249366965"><ele>111.99999999999999</ele><time>2026-04-25T06:24:29Z</time></trkpt><trkpt lat="45.03707785258622" lon="8.565291762639205"><ele>112.0</ele><time>2026-04-25T06:24:30Z</time></trkpt><trkpt lat="45.03701714767946" lon="8.565183547039782"><ele>112.0</ele><time>2026-04-25T06:24:31Z</time></trkpt><trkpt lat="45.036937549325295" lon="8.565067334034639"><ele>112.25</ele><time>2026-04-25T06:24:32Z</time></trkpt><trkpt lat="45.036850666978694" lon="8.564961302974538"><ele>112.5</ele><time>2026-04-25T06:24:33Z</time></trkpt><trkpt lat="45.036770062323114" lon="8.564875313426764"><ele>112.75</ele><time>2026-04-25T06:24:34Z</time></trkpt><trkpt lat="45.03667853277108" lon="8.564773851196302"><ele>113.0</ele><time>2026-04-25T06:24:35Z</time></trkpt><trkpt lat="45.03657577741444" lon="8.564642006273015"><ele>113.0</ele><time>2026-04-25T06:24:36Z</time></trkpt><trkpt lat="45.03646610634601" lon="8.564486045350023"><ele>113.0</ele><time>2026-04-25T06:24:37Z</time></trkpt><trkpt lat="45.03637088206478" lon="8.564354616752677"><ele>113.0</ele><time>2026-04-25T06:24:38Z</time></trkpt><trkpt lat="45.03630206480945" lon="8.56425724836324"><ele>113.0</ele><time>2026-04-25T06:24:39Z</time></trkpt><trkpt lat="45.03623811521167" lon="8.56416164465113"><ele>112.99999999999999</ele><time>2026-04-25T06:24:40Z</time></trkpt><trkpt lat="45.0361937227142" lon="8.564087146108623"><ele>113.0</ele><time>2026-04-25T06:24:41Z</time></trkpt><trkpt lat="45.036153744194785" lon="8.564005915397617"><ele>113.0</ele><time>2026-04-25T06:24:42Z</time></trkpt><trkpt lat="45.03611151395449" lon="8.56389040732229"><ele>113.0</ele><time>2026-04-25T06:24:43Z</time></trkpt><trkpt lat="45.03606332226601" lon="8.563797281486778"><ele>112.99999999999999</ele><time>2026-04-25T06:24:44Z</time></trkpt><trkpt lat="45.03600396231174" lon="8.563736551023847"><ele>113.0</ele><time>2026-04-25T06:24:45Z</time></trkpt><trkpt lat="45.03593132512226" lon="8.563588426582882"><ele>112.75</ele><time>2026-04-25T06:24:47Z</time></trkpt><trkpt lat="45.03589968292714" lon="8.563480388912177"><ele>112.5</ele><time>2026-04-25T06:24:48Z</time></trkpt><trkpt lat="45.035876433060366" lon="8.563326824156626"><ele>112.25</ele><time>2026-04-25T06:24:49Z</time></trkpt><trkpt lat="45.035847501220225" lon="8.56315334250831"><ele>112.0</ele><time>2026-04-25T06:24:50Z</time></trkpt><trkpt lat="45.035809277696444" lon="8.56296856656759"><ele>111.25</ele><time>2026-04-25T06:24:51Z</time></trkpt><trkpt lat="45.0357649969942" lon="8.562755711093116"><ele>110.5</ele><time>2026-04-25T06:24:52Z</time></trkpt><trkpt lat="45.03573167833931" lon="8.562556358160702"><ele>109.75</ele><time>2026-04-25T06:24:53Z</time></trkpt><trkpt lat="45.03569460912239" lon="8.562356643946249"><ele>109.0</ele><time>2026-04-25T06:24:54Z</time></trkpt><trkpt lat="45.03567656499803" lon="8.562119171812157"><ele>109.0</ele><time>2026-04-25T06:24:55Z</time></trkpt><trkpt lat="45.03564845526475" lon="8.561899185177866"><ele>109.0</ele><time>2026-04-25T06:24:56Z</time></trkpt><trkpt lat="45.03563099314453" lon="8.561675030128129"><ele>109.0</ele><time>2026-04-25T06:24:57Z</time></trkpt><trkpt lat="45.03562382367974" lon="8.561453639337223"><ele>109.0</ele><time>2026-04-25T06:24:58Z</time></trkpt><trkpt lat="45.03561650700034" lon="8.561208668124118"><ele>109.0</ele><time>2026-04-25T06:24:59Z</time></trkpt><trkpt lat="45.035599715802" lon="8.560980208435176"><ele>109.0</ele><time>2026-04-25T06:25:00Z</time></trkpt><trkpt lat="45.03560430714983" lon="8.560740670974289"><ele>109.0</ele><time>2026-04-25T06:25:01Z</time></trkpt><trkpt lat="45.035627514705766" lon="8.560502601180593"><ele>109.0</ele><time>2026-04-25T06:25:02Z</time></trkpt><trkpt lat="45.0356443503966" lon="8.560263120775303"><ele>109.0</ele><time>2026-04-25T06:25:03Z</time></trkpt><trkpt lat="45.035650116449446" lon="8.560031561098688"><ele>109.33333333333334</ele><time>2026-04-25T06:25:04Z</time></trkpt><trkpt lat="45.035714800528226" lon="8.55981383716596"><ele>109.66666666666666</ele><time>2026-04-25T06:25:05Z</time></trkpt><trkpt lat="45.035754454719374" lon="8.55959409052408"><ele>110.0</ele><time>2026-04-25T06:25:06Z</time></trkpt><trkpt lat="45.03571456077573" lon="8.559357469054598"><ele>110.33333333333333</ele><time>2026-04-25T06:25:07Z</time></trkpt><trkpt lat="45.035718987593235" lon="8.559156418101912"><ele>110.66666666666666</ele><time>2026-04-25T06:25:08Z</time></trkpt><trkpt lat="45.03573017233107" lon="8.558941930850686"><ele>111.0</ele><time>2026-04-25T06:25:09Z</time></trkpt><trkpt lat="45.03573924864123" lon="8.558715486232803"><ele>111.66666666666666</ele><time>2026-04-25T06:25:10Z</time></trkpt><trkpt lat="45.03575741518249" lon="8.558479128905377"><ele>112.33333333333333</ele><time>2026-04-25T06:25:11Z</time></trkpt><trkpt lat="45.03575748680676" lon="8.558239308690048"><ele>113.0</ele><time>2026-04-25T06:25:12Z</time></trkpt><trkpt lat="45.03575054845951" lon="8.557998210520392"><ele>113.0</ele><time>2026-04-25T06:25:13Z</time></trkpt><trkpt lat="45.03572305521783" lon="8.557763911041517"><ele>113.0</ele><time>2026-04-25T06:25:14Z</time></trkpt><trkpt lat="45.03570631022818" lon="8.557525755903718"><ele>113.0</ele><time>2026-04-25T06:25:15Z</time></trkpt><trkpt lat="45.035694904312884" lon="8.557288102383389"><ele>113.0</ele><time>2026-04-25T06:25:16Z</time></trkpt><trkpt lat="45.03568097024398" lon="8.557061428068668"><ele>113.0</ele><time>2026-04-25T06:25:17Z</time></trkpt><trkpt lat="45.03568035494291" lon="8.556858540061597"><ele>113.0</ele><time>2026-04-25T06:25:18Z</time></trkpt><trkpt lat="45.03569098063873" lon="8.556646945480765"><ele>113.0</ele><time>2026-04-25T06:25:19Z</time></trkpt><trkpt lat="45.03571504856732" lon="8.556432892597574"><ele>113.0</ele><time>2026-04-25T06:25:20Z</time></trkpt><trkpt lat="45.03575524486325" lon="8.556221843647672"><ele>113.0</ele><time>2026-04-25T06:25:20.999Z</time></trkpt><trkpt lat="45.03579782811433" lon="8.556010136428538"><ele>113.0</ele><time>2026-04-25T06:25:21.999Z</time></trkpt><trkpt lat="45.035842197542514" lon="8.555797551067881"><ele>113.0</ele><time>2026-04-25T06:25:22.999Z</time></trkpt><trkpt lat="45.03588700400593" lon="8.55558287149405"><ele>113.0</ele><time>2026-04-25T06:25:23.999Z</time></trkpt><trkpt lat="45.03593039126587" lon="8.555369082308836"><ele>113.33333333333333</ele><time>2026-04-25T06:25:24.999Z</time></trkpt><trkpt lat="45.035974330931445" lon="8.555148642375274"><ele>113.66666666666666</ele><time>2026-04-25T06:25:25.999Z</time></trkpt><trkpt lat="45.03602156794272" lon="8.55492840254705"><ele>114.0</ele><time>2026-04-25T06:25:26.999Z</time></trkpt><trkpt lat="45.03607199184604" lon="8.554712876118634"><ele>113.66666666666666</ele><time>2026-04-25T06:25:27.999Z</time></trkpt><trkpt lat="45.03612982979405" lon="8.554491575507326"><ele>113.33333333333333</ele><time>2026-04-25T06:25:28.999Z</time></trkpt><trkpt lat="45.03619287511303" lon="8.554279486107948"><ele>113.0</ele><time>2026-04-25T06:25:29.999Z</time></trkpt><trkpt lat="45.03626305577167" lon="8.554071660466208"><ele>113.0</ele><time>2026-04-25T06:25:30.999Z</time></trkpt><trkpt lat="45.036324550652594" lon="8.553848889641134"><ele>113.0</ele><time>2026-04-25T06:25:31.999Z</time></trkpt><trkpt lat="45.03640646642614" lon="8.55363677735687"><ele>113.0</ele><time>2026-04-25T06:25:32.999Z</time></trkpt><trkpt lat="45.03648854872545" lon="8.553430748222477"><ele>112.66666666666666</ele><time>2026-04-25T06:25:33.999Z</time></trkpt><trkpt lat="45.036581078107126" lon="8.553254577487438"><ele>112.33333333333334</ele><time>2026-04-25T06:25:34.999Z</time></trkpt><trkpt lat="45.036664688554545" lon="8.553062052796909"><ele>112.0</ele><time>2026-04-25T06:25:35.999Z</time></trkpt><trkpt lat="45.03674984218525" lon="8.55286597475725"><ele>113.0</ele><time>2026-04-25T06:25:36.999Z</time></trkpt><trkpt lat="45.036824264289294" lon="8.552661180542918"><ele>114.0</ele><time>2026-04-25T06:25:37.999Z</time></trkpt><trkpt lat="45.03691453152339" lon="8.552460825901981"><ele>115.0</ele><time>2026-04-25T06:25:38.999Z</time></trkpt><trkpt lat="45.03700703044119" lon="8.552270619835049"><ele>115.0</ele><time>2026-04-25T06:25:39.999Z</time></trkpt><trkpt lat="45.037116825599014" lon="8.552093589567257"><ele>115.0</ele><time>2026-04-25T06:25:40.999Z</time></trkpt><trkpt lat="45.0372158409385" lon="8.55192407228253"><ele>115.0</ele><time>2026-04-25T06:25:41.999Z</time></trkpt><trkpt lat="45.03729082934038" lon="8.55177355684325"><ele>115.0</ele><time>2026-04-25T06:25:42.999Z</time></trkpt><trkpt lat="45.03736533144233" lon="8.551660628104653"><ele>115.0</ele><time>2026-04-25T06:25:43.999Z</time></trkpt><trkpt lat="45.03744112822672" lon="8.551506568371527"><ele>115.0</ele><time>2026-04-25T06:25:44.999Z</time></trkpt><trkpt lat="45.03748893675998" lon="8.551375352390954"><ele>115.0</ele><time>2026-04-25T06:25:45.999Z</time></trkpt><trkpt lat="45.03752213833981" lon="8.55122171026559"><ele>115.0</ele><time>2026-04-25T06:25:46.999Z</time></trkpt><trkpt lat="45.03753198559751" lon="8.551051545447297"><ele>115.0</ele><time>2026-04-25T06:25:47.999Z</time></trkpt><trkpt lat="45.03752395405014" lon="8.55086152690388"><ele>115.0</ele><time>2026-04-25T06:25:48.999Z</time></trkpt><trkpt lat="45.03753694649031" lon="8.550640887126788"><ele>115.0</ele><time>2026-04-25T06:25:49.999Z</time></trkpt><trkpt lat="45.03754048058713" lon="8.550493057595991"><ele>115.5</ele><time>2026-04-25T06:25:50.999Z</time></trkpt><trkpt lat="45.03755379841183" lon="8.550297979815118"><ele>116.0</ele><time>2026-04-25T06:25:51.999Z</time></trkpt><trkpt lat="45.03757318036847" lon="8.5500907530033"><ele>116.5</ele><time>2026-04-25T06:25:52.999Z</time></trkpt><trkpt lat="45.03759536211305" lon="8.54988664365626"><ele>117.0</ele><time>2026-04-25T06:25:53.999Z</time></trkpt><trkpt lat="45.03761932502924" lon="8.549673771117375"><ele>117.0</ele><time>2026-04-25T06:25:54.999Z</time></trkpt><trkpt lat="45.03764614451648" lon="8.54943552237121"><ele>117.0</ele><time>2026-04-25T06:25:55.999Z</time></trkpt><trkpt lat="45.03767299781946" lon="8.549196973376146"><ele>117.0</ele><time>2026-04-25T06:25:56.999Z</time></trkpt><trkpt lat="45.03769634041468" lon="8.548985835050145"><ele>117.0</ele><time>2026-04-25T06:25:57.999Z</time></trkpt><trkpt lat="45.037720146137175" lon="8.548777617773787"><ele>117.0</ele><time>2026-04-25T06:25:58.999Z</time></trkpt><trkpt lat="45.03774500014889" lon="8.548544838761009"><ele>117.0</ele><time>2026-04-25T06:25:59.999Z</time></trkpt><trkpt lat="45.03776460683927" lon="8.548317774632032"><ele>116.5</ele><time>2026-04-25T06:26:00.999Z</time></trkpt><trkpt lat="45.03777374201454" lon="8.54811278107177"><ele>116.0</ele><time>2026-04-25T06:26:01.999Z</time></trkpt><trkpt lat="45.037788204730155" lon="8.547919802638315"><ele>115.5</ele><time>2026-04-25T06:26:02.999Z</time></trkpt><trkpt lat="45.03777802128452" lon="8.547734493859524"><ele>115.0</ele><time>2026-04-25T06:26:03.999Z</time></trkpt><trkpt lat="45.03777838077698" lon="8.547546635167508"><ele>114.5</ele><time>2026-04-25T06:26:04.999Z</time></trkpt><trkpt lat="45.037783882251276" lon="8.547348933553499"><ele>114.0</ele><time>2026-04-25T06:26:05.999Z</time></trkpt><trkpt lat="45.037792300021444" lon="8.547219068585038"><ele>113.5</ele><time>2026-04-25T06:26:06.999Z</time></trkpt><trkpt lat="45.03781604899995" lon="8.547039089230024"><ele>113.0</ele><time>2026-04-25T06:26:07.999Z</time></trkpt><trkpt lat="45.03785649310447" lon="8.546835253608714"><ele>112.75</ele><time>2026-04-25T06:26:08.999Z</time></trkpt><trkpt lat="45.037918458969685" lon="8.546636295436235"><ele>112.5</ele><time>2026-04-25T06:26:09.999Z</time></trkpt><trkpt lat="45.037995123169196" lon="8.546467375153348"><ele>112.25</ele><time>2026-04-25T06:26:10.999Z</time></trkpt><trkpt lat="45.038086903953484" lon="8.546304998533765"><ele>112.0</ele><time>2026-04-25T06:26:11.999Z</time></trkpt><trkpt lat="45.0381832021122" lon="8.546127949140361"><ele>112.0</ele><time>2026-04-25T06:26:12.999Z</time></trkpt><trkpt lat="45.03827496363627" lon="8.545935980527364"><ele>112.0</ele><time>2026-04-25T06:26:13.999Z</time></trkpt><trkpt lat="45.03833398067452" lon="8.545701822521822"><ele>112.0</ele><time>2026-04-25T06:26:14.999Z</time></trkpt><trkpt lat="45.03839212921209" lon="8.5454701702741"><ele>111.66666666666667</ele><time>2026-04-25T06:26:15.999Z</time></trkpt><trkpt lat="45.03844090165515" lon="8.545233496694305"><ele>111.33333333333334</ele><time>2026-04-25T06:26:16.999Z</time></trkpt><trkpt lat="45.03848657494101" lon="8.54499338928555"><ele>111.0</ele><time>2026-04-25T06:26:18Z</time></trkpt><trkpt lat="45.03855092151892" lon="8.54476356029287"><ele>111.0</ele><time>2026-04-25T06:26:19Z</time></trkpt><trkpt lat="45.03857875174207" lon="8.544520435125593"><ele>111.0</ele><time>2026-04-25T06:26:20Z</time></trkpt><trkpt lat="45.038632404670615" lon="8.544284731355221"><ele>111.0</ele><time>2026-04-25T06:26:21Z</time></trkpt><trkpt lat="45.03866737403783" lon="8.544045119558108"><ele>111.0</ele><time>2026-04-25T06:26:22Z</time></trkpt><trkpt lat="45.03869419365871" lon="8.54382190281883"><ele>111.0</ele><time>2026-04-25T06:26:23Z</time></trkpt><trkpt lat="45.03871615643411" lon="8.543611059994896"><ele>111.0</ele><time>2026-04-25T06:26:24Z</time></trkpt><trkpt lat="45.03871984124976" lon="8.543396280174337"><ele>110.25</ele><time>2026-04-25T06:26:25Z</time></trkpt><trkpt lat="45.038756659399475" lon="8.543182305050568"><ele>109.5</ele><time>2026-04-25T06:26:26Z</time></trkpt><trkpt lat="45.03877706990132" lon="8.542971922891288"><ele>108.75</ele><time>2026-04-25T06:26:27Z</time></trkpt><trkpt lat="45.03879728583518" lon="8.542793570846927"><ele>108.0</ele><time>2026-04-25T06:26:28Z</time></trkpt><trkpt lat="45.03882062015902" lon="8.542632831462491"><ele>108.0</ele><time>2026-04-25T06:26:29Z</time></trkpt><trkpt lat="45.03884997792469" lon="8.542480807004244"><ele>108.0</ele><time>2026-04-25T06:26:30Z</time></trkpt><trkpt lat="45.03890373914868" lon="8.542334199564865"><ele>108.0</ele><time>2026-04-25T06:26:31Z</time></trkpt><trkpt lat="45.03897316693553" lon="8.542163533964805"><ele>108.0</ele><time>2026-04-25T06:26:32Z</time></trkpt><trkpt lat="45.03904492545933" lon="8.541987170017375"><ele>107.75</ele><time>2026-04-25T06:26:33Z</time></trkpt><trkpt lat="45.0391049826158" lon="8.541794551351614"><ele>107.5</ele><time>2026-04-25T06:26:34Z</time></trkpt><trkpt lat="45.039184208559654" lon="8.541615063787754"><ele>107.25</ele><time>2026-04-25T06:26:35Z</time></trkpt><trkpt lat="45.039257725316446" lon="8.541433405839744"><ele>107.0</ele><time>2026-04-25T06:26:36Z</time></trkpt><trkpt lat="45.03933306152833" lon="8.541248077504692"><ele>107.25</ele><time>2026-04-25T06:26:37Z</time></trkpt><trkpt lat="45.039390570596694" lon="8.541085583071958"><ele>107.5</ele><time>2026-04-25T06:26:38Z</time></trkpt><trkpt lat="45.03944675936125" lon="8.540934491795394"><ele>107.75</ele><time>2026-04-25T06:26:39Z</time></trkpt><trkpt lat="45.039512316003204" lon="8.540773100272832"><ele>108.0</ele><time>2026-04-25T06:26:40Z</time></trkpt><trkpt lat="45.0395789550941" lon="8.540602964752704"><ele>108.0</ele><time>2026-04-25T06:26:41Z</time></trkpt><trkpt lat="45.03964523246828" lon="8.540424692180824"><ele>108.0</ele><time>2026-04-25T06:26:42Z</time></trkpt><trkpt lat="45.03970887251584" lon="8.540246683402021"><ele>108.0</ele><time>2026-04-25T06:26:43Z</time></trkpt><trkpt lat="45.03976912495517" lon="8.540087365591416"><ele>108.0</ele><time>2026-04-25T06:26:44Z</time></trkpt><trkpt lat="45.039813881986596" lon="8.539938259013452"><ele>108.0</ele><time>2026-04-25T06:26:45Z</time></trkpt><trkpt lat="45.03986397748192" lon="8.539805109168384"><ele>108.00000000000001</ele><time>2026-04-25T06:26:46Z</time></trkpt><trkpt lat="45.039911445710324" lon="8.539681613783136"><ele>108.00000000000001</ele><time>2026-04-25T06:26:47Z</time></trkpt><trkpt lat="45.039947027826614" lon="8.539575192696267"><ele>108.0</ele><time>2026-04-25T06:26:48Z</time></trkpt><trkpt lat="45.03999873611273" lon="8.539498570100344"><ele>108.0</ele><time>2026-04-25T06:26:49Z</time></trkpt><trkpt lat="45.04005628380529" lon="8.539377817364311"><ele>107.66666666666667</ele><time>2026-04-25T06:26:51Z</time></trkpt><trkpt lat="45.04015058614444" lon="8.539421458132466"><ele>107.33333333333334</ele><time>2026-04-25T06:27:04Z</time></trkpt><trkpt lat="45.04012639996392" lon="8.539510134968724"><ele>107.0</ele><time>2026-04-25T06:27:05Z</time></trkpt><trkpt lat="45.04014785784346" lon="8.539636960662879"><ele>106.66666666666667</ele><time>2026-04-25T06:27:06Z</time></trkpt><trkpt lat="45.04014515955326" lon="8.53975535866439"><ele>106.33333333333334</ele><time>2026-04-25T06:27:07Z</time></trkpt><trkpt lat="45.04015849912932" lon="8.539843347149917"><ele>106.0</ele><time>2026-04-25T06:27:08Z</time></trkpt><trkpt lat="45.04017841831781" lon="8.539956993331321"><ele>106.0</ele><time>2026-04-25T06:27:09Z</time></trkpt><trkpt lat="45.04019035547057" lon="8.540119968316324"><ele>106.0</ele><time>2026-04-25T06:27:10Z</time></trkpt><trkpt lat="45.04020551485492" lon="8.540302877540435"><ele>106.0</ele><time>2026-04-25T06:27:11Z</time></trkpt><trkpt lat="45.040226478078985" lon="8.540494327127304"><ele>106.0</ele><time>2026-04-25T06:27:12Z</time></trkpt><trkpt lat="45.04024374829889" lon="8.540667608261066"><ele>106.0</ele><time>2026-04-25T06:27:13Z</time></trkpt><trkpt lat="45.04025769415799" lon="8.540815823412403"><ele>106.0</ele><time>2026-04-25T06:27:14Z</time></trkpt><trkpt lat="45.04027366201527" lon="8.540950516540349"><ele>106.0</ele><time>2026-04-25T06:27:15Z</time></trkpt><trkpt lat="45.04028940577225" lon="8.541098007609758"><ele>106.0</ele><time>2026-04-25T06:27:16Z</time></trkpt><trkpt lat="45.04030787285972" lon="8.541266579378613"><ele>106.0</ele><time>2026-04-25T06:27:17Z</time></trkpt><trkpt lat="45.04032151189368" lon="8.541445032281665"><ele>106.0</ele><time>2026-04-25T06:27:18Z</time></trkpt><trkpt lat="45.04034151346391" lon="8.541611061326238"><ele>106.0</ele><time>2026-04-25T06:27:19Z</time></trkpt><trkpt lat="45.040359507352925" lon="8.541753347960308"><ele>106.0</ele><time>2026-04-25T06:27:20Z</time></trkpt><trkpt lat="45.04037072002406" lon="8.541871511467699"><ele>106.0</ele><time>2026-04-25T06:27:21Z</time></trkpt><trkpt lat="45.04038078704134" lon="8.54202324672437"><ele>106.0</ele><time>2026-04-25T06:27:23Z</time></trkpt><trkpt lat="45.04039669068797" lon="8.542123596749041"><ele>106.0</ele><time>2026-04-25T06:27:25.999Z</time></trkpt><trkpt lat="45.04041016763523" lon="8.542254496663823"><ele>106.0</ele><time>2026-04-25T06:27:27.999Z</time></trkpt><trkpt lat="45.04041879516398" lon="8.542360033477493"><ele>106.0</ele><time>2026-04-25T06:27:28.999Z</time></trkpt><trkpt lat="45.04042737517569" lon="8.542485795864662"><ele>106.0</ele><time>2026-04-25T06:27:29.999Z</time></trkpt><trkpt lat="45.04044081590351" lon="8.542618536783465"><ele>106.0</ele><time>2026-04-25T06:27:30.999Z</time></trkpt><trkpt lat="45.04046338389783" lon="8.542764346267553"><ele>106.25</ele><time>2026-04-25T06:27:31.999Z</time></trkpt><trkpt lat="45.04048864565393" lon="8.542923491602279"><ele>106.5</ele><time>2026-04-25T06:27:32.999Z</time></trkpt><trkpt lat="45.040507243556" lon="8.543088367021536"><ele>106.75</ele><time>2026-04-25T06:27:33.999Z</time></trkpt><trkpt lat="45.040516570687195" lon="8.543257965351152"><ele>107.0</ele><time>2026-04-25T06:27:34.999Z</time></trkpt><trkpt lat="45.04052594771972" lon="8.543441247546168"><ele>107.0</ele><time>2026-04-25T06:27:35.999Z</time></trkpt><trkpt lat="45.04054600629062" lon="8.543640632165197"><ele>107.0</ele><time>2026-04-25T06:27:36.999Z</time></trkpt><trkpt lat="45.040570155790306" lon="8.54385286736372"><ele>107.0</ele><time>2026-04-25T06:27:37.999Z</time></trkpt><trkpt lat="45.04059239056625" lon="8.544073284812148"><ele>107.0</ele><time>2026-04-25T06:27:38.999Z</time></trkpt><trkpt lat="45.04062028993811" lon="8.544284780589283"><ele>107.0</ele><time>2026-04-25T06:27:39.999Z</time></trkpt><trkpt lat="45.04064384755436" lon="8.544498062169474"><ele>107.0</ele><time>2026-04-25T06:27:40.999Z</time></trkpt><trkpt lat="45.0406664276634" lon="8.544739489830626"><ele>107.0</ele><time>2026-04-25T06:27:41.999Z</time></trkpt><trkpt lat="45.040681299559076" lon="8.544975037270426"><ele>107.0</ele><time>2026-04-25T06:27:42.999Z</time></trkpt><trkpt lat="45.040700178241416" lon="8.54512051640752"><ele>107.0</ele><time>2026-04-25T06:27:43.999Z</time></trkpt><trkpt lat="45.040717423221395" lon="8.545291390762067"><ele>107.0</ele><time>2026-04-25T06:27:44.999Z</time></trkpt><trkpt lat="45.04074173101511" lon="8.545440603625835"><ele>106.75</ele><time>2026-04-25T06:27:45.999Z</time></trkpt><trkpt lat="45.0407580162038" lon="8.545592994039671"><ele>106.5</ele><time>2026-04-25T06:27:46.999Z</time></trkpt><trkpt lat="45.04077143536241" lon="8.545760673031847"><ele>106.25</ele><time>2026-04-25T06:27:47.999Z</time></trkpt><trkpt lat="45.04079277544664" lon="8.545942699151148"><ele>106.0</ele><time>2026-04-25T06:27:48.999Z</time></trkpt><trkpt lat="45.040827707105414" lon="8.546133383032414"><ele>106.25</ele><time>2026-04-25T06:27:49.999Z</time></trkpt><trkpt lat="45.04087693258768" lon="8.546319721684993"><ele>106.5</ele><time>2026-04-25T06:27:50.999Z</time></trkpt><trkpt lat="45.040939213586206" lon="8.54649109950253"><ele>106.75</ele><time>2026-04-25T06:27:51.999Z</time></trkpt><trkpt lat="45.04099477086761" lon="8.546634408149446"><ele>107.0</ele><time>2026-04-25T06:27:52.999Z</time></trkpt><trkpt lat="45.04105123185443" lon="8.54675863528584"><ele>107.0</ele><time>2026-04-25T06:27:53.999Z</time></trkpt><trkpt lat="45.04112158779008" lon="8.546889114392059"><ele>107.0</ele><time>2026-04-25T06:27:54.999Z</time></trkpt><trkpt lat="45.04120277207133" lon="8.547025043077843"><ele>107.0</ele><time>2026-04-25T06:27:55.999Z</time></trkpt><trkpt lat="45.04128960516086" lon="8.547165387128915"><ele>107.0</ele><time>2026-04-25T06:27:56.999Z</time></trkpt><trkpt lat="45.04138236023387" lon="8.547304503605076"><ele>107.0</ele><time>2026-04-25T06:27:57.999Z</time></trkpt><trkpt lat="45.04148340704526" lon="8.547429032919652"><ele>107.0</ele><time>2026-04-25T06:27:58.999Z</time></trkpt><trkpt lat="45.041596105755836" lon="8.547533514754186"><ele>107.0</ele><time>2026-04-25T06:27:59.999Z</time></trkpt><trkpt lat="45.041714304672055" lon="8.547631603891434"><ele>107.0</ele><time>2026-04-25T06:28:00.999Z</time></trkpt><trkpt lat="45.04182342220639" lon="8.54771746425887"><ele>106.6</ele><time>2026-04-25T06:28:01.999Z</time></trkpt><trkpt lat="45.041921085869106" lon="8.547788658196906"><ele>106.19999999999999</ele><time>2026-04-25T06:28:02.999Z</time></trkpt><trkpt lat="45.04201024761683" lon="8.547853527437868"><ele>105.8</ele><time>2026-04-25T06:28:03.999Z</time></trkpt><trkpt lat="45.04209103644653" lon="8.547915200766406"><ele>105.4</ele><time>2026-04-25T06:28:04.999Z</time></trkpt><trkpt lat="45.04215717757988" lon="8.54796693751491"><ele>105.0</ele><time>2026-04-25T06:28:05.999Z</time></trkpt><trkpt lat="45.04223175681077" lon="8.548012537024155"><ele>105.0</ele><time>2026-04-25T06:28:06.999Z</time></trkpt><trkpt lat="45.04229190311168" lon="8.548059337300849"><ele>105.0</ele><time>2026-04-25T06:28:07.999Z</time></trkpt><trkpt lat="45.04236915286435" lon="8.548126937043858"><ele>105.0</ele><time>2026-04-25T06:28:10.999Z</time></trkpt><trkpt lat="45.04241792549545" lon="8.54798246300779"><ele>105.0</ele><time>2026-04-25T06:28:11.999Z</time></trkpt><trkpt lat="45.04243348069172" lon="8.547887685955077"><ele>105.0</ele><time>2026-04-25T06:28:12.999Z</time></trkpt><trkpt lat="45.04245367115001" lon="8.547783441125583"><ele>105.0</ele><time>2026-04-25T06:28:13.999Z</time></trkpt><trkpt lat="45.042482284265354" lon="8.547674682428498"><ele>105.0</ele><time>2026-04-25T06:28:14.999Z</time></trkpt><trkpt lat="45.04250830825845" lon="8.5475818238097"><ele>105.0</ele><time>2026-04-25T06:28:15.999Z</time></trkpt><trkpt lat="45.042570969046004" lon="8.547332745749864"><ele>105.0</ele><time>2026-04-25T06:28:17.999Z</time></trkpt><trkpt lat="45.042599573793055" lon="8.547219820526104"><ele>105.0</ele><time>2026-04-25T06:28:18.999Z</time></trkpt><trkpt lat="45.04263044043082" lon="8.547107088379967"><ele>105.0</ele><time>2026-04-25T06:28:19.999Z</time></trkpt><trkpt lat="45.04266607365537" lon="8.546982323856609"><ele>105.0</ele><time>2026-04-25T06:28:20.999Z</time></trkpt><trkpt lat="45.042685281771476" lon="8.546858641770347"><ele>105.0</ele><time>2026-04-25T06:28:21.999Z</time></trkpt><trkpt lat="45.04271355591493" lon="8.546728536328903"><ele>105.0</ele><time>2026-04-25T06:28:22.999Z</time></trkpt><trkpt lat="45.042763143394296" lon="8.546558456830835"><ele>105.0</ele><time>2026-04-25T06:28:25Z</time></trkpt><trkpt lat="45.04279340779455" lon="8.546458640140768"><ele>105.0</ele><time>2026-04-25T06:28:26Z</time></trkpt><trkpt lat="45.0428068050859" lon="8.546351458513255"><ele>105.0</ele><time>2026-04-25T06:28:27Z</time></trkpt><trkpt lat="45.04283500982051" lon="8.546218966445515"><ele>105.0</ele><time>2026-04-25T06:28:28Z</time></trkpt><trkpt lat="45.042880722653685" lon="8.546081568608072"><ele>105.0</ele><time>2026-04-25T06:28:29Z</time></trkpt><trkpt lat="45.042932737522406" lon="8.545953822192477"><ele>105.0</ele><time>2026-04-25T06:28:30Z</time></trkpt><trkpt lat="45.042947393225695" lon="8.545847491733651"><ele>105.0</ele><time>2026-04-25T06:28:31Z</time></trkpt><trkpt lat="45.042968430831344" lon="8.545732957967852"><ele>104.83333333333333</ele><time>2026-04-25T06:28:32Z</time></trkpt><trkpt lat="45.04298758952364" lon="8.545631700985739"><ele>104.66666666666666</ele><time>2026-04-25T06:28:33Z</time></trkpt><trkpt lat="45.04302315174089" lon="8.545554246796852"><ele>104.5</ele><time>2026-04-25T06:28:34Z</time></trkpt><trkpt lat="45.04305773759568" lon="8.545479069524168"><ele>104.33333333333333</ele><time>2026-04-25T06:28:35Z</time></trkpt><trkpt lat="45.04308175009602" lon="8.545336838621694"><ele>104.16666666666666</ele><time>2026-04-25T06:28:36Z</time></trkpt><trkpt lat="45.043099072399" lon="8.545184853688596"><ele>104.0</ele><time>2026-04-25T06:28:38Z</time></trkpt><trkpt lat="45.04315810822067" lon="8.545034619150114"><ele>103.99999999999999</ele><time>2026-04-25T06:28:39Z</time></trkpt><trkpt lat="45.04318402352529" lon="8.544950746964478"><ele>104.0</ele><time>2026-04-25T06:28:40Z</time></trkpt><trkpt lat="45.043210054127776" lon="8.54485797229694"><ele>104.0</ele><time>2026-04-25T06:28:41Z</time></trkpt><trkpt lat="45.0432340249018" lon="8.544752740998069"><ele>104.0</ele><time>2026-04-25T06:28:42Z</time></trkpt><trkpt lat="45.04325645554166" lon="8.54462275781817"><ele>103.99999999999999</ele><time>2026-04-25T06:28:44Z</time></trkpt><trkpt lat="45.04328639099614" lon="8.544542886887895"><ele>104.0</ele><time>2026-04-25T06:28:46Z</time></trkpt><trkpt lat="45.043380055659846" lon="8.544552040919301"><ele>103.80000000000001</ele><time>2026-04-25T06:28:48Z</time></trkpt><trkpt lat="45.043441573345085" lon="8.5446084567018"><ele>103.60000000000001</ele><time>2026-04-25T06:28:49Z</time></trkpt><trkpt lat="45.04352619880194" lon="8.544677116021136"><ele>103.4</ele><time>2026-04-25T06:28:50Z</time></trkpt><trkpt lat="45.04362322490562" lon="8.544726003544936"><ele>103.2</ele><time>2026-04-25T06:28:51Z</time></trkpt><trkpt lat="45.04371441765357" lon="8.54478413991755"><ele>103.0</ele><time>2026-04-25T06:28:52Z</time></trkpt><trkpt lat="45.04380422208327" lon="8.544838820675634"><ele>103.0</ele><time>2026-04-25T06:28:53Z</time></trkpt><trkpt lat="45.04389430615686" lon="8.544891109412156"><ele>103.0</ele><time>2026-04-25T06:28:54Z</time></trkpt><trkpt lat="45.04398351943053" lon="8.544945160086982"><ele>103.0</ele><time>2026-04-25T06:28:55Z</time></trkpt><trkpt lat="45.04407199565716" lon="8.544996097650325"><ele>103.0</ele><time>2026-04-25T06:28:56Z</time></trkpt><trkpt lat="45.044161575924186" lon="8.545047942995236"><ele>103.0</ele><time>2026-04-25T06:28:57Z</time></trkpt><trkpt lat="45.0442557129253" lon="8.545107575058577"><ele>102.80000000000001</ele><time>2026-04-25T06:28:58Z</time></trkpt><trkpt lat="45.044357992976124" lon="8.545164036596862"><ele>102.6</ele><time>2026-04-25T06:28:59Z</time></trkpt><trkpt lat="45.04445549366543" lon="8.54522275367786"><ele>102.4</ele><time>2026-04-25T06:29:00Z</time></trkpt><trkpt lat="45.044556614213626" lon="8.545285639058266"><ele>102.19999999999999</ele><time>2026-04-25T06:29:01Z</time></trkpt><trkpt lat="45.0446652030825" lon="8.545341388869032"><ele>102.0</ele><time>2026-04-25T06:29:02Z</time></trkpt><trkpt lat="45.04477244340186" lon="8.545421890727132"><ele>102.0</ele><time>2026-04-25T06:29:03Z</time></trkpt><trkpt lat="45.04486693975473" lon="8.545471254989518"><ele>102.0</ele><time>2026-04-25T06:29:04Z</time></trkpt><trkpt lat="45.04495590081436" lon="8.545532491222028"><ele>102.0</ele><time>2026-04-25T06:29:05Z</time></trkpt><trkpt lat="45.04505131698905" lon="8.545589427624762"><ele>102.0</ele><time>2026-04-25T06:29:06Z</time></trkpt><trkpt lat="45.04514461748233" lon="8.545658441548504"><ele>102.0</ele><time>2026-04-25T06:29:07Z</time></trkpt><trkpt lat="45.045239547864064" lon="8.545707779121669"><ele>102.0</ele><time>2026-04-25T06:29:08Z</time></trkpt><trkpt lat="45.045328684082804" lon="8.545765479153458"><ele>102.0</ele><time>2026-04-25T06:29:09Z</time></trkpt><trkpt lat="45.045413955623296" lon="8.545808489437789"><ele>102.0</ele><time>2026-04-25T06:29:10Z</time></trkpt><trkpt lat="45.04551848935135" lon="8.545873863491297"><ele>102.0</ele><time>2026-04-25T06:29:11Z</time></trkpt><trkpt lat="45.04561254756038" lon="8.545931332043153"><ele>102.0</ele><time>2026-04-25T06:29:12Z</time></trkpt><trkpt lat="45.045713092307984" lon="8.545987639510157"><ele>102.19999999999999</ele><time>2026-04-25T06:29:13Z</time></trkpt><trkpt lat="45.04581602678841" lon="8.546043534404548"><ele>102.4</ele><time>2026-04-25T06:29:14Z</time></trkpt><trkpt lat="45.04591194101719" lon="8.546095025470148"><ele>102.6</ele><time>2026-04-25T06:29:15Z</time></trkpt><trkpt lat="45.046015111437114" lon="8.546150613068608"><ele>102.80000000000001</ele><time>2026-04-25T06:29:16Z</time></trkpt><trkpt lat="45.046108940485865" lon="8.546198874371212"><ele>103.0</ele><time>2026-04-25T06:29:17Z</time></trkpt><trkpt lat="45.046216936526676" lon="8.546263825907547"><ele>103.0</ele><time>2026-04-25T06:29:18Z</time></trkpt><trkpt lat="45.04630701566884" lon="8.546313276554056"><ele>103.0</ele><time>2026-04-25T06:29:19Z</time></trkpt><trkpt lat="45.046397624944284" lon="8.546364350225987"><ele>103.0</ele><time>2026-04-25T06:29:20Z</time></trkpt><trkpt lat="45.04650233468533" lon="8.546419906948328"><ele>103.0</ele><time>2026-04-25T06:29:21Z</time></trkpt><trkpt lat="45.046627413102534" lon="8.546456111852176"><ele>103.0</ele><time>2026-04-25T06:29:22Z</time></trkpt><trkpt lat="45.04670882716407" lon="8.54646146367946"><ele>103.0</ele><time>2026-04-25T06:29:23Z</time></trkpt><trkpt lat="45.04681228031556" lon="8.546457801763705"><ele>103.0</ele><time>2026-04-25T06:29:24Z</time></trkpt><trkpt lat="45.04681597859372" lon="8.54661889243014"><ele>103.0</ele><time>2026-04-25T06:29:25Z</time></trkpt><trkpt lat="45.04690139599932" lon="8.546685386805425"><ele>103.0</ele><time>2026-04-25T06:29:26Z</time></trkpt><trkpt lat="45.047006324903975" lon="8.546759526688657"><ele>103.0</ele><time>2026-04-25T06:29:27Z</time></trkpt><trkpt lat="45.047104094589585" lon="8.546828860968096"><ele>103.0</ele><time>2026-04-25T06:29:28Z</time></trkpt><trkpt lat="45.04720289397063" lon="8.546886996480739"><ele>103.0</ele><time>2026-04-25T06:29:29Z</time></trkpt><trkpt lat="45.04730028398941" lon="8.546930558934946"><ele>103.0</ele><time>2026-04-25T06:29:30Z</time></trkpt><trkpt lat="45.047403804261805" lon="8.546987715767422"><ele>103.0</ele><time>2026-04-25T06:29:31Z</time></trkpt><trkpt lat="45.047514986150354" lon="8.547058346093126"><ele>103.0</ele><time>2026-04-25T06:29:32Z</time></trkpt><trkpt lat="45.047602382328975" lon="8.54711885501925"><ele>103.16666666666667</ele><time>2026-04-25T06:29:33Z</time></trkpt><trkpt lat="45.04766824389197" lon="8.547159643219691"><ele>103.33333333333334</ele><time>2026-04-25T06:29:33.999Z</time></trkpt><trkpt lat="45.047741793052836" lon="8.547201537483453"><ele>103.5</ele><time>2026-04-25T06:29:34.999Z</time></trkpt><trkpt lat="45.047812918465205" lon="8.547254127935862"><ele>103.66666666666666</ele><time>2026-04-25T06:29:35.999Z</time></trkpt><trkpt lat="45.04789096130161" lon="8.547305279212809"><ele>103.83333333333333</ele><time>2026-04-25T06:29:36.999Z</time></trkpt><trkpt lat="45.04796178865077" lon="8.547369950811904"><ele>104.0</ele><time>2026-04-25T06:29:37.999Z</time></trkpt><trkpt lat="45.04803559533125" lon="8.547433270509108"><ele>103.99999999999999</ele><time>2026-04-25T06:29:38.999Z</time></trkpt><trkpt lat="45.04810881015225" lon="8.547501500626593"><ele>104.0</ele><time>2026-04-25T06:29:39.999Z</time></trkpt><trkpt lat="45.0481720206097" lon="8.547564728429451"><ele>104.0</ele><time>2026-04-25T06:29:40.999Z</time></trkpt><trkpt lat="45.04822799987367" lon="8.547614237659673"><ele>104.0</ele><time>2026-04-25T06:29:41.999Z</time></trkpt><trkpt lat="45.048327466064904" lon="8.54765537708911"><ele>103.99999999999999</ele><time>2026-04-25T06:29:43.999Z</time></trkpt><trkpt lat="45.04839997148761" lon="8.547663031154705"><ele>104.0</ele><time>2026-04-25T06:29:46.999Z</time></trkpt><trkpt lat="45.04846792998887" lon="8.547688923641118"><ele>104.0</ele><time>2026-04-25T06:29:49.999Z</time></trkpt><trkpt lat="45.048509700402555" lon="8.547552320555264"><ele>104.0</ele><time>2026-04-25T06:29:52.999Z</time></trkpt><trkpt lat="45.048553336038566" lon="8.547412960733393"><ele>104.0</ele><time>2026-04-25T06:29:54.999Z</time></trkpt><trkpt lat="45.048591691315835" lon="8.547256064993256"><ele>104.0</ele><time>2026-04-25T06:29:56.999Z</time></trkpt><trkpt lat="45.04863177674396" lon="8.5470947593321"><ele>104.33333333333333</ele><time>2026-04-25T06:29:58.999Z</time></trkpt><trkpt lat="45.04865515010023" lon="8.547004587501322"><ele>104.66666666666666</ele><time>2026-04-25T06:29:59.999Z</time></trkpt><trkpt lat="45.04868954872738" lon="8.54691466694083"><ele>105.0</ele><time>2026-04-25T06:30:00.999Z</time></trkpt><trkpt lat="45.0487278957809" lon="8.546820022920468"><ele>105.33333333333334</ele><time>2026-04-25T06:30:01.999Z</time></trkpt><trkpt lat="45.04877178948916" lon="8.546706824012919"><ele>105.66666666666667</ele><time>2026-04-25T06:30:02.999Z</time></trkpt><trkpt lat="45.048809274477094" lon="8.5465849584465"><ele>106.0</ele><time>2026-04-25T06:30:03.999Z</time></trkpt><trkpt lat="45.048844359103185" lon="8.546484374846163"><ele>106.0</ele><time>2026-04-25T06:30:04.999Z</time></trkpt><trkpt lat="45.04887529967374" lon="8.546394180381125"><ele>106.0</ele><time>2026-04-25T06:30:05.999Z</time></trkpt><trkpt lat="45.048909177717434" lon="8.546304949810803"><ele>106.0</ele><time>2026-04-25T06:30:06.999Z</time></trkpt><trkpt lat="45.0489403368311" lon="8.546210465594518"><ele>106.0</ele><time>2026-04-25T06:30:07.999Z</time></trkpt><trkpt lat="45.048962225152806" lon="8.546119726395807"><ele>106.0</ele><time>2026-04-25T06:30:08.999Z</time></trkpt><trkpt lat="45.04899434511637" lon="8.546016518181096"><ele>106.0</ele><time>2026-04-25T06:30:09.999Z</time></trkpt><trkpt lat="45.04901900819101" lon="8.545930382204833"><ele>106.0</ele><time>2026-04-25T06:30:10.999Z</time></trkpt><trkpt lat="45.049039118553466" lon="8.545828268235834"><ele>106.00000000000001</ele><time>2026-04-25T06:30:11.999Z</time></trkpt><trkpt lat="45.049048172078045" lon="8.545670821773887"><ele>106.0</ele><time>2026-04-25T06:30:13.999Z</time></trkpt><trkpt lat="45.04904873453036" lon="8.545553549823868"><ele>106.0</ele><time>2026-04-25T06:30:14.999Z</time></trkpt><trkpt lat="45.04904934693213" lon="8.545443150354052"><ele>106.0</ele><time>2026-04-25T06:30:15.999Z</time></trkpt><trkpt lat="45.04898402886527" lon="8.545381810790333"><ele>106.00000000000001</ele><time>2026-04-25T06:30:17.999Z</time></trkpt><trkpt lat="45.04894681432177" lon="8.545277440041529"><ele>106.0</ele><time>2026-04-25T06:30:19.999Z</time></trkpt><trkpt lat="45.04898176451877" lon="8.545152659526428"><ele>105.8</ele><time>2026-04-25T06:30:21.999Z</time></trkpt><trkpt lat="45.049034182101266" lon="8.545095859606231"><ele>105.6</ele><time>2026-04-25T06:30:22.999Z</time></trkpt><trkpt lat="45.04910227851346" lon="8.54506110948873"><ele>105.4</ele><time>2026-04-25T06:30:23.999Z</time></trkpt><trkpt lat="45.04917465502948" lon="8.544988886321761"><ele>105.2</ele><time>2026-04-25T06:30:25.999Z</time></trkpt><trkpt lat="45.0492021311945" lon="8.54484582965228"><ele>105.0</ele><time>2026-04-25T06:30:27.999Z</time></trkpt><trkpt lat="45.04918311172053" lon="8.544666186435558"><ele>104.85714285714286</ele><time>2026-04-25T06:30:30Z</time></trkpt><trkpt lat="45.04916513047889" lon="8.544566903185222"><ele>104.71428571428572</ele><time>2026-04-25T06:30:31Z</time></trkpt><trkpt lat="45.049147774175445" lon="8.544468377566842"><ele>104.57142857142857</ele><time>2026-04-25T06:30:32Z</time></trkpt><trkpt lat="45.049127597094554" lon="8.544352296972935"><ele>104.42857142857143</ele><time>2026-04-25T06:30:33Z</time></trkpt><trkpt lat="45.049117486846995" lon="8.544263903924001"><ele>104.28571428571429</ele><time>2026-04-25T06:30:34Z</time></trkpt><trkpt lat="45.04910826012094" lon="8.544172901905034"><ele>104.14285714285714</ele><time>2026-04-25T06:30:35Z</time></trkpt><trkpt lat="45.04912388228621" lon="8.544073918195473"><ele>104.0</ele><time>2026-04-25T06:30:36Z</time></trkpt><trkpt lat="45.049162961336386" lon="8.543994687156456"><ele>103.83333333333333</ele><time>2026-04-25T06:30:37Z</time></trkpt><trkpt lat="45.049207173123406" lon="8.54393088720412"><ele>103.66666666666666</ele><time>2026-04-25T06:30:38Z</time></trkpt><trkpt lat="45.04924910122064" lon="8.543856058559106"><ele>103.5</ele><time>2026-04-25T06:30:39Z</time></trkpt><trkpt lat="45.049295672986254" lon="8.543679186180222"><ele>103.33333333333334</ele><time>2026-04-25T06:30:41Z</time></trkpt><trkpt lat="45.04930229086002" lon="8.543582584110306"><ele>103.16666666666667</ele><time>2026-04-25T06:30:42Z</time></trkpt><trkpt lat="45.04931849278972" lon="8.54348212766968"><ele>103.0</ele><time>2026-04-25T06:30:44Z</time></trkpt><trkpt lat="45.049329218014066" lon="8.543314811482402"><ele>103.4</ele><time>2026-04-25T06:30:46Z</time></trkpt><trkpt lat="45.04933643166135" lon="8.543127406164098"><ele>103.80000000000001</ele><time>2026-04-25T06:30:48Z</time></trkpt><trkpt lat="45.04932969158479" lon="8.54303404965347"><ele>104.2</ele><time>2026-04-25T06:30:49Z</time></trkpt><trkpt lat="45.04930536593658" lon="8.542864628461963"><ele>104.6</ele><time>2026-04-25T06:30:51Z</time></trkpt><trkpt lat="45.049319575336675" lon="8.542774902319591"><ele>105.0</ele><time>2026-04-25T06:30:52Z</time></trkpt><trkpt lat="45.049388712043594" lon="8.542627936702015"><ele>105.16666666666667</ele><time>2026-04-25T06:30:54Z</time></trkpt><trkpt lat="45.04945925873626" lon="8.542550360194166"><ele>105.33333333333334</ele><time>2026-04-25T06:30:55Z</time></trkpt><trkpt lat="45.04949965202745" lon="8.54242793644235"><ele>105.5</ele><time>2026-04-25T06:30:57Z</time></trkpt><trkpt lat="45.04950114582531" lon="8.542337199183462"><ele>105.66666666666667</ele><time>2026-04-25T06:30:58Z</time></trkpt><trkpt lat="45.049505098980774" lon="8.542231257014988"><ele>105.83333333333334</ele><time>2026-04-25T06:30:59Z</time></trkpt><trkpt lat="45.049485007055544" lon="8.542140233865567"><ele>106.0</ele><time>2026-04-25T06:31:00Z</time></trkpt><trkpt lat="45.049484328683064" lon="8.541951903802731"><ele>106.00000000000001</ele><time>2026-04-25T06:31:02Z</time></trkpt><trkpt lat="45.04952685098121" lon="8.541836543469126"><ele>106.0</ele><time>2026-04-25T06:31:03Z</time></trkpt><trkpt lat="45.04955118386477" lon="8.54175277616591"><ele>106.0</ele><time>2026-04-25T06:31:04Z</time></trkpt><trkpt lat="45.04958461621194" lon="8.541630417264578"><ele>106.0</ele><time>2026-04-25T06:31:06Z</time></trkpt><trkpt lat="45.04960774329438" lon="8.54153421387372"><ele>106.00000000000001</ele><time>2026-04-25T06:31:07Z</time></trkpt><trkpt lat="45.04962196836234" lon="8.54144186501708"><ele>106.0</ele><time>2026-04-25T06:31:08Z</time></trkpt><trkpt lat="45.049636612753766" lon="8.54134783396188"><ele>105.33333333333334</ele><time>2026-04-25T06:31:09Z</time></trkpt><trkpt lat="45.04966111201664" lon="8.541192069742719"><ele>104.66666666666667</ele><time>2026-04-25T06:31:11Z</time></trkpt><trkpt lat="45.04968347744711" lon="8.54109094187797"><ele>104.0</ele><time>2026-04-25T06:31:13Z</time></trkpt><trkpt lat="45.04970783264823" lon="8.541006411772111"><ele>103.33333333333334</ele><time>2026-04-25T06:31:14Z</time></trkpt><trkpt lat="45.04973586453989" lon="8.540905216130884"><ele>102.66666666666667</ele><time>2026-04-25T06:31:15Z</time></trkpt><trkpt lat="45.04975962533711" lon="8.54080500552573"><ele>102.0</ele><time>2026-04-25T06:31:16Z</time></trkpt><trkpt lat="45.049771062497115" lon="8.540709451045371"><ele>102.0</ele><time>2026-04-25T06:31:17Z</time></trkpt><trkpt lat="45.049800957807705" lon="8.540587765111537"><ele>102.0</ele><time>2026-04-25T06:31:18Z</time></trkpt><trkpt lat="45.04982554862138" lon="8.540473903624278"><ele>102.0</ele><time>2026-04-25T06:31:19Z</time></trkpt><trkpt lat="45.04984006432192" lon="8.540379751092084"><ele>102.0</ele><time>2026-04-25T06:31:20Z</time></trkpt><trkpt lat="45.04986179877756" lon="8.540261310517453"><ele>102.0</ele><time>2026-04-25T06:31:21Z</time></trkpt><trkpt lat="45.04988407060778" lon="8.540123851982214"><ele>102.0</ele><time>2026-04-25T06:31:22Z</time></trkpt><trkpt lat="45.0498991486154" lon="8.53999479930861"><ele>102.16666666666667</ele><time>2026-04-25T06:31:22.999Z</time></trkpt><trkpt lat="45.0499162699968" lon="8.53986817935067"><ele>102.33333333333334</ele><time>2026-04-25T06:31:23.999Z</time></trkpt><trkpt lat="45.04993988614292" lon="8.539756128348012"><ele>102.5</ele><time>2026-04-25T06:31:24.999Z</time></trkpt><trkpt lat="45.04996314879696" lon="8.539621057293429"><ele>102.66666666666667</ele><time>2026-04-25T06:31:25.999Z</time></trkpt><trkpt lat="45.04998511774343" lon="8.539509278643624"><ele>102.83333333333334</ele><time>2026-04-25T06:31:26.999Z</time></trkpt><trkpt lat="45.050000306603714" lon="8.539401427923105"><ele>103.0</ele><time>2026-04-25T06:31:27.999Z</time></trkpt><trkpt lat="45.05001251177876" lon="8.53926842047122"><ele>103.00000000000001</ele><time>2026-04-25T06:31:28.999Z</time></trkpt><trkpt lat="45.05002200638506" lon="8.539131670329482"><ele>103.0</ele><time>2026-04-25T06:31:29.999Z</time></trkpt><trkpt lat="45.05002408402485" lon="8.538995823402443"><ele>103.0</ele><time>2026-04-25T06:31:30.999Z</time></trkpt><trkpt lat="45.05001798734223" lon="8.538871435206936"><ele>103.0</ele><time>2026-04-25T06:31:31.999Z</time></trkpt><trkpt lat="45.0500139481893" lon="8.538771410292128"><ele>103.00000000000001</ele><time>2026-04-25T06:31:32.999Z</time></trkpt><trkpt lat="45.05002296570828" lon="8.538654771040893"><ele>103.0</ele><time>2026-04-25T06:31:33.999Z</time></trkpt><trkpt lat="45.05004393150101" lon="8.538533127437164"><ele>103.2</ele><time>2026-04-25T06:31:34.999Z</time></trkpt><trkpt lat="45.050072889038994" lon="8.538419831936954"><ele>103.4</ele><time>2026-04-25T06:31:35.999Z</time></trkpt><trkpt lat="45.05010012637763" lon="8.538333096542585"><ele>103.60000000000001</ele><time>2026-04-25T06:31:36.999Z</time></trkpt><trkpt lat="45.0501453243941" lon="8.538182921761654"><ele>103.80000000000001</ele><time>2026-04-25T06:31:38.999Z</time></trkpt><trkpt lat="45.05020114906586" lon="8.538022229190249"><ele>104.0</ele><time>2026-04-25T06:31:40.999Z</time></trkpt><trkpt lat="45.05024295612319" lon="8.53792659575004"><ele>104.33333333333333</ele><time>2026-04-25T06:31:41.999Z</time></trkpt><trkpt lat="45.05028298756322" lon="8.537829073028728"><ele>104.66666666666666</ele><time>2026-04-25T06:31:42.999Z</time></trkpt><trkpt lat="45.05031918815488" lon="8.537738838017217"><ele>105.0</ele><time>2026-04-25T06:31:43.999Z</time></trkpt><trkpt lat="45.05036933798086" lon="8.537609299268368"><ele>105.33333333333334</ele><time>2026-04-25T06:31:45.999Z</time></trkpt><trkpt lat="45.05038942662921" lon="8.537516896924298"><ele>105.66666666666667</ele><time>2026-04-25T06:31:46.999Z</time></trkpt><trkpt lat="45.05039401677154" lon="8.537418610489707"><ele>106.0</ele><time>2026-04-25T06:31:47.999Z</time></trkpt><trkpt lat="45.050373607885724" lon="8.537325462318854"><ele>106.00000000000001</ele><time>2026-04-25T06:31:48.999Z</time></trkpt><trkpt lat="45.05034980793618" lon="8.53722636306921"><ele>106.0</ele><time>2026-04-25T06:31:49.999Z</time></trkpt><trkpt lat="45.05032499466073" lon="8.537120831615356"><ele>106.0</ele><time>2026-04-25T06:31:50.999Z</time></trkpt><trkpt lat="45.050314128647614" lon="8.537026229488273"><ele>106.0</ele><time>2026-04-25T06:31:51.999Z</time></trkpt><trkpt lat="45.05031061189508" lon="8.536921054353448"><ele>106.00000000000001</ele><time>2026-04-25T06:31:52.999Z</time></trkpt><trkpt lat="45.05031887243649" lon="8.536800561716634"><ele>106.0</ele><time>2026-04-25T06:31:53.999Z</time></trkpt><trkpt lat="45.050332195396216" lon="8.536687921834128"><ele>106.0</ele><time>2026-04-25T06:31:54.999Z</time></trkpt><trkpt lat="45.05036884905216" lon="8.536552102871408"><ele>106.0</ele><time>2026-04-25T06:31:55.999Z</time></trkpt><trkpt lat="45.050411810417245" lon="8.5364072553539"><ele>106.0</ele><time>2026-04-25T06:31:56.999Z</time></trkpt><trkpt lat="45.05043384010396" lon="8.536268235415934"><ele>106.0</ele><time>2026-04-25T06:31:57.999Z</time></trkpt><trkpt lat="45.050447281893874" lon="8.536127488437613"><ele>106.0</ele><time>2026-04-25T06:31:58.999Z</time></trkpt><trkpt lat="45.05045886043795" lon="8.535961435883596"><ele>106.0</ele><time>2026-04-25T06:31:59.999Z</time></trkpt><trkpt lat="45.0504567266963" lon="8.535796882842625"><ele>106.0</ele><time>2026-04-25T06:32:00.999Z</time></trkpt><trkpt lat="45.05045650207474" lon="8.535631151067546"><ele>106.0</ele><time>2026-04-25T06:32:01.999Z</time></trkpt><trkpt lat="45.05045944548835" lon="8.53548346876163"><ele>106.0</ele><time>2026-04-25T06:32:02.999Z</time></trkpt><trkpt lat="45.050460804761826" lon="8.535371636222006"><ele>106.0</ele><time>2026-04-25T06:32:03.999Z</time></trkpt><trkpt lat="45.05046898281038" lon="8.535191772254695"><ele>106.0</ele><time>2026-04-25T06:32:05.999Z</time></trkpt><trkpt lat="45.05055227513872" lon="8.535016553444997"><ele>106.0</ele><time>2026-04-25T06:32:06.999Z</time></trkpt><trkpt lat="45.05063946910135" lon="8.53489695517052"><ele>106.0</ele><time>2026-04-25T06:32:07.999Z</time></trkpt><trkpt lat="45.05071084113688" lon="8.53479505933522"><ele>106.0</ele><time>2026-04-25T06:32:08.999Z</time></trkpt><trkpt lat="45.05075652661808" lon="8.5346625291031"><ele>106.0</ele><time>2026-04-25T06:32:09.999Z</time></trkpt><trkpt lat="45.05076152971903" lon="8.534496343740063"><ele>106.0</ele><time>2026-04-25T06:32:10.999Z</time></trkpt><trkpt lat="45.050750263868714" lon="8.534258005591472"><ele>106.0</ele><time>2026-04-25T06:32:11.999Z</time></trkpt><trkpt lat="45.05074655605258" lon="8.533980526193764"><ele>106.0</ele><time>2026-04-25T06:32:12.999Z</time></trkpt><trkpt lat="45.05076875941475" lon="8.533688885589367"><ele>106.0</ele><time>2026-04-25T06:32:13.999Z</time></trkpt><trkpt lat="45.05078109346376" lon="8.533466391558848"><ele>106.0</ele><time>2026-04-25T06:32:14.999Z</time></trkpt><trkpt lat="45.05079951459429" lon="8.533285879467195"><ele>106.0</ele><time>2026-04-25T06:32:15.999Z</time></trkpt><trkpt lat="45.05081360458392" lon="8.533130540679801"><ele>106.0</ele><time>2026-04-25T06:32:16.999Z</time></trkpt><trkpt lat="45.05082962243352" lon="8.532992830087748"><ele>106.0</ele><time>2026-04-25T06:32:17.999Z</time></trkpt><trkpt lat="45.050862369162566" lon="8.532869259630672"><ele>106.0</ele><time>2026-04-25T06:32:18.999Z</time></trkpt><trkpt lat="45.05091898095688" lon="8.532726466779295"><ele>106.0</ele><time>2026-04-25T06:32:19.999Z</time></trkpt><trkpt lat="45.05097548774387" lon="8.532596245243118"><ele>106.0</ele><time>2026-04-25T06:32:20.999Z</time></trkpt><trkpt lat="45.05102028493899" lon="8.53245959611768"><ele>106.0</ele><time>2026-04-25T06:32:21.999Z</time></trkpt><trkpt lat="45.05103147660388" lon="8.532291510021693"><ele>106.0</ele><time>2026-04-25T06:32:22.999Z</time></trkpt><trkpt lat="45.05102170209819" lon="8.53207093556152"><ele>106.0</ele><time>2026-04-25T06:32:23.999Z</time></trkpt><trkpt lat="45.0510204245349" lon="8.531878609419637"><ele>106.5</ele><time>2026-04-25T06:32:24.999Z</time></trkpt><trkpt lat="45.05104925948176" lon="8.531709119915709"><ele>107.0</ele><time>2026-04-25T06:32:25.999Z</time></trkpt><trkpt lat="45.051084305573234" lon="8.531529473679601"><ele>107.5</ele><time>2026-04-25T06:32:26.999Z</time></trkpt><trkpt lat="45.051129040817244" lon="8.531373346422587"><ele>108.0</ele><time>2026-04-25T06:32:27.999Z</time></trkpt><trkpt lat="45.05119059560977" lon="8.531226500051954"><ele>108.25</ele><time>2026-04-25T06:32:28.999Z</time></trkpt><trkpt lat="45.05125768827796" lon="8.53107591806203"><ele>108.5</ele><time>2026-04-25T06:32:29.999Z</time></trkpt><trkpt lat="45.051314770252915" lon="8.530906462843987"><ele>108.75</ele><time>2026-04-25T06:32:30.999Z</time></trkpt><trkpt lat="45.05135352383288" lon="8.530724865577229"><ele>109.0</ele><time>2026-04-25T06:32:31.999Z</time></trkpt><trkpt lat="45.05135952700165" lon="8.53049668428615"><ele>109.0</ele><time>2026-04-25T06:32:32.999Z</time></trkpt><trkpt lat="45.05135418666903" lon="8.530221199228283"><ele>109.0</ele><time>2026-04-25T06:32:33.999Z</time></trkpt><trkpt lat="45.05135867549791" lon="8.52998121275741"><ele>109.0</ele><time>2026-04-25T06:32:34.999Z</time></trkpt><trkpt lat="45.051384303096754" lon="8.529775822772397"><ele>108.0</ele><time>2026-04-25T06:32:36Z</time></trkpt><trkpt lat="45.0514409921963" lon="8.529552215161868"><ele>107.0</ele><time>2026-04-25T06:32:37Z</time></trkpt><trkpt lat="45.05149125924062" lon="8.529341291545405"><ele>106.0</ele><time>2026-04-25T06:32:38Z</time></trkpt><trkpt lat="45.051509958303434" lon="8.52912978744759"><ele>106.0</ele><time>2026-04-25T06:32:39Z</time></trkpt><trkpt lat="45.05150022734809" lon="8.528901061423863"><ele>106.0</ele><time>2026-04-25T06:32:40Z</time></trkpt><trkpt lat="45.051483550860844" lon="8.528666383404756"><ele>106.0</ele><time>2026-04-25T06:32:41Z</time></trkpt><trkpt lat="45.05149701363874" lon="8.52848058434259"><ele>106.0</ele><time>2026-04-25T06:32:42Z</time></trkpt><trkpt lat="45.051532904952744" lon="8.528270341653808"><ele>106.0</ele><time>2026-04-25T06:32:43Z</time></trkpt><trkpt lat="45.051579674282166" lon="8.528057973442277"><ele>106.0</ele><time>2026-04-25T06:32:44Z</time></trkpt><trkpt lat="45.05162029566812" lon="8.52785620705689"><ele>107.33333333333334</ele><time>2026-04-25T06:32:45Z</time></trkpt><trkpt lat="45.05164301622827" lon="8.527640604686285"><ele>108.66666666666666</ele><time>2026-04-25T06:32:46Z</time></trkpt><trkpt lat="45.05167000398581" lon="8.527421343123422"><ele>110.0</ele><time>2026-04-25T06:32:47Z</time></trkpt><trkpt lat="45.05170192898564" lon="8.527207857807117"><ele>109.66666666666666</ele><time>2026-04-25T06:32:48Z</time></trkpt><trkpt lat="45.0517364284114" lon="8.526999609053176"><ele>109.33333333333334</ele><time>2026-04-25T06:32:49Z</time></trkpt><trkpt lat="45.05177100931527" lon="8.526789550398075"><ele>109.0</ele><time>2026-04-25T06:32:50Z</time></trkpt><trkpt lat="45.05180740094593" lon="8.52657482554691"><ele>109.0</ele><time>2026-04-25T06:32:51Z</time></trkpt><trkpt lat="45.051843930030266" lon="8.526346437440607"><ele>109.0</ele><time>2026-04-25T06:32:52Z</time></trkpt><trkpt lat="45.051879575953244" lon="8.526133544032277"><ele>109.0</ele><time>2026-04-25T06:32:53Z</time></trkpt><trkpt lat="45.05190952803752" lon="8.52592326661551"><ele>109.0</ele><time>2026-04-25T06:32:54Z</time></trkpt><trkpt lat="45.051948397892225" lon="8.525710366065619"><ele>109.0</ele><time>2026-04-25T06:32:55Z</time></trkpt><trkpt lat="45.051996513829735" lon="8.525495870980986"><ele>109.0</ele><time>2026-04-25T06:32:56Z</time></trkpt><trkpt lat="45.05203522677719" lon="8.525258481453283"><ele>109.0</ele><time>2026-04-25T06:32:57Z</time></trkpt><trkpt lat="45.05206636368526" lon="8.524995310729718"><ele>109.0</ele><time>2026-04-25T06:32:58Z</time></trkpt><trkpt lat="45.05209455263058" lon="8.524770997562857"><ele>109.0</ele><time>2026-04-25T06:32:59Z</time></trkpt><trkpt lat="45.05214037509345" lon="8.524574686779946"><ele>108.80000000000001</ele><time>2026-04-25T06:33:00Z</time></trkpt><trkpt lat="45.052182683703386" lon="8.524408716013562"><ele>108.60000000000001</ele><time>2026-04-25T06:33:01Z</time></trkpt><trkpt lat="45.052223926671175" lon="8.524273546468477"><ele>108.4</ele><time>2026-04-25T06:33:02Z</time></trkpt><trkpt lat="45.05225985380368" lon="8.524172686562151"><ele>108.2</ele><time>2026-04-25T06:33:03Z</time></trkpt><trkpt lat="45.05229174990767" lon="8.52409144548811"><ele>108.0</ele><time>2026-04-25T06:33:04Z</time></trkpt><trkpt lat="45.05234999960048" lon="8.524011791661334"><ele>108.0</ele><time>2026-04-25T06:33:05Z</time></trkpt><trkpt lat="45.05243634825041" lon="8.523981582342461"><ele>108.00000000000001</ele><time>2026-04-25T06:33:06Z</time></trkpt><trkpt lat="45.05252927328794" lon="8.523985736130436"><ele>108.00000000000001</ele><time>2026-04-25T06:33:07Z</time></trkpt><trkpt lat="45.052608606131464" lon="8.523895197394685"><ele>108.0</ele><time>2026-04-25T06:33:09Z</time></trkpt><trkpt lat="45.052615432615696" lon="8.523774613726005"><ele>108.0</ele><time>2026-04-25T06:33:10Z</time></trkpt><trkpt lat="45.05260652338771" lon="8.523580370280527"><ele>108.0</ele><time>2026-04-25T06:33:11Z</time></trkpt><trkpt lat="45.05261190841313" lon="8.523318757277268"><ele>108.0</ele><time>2026-04-25T06:33:12Z</time></trkpt><trkpt lat="45.05263088089352" lon="8.52302273136234"><ele>108.0</ele><time>2026-04-25T06:33:13Z</time></trkpt><trkpt lat="45.05265172210398" lon="8.52274062877396"><ele>108.0</ele><time>2026-04-25T06:33:14Z</time></trkpt><trkpt lat="45.052670493436125" lon="8.522527026024898"><ele>108.0</ele><time>2026-04-25T06:33:15Z</time></trkpt><trkpt lat="45.05268861627525" lon="8.522332295911317"><ele>108.0</ele><time>2026-04-25T06:33:16Z</time></trkpt><trkpt lat="45.052701462328265" lon="8.52216499710753"><ele>108.0</ele><time>2026-04-25T06:33:17Z</time></trkpt><trkpt lat="45.052718699123986" lon="8.522025385026232"><ele>107.75</ele><time>2026-04-25T06:33:18Z</time></trkpt><trkpt lat="45.0527699115483" lon="8.521892853104827"><ele>107.5</ele><time>2026-04-25T06:33:19Z</time></trkpt><trkpt lat="45.05283862466692" lon="8.521757019084763"><ele>107.25</ele><time>2026-04-25T06:33:20Z</time></trkpt><trkpt lat="45.05292108925737" lon="8.521607348844096"><ele>107.0</ele><time>2026-04-25T06:33:21Z</time></trkpt><trkpt lat="45.053006792710015" lon="8.521452806824337"><ele>107.0</ele><time>2026-04-25T06:33:22Z</time></trkpt><trkpt lat="45.05312077895987" lon="8.521271075613564"><ele>107.0</ele><time>2026-04-25T06:33:23Z</time></trkpt><trkpt lat="45.053232522353014" lon="8.521150720038495"><ele>107.0</ele><time>2026-04-25T06:33:24Z</time></trkpt><trkpt lat="45.05327317139107" lon="8.520963185621987"><ele>107.0</ele><time>2026-04-25T06:33:25Z</time></trkpt><trkpt lat="45.053316562150755" lon="8.520757710501089"><ele>107.0</ele><time>2026-04-25T06:33:26Z</time></trkpt><trkpt lat="45.05334471334868" lon="8.520504691951748"><ele>107.0</ele><time>2026-04-25T06:33:27Z</time></trkpt><trkpt lat="45.0533582143917" lon="8.520212366644108"><ele>107.0</ele><time>2026-04-25T06:33:28Z</time></trkpt><trkpt lat="45.053410869908106" lon="8.519914811388395"><ele>107.0</ele><time>2026-04-25T06:33:29Z</time></trkpt><trkpt lat="45.053453539557694" lon="8.519683661468239"><ele>107.0</ele><time>2026-04-25T06:33:30Z</time></trkpt><trkpt lat="45.0534974698303" lon="8.519508202058313"><ele>107.39999999999999</ele><time>2026-04-25T06:33:31Z</time></trkpt><trkpt lat="45.053503525924626" lon="8.519380573410281"><ele>107.79999999999998</ele><time>2026-04-25T06:33:32Z</time></trkpt><trkpt lat="45.05344654547135" lon="8.51925483884594"><ele>108.2</ele><time>2026-04-25T06:33:34Z</time></trkpt><trkpt lat="45.053425223575275" lon="8.519142136283307"><ele>108.6</ele><time>2026-04-25T06:33:35Z</time></trkpt><trkpt lat="45.05335575933013" lon="8.519041762704417"><ele>109.0</ele><time>2026-04-25T06:33:36Z</time></trkpt><trkpt lat="45.05331082771997" lon="8.518920397554544"><ele>109.00000000000001</ele><time>2026-04-25T06:33:37Z</time></trkpt><trkpt lat="45.053276164157985" lon="8.518826799104492"><ele>109.0</ele><time>2026-04-25T06:33:38Z</time></trkpt><trkpt lat="45.05323841782374" lon="8.518718839879133"><ele>109.0</ele><time>2026-04-25T06:33:39Z</time></trkpt><trkpt lat="45.05319017025047" lon="8.518605528592229"><ele>109.0</ele><time>2026-04-25T06:33:40Z</time></trkpt><trkpt lat="45.053143698915996" lon="8.518492547423916"><ele>109.00000000000001</ele><time>2026-04-25T06:33:41Z</time></trkpt><trkpt lat="45.05310965227364" lon="8.518388682474072"><ele>109.0</ele><time>2026-04-25T06:33:42Z</time></trkpt><trkpt lat="45.05308591752356" lon="8.518268131048089"><ele>109.25</ele><time>2026-04-25T06:33:43Z</time></trkpt><trkpt lat="45.053060093520834" lon="8.518185427282964"><ele>109.5</ele><time>2026-04-25T06:33:44Z</time></trkpt><trkpt lat="45.05314888506444" lon="8.518017252506938"><ele>109.75</ele><time>2026-04-25T06:33:46Z</time></trkpt><trkpt lat="45.05324920708751" lon="8.51793443825444"><ele>110.0</ele><time>2026-04-25T06:33:47Z</time></trkpt><trkpt lat="45.05339751904648" lon="8.517846164971365"><ele>109.33333333333333</ele><time>2026-04-25T06:33:48Z</time></trkpt><trkpt lat="45.05357290102181" lon="8.51772859878771"><ele>108.66666666666666</ele><time>2026-04-25T06:33:49Z</time></trkpt><trkpt lat="45.05371119564313" lon="8.517626519244237"><ele>108.0</ele><time>2026-04-25T06:33:50Z</time></trkpt><trkpt lat="45.05381331319581" lon="8.517563565617229"><ele>108.0</ele><time>2026-04-25T06:33:51Z</time></trkpt><trkpt lat="45.053877370192836" lon="8.517517080592963"><ele>108.0</ele><time>2026-04-25T06:33:51.999Z</time></trkpt><trkpt lat="45.05393725074714" lon="8.517384698309453"><ele>108.0</ele><time>2026-04-25T06:33:53.999Z</time></trkpt><trkpt lat="45.05393309175884" lon="8.517272449902576"><ele>108.0</ele><time>2026-04-25T06:33:54.999Z</time></trkpt><trkpt lat="45.05392377834266" lon="8.517151620287319"><ele>108.0</ele><time>2026-04-25T06:33:55.999Z</time></trkpt><trkpt lat="45.05395223626659" lon="8.51704168669153"><ele>108.0</ele><time>2026-04-25T06:33:56.999Z</time></trkpt><trkpt lat="45.054013481920975" lon="8.516888055604383"><ele>108.0</ele><time>2026-04-25T06:33:57.999Z</time></trkpt><trkpt lat="45.05408028574912" lon="8.516677689326489"><ele>108.0</ele><time>2026-04-25T06:33:58.999Z</time></trkpt><trkpt lat="45.05412636356585" lon="8.516411830229988"><ele>108.0</ele><time>2026-04-25T06:33:59.999Z</time></trkpt><trkpt lat="45.05416127452032" lon="8.516133116004433"><ele>108.0</ele><time>2026-04-25T06:34:00.999Z</time></trkpt><trkpt lat="45.054194715172" lon="8.515879849947831"><ele>108.0</ele><time>2026-04-25T06:34:01.999Z</time></trkpt><trkpt lat="45.054251490071366" lon="8.515598267735708"><ele>108.0</ele><time>2026-04-25T06:34:02.999Z</time></trkpt><trkpt lat="45.05429136216435" lon="8.515330574670708"><ele>108.25</ele><time>2026-04-25T06:34:03.999Z</time></trkpt><trkpt lat="45.054303762857806" lon="8.515109068587616"><ele>108.5</ele><time>2026-04-25T06:34:04.999Z</time></trkpt><trkpt lat="45.05436614895374" lon="8.514949187051197"><ele>108.75</ele><time>2026-04-25T06:34:05.999Z</time></trkpt><trkpt lat="45.0543964071079" lon="8.514780357389771"><ele>109.0</ele><time>2026-04-25T06:34:06.999Z</time></trkpt><trkpt lat="45.054427986171426" lon="8.514626613634409"><ele>109.00000000000001</ele><time>2026-04-25T06:34:07.999Z</time></trkpt><trkpt lat="45.054450178251074" lon="8.514492655697827"><ele>109.0</ele><time>2026-04-25T06:34:08.999Z</time></trkpt><trkpt lat="45.05447469838039" lon="8.514368556004362"><ele>109.0</ele><time>2026-04-25T06:34:09.999Z</time></trkpt><trkpt lat="45.05449076285701" lon="8.514255827457013"><ele>109.0</ele><time>2026-04-25T06:34:10.999Z</time></trkpt><trkpt lat="45.05451518602164" lon="8.514153387433046"><ele>109.00000000000001</ele><time>2026-04-25T06:34:11.999Z</time></trkpt><trkpt lat="45.05454007394783" lon="8.514027663247045"><ele>109.0</ele><time>2026-04-25T06:34:12.999Z</time></trkpt><trkpt lat="45.05455375782353" lon="8.51390765333781"><ele>109.00000000000001</ele><time>2026-04-25T06:34:13.999Z</time></trkpt><trkpt lat="45.05457103233439" lon="8.51378351486316"><ele>109.0</ele><time>2026-04-25T06:34:14.999Z</time></trkpt><trkpt lat="45.054583534823124" lon="8.5136752614322"><ele>109.0</ele><time>2026-04-25T06:34:15.999Z</time></trkpt><trkpt lat="45.05460590068302" lon="8.513579044190038"><ele>109.0</ele><time>2026-04-25T06:34:16.999Z</time></trkpt><trkpt lat="45.05461853161045" lon="8.513462904176992"><ele>109.00000000000001</ele><time>2026-04-25T06:34:18.999Z</time></trkpt><trkpt lat="45.0546343294027" lon="8.513343835462585"><ele>109.0</ele><time>2026-04-25T06:34:21.999Z</time></trkpt><trkpt lat="45.05464763998043" lon="8.51324504701157"><ele>108.83333333333334</ele><time>2026-04-25T06:34:25.999Z</time></trkpt><trkpt lat="45.05467601926818" lon="8.51315446038909"><ele>108.66666666666667</ele><time>2026-04-25T06:40:53.999Z</time></trkpt><trkpt lat="45.05477063250614" lon="8.513067206868318"><ele>108.5</ele><time>2026-04-25T06:40:55.999Z</time></trkpt><trkpt lat="45.05483709517681" lon="8.513023713003928"><ele>108.33333333333334</ele><time>2026-04-25T06:40:56.999Z</time></trkpt><trkpt lat="45.054913672215676" lon="8.512967826278802"><ele>108.16666666666667</ele><time>2026-04-25T06:40:57.999Z</time></trkpt><trkpt lat="45.05500063962699" lon="8.512896022139229"><ele>108.0</ele><time>2026-04-25T06:40:58.999Z</time></trkpt><trkpt lat="45.05510186223107" lon="8.512818998909827"><ele>108.0</ele><time>2026-04-25T06:41:00Z</time></trkpt><trkpt lat="45.05520715184772" lon="8.512738954534342"><ele>108.0</ele><time>2026-04-25T06:41:01Z</time></trkpt><trkpt lat="45.05532345035744" lon="8.512655115402337"><ele>108.0</ele><time>2026-04-25T06:41:02Z</time></trkpt><trkpt lat="45.05544737120506" lon="8.512566667202709"><ele>108.0</ele><time>2026-04-25T06:41:03Z</time></trkpt><trkpt lat="45.05557172591185" lon="8.512470100489038"><ele>108.0</ele><time>2026-04-25T06:41:04Z</time></trkpt><trkpt lat="45.055699398619474" lon="8.51237190840384"><ele>108.0</ele><time>2026-04-25T06:41:05Z</time></trkpt><trkpt lat="45.05583170185904" lon="8.51226898783745"><ele>108.0</ele><time>2026-04-25T06:41:06Z</time></trkpt><trkpt lat="45.05596365484003" lon="8.512166163753442"><ele>108.0</ele><time>2026-04-25T06:41:07Z</time></trkpt><trkpt lat="45.05610816819059" lon="8.512064960627223"><ele>107.66666666666666</ele><time>2026-04-25T06:41:08Z</time></trkpt><trkpt lat="45.05624749932924" lon="8.51195917717467"><ele>107.33333333333333</ele><time>2026-04-25T06:41:09Z</time></trkpt><trkpt lat="45.0563862812042" lon="8.51185246387417"><ele>107.0</ele><time>2026-04-25T06:41:10Z</time></trkpt><trkpt lat="45.056542234130724" lon="8.511733633958714"><ele>107.0</ele><time>2026-04-25T06:41:11Z</time></trkpt><trkpt lat="45.05668453637251" lon="8.511634365098487"><ele>107.0</ele><time>2026-04-25T06:41:12Z</time></trkpt><trkpt lat="45.056834676247774" lon="8.511515040928806"><ele>107.0</ele><time>2026-04-25T06:41:13Z</time></trkpt><trkpt lat="45.05697969532406" lon="8.51142162548976"><ele>107.0</ele><time>2026-04-25T06:41:14Z</time></trkpt><trkpt lat="45.05712446181137" lon="8.511292588260195"><ele>107.0</ele><time>2026-04-25T06:41:15Z</time></trkpt><trkpt lat="45.057276314585856" lon="8.511189004497462"><ele>107.0</ele><time>2026-04-25T06:41:16Z</time></trkpt><trkpt lat="45.05741457315421" lon="8.511078013086607"><ele>107.75</ele><time>2026-04-25T06:41:17Z</time></trkpt><trkpt lat="45.0575298280588" lon="8.510986179834902"><ele>108.5</ele><time>2026-04-25T06:41:18Z</time></trkpt><trkpt lat="45.05763364316727" lon="8.510924138796334"><ele>109.25</ele><time>2026-04-25T06:41:19Z</time></trkpt><trkpt lat="45.057743898513856" lon="8.510840273508501"><ele>110.0</ele><time>2026-04-25T06:41:20Z</time></trkpt><trkpt lat="45.05791821675379" lon="8.510683063570227"><ele>110.0</ele><time>2026-04-25T06:41:21Z</time></trkpt><trkpt lat="45.05809066441615" lon="8.510578900648431"><ele>110.0</ele><time>2026-04-25T06:41:22Z</time></trkpt><trkpt lat="45.058264105982346" lon="8.510450251980057"><ele>110.0</ele><time>2026-04-25T06:41:23Z</time></trkpt><trkpt lat="45.058416055034485" lon="8.510316672877098"><ele>110.0</ele><time>2026-04-25T06:41:25Z</time></trkpt><trkpt lat="45.058517715756004" lon="8.51024879765228"><ele>110.0</ele><time>2026-04-25T06:41:26Z</time></trkpt><trkpt lat="45.05860622010019" lon="8.510179362206662"><ele>110.0</ele><time>2026-04-25T06:41:27Z</time></trkpt><trkpt lat="45.058687502885405" lon="8.510111549852265"><ele>110.0</ele><time>2026-04-25T06:41:28Z</time></trkpt><trkpt lat="45.058760993035825" lon="8.510051193144202"><ele>110.0</ele><time>2026-04-25T06:41:29Z</time></trkpt><trkpt lat="45.05882658538481" lon="8.50999619875878"><ele>110.0</ele><time>2026-04-25T06:41:30Z</time></trkpt><trkpt lat="45.058883014850736" lon="8.509930033654346"><ele>110.0</ele><time>2026-04-25T06:41:31Z</time></trkpt><trkpt lat="45.058931048290475" lon="8.509860109405938"><ele>110.0</ele><time>2026-04-25T06:41:32Z</time></trkpt><trkpt lat="45.059004408855806" lon="8.509765009962502"><ele>110.0</ele><time>2026-04-25T06:41:34Z</time></trkpt><trkpt lat="45.05879725791642" lon="8.509563411599284"><ele>110.25</ele><time>2026-04-25T06:41:36Z</time></trkpt><trkpt lat="45.05869234761989" lon="8.509510026076066"><ele>110.5</ele><time>2026-04-25T06:41:37Z</time></trkpt><trkpt lat="45.05858627317901" lon="8.509423296970416"><ele>110.75</ele><time>2026-04-25T06:41:38Z</time></trkpt><trkpt lat="45.058455470763526" lon="8.509339374048167"><ele>111.0</ele><time>2026-04-25T06:41:39Z</time></trkpt><trkpt lat="45.05831724760091" lon="8.509244109334707"><ele>110.33333333333334</ele><time>2026-04-25T06:41:40Z</time></trkpt><trkpt lat="45.05816206510941" lon="8.50918430110142"><ele>109.66666666666667</ele><time>2026-04-25T06:41:41Z</time></trkpt><trkpt lat="45.05801998550651" lon="8.5090846431249"><ele>109.0</ele><time>2026-04-25T06:41:42Z</time></trkpt><trkpt lat="45.057886398785016" lon="8.508995682413097"><ele>109.0</ele><time>2026-04-25T06:41:43Z</time></trkpt><trkpt lat="45.057769421415045" lon="8.508915507888988"><ele>109.0</ele><time>2026-04-25T06:41:44Z</time></trkpt><trkpt lat="45.057653813247796" lon="8.508809389611873"><ele>109.0</ele><time>2026-04-25T06:41:45Z</time></trkpt><trkpt lat="45.05754599899615" lon="8.508742654279516"><ele>109.0</ele><time>2026-04-25T06:41:46Z</time></trkpt><trkpt lat="45.0574405976705" lon="8.508699465797077"><ele>109.2</ele><time>2026-04-25T06:41:47Z</time></trkpt><trkpt lat="45.05734746831374" lon="8.508635612158955"><ele>109.4</ele><time>2026-04-25T06:41:48Z</time></trkpt><trkpt lat="45.05729274212914" lon="8.508542738023996"><ele>109.6</ele><time>2026-04-25T06:41:49Z</time></trkpt><trkpt lat="45.05724136493686" lon="8.508446645027785"><ele>109.8</ele><time>2026-04-25T06:41:50Z</time></trkpt><trkpt lat="45.05719806486491" lon="8.508330432797306"><ele>110.0</ele><time>2026-04-25T06:41:51Z</time></trkpt><trkpt lat="45.057239826205375" lon="8.508189209871958"><ele>110.0</ele><time>2026-04-25T06:41:52Z</time></trkpt><trkpt lat="45.057271652762566" lon="8.508044959584941"><ele>110.0</ele><time>2026-04-25T06:41:53Z</time></trkpt><trkpt lat="45.057310667244046" lon="8.50789051924171"><ele>110.0</ele><time>2026-04-25T06:41:53.999Z</time></trkpt><trkpt lat="45.057352642138" lon="8.50772612353097"><ele>110.0</ele><time>2026-04-25T06:41:54.999Z</time></trkpt><trkpt lat="45.057399239633426" lon="8.507554715521593"><ele>110.25</ele><time>2026-04-25T06:41:55.999Z</time></trkpt><trkpt lat="45.05744952466664" lon="8.50736974298614"><ele>110.5</ele><time>2026-04-25T06:41:56.999Z</time></trkpt><trkpt lat="45.057501987216135" lon="8.507179974218719"><ele>110.75</ele><time>2026-04-25T06:41:57.999Z</time></trkpt><trkpt lat="45.05755758221281" lon="8.506979809220592"><ele>111.0</ele><time>2026-04-25T06:41:58.999Z</time></trkpt><trkpt lat="45.05761299842495" lon="8.506781231459433"><ele>111.0</ele><time>2026-04-25T06:41:59.999Z</time></trkpt><trkpt lat="45.0576750928394" lon="8.506565650715059"><ele>111.0</ele><time>2026-04-25T06:42:00.999Z</time></trkpt><trkpt lat="45.05773359805921" lon="8.506362531027792"><ele>111.0</ele><time>2026-04-25T06:42:01.999Z</time></trkpt><trkpt lat="45.05779762913695" lon="8.50614206934137"><ele>111.0</ele><time>2026-04-25T06:42:02.999Z</time></trkpt><trkpt lat="45.05785272759939" lon="8.5059306622188"><ele>111.0</ele><time>2026-04-25T06:42:03.999Z</time></trkpt><trkpt lat="45.057907581577986" lon="8.505762274278252"><ele>111.0</ele><time>2026-04-25T06:42:04.999Z</time></trkpt><trkpt lat="45.057959835769886" lon="8.505581308968555"><ele>111.0</ele><time>2026-04-25T06:42:05.999Z</time></trkpt><trkpt lat="45.058016603889094" lon="8.505384497050969"><ele>111.0</ele><time>2026-04-25T06:42:06.999Z</time></trkpt><trkpt lat="45.05807055804851" lon="8.505204876440917"><ele>111.0</ele><time>2026-04-25T06:42:07.999Z</time></trkpt><trkpt lat="45.05813229102652" lon="8.504998585212988"><ele>111.0</ele><time>2026-04-25T06:42:08.999Z</time></trkpt><trkpt lat="45.058191991189524" lon="8.50479351346054"><ele>111.0</ele><time>2026-04-25T06:42:09.999Z</time></trkpt><trkpt lat="45.058241352985505" lon="8.504623828295664"><ele>111.0</ele><time>2026-04-25T06:42:10.999Z</time></trkpt><trkpt lat="45.05828738303722" lon="8.504465153454074"><ele>111.0</ele><time>2026-04-25T06:42:11.999Z</time></trkpt><trkpt lat="45.05832994071034" lon="8.504318448604158"><ele>111.0</ele><time>2026-04-25T06:42:12.999Z</time></trkpt><trkpt lat="45.05836053635956" lon="8.504212979253309"><ele>111.0</ele><time>2026-04-25T06:42:13.999Z</time></trkpt><trkpt lat="45.05839928957675" lon="8.504079389209016"><ele>111.25</ele><time>2026-04-25T06:42:15.999Z</time></trkpt><trkpt lat="45.05826005074508" lon="8.50395804354201"><ele>111.5</ele><time>2026-04-25T06:42:16.999Z</time></trkpt><trkpt lat="45.0581700326788" lon="8.503834765128628"><ele>111.75</ele><time>2026-04-25T06:42:17.999Z</time></trkpt><trkpt lat="45.058055030993124" lon="8.503696880772981"><ele>112.0</ele><time>2026-04-25T06:42:18.999Z</time></trkpt><trkpt lat="45.0579112747557" lon="8.503509740029259"><ele>112.0</ele><time>2026-04-25T06:42:19.999Z</time></trkpt><trkpt lat="45.05778038537323" lon="8.503304468573598"><ele>112.0</ele><time>2026-04-25T06:42:20.999Z</time></trkpt><trkpt lat="45.05768419150706" lon="8.503128961241798"><ele>112.0</ele><time>2026-04-25T06:42:21.999Z</time></trkpt><trkpt lat="45.05758502772849" lon="8.50293397147895"><ele>112.0</ele><time>2026-04-25T06:42:22.999Z</time></trkpt><trkpt lat="45.05748851521583" lon="8.502755282800548"><ele>112.0</ele><time>2026-04-25T06:42:23.999Z</time></trkpt><trkpt lat="45.05740317684145" lon="8.502600079938901"><ele>112.0</ele><time>2026-04-25T06:42:24.999Z</time></trkpt><trkpt lat="45.057313051463815" lon="8.502474175724215"><ele>112.0</ele><time>2026-04-25T06:42:25.999Z</time></trkpt><trkpt lat="45.05725679903739" lon="8.502333866139534"><ele>112.0</ele><time>2026-04-25T06:42:26.999Z</time></trkpt><trkpt lat="45.05718031047253" lon="8.502230155387831"><ele>111.99999999999999</ele><time>2026-04-25T06:42:27.999Z</time></trkpt><trkpt lat="45.05713624007286" lon="8.502132044899167"><ele>111.99999999999999</ele><time>2026-04-25T06:42:28.999Z</time></trkpt><trkpt lat="45.05709062939674" lon="8.502049098586829"><ele>112.0</ele><time>2026-04-25T06:42:29.999Z</time></trkpt><trkpt lat="45.05702597275533" lon="8.501904708442956"><ele>112.0</ele><time>2026-04-25T06:42:31.999Z</time></trkpt><trkpt lat="45.05698222518384" lon="8.501832226414882"><ele>112.00000000000001</ele><time>2026-04-25T06:42:32.999Z</time></trkpt><trkpt lat="45.056918683413755" lon="8.501749761082326"><ele>112.0</ele><time>2026-04-25T06:42:33.999Z</time></trkpt><trkpt lat="45.05686831732541" lon="8.50165716299767"><ele>112.0</ele><time>2026-04-25T06:42:34.999Z</time></trkpt><trkpt lat="45.05680481792576" lon="8.501562686728555"><ele>112.0</ele><time>2026-04-25T06:42:35.999Z</time></trkpt><trkpt lat="45.05675433078396" lon="8.501487765350321"><ele>112.00000000000001</ele><time>2026-04-25T06:42:36.999Z</time></trkpt><trkpt lat="45.056704989374765" lon="8.501414023256421"><ele>112.0</ele><time>2026-04-25T06:42:37.999Z</time></trkpt><trkpt lat="45.05661956509231" lon="8.501286630277505"><ele>112.25</ele><time>2026-04-25T06:42:39.999Z</time></trkpt><trkpt lat="45.05656136476422" lon="8.501199836307446"><ele>112.5</ele><time>2026-04-25T06:42:40.999Z</time></trkpt><trkpt lat="45.056482503335694" lon="8.501082230491752"><ele>112.75</ele><time>2026-04-25T06:42:41.999Z</time></trkpt><trkpt lat="45.056397866099346" lon="8.50095635946857"><ele>113.0</ele><time>2026-04-25T06:42:42.999Z</time></trkpt><trkpt lat="45.05629773223413" lon="8.500808615472732"><ele>113.0</ele><time>2026-04-25T06:42:43.999Z</time></trkpt><trkpt lat="45.05618215557972" lon="8.500638086159247"><ele>113.0</ele><time>2026-04-25T06:42:44.999Z</time></trkpt><trkpt lat="45.05607750896654" lon="8.500483683751067"><ele>113.0</ele><time>2026-04-25T06:42:45.999Z</time></trkpt><trkpt lat="45.05598277952742" lon="8.500343913795152"><ele>113.5</ele><time>2026-04-25T06:42:46.999Z</time></trkpt><trkpt lat="45.0558949900433" lon="8.500215507631054"><ele>114.0</ele><time>2026-04-25T06:42:47.999Z</time></trkpt><trkpt lat="45.05580735915329" lon="8.500087466025391"><ele>114.5</ele><time>2026-04-25T06:42:48.999Z</time></trkpt><trkpt lat="45.05571241583612" lon="8.49997736156449"><ele>115.0</ele><time>2026-04-25T06:42:49.999Z</time></trkpt><trkpt lat="45.05561907258822" lon="8.499849111939902"><ele>115.0</ele><time>2026-04-25T06:42:50.999Z</time></trkpt><trkpt lat="45.05550853369207" lon="8.499739222694142"><ele>115.0</ele><time>2026-04-25T06:42:51.999Z</time></trkpt><trkpt lat="45.05537706401382" lon="8.499666789836732"><ele>115.0</ele><time>2026-04-25T06:42:52.999Z</time></trkpt><trkpt lat="45.055239671695844" lon="8.499628685158983"><ele>115.0</ele><time>2026-04-25T06:42:53.999Z</time></trkpt><trkpt lat="45.055093828595204" lon="8.499613126254161"><ele>115.0</ele><time>2026-04-25T06:42:54.999Z</time></trkpt><trkpt lat="45.05494364703535" lon="8.499604862768981"><ele>115.0</ele><time>2026-04-25T06:42:55.999Z</time></trkpt><trkpt lat="45.054789265228656" lon="8.499577466283178"><ele>115.0</ele><time>2026-04-25T06:42:56.999Z</time></trkpt><trkpt lat="45.05464421236224" lon="8.499504316772281"><ele>115.0</ele><time>2026-04-25T06:42:57.999Z</time></trkpt><trkpt lat="45.054490580085684" lon="8.499434232986856"><ele>115.0</ele><time>2026-04-25T06:42:58.999Z</time></trkpt><trkpt lat="45.05433967519995" lon="8.49936494968743"><ele>115.0</ele><time>2026-04-25T06:42:59.999Z</time></trkpt><trkpt lat="45.05418656132866" lon="8.49929283409573"><ele>114.66666666666667</ele><time>2026-04-25T06:43:00.999Z</time></trkpt><trkpt lat="45.05403265108622" lon="8.499220868505088"><ele>114.33333333333334</ele><time>2026-04-25T06:43:01.999Z</time></trkpt><trkpt lat="45.0538904843061" lon="8.499173267654287"><ele>114.0</ele><time>2026-04-25T06:43:02.999Z</time></trkpt><trkpt lat="45.05374888525354" lon="8.499106223615241"><ele>114.0</ele><time>2026-04-25T06:43:03.999Z</time></trkpt><trkpt lat="45.05361135551634" lon="8.499021366864051"><ele>114.0</ele><time>2026-04-25T06:43:04.999Z</time></trkpt><trkpt lat="45.053463588038156" lon="8.498951296064208"><ele>114.0</ele><time>2026-04-25T06:43:06Z</time></trkpt><trkpt lat="45.05331375195054" lon="8.498909670286755"><ele>113.75</ele><time>2026-04-25T06:43:07Z</time></trkpt><trkpt lat="45.053189085618264" lon="8.498852869755877"><ele>113.5</ele><time>2026-04-25T06:43:08Z</time></trkpt><trkpt lat="45.05307112685012" lon="8.498811924607176"><ele>113.25</ele><time>2026-04-25T06:43:09Z</time></trkpt><trkpt lat="45.05296266276886" lon="8.498744241181331"><ele>113.0</ele><time>2026-04-25T06:43:10Z</time></trkpt><trkpt lat="45.052842931041106" lon="8.498698497177239"><ele>113.25</ele><time>2026-04-25T06:43:11Z</time></trkpt><trkpt lat="45.05271809754995" lon="8.49865126967498"><ele>113.5</ele><time>2026-04-25T06:43:12Z</time></trkpt><trkpt lat="45.05258750002152" lon="8.498600615787055"><ele>113.75</ele><time>2026-04-25T06:43:13Z</time></trkpt><trkpt lat="45.052446605389264" lon="8.498545402182682"><ele>114.0</ele><time>2026-04-25T06:43:14Z</time></trkpt><trkpt lat="45.052305440081035" lon="8.498484612530635"><ele>114.0</ele><time>2026-04-25T06:43:15Z</time></trkpt><trkpt lat="45.05214894414172" lon="8.498417220991751"><ele>114.0</ele><time>2026-04-25T06:43:16Z</time></trkpt><trkpt lat="45.05199368333071" lon="8.498348083795502"><ele>114.0</ele><time>2026-04-25T06:43:17Z</time></trkpt><trkpt lat="45.05185161773692" lon="8.498278550126152"><ele>114.0</ele><time>2026-04-25T06:43:18Z</time></trkpt><trkpt lat="45.05170713829212" lon="8.498207254887458"><ele>114.0</ele><time>2026-04-25T06:43:19Z</time></trkpt><trkpt lat="45.05159117700811" lon="8.498150032302142"><ele>114.0</ele><time>2026-04-25T06:43:20Z</time></trkpt><trkpt lat="45.0514835064715" lon="8.498096900894744"><ele>114.0</ele><time>2026-04-25T06:43:21Z</time></trkpt><trkpt lat="45.05137964722119" lon="8.498047622491827"><ele>113.6</ele><time>2026-04-25T06:43:22Z</time></trkpt><trkpt lat="45.05129684794438" lon="8.498009183336718"><ele>113.2</ele><time>2026-04-25T06:43:23Z</time></trkpt><trkpt lat="45.05122889333558" lon="8.49797410700512"><ele>112.79999999999998</ele><time>2026-04-25T06:43:24Z</time></trkpt><trkpt lat="45.05116790254424" lon="8.497932412992313"><ele>112.39999999999999</ele><time>2026-04-25T06:43:25Z</time></trkpt><trkpt lat="45.05108074577717" lon="8.49784244854959"><ele>112.0</ele><time>2026-04-25T06:43:27Z</time></trkpt><trkpt lat="45.05114212668818" lon="8.497660023846878"><ele>112.0</ele><time>2026-04-25T06:43:28Z</time></trkpt><trkpt lat="45.051203754881435" lon="8.49751457965947"><ele>112.0</ele><time>2026-04-25T06:43:29Z</time></trkpt><trkpt lat="45.051248384449316" lon="8.497315485024368"><ele>112.0</ele><time>2026-04-25T06:43:30Z</time></trkpt><trkpt lat="45.051323547052405" lon="8.497112962938248"><ele>112.0</ele><time>2026-04-25T06:43:31Z</time></trkpt><trkpt lat="45.051365287518784" lon="8.496922842244974"><ele>112.39999999999999</ele><time>2026-04-25T06:43:32Z</time></trkpt><trkpt lat="45.05142765734122" lon="8.496776436099031"><ele>112.79999999999998</ele><time>2026-04-25T06:43:33Z</time></trkpt><trkpt lat="45.051459287350546" lon="8.496629394054652"><ele>113.2</ele><time>2026-04-25T06:43:34Z</time></trkpt><trkpt lat="45.05149371557505" lon="8.496506084284562"><ele>113.6</ele><time>2026-04-25T06:43:35Z</time></trkpt><trkpt lat="45.051540483407116" lon="8.49639515155853"><ele>114.0</ele><time>2026-04-25T06:43:36Z</time></trkpt><trkpt lat="45.051557844827606" lon="8.4962667069184"><ele>114.25</ele><time>2026-04-25T06:43:37Z</time></trkpt><trkpt lat="45.05154261238635" lon="8.496119533738703"><ele>114.5</ele><time>2026-04-25T06:43:38Z</time></trkpt><trkpt lat="45.051450287187556" lon="8.495989667673904"><ele>114.75</ele><time>2026-04-25T06:43:39Z</time></trkpt><trkpt lat="45.05135955925598" lon="8.495868339855601"><ele>115.0</ele><time>2026-04-25T06:43:40Z</time></trkpt><trkpt lat="45.0512778401812" lon="8.4957207734422"><ele>115.0</ele><time>2026-04-25T06:43:41Z</time></trkpt><trkpt lat="45.05118129890484" lon="8.495575059284876"><ele>115.0</ele><time>2026-04-25T06:43:42Z</time></trkpt><trkpt lat="45.05108722604785" lon="8.495415019309762"><ele>115.0</ele><time>2026-04-25T06:43:43Z</time></trkpt><trkpt lat="45.05099232953844" lon="8.495232666556294"><ele>115.0</ele><time>2026-04-25T06:43:44Z</time></trkpt><trkpt lat="45.05089996232639" lon="8.495048234273602"><ele>115.0</ele><time>2026-04-25T06:43:45Z</time></trkpt><trkpt lat="45.050813752303895" lon="8.49486949638721"><ele>115.0</ele><time>2026-04-25T06:43:46Z</time></trkpt><trkpt lat="45.05073034859051" lon="8.49468239783277"><ele>115.0</ele><time>2026-04-25T06:43:47Z</time></trkpt><trkpt lat="45.050653070972395" lon="8.49448549609166"><ele>115.0</ele><time>2026-04-25T06:43:48Z</time></trkpt><trkpt lat="45.05058191809401" lon="8.49428045510424"><ele>115.0</ele><time>2026-04-25T06:43:49Z</time></trkpt><trkpt lat="45.05052141893982" lon="8.494083114466294"><ele>115.0</ele><time>2026-04-25T06:43:50Z</time></trkpt><trkpt lat="45.05045631184145" lon="8.493875297186337"><ele>115.0</ele><time>2026-04-25T06:43:51Z</time></trkpt><trkpt lat="45.05038898660938" lon="8.493659546176229"><ele>115.0</ele><time>2026-04-25T06:43:52Z</time></trkpt><trkpt lat="45.050326026256435" lon="8.493451821328627"><ele>115.0</ele><time>2026-04-25T06:43:53Z</time></trkpt><trkpt lat="45.05027000039319" lon="8.493237903745532"><ele>115.0</ele><time>2026-04-25T06:43:54Z</time></trkpt><trkpt lat="45.05022718311767" lon="8.493021957158584"><ele>115.0</ele><time>2026-04-25T06:43:55Z</time></trkpt><trkpt lat="45.0501999017102" lon="8.492810697139205"><ele>115.0</ele><time>2026-04-25T06:43:56Z</time></trkpt><trkpt lat="45.05017026511461" lon="8.49258958615862"><ele>115.0</ele><time>2026-04-25T06:43:57Z</time></trkpt><trkpt lat="45.0501054961652" lon="8.492358690924554"><ele>115.0</ele><time>2026-04-25T06:43:58Z</time></trkpt><trkpt lat="45.050034022373325" lon="8.492134639150034"><ele>115.0</ele><time>2026-04-25T06:43:59Z</time></trkpt><trkpt lat="45.04996279187318" lon="8.491900432951297"><ele>115.33333333333334</ele><time>2026-04-25T06:44:00Z</time></trkpt><trkpt lat="45.04990246247881" lon="8.491669409848578"><ele>115.66666666666666</ele><time>2026-04-25T06:44:01Z</time></trkpt><trkpt lat="45.049849762637166" lon="8.491442875149119"><ele>116.0</ele><time>2026-04-25T06:44:02Z</time></trkpt><trkpt lat="45.049794354570956" lon="8.491217452143728"><ele>116.0</ele><time>2026-04-25T06:44:03Z</time></trkpt><trkpt lat="45.04973070791571" lon="8.49099845300467"><ele>116.0</ele><time>2026-04-25T06:44:04Z</time></trkpt><trkpt lat="45.04965757662522" lon="8.490797471341407"><ele>116.0</ele><time>2026-04-25T06:44:05Z</time></trkpt><trkpt lat="45.04958021702798" lon="8.490598064230715"><ele>117.33333333333333</ele><time>2026-04-25T06:44:06Z</time></trkpt><trkpt lat="45.04949680651513" lon="8.490386376498211"><ele>118.66666666666666</ele><time>2026-04-25T06:44:07Z</time></trkpt><trkpt lat="45.04942069777908" lon="8.490191551455537"><ele>120.0</ele><time>2026-04-25T06:44:08Z</time></trkpt><trkpt lat="45.049334180953736" lon="8.489969363846091"><ele>120.0</ele><time>2026-04-25T06:44:09Z</time></trkpt><trkpt lat="45.049255827235484" lon="8.489768140227994"><ele>120.0</ele><time>2026-04-25T06:44:09.999Z</time></trkpt><trkpt lat="45.04917286459455" lon="8.48955508031866"><ele>120.0</ele><time>2026-04-25T06:44:10.999Z</time></trkpt><trkpt lat="45.049091106045594" lon="8.489345112615489"><ele>118.33333333333334</ele><time>2026-04-25T06:44:11.999Z</time></trkpt><trkpt lat="45.04901135812436" lon="8.489140037443523"><ele>116.66666666666667</ele><time>2026-04-25T06:44:12.999Z</time></trkpt><trkpt lat="45.04893367618823" lon="8.488940129657752"><ele>115.0</ele><time>2026-04-25T06:44:13.999Z</time></trkpt><trkpt lat="45.04885189129618" lon="8.488729663177352"><ele>114.66666666666667</ele><time>2026-04-25T06:44:14.999Z</time></trkpt><trkpt lat="45.04877631640198" lon="8.488535177705954"><ele>114.33333333333334</ele><time>2026-04-25T06:44:15.999Z</time></trkpt><trkpt lat="45.04869586644568" lon="8.488328146647897"><ele>114.0</ele><time>2026-04-25T06:44:16.999Z</time></trkpt><trkpt lat="45.048621837383465" lon="8.488137639265592"><ele>114.0</ele><time>2026-04-25T06:44:17.999Z</time></trkpt><trkpt lat="45.04854467651406" lon="8.48793953965537"><ele>114.0</ele><time>2026-04-25T06:44:18.999Z</time></trkpt><trkpt lat="45.04846090539928" lon="8.487732022139207"><ele>114.0</ele><time>2026-04-25T06:44:19.999Z</time></trkpt><trkpt lat="45.04838121667569" lon="8.487552184440405"><ele>114.25</ele><time>2026-04-25T06:44:20.999Z</time></trkpt><trkpt lat="45.04829987230363" lon="8.48739980163311"><ele>114.5</ele><time>2026-04-25T06:44:21.999Z</time></trkpt><trkpt lat="45.0482008541365" lon="8.487243386673809"><ele>114.75</ele><time>2026-04-25T06:44:22.999Z</time></trkpt><trkpt lat="45.048094103017974" lon="8.487089194653251"><ele>115.0</ele><time>2026-04-25T06:44:23.999Z</time></trkpt><trkpt lat="45.04798664974202" lon="8.486922529696685"><ele>115.66666666666667</ele><time>2026-04-25T06:44:24.999Z</time></trkpt><trkpt lat="45.0478957808776" lon="8.486746067723525"><ele>116.33333333333334</ele><time>2026-04-25T06:44:25.999Z</time></trkpt><trkpt lat="45.04781240244683" lon="8.486540930469149"><ele>117.0</ele><time>2026-04-25T06:44:26.999Z</time></trkpt><trkpt lat="45.047739153723654" lon="8.486339646578497"><ele>116.66666666666666</ele><time>2026-04-25T06:44:27.999Z</time></trkpt><trkpt lat="45.047662006617756" lon="8.486119832436048"><ele>116.33333333333333</ele><time>2026-04-25T06:44:28.999Z</time></trkpt><trkpt lat="45.047591007758946" lon="8.485913119751725"><ele>116.0</ele><time>2026-04-25T06:44:29.999Z</time></trkpt><trkpt lat="45.047516876935866" lon="8.48569728813848"><ele>116.0</ele><time>2026-04-25T06:44:30.999Z</time></trkpt><trkpt lat="45.04743608719858" lon="8.485462069181986"><ele>116.0</ele><time>2026-04-25T06:44:31.999Z</time></trkpt><trkpt lat="45.04736542923155" lon="8.48525634886261"><ele>116.0</ele><time>2026-04-25T06:44:32.999Z</time></trkpt><trkpt lat="45.04730265676957" lon="8.485075806816722"><ele>116.0</ele><time>2026-04-25T06:44:33.999Z</time></trkpt><trkpt lat="45.04723347781607" lon="8.484881564165319"><ele>116.0</ele><time>2026-04-25T06:44:34.999Z</time></trkpt><trkpt lat="45.04716228489351" lon="8.484695077809418"><ele>116.0</ele><time>2026-04-25T06:44:35.999Z</time></trkpt><trkpt lat="45.04708777398608" lon="8.484522804386273"><ele>116.0</ele><time>2026-04-25T06:44:36.999Z</time></trkpt><trkpt lat="45.047015607079466" lon="8.484373539809862"><ele>116.75</ele><time>2026-04-25T06:44:37.999Z</time></trkpt><trkpt lat="45.046943023817626" lon="8.484231360707689"><ele>117.5</ele><time>2026-04-25T06:44:38.999Z</time></trkpt><trkpt lat="45.04685952952291" lon="8.484069248639328"><ele>118.25</ele><time>2026-04-25T06:44:39.999Z</time></trkpt><trkpt lat="45.046771798312115" lon="8.483901582321378"><ele>119.0</ele><time>2026-04-25T06:44:40.999Z</time></trkpt><trkpt lat="45.046679064057514" lon="8.483723739301464"><ele>118.75</ele><time>2026-04-25T06:44:41.999Z</time></trkpt><trkpt lat="45.04658737685117" lon="8.483545283686325"><ele>118.5</ele><time>2026-04-25T06:44:42.999Z</time></trkpt><trkpt lat="45.04650023014908" lon="8.483369242208356"><ele>118.25</ele><time>2026-04-25T06:44:43.999Z</time></trkpt><trkpt lat="45.04643798213922" lon="8.483233384160306"><ele>118.0</ele><time>2026-04-25T06:44:44.999Z</time></trkpt><trkpt lat="45.04638799620174" lon="8.483118511338468"><ele>118.00000000000001</ele><time>2026-04-25T06:44:45.999Z</time></trkpt><trkpt lat="45.04635618728472" lon="8.48303694852167"><ele>118.0</ele><time>2026-04-25T06:44:46.999Z</time></trkpt><trkpt lat="45.046302935425366" lon="8.48292761607673"><ele>118.0</ele><time>2026-04-25T06:44:48.999Z</time></trkpt><trkpt lat="45.046275047811896" lon="8.482813408709164"><ele>118.0</ele><time>2026-04-25T06:44:51.999Z</time></trkpt><trkpt lat="45.04621868829338" lon="8.482692372041084"><ele>118.00000000000001</ele><time>2026-04-25T06:44:53.999Z</time></trkpt><trkpt lat="45.046197533857125" lon="8.482577336321942"><ele>118.0</ele><time>2026-04-25T06:44:54.999Z</time></trkpt><trkpt lat="45.046158446263746" lon="8.48245356407443"><ele>118.16666666666667</ele><time>2026-04-25T06:44:55.999Z</time></trkpt><trkpt lat="45.04612229463115" lon="8.482339088557852"><ele>118.33333333333334</ele><time>2026-04-25T06:44:56.999Z</time></trkpt><trkpt lat="45.04608904987296" lon="8.482235602775367"><ele>118.5</ele><time>2026-04-25T06:44:57.999Z</time></trkpt><trkpt lat="45.04605208278897" lon="8.48212913242071"><ele>118.66666666666666</ele><time>2026-04-25T06:44:58.999Z</time></trkpt><trkpt lat="45.04601255903405" lon="8.482023659278452"><ele>118.83333333333333</ele><time>2026-04-25T06:44:59.999Z</time></trkpt><trkpt lat="45.0459793247348" lon="8.48194051145552"><ele>119.0</ele><time>2026-04-25T06:45:00.999Z</time></trkpt><trkpt lat="45.045932573108814" lon="8.481827610658646"><ele>119.0</ele><time>2026-04-25T06:45:01.999Z</time></trkpt><trkpt lat="45.04588653602709" lon="8.481719158035238"><ele>119.0</ele><time>2026-04-25T06:45:02.999Z</time></trkpt><trkpt lat="45.045835367734284" lon="8.481600938107414"><ele>119.0</ele><time>2026-04-25T06:45:03.999Z</time></trkpt><trkpt lat="45.045786853324095" lon="8.481488849682782"><ele>119.0</ele><time>2026-04-25T06:45:04.999Z</time></trkpt><trkpt lat="45.045750597230864" lon="8.481406563949886"><ele>119.0</ele><time>2026-04-25T06:45:05.999Z</time></trkpt><trkpt lat="45.04569504623215" lon="8.48127966952541"><ele>119.2</ele><time>2026-04-25T06:45:07.999Z</time></trkpt><trkpt lat="45.045658391703824" lon="8.481175336668162"><ele>119.4</ele><time>2026-04-25T06:45:09.999Z</time></trkpt><trkpt lat="45.0456179993003" lon="8.48103470717185"><ele>119.6</ele><time>2026-04-25T06:45:12Z</time></trkpt><trkpt lat="45.045593078947135" lon="8.480923094791455"><ele>119.8</ele><time>2026-04-25T06:45:13Z</time></trkpt><trkpt lat="45.0455687837955" lon="8.48078879737378"><ele>120.0</ele><time>2026-04-25T06:45:14Z</time></trkpt><trkpt lat="45.04554781628769" lon="8.480638493547618"><ele>120.0</ele><time>2026-04-25T06:45:15Z</time></trkpt><trkpt lat="45.045535976502656" lon="8.48048366146547"><ele>120.0</ele><time>2026-04-25T06:45:16Z</time></trkpt><trkpt lat="45.04552632383647" lon="8.480307151131864"><ele>120.0</ele><time>2026-04-25T06:45:17Z</time></trkpt><trkpt lat="45.04551563714311" lon="8.48012667303742"><ele>120.0</ele><time>2026-04-25T06:45:18Z</time></trkpt><trkpt lat="45.04550047714939" lon="8.479941559050673"><ele>120.0</ele><time>2026-04-25T06:45:19Z</time></trkpt><trkpt lat="45.04546399448859" lon="8.479757631097568"><ele>120.0</ele><time>2026-04-25T06:45:20Z</time></trkpt><trkpt lat="45.04539523252077" lon="8.479588275342566"><ele>120.0</ele><time>2026-04-25T06:45:21Z</time></trkpt><trkpt lat="45.04528345478196" lon="8.479463070166869"><ele>120.0</ele><time>2026-04-25T06:45:22Z</time></trkpt><trkpt lat="45.04518115829062" lon="8.479316474261537"><ele>119.5</ele><time>2026-04-25T06:45:23Z</time></trkpt><trkpt lat="45.04506736871181" lon="8.47918979832121"><ele>119.0</ele><time>2026-04-25T06:45:24Z</time></trkpt><trkpt lat="45.044952004180246" lon="8.479061571647712"><ele>118.5</ele><time>2026-04-25T06:45:25Z</time></trkpt><trkpt lat="45.04484192886801" lon="8.478942416704859"><ele>118.0</ele><time>2026-04-25T06:45:26Z</time></trkpt><trkpt lat="45.04472883336592" lon="8.478805118717137"><ele>119.25</ele><time>2026-04-25T06:45:27Z</time></trkpt><trkpt lat="45.04463130123315" lon="8.478666576601613"><ele>120.5</ele><time>2026-04-25T06:45:28Z</time></trkpt><trkpt lat="45.04454789907855" lon="8.478496549552343"><ele>121.75</ele><time>2026-04-25T06:45:29Z</time></trkpt><trkpt lat="45.044483325236165" lon="8.478319522814807"><ele>123.0</ele><time>2026-04-25T06:45:30Z</time></trkpt><trkpt lat="45.044418164238856" lon="8.478130413005895"><ele>123.0</ele><time>2026-04-25T06:45:31Z</time></trkpt><trkpt lat="45.04436015335693" lon="8.477955359478106"><ele>123.0</ele><time>2026-04-25T06:45:32Z</time></trkpt><trkpt lat="45.04429100088689" lon="8.477751068212104"><ele>123.0</ele><time>2026-04-25T06:45:33Z</time></trkpt><trkpt lat="45.04423164858907" lon="8.477580577669908"><ele>123.0</ele><time>2026-04-25T06:45:34Z</time></trkpt><trkpt lat="45.044167196413305" lon="8.477404169284794"><ele>123.0</ele><time>2026-04-25T06:45:35Z</time></trkpt><trkpt lat="45.044083858343576" lon="8.477238713306592"><ele>123.0</ele><time>2026-04-25T06:45:36Z</time></trkpt><trkpt lat="45.04400548427066" lon="8.477072507337096"><ele>123.0</ele><time>2026-04-25T06:45:37Z</time></trkpt><trkpt lat="45.043916178482704" lon="8.476910790355216"><ele>123.0</ele><time>2026-04-25T06:45:38Z</time></trkpt><trkpt lat="45.04382518037336" lon="8.476754571246252"><ele>123.0</ele><time>2026-04-25T06:45:39Z</time></trkpt><trkpt lat="45.04372905618022" lon="8.476596221039001"><ele>123.0</ele><time>2026-04-25T06:45:40Z</time></trkpt><trkpt lat="45.043646163570955" lon="8.476434107022998"><ele>123.0</ele><time>2026-04-25T06:45:41Z</time></trkpt><trkpt lat="45.04353787707138" lon="8.476290752814176"><ele>123.0</ele><time>2026-04-25T06:45:42Z</time></trkpt><trkpt lat="45.043449977369754" lon="8.4761584429886"><ele>123.4</ele><time>2026-04-25T06:45:43Z</time></trkpt><trkpt lat="45.043378044111655" lon="8.47602033137373"><ele>123.80000000000001</ele><time>2026-04-25T06:45:44Z</time></trkpt><trkpt lat="45.043306726355084" lon="8.475914315067229"><ele>124.2</ele><time>2026-04-25T06:45:45Z</time></trkpt><trkpt lat="45.04324313570628" lon="8.47581704044511"><ele>124.6</ele><time>2026-04-25T06:45:46Z</time></trkpt><trkpt lat="45.04317898800822" lon="8.47571530690269"><ele>125.0</ele><time>2026-04-25T06:45:47Z</time></trkpt><trkpt lat="45.04311621838881" lon="8.47561012167249"><ele>125.0</ele><time>2026-04-25T06:45:48Z</time></trkpt><trkpt lat="45.043058179625014" lon="8.475495149276924"><ele>125.0</ele><time>2026-04-25T06:45:49Z</time></trkpt><trkpt lat="45.04298821278298" lon="8.475357594140519"><ele>125.0</ele><time>2026-04-25T06:45:50Z</time></trkpt><trkpt lat="45.04290053960912" lon="8.475224466857581"><ele>125.0</ele><time>2026-04-25T06:45:51Z</time></trkpt><trkpt lat="45.042810150028735" lon="8.475086901564033"><ele>126.33333333333333</ele><time>2026-04-25T06:45:52Z</time></trkpt><trkpt lat="45.04268844401202" lon="8.474969453567617"><ele>127.66666666666666</ele><time>2026-04-25T06:45:53Z</time></trkpt><trkpt lat="45.04253786293106" lon="8.474851383380242"><ele>129.0</ele><time>2026-04-25T06:45:54Z</time></trkpt><trkpt lat="45.0423740980667" lon="8.47469711948623"><ele>127.0</ele><time>2026-04-25T06:45:55Z</time></trkpt><trkpt lat="45.04218331388993" lon="8.474537555792434"><ele>125.0</ele><time>2026-04-25T06:45:56Z</time></trkpt><trkpt lat="45.04198690220585" lon="8.474398035063532"><ele>123.0</ele><time>2026-04-25T06:45:57Z</time></trkpt><trkpt lat="45.04183882243333" lon="8.474250654051287"><ele>123.0</ele><time>2026-04-25T06:45:58Z</time></trkpt><trkpt lat="45.04167531568385" lon="8.474116389431256"><ele>123.0</ele><time>2026-04-25T06:45:59Z</time></trkpt><trkpt lat="45.041509151286334" lon="8.473979941404677"><ele>123.0</ele><time>2026-04-25T06:46:00Z</time></trkpt><trkpt lat="45.04134627034952" lon="8.473839152744796"><ele>124.0</ele><time>2026-04-25T06:46:01Z</time></trkpt><trkpt lat="45.041193797349685" lon="8.473681553741546"><ele>125.0</ele><time>2026-04-25T06:46:02Z</time></trkpt><trkpt lat="45.041048818664045" lon="8.47352620632404"><ele>126.0</ele><time>2026-04-25T06:46:03Z</time></trkpt><trkpt lat="45.04090503956062" lon="8.473401590398735"><ele>125.0</ele><time>2026-04-25T06:46:04Z</time></trkpt><trkpt lat="45.04077676442808" lon="8.473248500841079"><ele>124.0</ele><time>2026-04-25T06:46:05Z</time></trkpt><trkpt lat="45.040674870882604" lon="8.473114217221621"><ele>123.0</ele><time>2026-04-25T06:46:06Z</time></trkpt><trkpt lat="45.04057089121713" lon="8.472998834783665"><ele>122.0</ele><time>2026-04-25T06:46:07Z</time></trkpt><trkpt lat="45.04045364713308" lon="8.472909025230239"><ele>122.0</ele><time>2026-04-25T06:46:08Z</time></trkpt><trkpt lat="45.04034154847647" lon="8.472831332417096"><ele>122.0</ele><time>2026-04-25T06:46:09Z</time></trkpt><trkpt lat="45.04020988334468" lon="8.472796543112809"><ele>122.0</ele><time>2026-04-25T06:46:10Z</time></trkpt><trkpt lat="45.040065104271775" lon="8.472799403597426"><ele>122.0</ele><time>2026-04-25T06:46:11Z</time></trkpt><trkpt lat="45.03991675022766" lon="8.472763912546707"><ele>122.0</ele><time>2026-04-25T06:46:12Z</time></trkpt><trkpt lat="45.03975758593045" lon="8.472747673928058"><ele>122.0</ele><time>2026-04-25T06:46:13Z</time></trkpt><trkpt lat="45.0396048801429" lon="8.472733812738266"><ele>122.0</ele><time>2026-04-25T06:46:14Z</time></trkpt><trkpt lat="45.03945404705596" lon="8.472720121534676"><ele>122.0</ele><time>2026-04-25T06:46:15Z</time></trkpt><trkpt lat="45.039281880867094" lon="8.47272763346818"><ele>122.0</ele><time>2026-04-25T06:46:16Z</time></trkpt><trkpt lat="45.03913959368134" lon="8.47270891528237"><ele>122.0</ele><time>2026-04-25T06:46:17Z</time></trkpt><trkpt lat="45.03901429282135" lon="8.472694342322137"><ele>122.0</ele><time>2026-04-25T06:46:18Z</time></trkpt><trkpt lat="45.0388969915643" lon="8.47268533155365"><ele>121.99999999999999</ele><time>2026-04-25T06:46:19Z</time></trkpt><trkpt lat="45.038789646486876" lon="8.472671654867987"><ele>122.0</ele><time>2026-04-25T06:46:20Z</time></trkpt><trkpt lat="45.03869259627505" lon="8.472658332379073"><ele>122.0</ele><time>2026-04-25T06:46:21Z</time></trkpt><trkpt lat="45.03859974772714" lon="8.472648297369386"><ele>122.0</ele><time>2026-04-25T06:46:22Z</time></trkpt><trkpt lat="45.03852019949713" lon="8.472638575674411"><ele>121.99999999999999</ele><time>2026-04-25T06:46:23Z</time></trkpt><trkpt lat="45.03844938330498" lon="8.47263055771603"><ele>122.0</ele><time>2026-04-25T06:46:24Z</time></trkpt><trkpt lat="45.03838468326673" lon="8.47261963725145"><ele>122.25</ele><time>2026-04-25T06:46:25Z</time></trkpt><trkpt lat="45.03828915037174" lon="8.472568625211474"><ele>122.5</ele><time>2026-04-25T06:46:27Z</time></trkpt><trkpt lat="45.03821955785321" lon="8.472690664251546"><ele>122.75</ele><time>2026-04-25T06:46:28Z</time></trkpt><trkpt lat="45.038124678177965" lon="8.472765128241642"><ele>123.0</ele><time>2026-04-25T06:46:28.999Z</time></trkpt><trkpt lat="45.038021378341675" lon="8.472880218055284"><ele>123.33333333333334</ele><time>2026-04-25T06:46:29.999Z</time></trkpt><trkpt lat="45.03790182860014" lon="8.473014819239864"><ele>123.66666666666667</ele><time>2026-04-25T06:46:30.999Z</time></trkpt><trkpt lat="45.03776221092849" lon="8.473169412860766"><ele>124.0</ele><time>2026-04-25T06:46:31.999Z</time></trkpt><trkpt lat="45.03760356544214" lon="8.473340251292559"><ele>124.66666666666667</ele><time>2026-04-25T06:46:32.999Z</time></trkpt><trkpt lat="45.037433195087246" lon="8.473523714895702"><ele>125.33333333333334</ele><time>2026-04-25T06:46:33.999Z</time></trkpt><trkpt lat="45.037282799235385" lon="8.473685669413058"><ele>126.0</ele><time>2026-04-25T06:46:34.999Z</time></trkpt><trkpt lat="45.03715702696599" lon="8.473821107752384"><ele>126.25</ele><time>2026-04-25T06:46:35.999Z</time></trkpt><trkpt lat="45.037046168361734" lon="8.473939233394786"><ele>126.5</ele><time>2026-04-25T06:46:36.999Z</time></trkpt><trkpt lat="45.0369551704342" lon="8.474036075577644"><ele>126.75</ele><time>2026-04-25T06:46:37.999Z</time></trkpt><trkpt lat="45.036834193373714" lon="8.474164276415276"><ele>127.0</ele><time>2026-04-25T06:46:38.999Z</time></trkpt><trkpt lat="45.03669889505181" lon="8.474307472455195"><ele>125.66666666666667</ele><time>2026-04-25T06:46:39.999Z</time></trkpt><trkpt lat="45.03656097820221" lon="8.474452010686603"><ele>124.33333333333334</ele><time>2026-04-25T06:46:40.999Z</time></trkpt><trkpt lat="45.036426431969176" lon="8.474590897167591"><ele>123.0</ele><time>2026-04-25T06:46:41.999Z</time></trkpt><trkpt lat="45.03629504877522" lon="8.474722803866483"><ele>123.0</ele><time>2026-04-25T06:46:42.999Z</time></trkpt><trkpt lat="45.03615780119978" lon="8.474858692689658"><ele>123.0</ele><time>2026-04-25T06:46:43.999Z</time></trkpt><trkpt lat="45.03602767318875" lon="8.474977896985802"><ele>123.0</ele><time>2026-04-25T06:46:44.999Z</time></trkpt><trkpt lat="45.03589734411977" lon="8.475087068904694"><ele>124.0</ele><time>2026-04-25T06:46:45.999Z</time></trkpt><trkpt lat="45.03575393364967" lon="8.475191145390294"><ele>125.0</ele><time>2026-04-25T06:46:46.999Z</time></trkpt><trkpt lat="45.03559031640243" lon="8.47530024580597"><ele>126.0</ele><time>2026-04-25T06:46:47.999Z</time></trkpt><trkpt lat="45.03542582462024" lon="8.475407054631571"><ele>125.66666666666666</ele><time>2026-04-25T06:46:48.999Z</time></trkpt><trkpt lat="45.035279015194234" lon="8.475516723238425"><ele>125.33333333333333</ele><time>2026-04-25T06:46:49.999Z</time></trkpt><trkpt lat="45.03509934335196" lon="8.4755865942274"><ele>125.0</ele><time>2026-04-25T06:46:50.999Z</time></trkpt><trkpt lat="45.03493091178909" lon="8.475661624489586"><ele>125.0</ele><time>2026-04-25T06:46:51.999Z</time></trkpt><trkpt lat="45.034770253610304" lon="8.47574130010671"><ele>125.0</ele><time>2026-04-25T06:46:52.999Z</time></trkpt><trkpt lat="45.03461226734971" lon="8.475859394996272"><ele>125.0</ele><time>2026-04-25T06:46:53.999Z</time></trkpt><trkpt lat="45.03446672976743" lon="8.475955540245254"><ele>125.0</ele><time>2026-04-25T06:46:54.999Z</time></trkpt><trkpt lat="45.03432244629395" lon="8.476054450672203"><ele>125.0</ele><time>2026-04-25T06:46:55.999Z</time></trkpt><trkpt lat="45.03418510553448" lon="8.476155307518322"><ele>125.0</ele><time>2026-04-25T06:46:56.999Z</time></trkpt><trkpt lat="45.03403866536561" lon="8.4762242133259"><ele>124.75</ele><time>2026-04-25T06:46:57.999Z</time></trkpt><trkpt lat="45.03389744029709" lon="8.476300388453518"><ele>124.5</ele><time>2026-04-25T06:46:58.999Z</time></trkpt><trkpt lat="45.03376942133261" lon="8.476359492649161"><ele>124.25</ele><time>2026-04-25T06:46:59.999Z</time></trkpt><trkpt lat="45.033646909839916" lon="8.47640238056428"><ele>124.0</ele><time>2026-04-25T06:47:00.999Z</time></trkpt><trkpt lat="45.03352070067365" lon="8.476434199466226"><ele>124.0</ele><time>2026-04-25T06:47:01.999Z</time></trkpt><trkpt lat="45.03338375109953" lon="8.476437722534138"><ele>124.0</ele><time>2026-04-25T06:47:02.999Z</time></trkpt><trkpt lat="45.0332405077157" lon="8.476408517715692"><ele>124.0</ele><time>2026-04-25T06:47:03.999Z</time></trkpt><trkpt lat="45.03307413816409" lon="8.47637492994239"><ele>123.33333333333334</ele><time>2026-04-25T06:47:04.999Z</time></trkpt><trkpt lat="45.03288733431315" lon="8.476347585748593"><ele>122.66666666666666</ele><time>2026-04-25T06:47:05.999Z</time></trkpt><trkpt lat="45.03268737592073" lon="8.476320024016358"><ele>122.0</ele><time>2026-04-25T06:47:06.999Z</time></trkpt><trkpt lat="45.032524584761624" lon="8.47627861646047"><ele>122.0</ele><time>2026-04-25T06:47:07.999Z</time></trkpt><trkpt lat="45.03236716812935" lon="8.476233065424886"><ele>122.0</ele><time>2026-04-25T06:47:08.999Z</time></trkpt><trkpt lat="45.03220238609698" lon="8.476182665772408"><ele>122.0</ele><time>2026-04-25T06:47:09.999Z</time></trkpt><trkpt lat="45.03205735545951" lon="8.476135613174733"><ele>122.0</ele><time>2026-04-25T06:47:10.999Z</time></trkpt><trkpt lat="45.03190402622475" lon="8.476079461340644"><ele>122.0</ele><time>2026-04-25T06:47:11.999Z</time></trkpt><trkpt lat="45.03174906562543" lon="8.476010044287813"><ele>122.0</ele><time>2026-04-25T06:47:12.999Z</time></trkpt><trkpt lat="45.03159598275039" lon="8.475945727147442"><ele>122.66666666666666</ele><time>2026-04-25T06:47:13.999Z</time></trkpt><trkpt lat="45.0314388953846" lon="8.475889279199277"><ele>123.33333333333334</ele><time>2026-04-25T06:47:14.999Z</time></trkpt><trkpt lat="45.03128205676829" lon="8.475863868816568"><ele>124.0</ele><time>2026-04-25T06:47:15.999Z</time></trkpt><trkpt lat="45.03114724886031" lon="8.475830308083998"><ele>124.0</ele><time>2026-04-25T06:47:16.999Z</time></trkpt><trkpt lat="45.03102674931696" lon="8.475772292741954"><ele>124.0</ele><time>2026-04-25T06:47:18Z</time></trkpt><trkpt lat="45.03092094581161" lon="8.475742537608115"><ele>124.0</ele><time>2026-04-25T06:47:19Z</time></trkpt><trkpt lat="45.030810050012946" lon="8.47571311570855"><ele>124.0</ele><time>2026-04-25T06:47:20Z</time></trkpt><trkpt lat="45.03071367079136" lon="8.475689652536605"><ele>124.0</ele><time>2026-04-25T06:47:21Z</time></trkpt><trkpt lat="45.030620442319524" lon="8.47569016013525"><ele>124.16666666666667</ele><time>2026-04-25T06:47:22Z</time></trkpt><trkpt lat="45.030531712589294" lon="8.475673840485085"><ele>124.33333333333334</ele><time>2026-04-25T06:47:23Z</time></trkpt><trkpt lat="45.030450319981846" lon="8.475647724466638"><ele>124.5</ele><time>2026-04-25T06:47:24Z</time></trkpt><trkpt lat="45.03037359043007" lon="8.475655723135898"><ele>124.66666666666666</ele><time>2026-04-25T06:47:25Z</time></trkpt><trkpt lat="45.03029627506861" lon="8.475718046712432"><ele>124.83333333333333</ele><time>2026-04-25T06:47:26Z</time></trkpt><trkpt lat="45.030212983868445" lon="8.475761505622184"><ele>125.0</ele><time>2026-04-25T06:47:27Z</time></trkpt><trkpt lat="45.030125297247785" lon="8.47578037082787"><ele>124.99999999999999</ele><time>2026-04-25T06:47:28Z</time></trkpt><trkpt lat="45.03004236667139" lon="8.475815607491445"><ele>125.0</ele><time>2026-04-25T06:47:29Z</time></trkpt><trkpt lat="45.02996668564435" lon="8.475840483819942"><ele>125.0</ele><time>2026-04-25T06:47:30Z</time></trkpt><trkpt lat="45.02989181605653" lon="8.475863582975435"><ele>125.0</ele><time>2026-04-25T06:47:31Z</time></trkpt><trkpt lat="45.02979333812612" lon="8.475891908641282"><ele>124.99999999999999</ele><time>2026-04-25T06:47:33Z</time></trkpt><trkpt lat="45.02971442461424" lon="8.475912473441166"><ele>125.0</ele><time>2026-04-25T06:48:03Z</time></trkpt><trkpt lat="45.02957061188689" lon="8.475944461392062"><ele>125.0</ele><time>2026-04-25T06:48:05Z</time></trkpt><trkpt lat="45.02946823638193" lon="8.475983797251201"><ele>125.0</ele><time>2026-04-25T06:48:06Z</time></trkpt><trkpt lat="45.029328576777395" lon="8.475994545483031"><ele>125.0</ele><time>2026-04-25T06:48:07Z</time></trkpt><trkpt lat="45.02916084597364" lon="8.476029171507635"><ele>125.0</ele><time>2026-04-25T06:48:08Z</time></trkpt><trkpt lat="45.02898475002342" lon="8.476065524422241"><ele>125.33333333333333</ele><time>2026-04-25T06:48:09Z</time></trkpt><trkpt lat="45.02879231296815" lon="8.47610301686738"><ele>125.66666666666666</ele><time>2026-04-25T06:48:10Z</time></trkpt><trkpt lat="45.028601454911446" lon="8.476159041996336"><ele>126.0</ele><time>2026-04-25T06:48:11Z</time></trkpt><trkpt lat="45.02838284582509" lon="8.476171694005835"><ele>126.0</ele><time>2026-04-25T06:48:12Z</time></trkpt><trkpt lat="45.02817476510048" lon="8.47620046469363"><ele>126.0</ele><time>2026-04-25T06:48:13Z</time></trkpt><trkpt lat="45.02801539011671" lon="8.476223525341764"><ele>126.0</ele><time>2026-04-25T06:48:14Z</time></trkpt><trkpt lat="45.027864586358675" lon="8.476270226621759"><ele>126.0</ele><time>2026-04-25T06:48:15Z</time></trkpt><trkpt lat="45.027734609550485" lon="8.476269423704073"><ele>126.0</ele><time>2026-04-25T06:48:16Z</time></trkpt><trkpt lat="45.02761964100818" lon="8.47630313838192"><ele>126.0</ele><time>2026-04-25T06:48:17Z</time></trkpt><trkpt lat="45.0274858090235" lon="8.476312555441663"><ele>126.0</ele><time>2026-04-25T06:48:18Z</time></trkpt><trkpt lat="45.02733777414642" lon="8.476325051201234"><ele>125.5</ele><time>2026-04-25T06:48:19Z</time></trkpt><trkpt lat="45.02720712591677" lon="8.47632043769348"><ele>125.0</ele><time>2026-04-25T06:48:20Z</time></trkpt><trkpt lat="45.02707144525408" lon="8.476330617260869"><ele>124.5</ele><time>2026-04-25T06:48:21Z</time></trkpt><trkpt lat="45.02696062319186" lon="8.47633893369278"><ele>124.0</ele><time>2026-04-25T06:48:22Z</time></trkpt><trkpt lat="45.026849236121905" lon="8.476342166324335"><ele>124.0</ele><time>2026-04-25T06:48:23Z</time></trkpt><trkpt lat="45.02672990025549" lon="8.476336933823873"><ele>124.0</ele><time>2026-04-25T06:48:24Z</time></trkpt><trkpt lat="45.02660469631055" lon="8.476319977098273"><ele>124.0</ele><time>2026-04-25T06:48:25Z</time></trkpt><trkpt lat="45.026477442298074" lon="8.476295582612536"><ele>124.0</ele><time>2026-04-25T06:48:26Z</time></trkpt><trkpt lat="45.02633868625221" lon="8.47626568173844"><ele>124.5</ele><time>2026-04-25T06:48:27Z</time></trkpt><trkpt lat="45.0262151486499" lon="8.476234102126636"><ele>125.0</ele><time>2026-04-25T06:48:28Z</time></trkpt><trkpt lat="45.02610145631438" lon="8.476181727283537"><ele>125.5</ele><time>2026-04-25T06:48:29Z</time></trkpt><trkpt lat="45.026002926068806" lon="8.476110715215038"><ele>126.0</ele><time>2026-04-25T06:48:30Z</time></trkpt><trkpt lat="45.025910076615396" lon="8.47602467596276"><ele>126.0</ele><time>2026-04-25T06:48:31Z</time></trkpt><trkpt lat="45.02583094527048" lon="8.47594747810691"><ele>126.0</ele><time>2026-04-25T06:48:32Z</time></trkpt><trkpt lat="45.02575803476765" lon="8.475875670909462"><ele>126.0</ele><time>2026-04-25T06:48:33Z</time></trkpt><trkpt lat="45.02568702297005" lon="8.475827175866707"><ele>126.0</ele><time>2026-04-25T06:48:33.999Z</time></trkpt><trkpt lat="45.025628971945245" lon="8.475744315783368"><ele>126.0</ele><time>2026-04-25T06:48:34.999Z</time></trkpt><trkpt lat="45.02556399554886" lon="8.475680579425312"><ele>126.0</ele><time>2026-04-25T06:48:35.999Z</time></trkpt><trkpt lat="45.0254928671538" lon="8.475617800879512"><ele>126.0</ele><time>2026-04-25T06:48:36.999Z</time></trkpt><trkpt lat="45.02543126434624" lon="8.475566850503576"><ele>126.0</ele><time>2026-04-25T06:48:37.999Z</time></trkpt><trkpt lat="45.025368105821485" lon="8.475516552785576"><ele>126.0</ele><time>2026-04-25T06:48:38.999Z</time></trkpt><trkpt lat="45.02529477241041" lon="8.475460648181127"><ele>126.0</ele><time>2026-04-25T06:48:39.999Z</time></trkpt><trkpt lat="45.02522482161583" lon="8.475408865783786"><ele>126.0</ele><time>2026-04-25T06:48:40.999Z</time></trkpt><trkpt lat="45.02515421117877" lon="8.475358540972163"><ele>126.0</ele><time>2026-04-25T06:48:41.999Z</time></trkpt><trkpt lat="45.025093634110775" lon="8.47531626516199"><ele>126.0</ele><time>2026-04-25T06:48:42.999Z</time></trkpt><trkpt lat="45.024993234463416" lon="8.47524990937733"><ele>126.0</ele><time>2026-04-25T06:48:44.999Z</time></trkpt><trkpt lat="45.02487870597493" lon="8.475174422193932"><ele>126.0</ele><time>2026-04-25T06:48:46.999Z</time></trkpt><trkpt lat="45.024773675914716" lon="8.475108144616375"><ele>126.0</ele><time>2026-04-25T06:48:48.999Z</time></trkpt><trkpt lat="45.02467381961346" lon="8.475050628018142"><ele>126.14285714285714</ele><time>2026-04-25T06:48:50.999Z</time></trkpt><trkpt lat="45.024611800485694" lon="8.475019046559588"><ele>126.28571428571428</ele><time>2026-04-25T06:48:51.999Z</time></trkpt><trkpt lat="45.024550418030785" lon="8.474990014599953"><ele>126.42857142857143</ele><time>2026-04-25T06:48:52.999Z</time></trkpt><trkpt lat="45.024479809158244" lon="8.474958061886328"><ele>126.57142857142857</ele><time>2026-04-25T06:48:53.999Z</time></trkpt><trkpt lat="45.02441550766774" lon="8.474932963852552"><ele>126.71428571428571</ele><time>2026-04-25T06:48:54.999Z</time></trkpt><trkpt lat="45.02434281873603" lon="8.474906952200993"><ele>126.85714285714286</ele><time>2026-04-25T06:48:55.999Z</time></trkpt><trkpt lat="45.02425997424765" lon="8.474882042365369"><ele>127.0</ele><time>2026-04-25T06:48:56.999Z</time></trkpt><trkpt lat="45.02417376074922" lon="8.474856880730696"><ele>126.6</ele><time>2026-04-25T06:48:57.999Z</time></trkpt><trkpt lat="45.0240991895852" lon="8.474835677912166"><ele>126.19999999999999</ele><time>2026-04-25T06:48:58.999Z</time></trkpt><trkpt lat="45.0239990452823" lon="8.474807206155578"><ele>125.8</ele><time>2026-04-25T06:48:59.999Z</time></trkpt><trkpt lat="45.02390846113818" lon="8.47477525467879"><ele>125.4</ele><time>2026-04-25T06:49:00.999Z</time></trkpt><trkpt lat="45.02380850679105" lon="8.474727282804862"><ele>125.0</ele><time>2026-04-25T06:49:01.999Z</time></trkpt><trkpt lat="45.02371011566988" lon="8.474660873953987"><ele>125.0</ele><time>2026-04-25T06:49:02.999Z</time></trkpt><trkpt lat="45.023608901005" lon="8.474566350663936"><ele>125.0</ele><time>2026-04-25T06:49:03.999Z</time></trkpt><trkpt lat="45.02349687889571" lon="8.474455414004348"><ele>125.0</ele><time>2026-04-25T06:49:04.999Z</time></trkpt><trkpt lat="45.02337405055071" lon="8.474358196594885"><ele>125.0</ele><time>2026-04-25T06:49:05.999Z</time></trkpt><trkpt lat="45.02321393041929" lon="8.47426485737395"><ele>125.0</ele><time>2026-04-25T06:49:06.999Z</time></trkpt><trkpt lat="45.02303030619048" lon="8.474169379951102"><ele>125.0</ele><time>2026-04-25T06:49:07.999Z</time></trkpt><trkpt lat="45.02283582846205" lon="8.47407483547006"><ele>125.0</ele><time>2026-04-25T06:49:08.999Z</time></trkpt><trkpt lat="45.022659482135616" lon="8.473989421939239"><ele>125.0</ele><time>2026-04-25T06:49:09.999Z</time></trkpt><trkpt lat="45.022514663050735" lon="8.473918340492306"><ele>125.0</ele><time>2026-04-25T06:49:10.999Z</time></trkpt><trkpt lat="45.022379888944286" lon="8.473848820503973"><ele>125.0</ele><time>2026-04-25T06:49:11.999Z</time></trkpt><trkpt lat="45.0222756435374" lon="8.473786694909554"><ele>125.0</ele><time>2026-04-25T06:49:12.999Z</time></trkpt><trkpt lat="45.02217134931411" lon="8.473711286709664"><ele>125.33333333333333</ele><time>2026-04-25T06:49:13.999Z</time></trkpt><trkpt lat="45.02208497757583" lon="8.47364438784573"><ele>125.66666666666666</ele><time>2026-04-25T06:49:14.999Z</time></trkpt><trkpt lat="45.02200535291753" lon="8.473581967532677"><ele>126.0</ele><time>2026-04-25T06:49:15.999Z</time></trkpt><trkpt lat="45.02193521919901" lon="8.473525477269108"><ele>126.33333333333334</ele><time>2026-04-25T06:49:16.999Z</time></trkpt><trkpt lat="45.02187158063265" lon="8.47347338073597"><ele>126.66666666666667</ele><time>2026-04-25T06:49:17.999Z</time></trkpt><trkpt lat="45.021777242960624" lon="8.473425103790772"><ele>127.0</ele><time>2026-04-25T06:49:19.999Z</time></trkpt><trkpt lat="45.02170618400518" lon="8.473368374648254"><ele>126.5</ele><time>2026-04-25T06:49:43Z</time></trkpt><trkpt lat="45.02159544342712" lon="8.473272629510342"><ele>126.0</ele><time>2026-04-25T06:49:45Z</time></trkpt><trkpt lat="45.0214914890103" lon="8.47319931079772"><ele>125.5</ele><time>2026-04-25T06:49:46Z</time></trkpt><trkpt lat="45.02136769050073" lon="8.473113777281974"><ele>125.0</ele><time>2026-04-25T06:49:47Z</time></trkpt><trkpt lat="45.0212442126429" lon="8.473023467598098"><ele>125.66666666666666</ele><time>2026-04-25T06:49:48Z</time></trkpt><trkpt lat="45.02110375205046" lon="8.472901518665783"><ele>126.33333333333334</ele><time>2026-04-25T06:49:49Z</time></trkpt><trkpt lat="45.02096489646778" lon="8.472755581989821"><ele>127.0</ele><time>2026-04-25T06:49:50Z</time></trkpt><trkpt lat="45.0208430164596" lon="8.472587480634074"><ele>126.66666666666667</ele><time>2026-04-25T06:49:51Z</time></trkpt><trkpt lat="45.0207189529017" lon="8.47237123380708"><ele>126.33333333333334</ele><time>2026-04-25T06:49:52Z</time></trkpt><trkpt lat="45.020613274982935" lon="8.472185731768947"><ele>126.0</ele><time>2026-04-25T06:49:53Z</time></trkpt><trkpt lat="45.020521408855316" lon="8.472034303473231"><ele>126.5</ele><time>2026-04-25T06:49:54Z</time></trkpt><trkpt lat="45.020430066393345" lon="8.471904621666678"><ele>127.0</ele><time>2026-04-25T06:49:55Z</time></trkpt><trkpt lat="45.0203202214021" lon="8.471786274775448"><ele>127.5</ele><time>2026-04-25T06:49:56Z</time></trkpt><trkpt lat="45.020224013224954" lon="8.471680622378317"><ele>128.0</ele><time>2026-04-25T06:49:57Z</time></trkpt><trkpt lat="45.020116434504374" lon="8.471561371077959"><ele>128.0</ele><time>2026-04-25T06:49:58Z</time></trkpt><trkpt lat="45.02001380193578" lon="8.471431825107434"><ele>128.0</ele><time>2026-04-25T06:49:59Z</time></trkpt><trkpt lat="45.01988728164355" lon="8.471322126025646"><ele>128.0</ele><time>2026-04-25T06:50:00Z</time></trkpt><trkpt lat="45.01976022006241" lon="8.471226199389854"><ele>128.0</ele><time>2026-04-25T06:50:01Z</time></trkpt><trkpt lat="45.01961217867969" lon="8.471121122935905"><ele>128.0</ele><time>2026-04-25T06:50:02Z</time></trkpt><trkpt lat="45.01947659917406" lon="8.471026305516173"><ele>128.0</ele><time>2026-04-25T06:50:03Z</time></trkpt><trkpt lat="45.01935411649324" lon="8.470941988581506"><ele>128.0</ele><time>2026-04-25T06:50:04Z</time></trkpt><trkpt lat="45.01923067232848" lon="8.470860006509517"><ele>128.0</ele><time>2026-04-25T06:50:05Z</time></trkpt><trkpt lat="45.01911112470863" lon="8.470783643943866"><ele>127.75</ele><time>2026-04-25T06:50:06Z</time></trkpt><trkpt lat="45.01898507279158" lon="8.470704163089533"><ele>127.5</ele><time>2026-04-25T06:50:07Z</time></trkpt><trkpt lat="45.018864341471016" lon="8.470628037076171"><ele>127.25</ele><time>2026-04-25T06:50:08Z</time></trkpt><trkpt lat="45.0187535076247" lon="8.470556278551896"><ele>127.0</ele><time>2026-04-25T06:50:09Z</time></trkpt><trkpt lat="45.018643276170856" lon="8.470472336319618"><ele>127.5</ele><time>2026-04-25T06:50:10Z</time></trkpt><trkpt lat="45.01854819316278" lon="8.470374418968454"><ele>128.0</ele><time>2026-04-25T06:50:11Z</time></trkpt><trkpt lat="45.01845269551478" lon="8.470252072291286"><ele>128.5</ele><time>2026-04-25T06:50:12Z</time></trkpt><trkpt lat="45.018350986960805" lon="8.47008711174375"><ele>129.0</ele><time>2026-04-25T06:50:13Z</time></trkpt><trkpt lat="45.01825108642246" lon="8.469901414041594"><ele>128.33333333333334</ele><time>2026-04-25T06:50:14Z</time></trkpt><trkpt lat="45.01816425983703" lon="8.469706410625895"><ele>127.66666666666667</ele><time>2026-04-25T06:50:15Z</time></trkpt><trkpt lat="45.0180764895848" lon="8.46946806407435"><ele>127.0</ele><time>2026-04-25T06:50:16Z</time></trkpt><trkpt lat="45.01798043722047" lon="8.469207127572762"><ele>127.0</ele><time>2026-04-25T06:50:17Z</time></trkpt><trkpt lat="45.017892032413826" lon="8.468962903786723"><ele>127.0</ele><time>2026-04-25T06:50:18Z</time></trkpt><trkpt lat="45.01782487327359" lon="8.46875416815365"><ele>127.0</ele><time>2026-04-25T06:50:19Z</time></trkpt><trkpt lat="45.017773840305495" lon="8.468575889555394"><ele>128.0</ele><time>2026-04-25T06:50:20Z</time></trkpt><trkpt lat="45.01772027556035" lon="8.468376285079692"><ele>129.0</ele><time>2026-04-25T06:50:21Z</time></trkpt><trkpt lat="45.017665111378896" lon="8.468171765118393"><ele>130.0</ele><time>2026-04-25T06:50:22Z</time></trkpt><trkpt lat="45.01760474845122" lon="8.467961464422974"><ele>131.0</ele><time>2026-04-25T06:50:23Z</time></trkpt><trkpt lat="45.01753158999876" lon="8.467754690122213"><ele>132.0</ele><time>2026-04-25T06:50:24Z</time></trkpt><trkpt lat="45.01744471399817" lon="8.467535913736137"><ele>133.0</ele><time>2026-04-25T06:50:25Z</time></trkpt><trkpt lat="45.017354424369735" lon="8.467315337020603"><ele>131.66666666666669</ele><time>2026-04-25T06:50:26Z</time></trkpt><trkpt lat="45.01727204369009" lon="8.467124131061988"><ele>130.33333333333334</ele><time>2026-04-25T06:50:27Z</time></trkpt><trkpt lat="45.01718687312259" lon="8.46693101651423"><ele>129.0</ele><time>2026-04-25T06:50:28Z</time></trkpt><trkpt lat="45.017102686576955" lon="8.4667470114149"><ele>129.0</ele><time>2026-04-25T06:50:29Z</time></trkpt><trkpt lat="45.01700605508838" lon="8.466589798487531"><ele>129.0</ele><time>2026-04-25T06:50:30Z</time></trkpt><trkpt lat="45.01691239766414" lon="8.466429723429677"><ele>129.0</ele><time>2026-04-25T06:50:31Z</time></trkpt><trkpt lat="45.01682217886539" lon="8.46626361647174"><ele>129.0</ele><time>2026-04-25T06:50:32Z</time></trkpt><trkpt lat="45.016695612174715" lon="8.46612379584784"><ele>129.0</ele><time>2026-04-25T06:50:33Z</time></trkpt><trkpt lat="45.016535035651025" lon="8.46600534899356"><ele>129.0</ele><time>2026-04-25T06:50:34Z</time></trkpt><trkpt lat="45.0163858143427" lon="8.465858982758082"><ele>129.0</ele><time>2026-04-25T06:50:35Z</time></trkpt><trkpt lat="45.01625302108615" lon="8.465725319274805"><ele>129.0</ele><time>2026-04-25T06:50:36Z</time></trkpt><trkpt lat="45.01613784962281" lon="8.465602128107395"><ele>129.0</ele><time>2026-04-25T06:50:37Z</time></trkpt><trkpt lat="45.01602367824742" lon="8.465468355179734"><ele>129.0</ele><time>2026-04-25T06:50:38Z</time></trkpt><trkpt lat="45.01590965190471" lon="8.465326440577199"><ele>129.0</ele><time>2026-04-25T06:50:39Z</time></trkpt><trkpt lat="45.01580516760483" lon="8.465187732752032"><ele>129.5</ele><time>2026-04-25T06:50:40Z</time></trkpt><trkpt lat="45.01570186978914" lon="8.465038406409441"><ele>130.0</ele><time>2026-04-25T06:50:40.999Z</time></trkpt><trkpt lat="45.01561383670013" lon="8.464900183136379"><ele>130.5</ele><time>2026-04-25T06:50:41.999Z</time></trkpt><trkpt lat="45.01553711016495" lon="8.464759623706836"><ele>131.0</ele><time>2026-04-25T06:50:42.999Z</time></trkpt><trkpt lat="45.01546799150675" lon="8.464608966939668"><ele>132.0</ele><time>2026-04-25T06:50:43.999Z</time></trkpt><trkpt lat="45.01540424291572" lon="8.46443420162789"><ele>133.0</ele><time>2026-04-25T06:50:44.999Z</time></trkpt><trkpt lat="45.01533154699732" lon="8.464214766596301"><ele>134.0</ele><time>2026-04-25T06:50:45.999Z</time></trkpt><trkpt lat="45.01525914682614" lon="8.464010558070274"><ele>134.0</ele><time>2026-04-25T06:50:46.999Z</time></trkpt><trkpt lat="45.01517764733566" lon="8.46381894067665"><ele>134.0</ele><time>2026-04-25T06:50:47.999Z</time></trkpt><trkpt lat="45.01508582310811" lon="8.463642850698655"><ele>134.0</ele><time>2026-04-25T06:50:48.999Z</time></trkpt><trkpt lat="45.01502456796873" lon="8.4635336092341"><ele>134.0</ele><time>2026-04-25T06:50:49.999Z</time></trkpt><trkpt lat="45.014959373372264" lon="8.463432111935507"><ele>133.0</ele><time>2026-04-25T06:50:51.999Z</time></trkpt><trkpt lat="45.01491512867418" lon="8.463294116806443"><ele>132.0</ele><time>2026-04-25T06:51:03.999Z</time></trkpt><trkpt lat="45.01485705904238" lon="8.46312870689607"><ele>131.0</ele><time>2026-04-25T06:51:05.999Z</time></trkpt><trkpt lat="45.01481960907141" lon="8.463022031560559"><ele>130.0</ele><time>2026-04-25T06:51:06.999Z</time></trkpt><trkpt lat="45.0146388559741" lon="8.463000108881047"><ele>130.33333333333334</ele><time>2026-04-25T06:51:07.999Z</time></trkpt><trkpt lat="45.014584258353906" lon="8.462923607500597"><ele>130.66666666666669</ele><time>2026-04-25T06:51:08.999Z</time></trkpt><trkpt lat="45.0145298762652" lon="8.462820456323444"><ele>131.0</ele><time>2026-04-25T06:51:09.999Z</time></trkpt><trkpt lat="45.01447466650934" lon="8.462711992579948"><ele>131.33333333333334</ele><time>2026-04-25T06:51:10.999Z</time></trkpt><trkpt lat="45.01441690965703" lon="8.462603573453869"><ele>131.66666666666666</ele><time>2026-04-25T06:51:11.999Z</time></trkpt><trkpt lat="45.01436200941425" lon="8.462503480562361"><ele>132.0</ele><time>2026-04-25T06:51:12.999Z</time></trkpt><trkpt lat="45.014318238069286" lon="8.462420174446821"><ele>132.0</ele><time>2026-04-25T06:51:13.999Z</time></trkpt><trkpt lat="45.01427389210392" lon="8.462324365186769"><ele>132.0</ele><time>2026-04-25T06:51:14.999Z</time></trkpt><trkpt lat="45.01421720211312" lon="8.462220828597381"><ele>132.0</ele><time>2026-04-25T06:51:15.999Z</time></trkpt><trkpt lat="45.014166278814784" lon="8.462131531261115"><ele>132.0</ele><time>2026-04-25T06:51:16.999Z</time></trkpt><trkpt lat="45.014117559884895" lon="8.462017199421798"><ele>132.0</ele><time>2026-04-25T06:51:18.999Z</time></trkpt><trkpt lat="45.01408008344168" lon="8.461924877665226"><ele>132.0</ele><time>2026-04-25T06:51:20.999Z</time></trkpt><trkpt lat="45.0140349304853" lon="8.461836949580148"><ele>132.0</ele><time>2026-04-25T06:51:22.999Z</time></trkpt><trkpt lat="45.01397853896682" lon="8.461689362854608"><ele>132.0</ele><time>2026-04-25T06:51:24.999Z</time></trkpt><trkpt lat="45.01392023719317" lon="8.461547770558099"><ele>132.0</ele><time>2026-04-25T06:51:26.999Z</time></trkpt><trkpt lat="45.01387018953372" lon="8.4613996985954"><ele>132.0</ele><time>2026-04-25T06:51:29Z</time></trkpt><trkpt lat="45.01381369529952" lon="8.461253401314726"><ele>132.0</ele><time>2026-04-25T06:51:31Z</time></trkpt><trkpt lat="45.013779620182106" lon="8.461156227380053"><ele>132.0</ele><time>2026-04-25T06:51:33Z</time></trkpt><trkpt lat="45.013737549937005" lon="8.461034246267976"><ele>132.0</ele><time>2026-04-25T06:51:35Z</time></trkpt><trkpt lat="45.01370497118672" lon="8.460948531537078"><ele>132.0</ele><time>2026-04-25T06:51:36Z</time></trkpt><trkpt lat="45.013659222413324" lon="8.460817022610467"><ele>132.0</ele><time>2026-04-25T06:51:38Z</time></trkpt><trkpt lat="45.013589849302186" lon="8.460728852156056"><ele>132.0</ele><time>2026-04-25T06:51:40Z</time></trkpt><trkpt lat="45.01350189291265" lon="8.460701202730426"><ele>132.0</ele><time>2026-04-25T06:51:42Z</time></trkpt><trkpt lat="45.01343616527824" lon="8.460725462063694"><ele>132.0</ele><time>2026-04-25T06:51:44Z</time></trkpt><trkpt lat="45.01334978755247" lon="8.460771453114528"><ele>132.0</ele><time>2026-04-25T06:51:46Z</time></trkpt><trkpt lat="45.01325009472745" lon="8.460817410597697"><ele>132.0</ele><time>2026-04-25T06:51:48Z</time></trkpt><trkpt lat="45.0131810740385" lon="8.460826882043389"><ele>132.0</ele><time>2026-04-25T06:51:49Z</time></trkpt><trkpt lat="45.01311590874651" lon="8.460809989918282"><ele>132.0</ele><time>2026-04-25T06:51:50Z</time></trkpt><trkpt lat="45.01304989287359" lon="8.460771447619653"><ele>132.0</ele><time>2026-04-25T06:51:51Z</time></trkpt><trkpt lat="45.012987725399576" lon="8.46068726730565"><ele>132.0</ele><time>2026-04-25T06:51:52Z</time></trkpt><trkpt lat="45.012940031077676" lon="8.460591070187343"><ele>132.0</ele><time>2026-04-25T06:51:53Z</time></trkpt><trkpt lat="45.01289894583527" lon="8.460478655561998"><ele>132.0</ele><time>2026-04-25T06:51:54Z</time></trkpt><trkpt lat="45.01285723176014" lon="8.460378223430277"><ele>132.0</ele><time>2026-04-25T06:51:55Z</time></trkpt><trkpt lat="45.01280820898066" lon="8.4603061357195"><ele>132.0</ele><time>2026-04-25T06:51:56Z</time></trkpt><trkpt lat="45.012748692966646" lon="8.4602141216052"><ele>132.0</ele><time>2026-04-25T06:51:58Z</time></trkpt><trkpt lat="45.0127176988822" lon="8.460096618815959"><ele>132.0</ele><time>2026-04-25T06:51:59Z</time></trkpt><trkpt lat="45.01266932774404" lon="8.459959898498425"><ele>132.0</ele><time>2026-04-25T06:52:00Z</time></trkpt><trkpt lat="45.01263292509078" lon="8.459846795896897"><ele>132.0</ele><time>2026-04-25T06:52:01Z</time></trkpt><trkpt lat="45.012602287243126" lon="8.459768762822316"><ele>132.0</ele><time>2026-04-25T06:52:02Z</time></trkpt><trkpt lat="45.01256130391002" lon="8.4596637746378"><ele>132.0</ele><time>2026-04-25T06:52:03Z</time></trkpt><trkpt lat="45.01252307388082" lon="8.459560475340227"><ele>131.66666666666666</ele><time>2026-04-25T06:52:04Z</time></trkpt><trkpt lat="45.012464377005834" lon="8.459405603520636"><ele>131.33333333333334</ele><time>2026-04-25T06:52:06Z</time></trkpt><trkpt lat="45.01241835174308" lon="8.459271057554343"><ele>131.0</ele><time>2026-04-25T06:52:08Z</time></trkpt><trkpt lat="45.01239528217866" lon="8.459182907957867"><ele>130.66666666666669</ele><time>2026-04-25T06:52:09Z</time></trkpt><trkpt lat="45.012373233018224" lon="8.459096639117998"><ele>130.33333333333334</ele><time>2026-04-25T06:52:10Z</time></trkpt><trkpt lat="45.01235133574691" lon="8.459012850635029"><ele>130.0</ele><time>2026-04-25T06:52:11Z</time></trkpt><trkpt lat="45.012328064169" lon="8.458928220241967"><ele>130.00000000000003</ele><time>2026-04-25T06:52:12Z</time></trkpt><trkpt lat="45.012305609562645" lon="8.45884336503881"><ele>130.0</ele><time>2026-04-25T06:52:13Z</time></trkpt><trkpt lat="45.01228516627574" lon="8.45875569002424"><ele>130.0</ele><time>2026-04-25T06:52:14Z</time></trkpt><trkpt lat="45.01226064905493" lon="8.458660821420908"><ele>130.0</ele><time>2026-04-25T06:52:15Z</time></trkpt><trkpt lat="45.012241812020164" lon="8.458572509500515"><ele>130.0</ele><time>2026-04-25T06:52:16Z</time></trkpt><trkpt lat="45.01222675466379" lon="8.458483847344768"><ele>130.00000000000003</ele><time>2026-04-25T06:52:17Z</time></trkpt><trkpt lat="45.01220041618949" lon="8.458348655818517"><ele>130.0</ele><time>2026-04-25T06:52:19Z</time></trkpt><trkpt lat="45.01219491831731" lon="8.458203106569682"><ele>130.0</ele><time>2026-04-25T06:52:21Z</time></trkpt><trkpt lat="45.012202187573216" lon="8.458053706464579"><ele>130.0</ele><time>2026-04-25T06:52:23Z</time></trkpt><trkpt lat="45.012222982173896" lon="8.457916121124624"><ele>130.0</ele><time>2026-04-25T06:52:25Z</time></trkpt><trkpt lat="45.01229403652382" lon="8.457782856378781"><ele>130.0</ele><time>2026-04-25T06:52:27Z</time></trkpt><trkpt lat="45.012354354413475" lon="8.457672597555009"><ele>130.0</ele><time>2026-04-25T06:52:29Z</time></trkpt><trkpt lat="45.012372782808725" lon="8.457547711814096"><ele>130.16666666666669</ele><time>2026-04-25T06:52:31Z</time></trkpt><trkpt lat="45.012363790668864" lon="8.457447549116381"><ele>130.33333333333334</ele><time>2026-04-25T06:52:32Z</time></trkpt><trkpt lat="45.01233447186851" lon="8.457353565274667"><ele>130.5</ele><time>2026-04-25T06:52:33Z</time></trkpt><trkpt lat="45.0122692901911" lon="8.457200253541245"><ele>130.66666666666666</ele><time>2026-04-25T06:52:35Z</time></trkpt><trkpt lat="45.01222204113456" lon="8.457110013864268"><ele>130.83333333333331</ele><time>2026-04-25T06:52:36Z</time></trkpt><trkpt lat="45.012178184972754" lon="8.4570405553256"><ele>131.0</ele><time>2026-04-25T06:52:37Z</time></trkpt><trkpt lat="45.01213308189576" lon="8.456954994157453"><ele>130.66666666666666</ele><time>2026-04-25T06:52:38Z</time></trkpt><trkpt lat="45.01208644310376" lon="8.456876710387263"><ele>130.33333333333331</ele><time>2026-04-25T06:52:39Z</time></trkpt><trkpt lat="45.01204072054435" lon="8.456792157673677"><ele>130.0</ele><time>2026-04-25T06:52:40Z</time></trkpt><trkpt lat="45.0119989560445" lon="8.456709426111221"><ele>129.66666666666666</ele><time>2026-04-25T06:52:41Z</time></trkpt><trkpt lat="45.01194480435299" lon="8.4566167208304"><ele>129.33333333333334</ele><time>2026-04-25T06:52:42Z</time></trkpt><trkpt lat="45.01189520631166" lon="8.456520098462793"><ele>129.0</ele><time>2026-04-25T06:52:42.999Z</time></trkpt><trkpt lat="45.01184557686599" lon="8.456416659954996"><ele>129.0</ele><time>2026-04-25T06:52:43.999Z</time></trkpt><trkpt lat="45.01180455976471" lon="8.45631689116167"><ele>129.0</ele><time>2026-04-25T06:52:44.999Z</time></trkpt><trkpt lat="45.01175580934735" lon="8.456219098599899"><ele>129.0</ele><time>2026-04-25T06:52:45.999Z</time></trkpt><trkpt lat="45.011715321290815" lon="8.456126443988303"><ele>129.0</ele><time>2026-04-25T06:52:46.999Z</time></trkpt><trkpt lat="45.01167566250251" lon="8.45605416172721"><ele>129.0</ele><time>2026-04-25T06:52:47.999Z</time></trkpt><trkpt lat="45.011621288265005" lon="8.455922392103414"><ele>129.0</ele><time>2026-04-25T06:52:49.999Z</time></trkpt><trkpt lat="45.01156908203067" lon="8.4558104071113"><ele>129.0</ele><time>2026-04-25T06:52:51.999Z</time></trkpt><trkpt lat="45.01150183091687" lon="8.4556403025072"><ele>129.0</ele><time>2026-04-25T06:52:53.999Z</time></trkpt><trkpt lat="45.011467528128335" lon="8.455513599840588"><ele>129.0</ele><time>2026-04-25T06:52:55.999Z</time></trkpt><trkpt lat="45.011393033772215" lon="8.455350637317764"><ele>129.0</ele><time>2026-04-25T06:52:57.999Z</time></trkpt><trkpt lat="45.01135083060736" lon="8.455280830482089"><ele>129.0</ele><time>2026-04-25T06:52:58.999Z</time></trkpt><trkpt lat="45.01131184438426" lon="8.45519893333366"><ele>129.4</ele><time>2026-04-25T06:52:59.999Z</time></trkpt><trkpt lat="45.011246991758604" lon="8.455056270945246"><ele>129.8</ele><time>2026-04-25T06:53:01.999Z</time></trkpt><trkpt lat="45.01117225449085" lon="8.454896365904185"><ele>130.2</ele><time>2026-04-25T06:53:03.999Z</time></trkpt><trkpt lat="45.011138343927016" lon="8.454818577724717"><ele>130.6</ele><time>2026-04-25T06:53:04.999Z</time></trkpt><trkpt lat="45.01111496020717" lon="8.454697839783943"><ele>131.0</ele><time>2026-04-25T06:53:06.999Z</time></trkpt><trkpt lat="45.01109879109154" lon="8.45460020860333"><ele>131.0</ele><time>2026-04-25T06:53:08.999Z</time></trkpt><trkpt lat="45.011057067287744" lon="8.454441896908243"><ele>131.0</ele><time>2026-04-25T06:53:10.999Z</time></trkpt><trkpt lat="45.01101046362268" lon="8.454287694725535"><ele>131.0</ele><time>2026-04-25T06:53:12.999Z</time></trkpt><trkpt lat="45.01094405672994" lon="8.454140276615789"><ele>131.0</ele><time>2026-04-25T06:53:14.999Z</time></trkpt><trkpt lat="45.010867370718" lon="8.45400154431278"><ele>131.0</ele><time>2026-04-25T06:53:16.999Z</time></trkpt><trkpt lat="45.0108207415847" lon="8.453919070507862"><ele>131.0</ele><time>2026-04-25T06:53:17.999Z</time></trkpt><trkpt lat="45.0107733652602" lon="8.45384121798885"><ele>131.0</ele><time>2026-04-25T06:53:18.999Z</time></trkpt><trkpt lat="45.01072544654317" lon="8.453747544653634"><ele>131.0</ele><time>2026-04-25T06:53:19.999Z</time></trkpt><trkpt lat="45.01067511060822" lon="8.453642775380446"><ele>131.0</ele><time>2026-04-25T06:53:20.999Z</time></trkpt><trkpt lat="45.01062369969615" lon="8.45354282397246"><ele>131.0</ele><time>2026-04-25T06:53:21.999Z</time></trkpt><trkpt lat="45.01057277868507" lon="8.453451794087217"><ele>131.2</ele><time>2026-04-25T06:53:22.999Z</time></trkpt><trkpt lat="45.01050736584714" lon="8.45330763162625"><ele>131.39999999999998</ele><time>2026-04-25T06:53:24.999Z</time></trkpt><trkpt lat="45.01044281314216" lon="8.453183524233811"><ele>131.6</ele><time>2026-04-25T06:53:26.999Z</time></trkpt><trkpt lat="45.010408694821116" lon="8.453105423754986"><ele>131.79999999999998</ele><time>2026-04-25T06:53:27.999Z</time></trkpt><trkpt lat="45.01034850486459" lon="8.452982923542717"><ele>132.0</ele><time>2026-04-25T06:53:29.999Z</time></trkpt><trkpt lat="45.01029830641662" lon="8.452854245017805"><ele>132.2</ele><time>2026-04-25T06:53:31.999Z</time></trkpt><trkpt lat="45.010245210769945" lon="8.452750909474165"><ele>132.39999999999998</ele><time>2026-04-25T06:53:34Z</time></trkpt><trkpt lat="45.010166216675" lon="8.452636404896138"><ele>132.60000000000002</ele><time>2026-04-25T06:53:36Z</time></trkpt><trkpt lat="45.010091177417074" lon="8.452560912102792"><ele>132.8</ele><time>2026-04-25T06:53:38Z</time></trkpt><trkpt lat="45.00999094226575" lon="8.452477035909885"><ele>133.0</ele><time>2026-04-25T06:53:40Z</time></trkpt><trkpt lat="45.00992973326481" lon="8.452424793244894"><ele>132.8</ele><time>2026-04-25T06:53:41Z</time></trkpt><trkpt lat="45.00987775538532" lon="8.452371797512782"><ele>132.60000000000002</ele><time>2026-04-25T06:53:42Z</time></trkpt><trkpt lat="45.009785250397265" lon="8.452283800932872"><ele>132.39999999999998</ele><time>2026-04-25T06:53:44Z</time></trkpt><trkpt lat="45.00969941738058" lon="8.45221212774866"><ele>132.2</ele><time>2026-04-25T06:53:46Z</time></trkpt><trkpt lat="45.00960907742524" lon="8.45212434311026"><ele>132.0</ele><time>2026-04-25T06:53:48Z</time></trkpt><trkpt lat="45.00955343448001" lon="8.452072461054046"><ele>132.0</ele><time>2026-04-25T06:53:49Z</time></trkpt><trkpt lat="45.00945367562876" lon="8.451977570313991"><ele>132.0</ele><time>2026-04-25T06:53:51Z</time></trkpt><trkpt lat="45.00939407689065" lon="8.451897797909213"><ele>132.0</ele><time>2026-04-25T06:53:53Z</time></trkpt><trkpt lat="45.00934525693967" lon="8.451764360833726"><ele>132.0</ele><time>2026-04-25T06:53:55Z</time></trkpt><trkpt lat="45.00932720311208" lon="8.45161935379333"><ele>132.0</ele><time>2026-04-25T06:53:57Z</time></trkpt><trkpt lat="45.00930662789314" lon="8.451437775614105"><ele>132.0</ele><time>2026-04-25T06:53:59Z</time></trkpt><trkpt lat="45.0092916086291" lon="8.451332840559338"><ele>132.0</ele><time>2026-04-25T06:54:00Z</time></trkpt><trkpt lat="45.0092547288222" lon="8.451205336111823"><ele>132.0</ele><time>2026-04-25T06:54:02Z</time></trkpt><trkpt lat="45.009206963045614" lon="8.451069707515018"><ele>132.0</ele><time>2026-04-25T06:54:04Z</time></trkpt><trkpt lat="45.0091732303129" lon="8.45098670016563"><ele>132.0</ele><time>2026-04-25T06:54:05Z</time></trkpt><trkpt lat="45.00912905064474" lon="8.450915777748953"><ele>132.0</ele><time>2026-04-25T06:54:06Z</time></trkpt><trkpt lat="45.00909043019307" lon="8.450844047322038"><ele>132.0</ele><time>2026-04-25T06:54:07Z</time></trkpt><trkpt lat="45.00904999635506" lon="8.450774255603532"><ele>132.0</ele><time>2026-04-25T06:54:08Z</time></trkpt><trkpt lat="45.00900128075725" lon="8.450708513735059"><ele>132.0</ele><time>2026-04-25T06:54:09Z</time></trkpt><trkpt lat="45.008947101163756" lon="8.450621724131274"><ele>132.0</ele><time>2026-04-25T06:54:10Z</time></trkpt><trkpt lat="45.008891472921896" lon="8.450540462466796"><ele>132.0</ele><time>2026-04-25T06:54:11Z</time></trkpt><trkpt lat="45.008830240658554" lon="8.450465352679572"><ele>132.0</ele><time>2026-04-25T06:54:12Z</time></trkpt><trkpt lat="45.00877461672376" lon="8.450382772940163"><ele>132.0</ele><time>2026-04-25T06:54:13Z</time></trkpt><trkpt lat="45.00870210062319" lon="8.450306013484637"><ele>132.0</ele><time>2026-04-25T06:54:14Z</time></trkpt><trkpt lat="45.00863198318198" lon="8.450223059529154"><ele>132.0</ele><time>2026-04-25T06:54:15Z</time></trkpt><trkpt lat="45.00856793173117" lon="8.45014628979093"><ele>132.0</ele><time>2026-04-25T06:54:16Z</time></trkpt><trkpt lat="45.008504386165306" lon="8.450067681866955"><ele>132.0</ele><time>2026-04-25T06:54:17Z</time></trkpt><trkpt lat="45.008453203521924" lon="8.450011678897448"><ele>132.0</ele><time>2026-04-25T06:54:18Z</time></trkpt><trkpt lat="45.0083987778" lon="8.449951587458116"><ele>132.2</ele><time>2026-04-25T06:54:19Z</time></trkpt><trkpt lat="45.0083001512209" lon="8.44983533903175"><ele>132.39999999999998</ele><time>2026-04-25T06:54:21Z</time></trkpt><trkpt lat="45.0082506836699" lon="8.449767241805967"><ele>132.60000000000002</ele><time>2026-04-25T06:54:22Z</time></trkpt><trkpt lat="45.00821181493088" lon="8.449692788316316"><ele>132.8</ele><time>2026-04-25T06:54:23Z</time></trkpt><trkpt lat="45.008169709545896" lon="8.449560032755508"><ele>133.0</ele><time>2026-04-25T06:54:25Z</time></trkpt><trkpt lat="45.00818645685703" lon="8.449396307849524"><ele>133.0</ele><time>2026-04-25T06:54:27Z</time></trkpt><trkpt lat="45.00826364321427" lon="8.449238570377561"><ele>133.0</ele><time>2026-04-25T06:54:28.999Z</time></trkpt><trkpt lat="45.00830739565751" lon="8.449150766339091"><ele>133.0</ele><time>2026-04-25T06:54:29.999Z</time></trkpt><trkpt lat="45.00834614440464" lon="8.44906816944563"><ele>133.0</ele><time>2026-04-25T06:54:30.999Z</time></trkpt><trkpt lat="45.00838262803862" lon="8.448989898391535"><ele>133.0</ele><time>2026-04-25T06:54:31.999Z</time></trkpt><trkpt lat="45.00843170062752" lon="8.448901097841484"><ele>133.0</ele><time>2026-04-25T06:54:32.999Z</time></trkpt><trkpt lat="45.00847834395685" lon="8.448802380357419"><ele>133.8</ele><time>2026-04-25T06:54:33.999Z</time></trkpt><trkpt lat="45.00852476808804" lon="8.44871251325129"><ele>134.60000000000002</ele><time>2026-04-25T06:54:34.999Z</time></trkpt><trkpt lat="45.008586551719425" lon="8.448585723971329"><ele>135.39999999999998</ele><time>2026-04-25T06:54:36.999Z</time></trkpt><trkpt lat="45.00865405749893" lon="8.448450250523027"><ele>136.2</ele><time>2026-04-25T06:54:38.999Z</time></trkpt><trkpt lat="45.00869873967375" lon="8.448375169522125"><ele>137.0</ele><time>2026-04-25T06:54:39.999Z</time></trkpt><trkpt lat="45.00874465307357" lon="8.44828861485392"><ele>137.00000000000003</ele><time>2026-04-25T06:54:40.999Z</time></trkpt><trkpt lat="45.00879147670235" lon="8.448217622830697"><ele>137.0</ele><time>2026-04-25T06:54:41.999Z</time></trkpt><trkpt lat="45.00883745681412" lon="8.448145560606047"><ele>137.0</ele><time>2026-04-25T06:54:42.999Z</time></trkpt><trkpt lat="45.00889163397273" lon="8.44807299378401"><ele>137.0</ele><time>2026-04-25T06:54:43.999Z</time></trkpt><trkpt lat="45.00894308190913" lon="8.44799886647667"><ele>137.0</ele><time>2026-04-25T06:54:44.999Z</time></trkpt><trkpt lat="45.008994105777674" lon="8.447933798982302"><ele>137.00000000000003</ele><time>2026-04-25T06:54:45.999Z</time></trkpt><trkpt lat="45.00904148787343" lon="8.447845497423922"><ele>137.0</ele><time>2026-04-25T06:54:47.999Z</time></trkpt><trkpt lat="45.0089819858221" lon="8.447758695965248"><ele>138.2</ele><time>2026-04-25T06:54:50.999Z</time></trkpt><trkpt lat="45.008923520293635" lon="8.447714194190743"><ele>139.39999999999998</ele><time>2026-04-25T06:54:51.999Z</time></trkpt><trkpt lat="45.008802386896996" lon="8.447640530392922"><ele>140.60000000000002</ele><time>2026-04-25T06:54:53.999Z</time></trkpt><trkpt lat="45.00872453380607" lon="8.447607958212313"><ele>141.8</ele><time>2026-04-25T06:54:54.999Z</time></trkpt><trkpt lat="45.008634555079105" lon="8.447552689983235"><ele>143.0</ele><time>2026-04-25T06:54:55.999Z</time></trkpt><trkpt lat="45.00852603777828" lon="8.447483254826592"><ele>143.0</ele><time>2026-04-25T06:54:56.999Z</time></trkpt><trkpt lat="45.00840299533874" lon="8.44741822866871"><ele>143.0</ele><time>2026-04-25T06:54:57.999Z</time></trkpt><trkpt lat="45.00827028938725" lon="8.44733562802804"><ele>143.0</ele><time>2026-04-25T06:54:58.999Z</time></trkpt><trkpt lat="45.00811490630965" lon="8.447247763075456"><ele>143.0</ele><time>2026-04-25T06:54:59.999Z</time></trkpt><trkpt lat="45.0080014388572" lon="8.44719227165079"><ele>142.4</ele><time>2026-04-25T06:55:00.999Z</time></trkpt><trkpt lat="45.00789443235702" lon="8.447143330827373"><ele>141.8</ele><time>2026-04-25T06:55:01.999Z</time></trkpt><trkpt lat="45.007797232110164" lon="8.447123668146867"><ele>141.2</ele><time>2026-04-25T06:55:02.999Z</time></trkpt><trkpt lat="45.00771756386886" lon="8.447078957847353"><ele>140.6</ele><time>2026-04-25T06:55:03.999Z</time></trkpt><trkpt lat="45.007619958047364" lon="8.447070779976247"><ele>140.0</ele><time>2026-04-25T06:55:04.999Z</time></trkpt><trkpt lat="45.00751143945052" lon="8.447063410573433"><ele>140.4</ele><time>2026-04-25T06:55:05.999Z</time></trkpt><trkpt lat="45.00740323200108" lon="8.447041213632"><ele>140.8</ele><time>2026-04-25T06:55:06.999Z</time></trkpt><trkpt lat="45.00730580340069" lon="8.447073252836828"><ele>141.2</ele><time>2026-04-25T06:55:07.999Z</time></trkpt><trkpt lat="45.00722483197334" lon="8.447074835836627"><ele>141.6</ele><time>2026-04-25T06:55:08.999Z</time></trkpt><trkpt lat="45.007147349541576" lon="8.447105631366004"><ele>142.0</ele><time>2026-04-25T06:55:09.999Z</time></trkpt><trkpt lat="45.00707117242391" lon="8.44714301651696"><ele>141.0</ele><time>2026-04-25T06:55:10.999Z</time></trkpt><trkpt lat="45.00701538668405" lon="8.447247382246122"><ele>140.0</ele><time>2026-04-25T06:55:11.999Z</time></trkpt><trkpt lat="45.00696792934765" lon="8.44733979529673"><ele>139.0</ele><time>2026-04-25T06:55:12.999Z</time></trkpt><trkpt lat="45.00691751400884" lon="8.447407885255487"><ele>138.0</ele><time>2026-04-25T06:55:13.999Z</time></trkpt><trkpt lat="45.006866758612105" lon="8.447473058630493"><ele>137.0</ele><time>2026-04-25T06:55:14.999Z</time></trkpt><trkpt lat="45.00679156588565" lon="8.447486712862801"><ele>136.0</ele><time>2026-04-25T06:55:15.999Z</time></trkpt><trkpt lat="45.00671271800915" lon="8.447464456903027"><ele>136.0</ele><time>2026-04-25T06:55:16.999Z</time></trkpt><trkpt lat="45.00662126506963" lon="8.447415050471916"><ele>136.0</ele><time>2026-04-25T06:55:17.999Z</time></trkpt><trkpt lat="45.006529369913544" lon="8.447359308882783"><ele>136.0</ele><time>2026-04-25T06:55:18.999Z</time></trkpt><trkpt lat="45.006450552343395" lon="8.447306352757964"><ele>136.0</ele><time>2026-04-25T06:55:19.999Z</time></trkpt><trkpt lat="45.00636120284304" lon="8.447240745914595"><ele>136.0</ele><time>2026-04-25T06:55:20.999Z</time></trkpt><trkpt lat="45.00627802172967" lon="8.447178973139414"><ele>136.2</ele><time>2026-04-25T06:55:21.999Z</time></trkpt><trkpt lat="45.006185703076156" lon="8.447109701040313"><ele>136.39999999999998</ele><time>2026-04-25T06:55:22.999Z</time></trkpt><trkpt lat="45.00609824665784" lon="8.447041670885024"><ele>136.6</ele><time>2026-04-25T06:55:23.999Z</time></trkpt><trkpt lat="45.00599085514214" lon="8.446955437409228"><ele>136.79999999999998</ele><time>2026-04-25T06:55:24.999Z</time></trkpt><trkpt lat="45.005906965492564" lon="8.446887375973951"><ele>137.0</ele><time>2026-04-25T06:55:25.999Z</time></trkpt><trkpt lat="45.00581894010428" lon="8.44681806250462"><ele>137.0</ele><time>2026-04-25T06:55:26.999Z</time></trkpt><trkpt lat="45.00572232391318" lon="8.446772319619603"><ele>137.0</ele><time>2026-04-25T06:55:27.999Z</time></trkpt><trkpt lat="45.00564124562376" lon="8.446723475239878"><ele>137.0</ele><time>2026-04-25T06:55:28.999Z</time></trkpt><trkpt lat="45.005564333885346" lon="8.446657013985375"><ele>137.0</ele><time>2026-04-25T06:55:29.999Z</time></trkpt><trkpt lat="45.00548969188741" lon="8.4466222440553"><ele>137.0</ele><time>2026-04-25T06:55:30.999Z</time></trkpt><trkpt lat="45.00542634773848" lon="8.44659611872388"><ele>137.0</ele><time>2026-04-25T06:55:31.999Z</time></trkpt><trkpt lat="45.00531083726702" lon="8.446555933589858"><ele>137.0</ele><time>2026-04-25T06:55:33.999Z</time></trkpt><trkpt lat="45.00521241507035" lon="8.446535228995184"><ele>137.0</ele><time>2026-04-25T06:55:35.999Z</time></trkpt><trkpt lat="45.00513029197696" lon="8.446526747543938"><ele>137.0</ele><time>2026-04-25T06:55:37.999Z</time></trkpt><trkpt lat="45.00505497023691" lon="8.446524175193531"><ele>137.0</ele><time>2026-04-25T06:55:40Z</time></trkpt><trkpt lat="45.00496909718352" lon="8.446531578003158"><ele>137.0</ele><time>2026-04-25T06:55:44Z</time></trkpt><trkpt lat="45.00490952054914" lon="8.446571363679341"><ele>137.0</ele><time>2026-04-25T06:55:47Z</time></trkpt><trkpt lat="45.00484005354614" lon="8.446575356832897"><ele>136.83333333333331</ele><time>2026-04-25T06:55:49Z</time></trkpt><trkpt lat="45.00476911559362" lon="8.446557202336281"><ele>136.66666666666666</ele><time>2026-04-25T06:55:51Z</time></trkpt><trkpt lat="45.004676959197646" lon="8.446555107151788"><ele>136.5</ele><time>2026-04-25T06:55:53Z</time></trkpt><trkpt lat="45.004557737468375" lon="8.446553063058161"><ele>136.33333333333334</ele><time>2026-04-25T06:55:55Z</time></trkpt><trkpt lat="45.00449435195552" lon="8.446550718580038"><ele>136.16666666666669</ele><time>2026-04-25T06:55:56Z</time></trkpt><trkpt lat="45.00442946249429" lon="8.446548153403645"><ele>136.0</ele><time>2026-04-25T06:55:57Z</time></trkpt><trkpt lat="45.004363373852044" lon="8.44654448293254"><ele>136.0</ele><time>2026-04-25T06:55:58Z</time></trkpt><trkpt lat="45.0042954063778" lon="8.446540381117854"><ele>136.0</ele><time>2026-04-25T06:55:59Z</time></trkpt><trkpt lat="45.00420362069328" lon="8.446534017126131"><ele>136.0</ele><time>2026-04-25T06:56:01Z</time></trkpt><trkpt lat="45.00408452972585" lon="8.446523901213327"><ele>136.0</ele><time>2026-04-25T06:56:03Z</time></trkpt><trkpt lat="45.0040196844372" lon="8.446518393074605"><ele>136.0</ele><time>2026-04-25T06:56:04Z</time></trkpt><trkpt lat="45.00395558875397" lon="8.446512948610362"><ele>136.0</ele><time>2026-04-25T06:56:05Z</time></trkpt><trkpt lat="45.00387965431105" lon="8.446506498531548"><ele>136.0</ele><time>2026-04-25T06:56:06Z</time></trkpt><trkpt lat="45.00379040930825" lon="8.446498917814424"><ele>136.0</ele><time>2026-04-25T06:56:07Z</time></trkpt><trkpt lat="45.00369816449176" lon="8.446491082285638"><ele>136.0</ele><time>2026-04-25T06:56:08Z</time></trkpt><trkpt lat="45.003547060716606" lon="8.446480330887598"><ele>136.0</ele><time>2026-04-25T06:56:10Z</time></trkpt><trkpt lat="45.003461920381426" lon="8.44647478809193"><ele>136.0</ele><time>2026-04-25T06:56:11Z</time></trkpt><trkpt lat="45.003368204620905" lon="8.446470899815608"><ele>135.33333333333334</ele><time>2026-04-25T06:56:12Z</time></trkpt><trkpt lat="45.0032929946827" lon="8.446468885930019"><ele>134.66666666666669</ele><time>2026-04-25T06:56:13Z</time></trkpt><trkpt lat="45.0032058651903" lon="8.446466552875188"><ele>134.0</ele><time>2026-04-25T06:56:14Z</time></trkpt><trkpt lat="45.00311427116402" lon="8.446463627554996"><ele>133.33333333333334</ele><time>2026-04-25T06:56:15Z</time></trkpt><trkpt lat="45.00303791864157" lon="8.446457679584636"><ele>132.66666666666666</ele><time>2026-04-25T06:56:16Z</time></trkpt><trkpt lat="45.00295632120976" lon="8.44645132302969"><ele>132.0</ele><time>2026-04-25T06:56:17Z</time></trkpt><trkpt lat="45.002875452630434" lon="8.446448740067362"><ele>132.0</ele><time>2026-04-25T06:56:18Z</time></trkpt><trkpt lat="45.00278644360484" lon="8.446447385362816"><ele>132.0</ele><time>2026-04-25T06:56:19Z</time></trkpt><trkpt lat="45.00269061225275" lon="8.44643548290102"><ele>132.0</ele><time>2026-04-25T06:56:20Z</time></trkpt><trkpt lat="45.002604254624615" lon="8.446430906449912"><ele>132.0</ele><time>2026-04-25T06:56:22Z</time></trkpt><trkpt lat="45.00248915305764" lon="8.446369166192609"><ele>132.0</ele><time>2026-04-25T06:56:24Z</time></trkpt><trkpt lat="45.00240126340418" lon="8.446246537320174"><ele>132.4</ele><time>2026-04-25T06:56:26Z</time></trkpt><trkpt lat="45.002366107918654" lon="8.446163091260248"><ele>132.79999999999998</ele><time>2026-04-25T06:56:27Z</time></trkpt><trkpt lat="45.00232047185117" lon="8.446060736821297"><ele>133.2</ele><time>2026-04-25T06:56:28Z</time></trkpt><trkpt lat="45.00224214586667" lon="8.445882588202794"><ele>133.6</ele><time>2026-04-25T06:56:30Z</time></trkpt><trkpt lat="45.00220464347579" lon="8.445797027406375"><ele>134.0</ele><time>2026-04-25T06:56:31Z</time></trkpt><trkpt lat="45.002163274769316" lon="8.44570264567642"><ele>134.0</ele><time>2026-04-25T06:56:32Z</time></trkpt><trkpt lat="45.00211051017436" lon="8.445586416179255"><ele>134.0</ele><time>2026-04-25T06:56:33Z</time></trkpt><trkpt lat="45.002055066972375" lon="8.445472232302897"><ele>134.0</ele><time>2026-04-25T06:56:34Z</time></trkpt><trkpt lat="45.00200872156846" lon="8.44537575810634"><ele>134.0</ele><time>2026-04-25T06:56:35Z</time></trkpt><trkpt lat="45.00196322527222" lon="8.445276586930095"><ele>134.0</ele><time>2026-04-25T06:56:36Z</time></trkpt><trkpt lat="45.00190901165759" lon="8.445160696709667"><ele>134.0</ele><time>2026-04-25T06:56:37Z</time></trkpt><trkpt lat="45.001840756596174" lon="8.445026130030666"><ele>134.0</ele><time>2026-04-25T06:56:38Z</time></trkpt><trkpt lat="45.001751042498434" lon="8.444864678580329"><ele>134.0</ele><time>2026-04-25T06:56:39Z</time></trkpt><trkpt lat="45.001660604622984" lon="8.44471419900478"><ele>134.0</ele><time>2026-04-25T06:56:40Z</time></trkpt><trkpt lat="45.001584922761594" lon="8.444592053727092"><ele>134.0</ele><time>2026-04-25T06:56:41Z</time></trkpt><trkpt lat="45.00150757292252" lon="8.444471323925521"><ele>134.0</ele><time>2026-04-25T06:56:42Z</time></trkpt><trkpt lat="45.001421763819586" lon="8.444339503162757"><ele>134.0</ele><time>2026-04-25T06:56:43Z</time></trkpt><trkpt lat="45.001346356862626" lon="8.444227600478921"><ele>134.0</ele><time>2026-04-25T06:56:44Z</time></trkpt><trkpt lat="45.001273094962386" lon="8.444118881008604"><ele>134.0</ele><time>2026-04-25T06:56:45Z</time></trkpt><trkpt lat="45.00119583596665" lon="8.444006493777765"><ele>134.0</ele><time>2026-04-25T06:56:46Z</time></trkpt><trkpt lat="45.00112827538339" lon="8.443909871209407"><ele>134.0</ele><time>2026-04-25T06:56:47Z</time></trkpt><trkpt lat="45.00106333375654" lon="8.443827403505766"><ele>134.0</ele><time>2026-04-25T06:56:48Z</time></trkpt><trkpt lat="45.00099374969118" lon="8.443744486275081"><ele>134.0</ele><time>2026-04-25T06:56:49Z</time></trkpt><trkpt lat="45.00092031710184" lon="8.443661565474903"><ele>134.25</ele><time>2026-04-25T06:56:50Z</time></trkpt><trkpt lat="45.00082773274914" lon="8.443591484776157"><ele>134.5</ele><time>2026-04-25T06:56:51Z</time></trkpt><trkpt lat="45.000731538602835" lon="8.443505621636595"><ele>134.75</ele><time>2026-04-25T06:56:52Z</time></trkpt><trkpt lat="45.00062668835363" lon="8.443428007100392"><ele>135.0</ele><time>2026-04-25T06:56:53Z</time></trkpt><trkpt lat="45.00053100491681" lon="8.44334030275766"><ele>135.0</ele><time>2026-04-25T06:56:54Z</time></trkpt><trkpt lat="45.000451875973745" lon="8.443287045476433"><ele>135.0</ele><time>2026-04-25T06:56:55Z</time></trkpt><trkpt lat="45.000380180440274" lon="8.44323707931532"><ele>135.0</ele><time>2026-04-25T06:56:56Z</time></trkpt><trkpt lat="45.00031489114448" lon="8.443189051338702"><ele>135.0</ele><time>2026-04-25T06:56:56.999Z</time></trkpt><trkpt lat="45.00021208446425" lon="8.443061457650913"><ele>135.0</ele><time>2026-04-25T06:56:58.999Z</time></trkpt><trkpt lat="45.000193593329726" lon="8.44297040962586"><ele>135.0</ele><time>2026-04-25T06:56:59.999Z</time></trkpt><trkpt lat="45.00020267144959" lon="8.44283364739359"><ele>135.33333333333334</ele><time>2026-04-25T06:57:00.999Z</time></trkpt><trkpt lat="45.000207098580965" lon="8.442639302748937"><ele>135.66666666666669</ele><time>2026-04-25T06:57:01.999Z</time></trkpt><trkpt lat="45.00021193640702" lon="8.44242128313153"><ele>136.0</ele><time>2026-04-25T06:57:02.999Z</time></trkpt><trkpt lat="45.00021564224481" lon="8.442196357046866"><ele>136.75</ele><time>2026-04-25T06:57:03.999Z</time></trkpt><trkpt lat="45.00022130463392" lon="8.441987679747365"><ele>137.5</ele><time>2026-04-25T06:57:04.999Z</time></trkpt><trkpt lat="45.00023108212234" lon="8.44182419414558"><ele>138.25</ele><time>2026-04-25T06:57:05.999Z</time></trkpt><trkpt lat="45.000243740804635" lon="8.441673869018167"><ele>139.0</ele><time>2026-04-25T06:57:06.999Z</time></trkpt><trkpt lat="45.000257567490145" lon="8.441554364421275"><ele>139.0</ele><time>2026-04-25T06:57:07.999Z</time></trkpt><trkpt lat="45.00027955170289" lon="8.441409185609666"><ele>139.0</ele><time>2026-04-25T06:57:08.999Z</time></trkpt><trkpt lat="45.000302968729386" lon="8.441278695603579"><ele>139.0</ele><time>2026-04-25T06:57:09.999Z</time></trkpt><trkpt lat="45.000321977741336" lon="8.44118170093941"><ele>139.0</ele><time>2026-04-25T06:57:10.999Z</time></trkpt><trkpt lat="45.000342924231255" lon="8.441085111699724"><ele>139.0</ele><time>2026-04-25T06:57:11.999Z</time></trkpt><trkpt lat="45.000344864168014" lon="8.440995681558366"><ele>139.0</ele><time>2026-04-25T06:57:12.999Z</time></trkpt><trkpt lat="45.00038695358573" lon="8.440889982949951"><ele>139.16666666666669</ele><time>2026-04-25T06:57:14.999Z</time></trkpt><trkpt lat="45.00039967840892" lon="8.44079286076715"><ele>139.33333333333334</ele><time>2026-04-25T06:57:17.999Z</time></trkpt><trkpt lat="45.00041061307946" lon="8.440692721519543"><ele>139.5</ele><time>2026-04-25T06:57:19.999Z</time></trkpt><trkpt lat="45.00050994394845" lon="8.44059902862507"><ele>139.66666666666666</ele><time>2026-04-25T06:57:21.999Z</time></trkpt><trkpt lat="45.000562768368404" lon="8.440520680549103"><ele>139.83333333333331</ele><time>2026-04-25T06:57:22.999Z</time></trkpt><trkpt lat="45.000613849169646" lon="8.440432691115998"><ele>140.0</ele><time>2026-04-25T06:57:23.999Z</time></trkpt><trkpt lat="45.000671664666704" lon="8.440320875164002"><ele>140.0</ele><time>2026-04-25T06:57:24.999Z</time></trkpt><trkpt lat="45.00071190661234" lon="8.440243046686653"><ele>140.0</ele><time>2026-04-25T06:57:25.999Z</time></trkpt><trkpt lat="45.000756867248874" lon="8.440156094466795"><ele>140.0</ele><time>2026-04-25T06:57:26.999Z</time></trkpt><trkpt lat="45.00080572026616" lon="8.440059161997695"><ele>140.0</ele><time>2026-04-25T06:57:27.999Z</time></trkpt><trkpt lat="45.00085588498309" lon="8.43995962692583"><ele>140.0</ele><time>2026-04-25T06:57:28.999Z</time></trkpt><trkpt lat="45.00091375903554" lon="8.439844795240774"><ele>140.0</ele><time>2026-04-25T06:57:29.999Z</time></trkpt><trkpt lat="45.000970583348135" lon="8.439732046414692"><ele>141.8</ele><time>2026-04-25T06:57:30.999Z</time></trkpt><trkpt lat="45.00102932366772" lon="8.439615495891749"><ele>143.6</ele><time>2026-04-25T06:57:31.999Z</time></trkpt><trkpt lat="45.00108862579738" lon="8.439497830697233"><ele>145.4</ele><time>2026-04-25T06:57:32.999Z</time></trkpt><trkpt lat="45.00113959091483" lon="8.439396706453854"><ele>147.2</ele><time>2026-04-25T06:57:33.999Z</time></trkpt><trkpt lat="45.00119859225521" lon="8.439279637875517"><ele>149.0</ele><time>2026-04-25T06:57:34.999Z</time></trkpt><trkpt lat="45.00125635652346" lon="8.439165017276597"><ele>149.0</ele><time>2026-04-25T06:57:35.999Z</time></trkpt><trkpt lat="45.00131136214552" lon="8.439055078717411"><ele>149.0</ele><time>2026-04-25T06:57:36.999Z</time></trkpt><trkpt lat="45.00136719090798" lon="8.438940821186991"><ele>149.0</ele><time>2026-04-25T06:57:37.999Z</time></trkpt><trkpt lat="45.00142137285193" lon="8.438828436920595"><ele>149.0</ele><time>2026-04-25T06:57:38.999Z</time></trkpt><trkpt lat="45.001474402389604" lon="8.438718442805293"><ele>149.0</ele><time>2026-04-25T06:57:39.999Z</time></trkpt><trkpt lat="45.001521679906304" lon="8.4386306327993"><ele>148.6</ele><time>2026-04-25T06:57:40.999Z</time></trkpt><trkpt lat="45.00157260515035" lon="8.438536392561348"><ele>148.2</ele><time>2026-04-25T06:57:41.999Z</time></trkpt><trkpt lat="45.00162711266991" lon="8.438399341458782"><ele>147.79999999999998</ele><time>2026-04-25T06:57:43.999Z</time></trkpt><trkpt lat="45.00167304651692" lon="8.438232517034635"><ele>147.4</ele><time>2026-04-25T06:57:46Z</time></trkpt><trkpt lat="45.001694948200836" lon="8.43813141988998"><ele>147.0</ele><time>2026-04-25T06:57:47Z</time></trkpt><trkpt lat="45.00176306174683" lon="8.438072933279663"><ele>147.83333333333334</ele><time>2026-04-25T06:57:48Z</time></trkpt><trkpt lat="45.00182777472506" lon="8.438018216036665"><ele>148.66666666666666</ele><time>2026-04-25T06:57:49Z</time></trkpt><trkpt lat="45.00191490590786" lon="8.43793575669006"><ele>149.5</ele><time>2026-04-25T06:57:50Z</time></trkpt><trkpt lat="45.00198318435712" lon="8.4378792144072"><ele>150.33333333333331</ele><time>2026-04-25T06:57:51Z</time></trkpt><trkpt lat="45.002002280050085" lon="8.437790361294267"><ele>151.16666666666666</ele><time>2026-04-25T06:57:52Z</time></trkpt><trkpt lat="45.002036992688396" lon="8.437684655558789"><ele>152.0</ele><time>2026-04-25T06:57:53Z</time></trkpt><trkpt lat="45.002081979793154" lon="8.437567000421154"><ele>152.0</ele><time>2026-04-25T06:57:54Z</time></trkpt><trkpt lat="45.00214812744093" lon="8.43738189363728"><ele>152.0</ele><time>2026-04-25T06:57:56Z</time></trkpt><trkpt lat="45.002208060959305" lon="8.437187065582203"><ele>152.0</ele><time>2026-04-25T06:57:58Z</time></trkpt><trkpt lat="45.002243114642745" lon="8.437090766734807"><ele>152.0</ele><time>2026-04-25T06:57:59Z</time></trkpt><trkpt lat="45.00208963901961" lon="8.436488273835277"><ele>151.83333333333331</ele><time>2026-04-25T06:58:00Z</time></trkpt><trkpt lat="45.002137757947565" lon="8.436390495005856"><ele>151.66666666666666</ele><time>2026-04-25T06:58:01Z</time></trkpt><trkpt lat="45.002199762864606" lon="8.436302468020747"><ele>151.5</ele><time>2026-04-25T06:58:02Z</time></trkpt><trkpt lat="45.0022537276022" lon="8.436229937636295"><ele>151.33333333333334</ele><time>2026-04-25T06:58:03Z</time></trkpt><trkpt lat="45.002302051972066" lon="8.436150295610767"><ele>151.16666666666669</ele><time>2026-04-25T06:58:04Z</time></trkpt><trkpt lat="45.002366704660446" lon="8.436083060488697"><ele>151.0</ele><time>2026-04-25T06:58:05Z</time></trkpt><trkpt lat="45.002436925894045" lon="8.436017480880356"><ele>150.83333333333334</ele><time>2026-04-25T06:58:06Z</time></trkpt><trkpt lat="45.002511651630606" lon="8.435932664263737"><ele>150.66666666666669</ele><time>2026-04-25T06:58:07Z</time></trkpt><trkpt lat="45.00256664779999" lon="8.435867227157383"><ele>150.5</ele><time>2026-04-25T06:58:08Z</time></trkpt><trkpt lat="45.00262599990508" lon="8.435794616284817"><ele>150.33333333333334</ele><time>2026-04-25T06:58:09Z</time></trkpt><trkpt lat="45.002690883452146" lon="8.43571338196827"><ele>150.16666666666666</ele><time>2026-04-25T06:58:10Z</time></trkpt><trkpt lat="45.002752176589844" lon="8.435650298712506"><ele>150.0</ele><time>2026-04-25T06:58:11Z</time></trkpt><trkpt lat="45.00280719710587" lon="8.435590861320803"><ele>150.0</ele><time>2026-04-25T06:58:12Z</time></trkpt><trkpt lat="45.0028612925047" lon="8.435536656036042"><ele>150.0</ele><time>2026-04-25T06:58:13Z</time></trkpt><trkpt lat="45.00293032297831" lon="8.435411860260977"><ele>150.0</ele><time>2026-04-25T06:58:15Z</time></trkpt><trkpt lat="45.00296791500156" lon="8.43533514914522"><ele>150.0</ele><time>2026-04-25T06:58:16Z</time></trkpt><trkpt lat="45.0030007952192" lon="8.43525170360303"><ele>150.0</ele><time>2026-04-25T06:58:17Z</time></trkpt><trkpt lat="45.00304694921712" lon="8.435164612152358"><ele>150.0</ele><time>2026-04-25T06:58:18Z</time></trkpt><trkpt lat="45.00308638397862" lon="8.435074715982974"><ele>149.66666666666666</ele><time>2026-04-25T06:58:19Z</time></trkpt><trkpt lat="45.003138802169985" lon="8.434973519326405"><ele>149.33333333333334</ele><time>2026-04-25T06:58:20Z</time></trkpt><trkpt lat="45.00318890414862" lon="8.43488665527259"><ele>149.0</ele><time>2026-04-25T06:58:21Z</time></trkpt><trkpt lat="45.003231775374175" lon="8.434785921701982"><ele>148.66666666666669</ele><time>2026-04-25T06:58:22Z</time></trkpt><trkpt lat="45.00326021725572" lon="8.434659217850832"><ele>148.33333333333334</ele><time>2026-04-25T06:58:23Z</time></trkpt><trkpt lat="45.00328730290795" lon="8.434555115269392"><ele>148.0</ele><time>2026-04-25T06:58:24Z</time></trkpt><trkpt lat="45.00331067369915" lon="8.43441289914982"><ele>148.8</ele><time>2026-04-25T06:58:25Z</time></trkpt><trkpt lat="45.00332917646294" lon="8.434279743069027"><ele>149.60000000000002</ele><time>2026-04-25T06:58:26Z</time></trkpt><trkpt lat="45.003356267351265" lon="8.434137388071017"><ele>150.39999999999998</ele><time>2026-04-25T06:58:27Z</time></trkpt><trkpt lat="45.00336892959706" lon="8.434026291459332"><ele>151.2</ele><time>2026-04-25T06:58:28Z</time></trkpt><trkpt lat="45.00337935969555" lon="8.43389944737731"><ele>152.0</ele><time>2026-04-25T06:58:29Z</time></trkpt><trkpt lat="45.003397463334494" lon="8.433781001523558"><ele>152.4</ele><time>2026-04-25T06:58:30Z</time></trkpt><trkpt lat="45.003417932383584" lon="8.433653247066248"><ele>152.79999999999998</ele><time>2026-04-25T06:58:32Z</time></trkpt><trkpt lat="45.003406427091825" lon="8.433558586889413"><ele>153.2</ele><time>2026-04-25T06:58:33Z</time></trkpt><trkpt lat="45.00336207113775" lon="8.433458159843228"><ele>153.6</ele><time>2026-04-25T06:58:34Z</time></trkpt><trkpt lat="45.00330104394816" lon="8.433358744402272"><ele>154.0</ele><time>2026-04-25T06:58:35Z</time></trkpt><trkpt lat="45.00346371942541" lon="8.433231344043602"><ele>154.0</ele><time>2026-04-25T06:58:36Z</time></trkpt><trkpt lat="45.0034837152552" lon="8.433115243352898"><ele>154.0</ele><time>2026-04-25T06:58:37Z</time></trkpt><trkpt lat="45.003503886646676" lon="8.43300613511676"><ele>154.0</ele><time>2026-04-25T06:58:38Z</time></trkpt><trkpt lat="45.00352914985328" lon="8.432900144184611"><ele>154.0</ele><time>2026-04-25T06:58:39Z</time></trkpt><trkpt lat="45.00355896743128" lon="8.43274207687311"><ele>154.0</ele><time>2026-04-25T06:58:41Z</time></trkpt><trkpt lat="45.003599236420364" lon="8.43263213581987"><ele>154.0</ele><time>2026-04-25T06:58:43Z</time></trkpt><trkpt lat="45.00361182709833" lon="8.43250259075167"><ele>154.16666666666669</ele><time>2026-04-25T06:58:45Z</time></trkpt><trkpt lat="45.0036430669246" lon="8.43235762202061"><ele>154.33333333333334</ele><time>2026-04-25T06:58:47Z</time></trkpt><trkpt lat="45.00370323285599" lon="8.432226325465225"><ele>154.5</ele><time>2026-04-25T06:58:49Z</time></trkpt><trkpt lat="45.0037103445019" lon="8.432116655156797"><ele>154.66666666666666</ele><time>2026-04-25T06:58:51Z</time></trkpt><trkpt lat="45.00375347343324" lon="8.432014380330386"><ele>154.83333333333331</ele><time>2026-04-25T06:58:53Z</time></trkpt><trkpt lat="45.00376357436582" lon="8.431919783257403"><ele>155.0</ele><time>2026-04-25T06:58:55Z</time></trkpt><trkpt lat="45.00379280421445" lon="8.431796006050943"><ele>155.2</ele><time>2026-04-25T06:58:57.999Z</time></trkpt><trkpt lat="45.003831804101914" lon="8.431654825881898"><ele>155.4</ele><time>2026-04-25T06:58:59.999Z</time></trkpt><trkpt lat="45.00384502728536" lon="8.431512172681563"><ele>155.6</ele><time>2026-04-25T06:59:01.999Z</time></trkpt><trkpt lat="45.00387967982477" lon="8.431373106436817"><ele>155.8</ele><time>2026-04-25T06:59:03.999Z</time></trkpt><trkpt lat="45.00389901387389" lon="8.43121923725301"><ele>156.0</ele><time>2026-04-25T06:59:05.999Z</time></trkpt><trkpt lat="45.003949928422585" lon="8.431088547293058"><ele>156.0</ele><time>2026-04-25T06:59:07.999Z</time></trkpt><trkpt lat="45.003967018262756" lon="8.430994246643333"><ele>156.0</ele><time>2026-04-25T06:59:08.999Z</time></trkpt><trkpt lat="45.00398669171398" lon="8.430906160539907"><ele>156.0</ele><time>2026-04-25T06:59:09.999Z</time></trkpt><trkpt lat="45.004023374942115" lon="8.430758934175975"><ele>156.0</ele><time>2026-04-25T06:59:11.999Z</time></trkpt><trkpt lat="45.00407021053616" lon="8.430601718550943"><ele>156.0</ele><time>2026-04-25T06:59:13.999Z</time></trkpt><trkpt lat="45.004094870372185" lon="8.430511782208471"><ele>156.0</ele><time>2026-04-25T06:59:14.999Z</time></trkpt><trkpt lat="45.004119545796236" lon="8.430426493961987"><ele>156.8</ele><time>2026-04-25T06:59:15.999Z</time></trkpt><trkpt lat="45.00417647986175" lon="8.430265752408586"><ele>157.6</ele><time>2026-04-25T06:59:17.999Z</time></trkpt><trkpt lat="45.0042170113557" lon="8.430154536952873"><ele>158.4</ele><time>2026-04-25T06:59:19.999Z</time></trkpt><trkpt lat="45.00427277364373" lon="8.430001122083766"><ele>159.2</ele><time>2026-04-25T06:59:21.999Z</time></trkpt><trkpt lat="45.00431697294537" lon="8.429903558854612"><ele>160.0</ele><time>2026-04-25T06:59:22.999Z</time></trkpt><trkpt lat="45.00436256211151" lon="8.42980397111353"><ele>160.0</ele><time>2026-04-25T06:59:23.999Z</time></trkpt><trkpt lat="45.00439325183772" lon="8.429717161078635"><ele>160.0</ele><time>2026-04-25T06:59:24.999Z</time></trkpt><trkpt lat="45.00443222735061" lon="8.429644276501309"><ele>160.0</ele><time>2026-04-25T06:59:25.999Z</time></trkpt><trkpt lat="45.00451062456415" lon="8.429469121473803"><ele>160.0</ele><time>2026-04-25T06:59:27.999Z</time></trkpt><trkpt lat="45.00455343270043" lon="8.429376331542715"><ele>160.0</ele><time>2026-04-25T06:59:28.999Z</time></trkpt><trkpt lat="45.00459259526948" lon="8.429268139789171"><ele>160.0</ele><time>2026-04-25T06:59:29.999Z</time></trkpt><trkpt lat="45.00463176583602" lon="8.429179242810614"><ele>160.0</ele><time>2026-04-25T06:59:30.999Z</time></trkpt><trkpt lat="45.00469703143407" lon="8.428996472302945"><ele>160.0</ele><time>2026-04-25T06:59:32.999Z</time></trkpt><trkpt lat="45.004734420715515" lon="8.428911498217559"><ele>160.0</ele><time>2026-04-25T06:59:33.999Z</time></trkpt><trkpt lat="45.00477228949269" lon="8.42881323041577"><ele>160.0</ele><time>2026-04-25T06:59:34.999Z</time></trkpt><trkpt lat="45.00481352068683" lon="8.42871308211075"><ele>160.0</ele><time>2026-04-25T06:59:35.999Z</time></trkpt><trkpt lat="45.004900494599575" lon="8.428566700097353"><ele>160.5</ele><time>2026-04-25T06:59:37.999Z</time></trkpt><trkpt lat="45.00494742243806" lon="8.428498669441698"><ele>161.0</ele><time>2026-04-25T06:59:38.999Z</time></trkpt><trkpt lat="45.004999064504304" lon="8.428432893555033"><ele>161.5</ele><time>2026-04-25T06:59:39.999Z</time></trkpt><trkpt lat="45.00505471958345" lon="8.428373000779105"><ele>162.0</ele><time>2026-04-25T06:59:40.999Z</time></trkpt><trkpt lat="45.00510773694912" lon="8.428286677355594"><ele>162.5</ele><time>2026-04-25T06:59:41.999Z</time></trkpt><trkpt lat="45.00517250875123" lon="8.428214753685177"><ele>163.0</ele><time>2026-04-25T06:59:42.999Z</time></trkpt><trkpt lat="45.00527033782099" lon="8.42811120803007"><ele>163.2857142857143</ele><time>2026-04-25T06:59:44.999Z</time></trkpt><trkpt lat="45.00532755323997" lon="8.42804890383091"><ele>163.57142857142856</ele><time>2026-04-25T06:59:45.999Z</time></trkpt><trkpt lat="45.005369791116145" lon="8.427982240893444"><ele>163.85714285714286</ele><time>2026-04-25T06:59:46.999Z</time></trkpt><trkpt lat="45.00542253729221" lon="8.427906891119504"><ele>164.14285714285717</ele><time>2026-04-25T06:59:47.999Z</time></trkpt><trkpt lat="45.00546600121989" lon="8.427836675505734"><ele>164.42857142857144</ele><time>2026-04-25T06:59:48.999Z</time></trkpt><trkpt lat="45.005539757136596" lon="8.427760606330205"><ele>164.71428571428572</ele><time>2026-04-25T06:59:50.999Z</time></trkpt><trkpt lat="45.005581627798236" lon="8.427682189633341"><ele>165.0</ele><time>2026-04-25T06:59:53Z</time></trkpt><trkpt lat="45.00563232901473" lon="8.427596336894124"><ele>165.0</ele><time>2026-04-25T06:59:56Z</time></trkpt><trkpt lat="45.00567026515108" lon="8.427520688014909"><ele>165.0</ele><time>2026-04-25T07:00:07Z</time></trkpt><trkpt lat="45.00575405342141" lon="8.427405169093584"><ele>165.0</ele><time>2026-04-25T07:00:09Z</time></trkpt><trkpt lat="45.00580241735451" lon="8.427315725606125"><ele>165.0</ele><time>2026-04-25T07:00:11Z</time></trkpt><trkpt lat="45.00583997586652" lon="8.427242974326504"><ele>165.0</ele><time>2026-04-25T07:00:13Z</time></trkpt><trkpt lat="45.00589744055934" lon="8.427123332851497"><ele>165.0</ele><time>2026-04-25T07:05:01Z</time></trkpt><trkpt lat="45.005919839567646" lon="8.426980402792147"><ele>165.16666666666666</ele><time>2026-04-25T07:05:03Z</time></trkpt><trkpt lat="45.005933718043885" lon="8.426857675847259"><ele>165.33333333333334</ele><time>2026-04-25T07:05:05Z</time></trkpt><trkpt lat="45.00594811162904" lon="8.426764683430934"><ele>165.5</ele><time>2026-04-25T07:05:06Z</time></trkpt><trkpt lat="45.005971534456634" lon="8.426654594271552"><ele>165.66666666666669</ele><time>2026-04-25T07:05:07Z</time></trkpt><trkpt lat="45.00599525970206" lon="8.426533471264216"><ele>165.83333333333334</ele><time>2026-04-25T07:05:08Z</time></trkpt><trkpt lat="45.006009228329496" lon="8.426417485497629"><ele>166.0</ele><time>2026-04-25T07:05:08.999Z</time></trkpt><trkpt lat="45.0060233633667" lon="8.426310861034308"><ele>166.0</ele><time>2026-04-25T07:05:09.999Z</time></trkpt><trkpt lat="45.006038862367795" lon="8.426202659390988"><ele>166.0</ele><time>2026-04-25T07:05:10.999Z</time></trkpt><trkpt lat="45.00605173500592" lon="8.426083371210627"><ele>166.0</ele><time>2026-04-25T07:05:11.999Z</time></trkpt><trkpt lat="45.00605479303158" lon="8.425980415204526"><ele>166.0</ele><time>2026-04-25T07:05:12.999Z</time></trkpt><trkpt lat="45.00606289112492" lon="8.425879918975006"><ele>166.0</ele><time>2026-04-25T07:05:13.999Z</time></trkpt><trkpt lat="45.006069476429865" lon="8.425788170516922"><ele>166.0</ele><time>2026-04-25T07:05:14.999Z</time></trkpt><trkpt lat="45.0060726664489" lon="8.425692728449702"><ele>166.0</ele><time>2026-04-25T07:05:15.999Z</time></trkpt><trkpt lat="45.00609263194517" lon="8.42551029609963"><ele>166.5</ele><time>2026-04-25T07:05:17.999Z</time></trkpt><trkpt lat="45.00611329823066" lon="8.425414620868164"><ele>167.0</ele><time>2026-04-25T07:05:18.999Z</time></trkpt><trkpt lat="45.006144005091976" lon="8.425318904873155"><ele>167.5</ele><time>2026-04-25T07:05:19.999Z</time></trkpt><trkpt lat="45.006181694687136" lon="8.425203426941625"><ele>168.0</ele><time>2026-04-25T07:05:20.999Z</time></trkpt><trkpt lat="45.006224988720135" lon="8.425103749966134"><ele>168.5</ele><time>2026-04-25T07:05:21.999Z</time></trkpt><trkpt lat="45.00627632509122" lon="8.425009432379229"><ele>169.0</ele><time>2026-04-25T07:05:22.999Z</time></trkpt><trkpt lat="45.00632318294993" lon="8.424899600755937"><ele>169.0</ele><time>2026-04-25T07:05:23.999Z</time></trkpt><trkpt lat="45.00635954872262" lon="8.424795586878366"><ele>169.0</ele><time>2026-04-25T07:05:24.999Z</time></trkpt><trkpt lat="45.00640172024085" lon="8.424697393676963"><ele>169.0</ele><time>2026-04-25T07:05:25.999Z</time></trkpt><trkpt lat="45.006443054784555" lon="8.42458833755755"><ele>169.0</ele><time>2026-04-25T07:05:26.999Z</time></trkpt><trkpt lat="45.00647092425648" lon="8.424469215560448"><ele>169.0</ele><time>2026-04-25T07:05:27.999Z</time></trkpt><trkpt lat="45.00649666295509" lon="8.424344755777033"><ele>169.0</ele><time>2026-04-25T07:05:28.999Z</time></trkpt><trkpt lat="45.00652603801075" lon="8.42420927511436"><ele>168.6</ele><time>2026-04-25T07:05:29.999Z</time></trkpt><trkpt lat="45.00655303216608" lon="8.42406427747296"><ele>168.2</ele><time>2026-04-25T07:05:30.999Z</time></trkpt><trkpt lat="45.006579472584214" lon="8.42391619503889"><ele>167.79999999999998</ele><time>2026-04-25T07:05:31.999Z</time></trkpt><trkpt lat="45.00660729149232" lon="8.423759406269083"><ele>167.39999999999998</ele><time>2026-04-25T07:05:32.999Z</time></trkpt><trkpt lat="45.00663739535884" lon="8.423618216594829"><ele>167.0</ele><time>2026-04-25T07:05:33.999Z</time></trkpt><trkpt lat="45.006660018555934" lon="8.423472649768557"><ele>167.8</ele><time>2026-04-25T07:05:34.999Z</time></trkpt><trkpt lat="45.00668938796085" lon="8.423340634381743"><ele>168.6</ele><time>2026-04-25T07:05:35.999Z</time></trkpt><trkpt lat="45.00671598112949" lon="8.423203892334685"><ele>169.4</ele><time>2026-04-25T07:05:36.999Z</time></trkpt><trkpt lat="45.00673527056646" lon="8.423058195357681"><ele>170.20000000000002</ele><time>2026-04-25T07:05:37.999Z</time></trkpt><trkpt lat="45.006745069734016" lon="8.422930024918795"><ele>171.0</ele><time>2026-04-25T07:05:38.999Z</time></trkpt><trkpt lat="45.00674209812642" lon="8.422799359636157"><ele>171.20000000000002</ele><time>2026-04-25T07:05:39.999Z</time></trkpt><trkpt lat="45.006733848182066" lon="8.422656314195896"><ele>171.4</ele><time>2026-04-25T07:05:40.999Z</time></trkpt><trkpt lat="45.00675730920666" lon="8.422475914828537"><ele>171.6</ele><time>2026-04-25T07:05:42.999Z</time></trkpt><trkpt lat="45.006757494593515" lon="8.422367516041225"><ele>171.8</ele><time>2026-04-25T07:05:43.999Z</time></trkpt><trkpt lat="45.006742568096314" lon="8.422258500393642"><ele>172.0</ele><time>2026-04-25T07:05:44.999Z</time></trkpt><trkpt lat="45.0067279875475" lon="8.42213964653025"><ele>172.0</ele><time>2026-04-25T07:05:45.999Z</time></trkpt><trkpt lat="45.00670986709457" lon="8.422020011696265"><ele>172.0</ele><time>2026-04-25T07:05:46.999Z</time></trkpt><trkpt lat="45.00669274796599" lon="8.421904210192828"><ele>172.0</ele><time>2026-04-25T07:05:47.999Z</time></trkpt><trkpt lat="45.00668059287771" lon="8.421801337246727"><ele>172.0</ele><time>2026-04-25T07:05:48.999Z</time></trkpt><trkpt lat="45.00666966320274" lon="8.421696262791277"><ele>172.0</ele><time>2026-04-25T07:05:49.999Z</time></trkpt><trkpt lat="45.006662598220046" lon="8.421585141575559"><ele>172.0</ele><time>2026-04-25T07:05:50.999Z</time></trkpt><trkpt lat="45.00666572041491" lon="8.421488015833601"><ele>172.0</ele><time>2026-04-25T07:05:51.999Z</time></trkpt><trkpt lat="45.00667079148058" lon="8.421317096674077"><ele>172.0</ele><time>2026-04-25T07:05:53.999Z</time></trkpt><trkpt lat="45.00668773333864" lon="8.421170046414124"><ele>172.0</ele><time>2026-04-25T07:05:55.999Z</time></trkpt><trkpt lat="45.006758653949106" lon="8.42103836622214"><ele>172.0</ele><time>2026-04-25T07:05:57.999Z</time></trkpt><trkpt lat="45.006808296649574" lon="8.420950047068493"><ele>172.0</ele><time>2026-04-25T07:05:59.999Z</time></trkpt><trkpt lat="45.00684664903312" lon="8.420860819449329"><ele>172.0</ele><time>2026-04-25T07:06:32Z</time></trkpt><trkpt lat="45.00688663178911" lon="8.420744963209536"><ele>172.0</ele><time>2026-04-25T07:06:34Z</time></trkpt><trkpt lat="45.006925119962155" lon="8.420632238455005"><ele>172.0</ele><time>2026-04-25T07:06:36Z</time></trkpt><trkpt lat="45.0069738262064" lon="8.420544069526247"><ele>172.0</ele><time>2026-04-25T07:06:38Z</time></trkpt><trkpt lat="45.007005691468976" lon="8.420457961445976"><ele>172.0</ele><time>2026-04-25T07:06:40Z</time></trkpt><trkpt lat="45.00704146988208" lon="8.420351867933686"><ele>172.0</ele><time>2026-04-25T07:06:42Z</time></trkpt><trkpt lat="45.00708553964851" lon="8.420222853606159"><ele>172.0</ele><time>2026-04-25T07:06:44Z</time></trkpt><trkpt lat="45.007118059239374" lon="8.420097211284794"><ele>172.0</ele><time>2026-04-25T07:06:46Z</time></trkpt><trkpt lat="45.007151435224756" lon="8.41992902951202"><ele>172.0</ele><time>2026-04-25T07:06:48Z</time></trkpt><trkpt lat="45.00718528120739" lon="8.419832406538715"><ele>172.0</ele><time>2026-04-25T07:06:49Z</time></trkpt><trkpt lat="45.00720958670338" lon="8.419743082526516"><ele>172.0</ele><time>2026-04-25T07:06:50Z</time></trkpt><trkpt lat="45.00723680630317" lon="8.419647865757256"><ele>172.0</ele><time>2026-04-25T07:06:51Z</time></trkpt><trkpt lat="45.007280994955394" lon="8.419532983728919"><ele>173.6</ele><time>2026-04-25T07:06:52Z</time></trkpt><trkpt lat="45.00732911072512" lon="8.419432243340792"><ele>175.2</ele><time>2026-04-25T07:06:53Z</time></trkpt><trkpt lat="45.00738551810758" lon="8.419347583208591"><ele>176.8</ele><time>2026-04-25T07:06:54Z</time></trkpt><trkpt lat="45.00744095302976" lon="8.419257818459558"><ele>178.4</ele><time>2026-04-25T07:06:55Z</time></trkpt><trkpt lat="45.00754629774246" lon="8.419127372615286"><ele>180.0</ele><time>2026-04-25T07:06:57Z</time></trkpt><trkpt lat="45.00760584838669" lon="8.41904908811087"><ele>180.0</ele><time>2026-04-25T07:06:58Z</time></trkpt><trkpt lat="45.00765997697781" lon="8.418969375235573"><ele>180.0</ele><time>2026-04-25T07:06:59Z</time></trkpt><trkpt lat="45.00774848402542" lon="8.418878221256461"><ele>180.0</ele><time>2026-04-25T07:07:01Z</time></trkpt><trkpt lat="45.00784088555834" lon="8.418779107309398"><ele>180.0</ele><time>2026-04-25T07:07:03Z</time></trkpt><trkpt lat="45.0079023816911" lon="8.418730430272383"><ele>180.0</ele><time>2026-04-25T07:07:04Z</time></trkpt><trkpt lat="45.00800526943666" lon="8.418653768184216"><ele>180.0</ele><time>2026-04-25T07:07:06Z</time></trkpt><trkpt lat="45.00809629494869" lon="8.41858654721395"><ele>180.0</ele><time>2026-04-25T07:07:08Z</time></trkpt><trkpt lat="45.00814753734355" lon="8.418534715461355"><ele>180.0</ele><time>2026-04-25T07:07:09Z</time></trkpt><trkpt lat="45.00821929694411" lon="8.418465085630354"><ele>180.0</ele><time>2026-04-25T07:07:11Z</time></trkpt><trkpt lat="45.00829152830723" lon="8.418397515038594"><ele>180.0</ele><time>2026-04-25T07:07:12.999Z</time></trkpt><trkpt lat="45.008341525777965" lon="8.418337478115713"><ele>180.0</ele><time>2026-04-25T07:07:14.999Z</time></trkpt><trkpt lat="45.00841792726882" lon="8.418244964255631"><ele>179.6</ele><time>2026-04-25T07:07:16.999Z</time></trkpt><trkpt lat="45.00847051807954" lon="8.418152039440281"><ele>179.2</ele><time>2026-04-25T07:07:18.999Z</time></trkpt><trkpt lat="45.008551063690646" lon="8.418037098654743"><ele>178.8</ele><time>2026-04-25T07:07:20.999Z</time></trkpt><trkpt lat="45.00860160943022" lon="8.417956141147098"><ele>178.4</ele><time>2026-04-25T07:07:22.999Z</time></trkpt><trkpt lat="45.00866903003419" lon="8.41788059024404"><ele>178.0</ele><time>2026-04-25T07:07:24.999Z</time></trkpt><trkpt lat="45.00873768679778" lon="8.417788249262497"><ele>178.0</ele><time>2026-04-25T07:07:26.999Z</time></trkpt><trkpt lat="45.00878935382479" lon="8.417729491108199"><ele>178.0</ele><time>2026-04-25T07:07:27.999Z</time></trkpt><trkpt lat="45.008896125458335" lon="8.417618403934087"><ele>178.0</ele><time>2026-04-25T07:07:29.999Z</time></trkpt><trkpt lat="45.00896002511741" lon="8.417559764033015"><ele>178.0</ele><time>2026-04-25T07:07:30.999Z</time></trkpt><trkpt lat="45.00905529989253" lon="8.417429615433377"><ele>178.0</ele><time>2026-04-25T07:07:32.999Z</time></trkpt><trkpt lat="45.00911121859354" lon="8.417369738682357"><ele>178.16666666666669</ele><time>2026-04-25T07:07:33.999Z</time></trkpt><trkpt lat="45.009205610936604" lon="8.41725253065329"><ele>178.33333333333334</ele><time>2026-04-25T07:07:35.999Z</time></trkpt><trkpt lat="45.0092638180449" lon="8.417188953270726"><ele>178.5</ele><time>2026-04-25T07:07:36.999Z</time></trkpt><trkpt lat="45.00931530098217" lon="8.417134042178086"><ele>178.66666666666666</ele><time>2026-04-25T07:07:37.999Z</time></trkpt><trkpt lat="45.00936532811201" lon="8.417068770420656"><ele>178.83333333333331</ele><time>2026-04-25T07:07:38.999Z</time></trkpt><trkpt lat="45.00942827214665" lon="8.417005932026038"><ele>179.0</ele><time>2026-04-25T07:07:39.999Z</time></trkpt><trkpt lat="45.00948047752164" lon="8.416948586261869"><ele>179.2857142857143</ele><time>2026-04-25T07:07:40.999Z</time></trkpt><trkpt lat="45.009532651646154" lon="8.41689777704639"><ele>179.57142857142858</ele><time>2026-04-25T07:07:41.999Z</time></trkpt><trkpt lat="45.00958576765925" lon="8.416848217814028"><ele>179.85714285714286</ele><time>2026-04-25T07:07:42.999Z</time></trkpt><trkpt lat="45.00965102680405" lon="8.416787492671524"><ele>180.14285714285717</ele><time>2026-04-25T07:07:43.999Z</time></trkpt><trkpt lat="45.009718475331525" lon="8.41673834979108"><ele>180.42857142857142</ele><time>2026-04-25T07:07:44.999Z</time></trkpt><trkpt lat="45.00979451660509" lon="8.416645038818572"><ele>180.71428571428572</ele><time>2026-04-25T07:07:46.999Z</time></trkpt><trkpt lat="45.0098475136332" lon="8.416589761183259"><ele>181.0</ele><time>2026-04-25T07:07:47.999Z</time></trkpt><trkpt lat="45.00990589409829" lon="8.41653604377747"><ele>181.0</ele><time>2026-04-25T07:07:48.999Z</time></trkpt><trkpt lat="45.00995716997964" lon="8.416482450601992"><ele>181.0</ele><time>2026-04-25T07:07:49.999Z</time></trkpt><trkpt lat="45.01001127574156" lon="8.41641495314328"><ele>181.0</ele><time>2026-04-25T07:07:50.999Z</time></trkpt><trkpt lat="45.01009647416393" lon="8.416294194205328"><ele>181.0</ele><time>2026-04-25T07:07:52.999Z</time></trkpt><trkpt lat="45.010166416144614" lon="8.416185707402988"><ele>181.0</ele><time>2026-04-25T07:07:54.999Z</time></trkpt><trkpt lat="45.01022516418368" lon="8.41609293246657"><ele>181.0</ele><time>2026-04-25T07:07:56.999Z</time></trkpt><trkpt lat="45.01028779998118" lon="8.41599932613638"><ele>181.20000000000002</ele><time>2026-04-25T07:07:58.999Z</time></trkpt><trkpt lat="45.01035830364069" lon="8.415879639141451"><ele>181.4</ele><time>2026-04-25T07:08:00.999Z</time></trkpt><trkpt lat="45.010428789425276" lon="8.415769635548623"><ele>181.6</ele><time>2026-04-25T07:08:02.999Z</time></trkpt><trkpt lat="45.010483625552524" lon="8.415684477149913"><ele>181.8</ele><time>2026-04-25T07:08:04.999Z</time></trkpt><trkpt lat="45.01055944419432" lon="8.415582314144187"><ele>182.0</ele><time>2026-04-25T07:08:06.999Z</time></trkpt><trkpt lat="45.01062307410565" lon="8.415507505620527"><ele>182.16666666666666</ele><time>2026-04-25T07:08:08.999Z</time></trkpt><trkpt lat="45.01069133024919" lon="8.415442159547156"><ele>182.33333333333331</ele><time>2026-04-25T07:08:10.999Z</time></trkpt><trkpt lat="45.01076000334279" lon="8.415382898655206"><ele>182.5</ele><time>2026-04-25T07:08:13.999Z</time></trkpt><trkpt lat="45.01080522759049" lon="8.415296321262353"><ele>182.66666666666666</ele><time>2026-04-25T07:08:17Z</time></trkpt><trkpt lat="45.0108725806672" lon="8.415255882526251"><ele>182.83333333333334</ele><time>2026-04-25T07:08:19Z</time></trkpt><trkpt lat="45.01094398578861" lon="8.415256161207719"><ele>183.0</ele><time>2026-04-25T07:08:21Z</time></trkpt><trkpt lat="45.01102501790723" lon="8.415266008598024"><ele>183.0</ele><time>2026-04-25T07:08:23Z</time></trkpt><trkpt lat="45.0111248805191" lon="8.415292702079096"><ele>183.0</ele><time>2026-04-25T07:08:25Z</time></trkpt><trkpt lat="45.01122280143013" lon="8.41532148892868"><ele>183.0</ele><time>2026-04-25T07:08:27Z</time></trkpt><trkpt lat="45.011342523722796" lon="8.415347923771034"><ele>183.0</ele><time>2026-04-25T07:08:29Z</time></trkpt><trkpt lat="45.01144511053354" lon="8.415363340252517"><ele>183.0</ele><time>2026-04-25T07:08:31Z</time></trkpt><trkpt lat="45.01154538263269" lon="8.415366885136722"><ele>183.0</ele><time>2026-04-25T07:08:33Z</time></trkpt><trkpt lat="45.01162459956994" lon="8.415366980365848"><ele>183.0</ele><time>2026-04-25T07:08:35Z</time></trkpt><trkpt lat="45.01169120423904" lon="8.41535576096338"><ele>183.0</ele><time>2026-04-25T07:08:38Z</time></trkpt><trkpt lat="45.01177616915432" lon="8.415326311489943"><ele>183.0</ele><time>2026-04-25T07:09:27.999Z</time></trkpt><trkpt lat="45.01183629110808" lon="8.41527405145025"><ele>183.0</ele><time>2026-04-25T07:09:29.999Z</time></trkpt><trkpt lat="45.01193253912239" lon="8.415216361149906"><ele>183.0</ele><time>2026-04-25T07:09:31.999Z</time></trkpt><trkpt lat="45.01202222989844" lon="8.415121575041816"><ele>184.5</ele><time>2026-04-25T07:09:33.999Z</time></trkpt><trkpt lat="45.0121099479113" lon="8.415032123674843"><ele>186.0</ele><time>2026-04-25T07:09:35.999Z</time></trkpt><trkpt lat="45.01219933958077" lon="8.41492812687843"><ele>187.5</ele><time>2026-04-25T07:09:37.999Z</time></trkpt><trkpt lat="45.01228325867293" lon="8.414809850448757"><ele>189.0</ele><time>2026-04-25T07:09:39.999Z</time></trkpt><trkpt lat="45.01236841101052" lon="8.414684073088596"><ele>189.2</ele><time>2026-04-25T07:09:41.999Z</time></trkpt><trkpt lat="45.0124209605687" lon="8.414605888320793"><ele>189.39999999999998</ele><time>2026-04-25T07:09:42.999Z</time></trkpt><trkpt lat="45.01250649076386" lon="8.41447248031002"><ele>189.6</ele><time>2026-04-25T07:09:44.999Z</time></trkpt><trkpt lat="45.012593255452515" lon="8.414340953956932"><ele>189.8</ele><time>2026-04-25T07:09:46.999Z</time></trkpt><trkpt lat="45.01266432825076" lon="8.414241680370543"><ele>190.0</ele><time>2026-04-25T07:09:48.999Z</time></trkpt><trkpt lat="45.01276788728487" lon="8.41416182049634"><ele>190.4</ele><time>2026-04-25T07:09:50.999Z</time></trkpt><trkpt lat="45.01285895045871" lon="8.414116892148945"><ele>190.8</ele><time>2026-04-25T07:09:52.999Z</time></trkpt><trkpt lat="45.01295918671434" lon="8.414087379678882"><ele>191.2</ele><time>2026-04-25T07:09:54.999Z</time></trkpt><trkpt lat="45.013033149260025" lon="8.41406013368281"><ele>191.6</ele><time>2026-04-25T07:09:56.999Z</time></trkpt><trkpt lat="45.013126382309046" lon="8.414026021535681"><ele>192.0</ele><time>2026-04-25T07:09:58.999Z</time></trkpt><trkpt lat="45.013235285947935" lon="8.413981018666256"><ele>192.6</ele><time>2026-04-25T07:10:00.999Z</time></trkpt><trkpt lat="45.013351273189905" lon="8.413944224321979"><ele>193.2</ele><time>2026-04-25T07:10:02.999Z</time></trkpt><trkpt lat="45.01342515945413" lon="8.413926914109673"><ele>193.8</ele><time>2026-04-25T07:10:03.999Z</time></trkpt><trkpt lat="45.01350063065591" lon="8.413907744976598"><ele>194.4</ele><time>2026-04-25T07:10:04.999Z</time></trkpt><trkpt lat="45.01359954761613" lon="8.413866987682608"><ele>195.0</ele><time>2026-04-25T07:10:06.999Z</time></trkpt><trkpt lat="45.01367568705291" lon="8.41382131023452"><ele>195.0</ele><time>2026-04-25T07:10:10.999Z</time></trkpt><trkpt lat="45.01375369239114" lon="8.413775625627492"><ele>195.0</ele><time>2026-04-25T07:10:12.999Z</time></trkpt><trkpt lat="45.01384496381465" lon="8.413722459587433"><ele>195.0</ele><time>2026-04-25T07:10:14.999Z</time></trkpt><trkpt lat="45.01390492246111" lon="8.413692813025099"><ele>195.0</ele><time>2026-04-25T07:10:15.999Z</time></trkpt><trkpt lat="45.013989714625204" lon="8.413612966985148"><ele>195.0</ele><time>2026-04-25T07:10:17.999Z</time></trkpt><trkpt lat="45.014048355008846" lon="8.413560897315087"><ele>195.0</ele><time>2026-04-25T07:10:18.999Z</time></trkpt><trkpt lat="45.01409364506767" lon="8.413496194973067"><ele>195.0</ele><time>2026-04-25T07:10:19.999Z</time></trkpt><trkpt lat="45.01413828024006" lon="8.41343191059108"><ele>195.0</ele><time>2026-04-25T07:10:21Z</time></trkpt><trkpt lat="45.01419365379761" lon="8.41335737309923"><ele>195.0</ele><time>2026-04-25T07:10:22Z</time></trkpt><trkpt lat="45.01423697048687" lon="8.413268374832404"><ele>195.0</ele><time>2026-04-25T07:10:23Z</time></trkpt><trkpt lat="45.01428623223907" lon="8.413190267260873"><ele>195.0</ele><time>2026-04-25T07:10:24Z</time></trkpt><trkpt lat="45.014335845832775" lon="8.413112252913034"><ele>195.0</ele><time>2026-04-25T07:10:25Z</time></trkpt><trkpt lat="45.014388440969604" lon="8.41303529289013"><ele>195.0</ele><time>2026-04-25T07:10:26Z</time></trkpt><trkpt lat="45.01443579256891" lon="8.412953632765793"><ele>195.5</ele><time>2026-04-25T07:10:27Z</time></trkpt><trkpt lat="45.01446998829904" lon="8.412868759537243"><ele>196.0</ele><time>2026-04-25T07:10:28Z</time></trkpt><trkpt lat="45.01450751842218" lon="8.412787041435465"><ele>196.5</ele><time>2026-04-25T07:10:29Z</time></trkpt><trkpt lat="45.01453943116526" lon="8.412702168584262"><ele>197.0</ele><time>2026-04-25T07:10:30Z</time></trkpt><trkpt lat="45.01458111621096" lon="8.412603067618315"><ele>197.5</ele><time>2026-04-25T07:10:31Z</time></trkpt><trkpt lat="45.0146143469502" lon="8.41249125117431"><ele>198.0</ele><time>2026-04-25T07:10:32Z</time></trkpt><trkpt lat="45.01465745685253" lon="8.412384489144971"><ele>198.0</ele><time>2026-04-25T07:10:33Z</time></trkpt><trkpt lat="45.01469537042056" lon="8.412282456204185"><ele>198.0</ele><time>2026-04-25T07:10:34Z</time></trkpt><trkpt lat="45.01473367483372" lon="8.41218146364766"><ele>198.0</ele><time>2026-04-25T07:10:35Z</time></trkpt><trkpt lat="45.01475903687757" lon="8.41207611769796"><ele>198.0</ele><time>2026-04-25T07:10:36Z</time></trkpt><trkpt lat="45.014810143739695" lon="8.411935064380188"><ele>198.0</ele><time>2026-04-25T07:10:38Z</time></trkpt><trkpt lat="45.01485694200021" lon="8.411750680713155"><ele>197.83333333333334</ele><time>2026-04-25T07:10:40Z</time></trkpt><trkpt lat="45.01487973441862" lon="8.411666227738467"><ele>197.66666666666669</ele><time>2026-04-25T07:10:41Z</time></trkpt><trkpt lat="45.01489989077341" lon="8.411576450675446"><ele>197.5</ele><time>2026-04-25T07:10:43Z</time></trkpt><trkpt lat="45.01494249573881" lon="8.411424699202222"><ele>197.33333333333334</ele><time>2026-04-25T07:10:45Z</time></trkpt><trkpt lat="45.014952181574856" lon="8.411335929810626"><ele>197.16666666666669</ele><time>2026-04-25T07:10:46Z</time></trkpt><trkpt lat="45.01497197740668" lon="8.411190851792641"><ele>197.0</ele><time>2026-04-25T07:10:48Z</time></trkpt><trkpt lat="45.014983636160046" lon="8.411082116587078"><ele>197.2</ele><time>2026-04-25T07:10:50Z</time></trkpt><trkpt lat="45.014991065784045" lon="8.410967393727162"><ele>197.39999999999998</ele><time>2026-04-25T07:10:52Z</time></trkpt><trkpt lat="45.015014462900076" lon="8.410852814358877"><ele>197.60000000000002</ele><time>2026-04-25T07:10:54Z</time></trkpt><trkpt lat="45.015042584277396" lon="8.410752805906132"><ele>197.8</ele><time>2026-04-25T07:10:56Z</time></trkpt><trkpt lat="45.015083369535375" lon="8.410602145932959"><ele>198.0</ele><time>2026-04-25T07:10:58Z</time></trkpt><trkpt lat="45.01512008891057" lon="8.410466980941175"><ele>197.66666666666666</ele><time>2026-04-25T07:11:00Z</time></trkpt><trkpt lat="45.01515936770585" lon="8.410282075112276"><ele>197.33333333333331</ele><time>2026-04-25T07:11:02Z</time></trkpt><trkpt lat="45.015175402910444" lon="8.410194075572436"><ele>197.0</ele><time>2026-04-25T07:11:03Z</time></trkpt><trkpt lat="45.01518969378347" lon="8.410096207864768"><ele>196.66666666666666</ele><time>2026-04-25T07:11:04Z</time></trkpt><trkpt lat="45.015203623900256" lon="8.410009354139689"><ele>196.33333333333331</ele><time>2026-04-25T07:11:05Z</time></trkpt><trkpt lat="45.0152180052849" lon="8.409908900003655"><ele>196.0</ele><time>2026-04-25T07:11:06Z</time></trkpt><trkpt lat="45.015234459857204" lon="8.409810352162964"><ele>196.0</ele><time>2026-04-25T07:11:07Z</time></trkpt><trkpt lat="45.01524818969726" lon="8.409717178869455"><ele>196.0</ele><time>2026-04-25T07:11:08Z</time></trkpt><trkpt lat="45.01526420076934" lon="8.409626138389394"><ele>196.0</ele><time>2026-04-25T07:11:09Z</time></trkpt><trkpt lat="45.01528150300338" lon="8.409539210232166"><ele>196.0</ele><time>2026-04-25T07:11:10Z</time></trkpt><trkpt lat="45.01529200508423" lon="8.409449500585906"><ele>196.0</ele><time>2026-04-25T07:11:11Z</time></trkpt><trkpt lat="45.01530499163561" lon="8.409349273973445"><ele>196.0</ele><time>2026-04-25T07:11:12Z</time></trkpt><trkpt lat="45.01532121248236" lon="8.409201897736205"><ele>196.0</ele><time>2026-04-25T07:11:14Z</time></trkpt><trkpt lat="45.0153466542617" lon="8.409040993492711"><ele>196.8</ele><time>2026-04-25T07:11:16Z</time></trkpt><trkpt lat="45.01537254880549" lon="8.40887992827931"><ele>197.60000000000002</ele><time>2026-04-25T07:11:18Z</time></trkpt><trkpt lat="45.015374010303724" lon="8.408754761034785"><ele>198.4</ele><time>2026-04-25T07:15:13Z</time></trkpt><trkpt lat="45.015396125023024" lon="8.408631643322288"><ele>199.2</ele><time>2026-04-25T07:15:16Z</time></trkpt><trkpt lat="45.01542016666699" lon="8.408506282963605"><ele>200.0</ele><time>2026-04-25T07:15:19Z</time></trkpt><trkpt lat="45.01543520875439" lon="8.408395536159057"><ele>201.16666666666669</ele><time>2026-04-25T07:15:21Z</time></trkpt><trkpt lat="45.01545385721102" lon="8.408275744311952"><ele>202.33333333333334</ele><time>2026-04-25T07:15:23Z</time></trkpt><trkpt lat="45.015473424036855" lon="8.408145428522317"><ele>203.5</ele><time>2026-04-25T07:15:25Z</time></trkpt><trkpt lat="45.01548170846029" lon="8.408030334502955"><ele>204.66666666666669</ele><time>2026-04-25T07:15:27Z</time></trkpt><trkpt lat="45.01550365733364" lon="8.407912593089282"><ele>205.83333333333334</ele><time>2026-04-25T07:15:29Z</time></trkpt><trkpt lat="45.01551595331383" lon="8.407817330753137"><ele>207.0</ele><time>2026-04-25T07:15:31Z</time></trkpt><trkpt lat="45.015539752182775" lon="8.407692229436666"><ele>207.16666666666666</ele><time>2026-04-25T07:15:33Z</time></trkpt><trkpt lat="45.015549005035886" lon="8.40758773838133"><ele>207.33333333333331</ele><time>2026-04-25T07:15:35Z</time></trkpt><trkpt lat="45.01557211247355" lon="8.407470650468102"><ele>207.5</ele><time>2026-04-25T07:15:37Z</time></trkpt><trkpt lat="45.015588448606685" lon="8.407354952048076"><ele>207.66666666666666</ele><time>2026-04-25T07:15:39Z</time></trkpt><trkpt lat="45.01560995435225" lon="8.40722640334612"><ele>207.83333333333331</ele><time>2026-04-25T07:15:41Z</time></trkpt><trkpt lat="45.01564043613705" lon="8.407078290511503"><ele>208.0</ele><time>2026-04-25T07:15:42.999Z</time></trkpt><trkpt lat="45.015670924021734" lon="8.40691390916288"><ele>208.0</ele><time>2026-04-25T07:15:44.999Z</time></trkpt><trkpt lat="45.01569565636415" lon="8.4067669850025"><ele>208.0</ele><time>2026-04-25T07:15:46.999Z</time></trkpt><trkpt lat="45.01571357573394" lon="8.406609869768358"><ele>208.0</ele><time>2026-04-25T07:15:48.999Z</time></trkpt><trkpt lat="45.015722876555145" lon="8.406450241462444"><ele>208.0</ele><time>2026-04-25T07:15:50.999Z</time></trkpt><trkpt lat="45.015725053539086" lon="8.406287103219896"><ele>208.0</ele><time>2026-04-25T07:15:52.999Z</time></trkpt><trkpt lat="45.0157190107728" lon="8.40613652909523"><ele>208.83333333333331</ele><time>2026-04-25T07:15:54.999Z</time></trkpt><trkpt lat="45.01572698281432" lon="8.40600132170583"><ele>209.66666666666666</ele><time>2026-04-25T07:15:56.999Z</time></trkpt><trkpt lat="45.015722436841344" lon="8.405872572567736"><ele>210.5</ele><time>2026-04-25T07:15:59.999Z</time></trkpt><trkpt lat="45.01573023967213" lon="8.405750230610442"><ele>211.33333333333331</ele><time>2026-04-25T07:16:01.999Z</time></trkpt><trkpt lat="45.01573157655349" lon="8.405604802475786"><ele>212.16666666666666</ele><time>2026-04-25T07:16:03.999Z</time></trkpt><trkpt lat="45.01573850474468" lon="8.405505773212806"><ele>213.0</ele><time>2026-04-25T07:16:05.999Z</time></trkpt><trkpt lat="45.015743630850125" lon="8.405395106351294"><ele>214.16666666666666</ele><time>2026-04-25T07:16:07.999Z</time></trkpt><trkpt lat="45.01573670291918" lon="8.405273853738134"><ele>215.33333333333331</ele><time>2026-04-25T07:16:09.999Z</time></trkpt><trkpt lat="45.01574123999097" lon="8.405151956436466"><ele>216.5</ele><time>2026-04-25T07:16:11.999Z</time></trkpt><trkpt lat="45.015751726590715" lon="8.40504397711972"><ele>217.66666666666666</ele><time>2026-04-25T07:16:13.999Z</time></trkpt><trkpt lat="45.01574924332131" lon="8.404904215519831"><ele>218.83333333333331</ele><time>2026-04-25T07:16:15.999Z</time></trkpt><trkpt lat="45.01575539877019" lon="8.404767627015696"><ele>220.0</ele><time>2026-04-25T07:16:17.999Z</time></trkpt><trkpt lat="45.01575988267829" lon="8.404600096581012"><ele>220.5</ele><time>2026-04-25T07:16:19.999Z</time></trkpt><trkpt lat="45.015758553710405" lon="8.404434498717041"><ele>221.0</ele><time>2026-04-25T07:16:21.999Z</time></trkpt><trkpt lat="45.015752728507735" lon="8.404247557418385"><ele>221.5</ele><time>2026-04-25T07:16:23.999Z</time></trkpt><trkpt lat="45.01573929270997" lon="8.404087454279042"><ele>222.0</ele><time>2026-04-25T07:16:25.999Z</time></trkpt><trkpt lat="45.01570640334819" lon="8.403931337550933"><ele>222.0</ele><time>2026-04-25T07:16:27.999Z</time></trkpt><trkpt lat="45.01569058742962" lon="8.40384500871215"><ele>222.0</ele><time>2026-04-25T07:16:28.999Z</time></trkpt><trkpt lat="45.01567275188376" lon="8.403756775475047"><ele>222.0</ele><time>2026-04-25T07:16:29.999Z</time></trkpt><trkpt lat="45.01563431906349" lon="8.403598968451856"><ele>222.0</ele><time>2026-04-25T07:16:31.999Z</time></trkpt><trkpt lat="45.015599401534914" lon="8.403437925962985"><ele>222.0</ele><time>2026-04-25T07:16:33.999Z</time></trkpt><trkpt lat="45.01556339918954" lon="8.403274666190615"><ele>222.14285714285714</ele><time>2026-04-25T07:16:35.999Z</time></trkpt><trkpt lat="45.015545852382154" lon="8.403187075807942"><ele>222.2857142857143</ele><time>2026-04-25T07:16:36.999Z</time></trkpt><trkpt lat="45.01552393462311" lon="8.403068963734833"><ele>222.42857142857144</ele><time>2026-04-25T07:16:39Z</time></trkpt><trkpt lat="45.015517495396416" lon="8.40296824602005"><ele>222.57142857142856</ele><time>2026-04-25T07:16:42Z</time></trkpt><trkpt lat="45.01552449020515" lon="8.402875454499375"><ele>222.71428571428572</ele><time>2026-04-25T07:16:44Z</time></trkpt><trkpt lat="45.015607404439265" lon="8.402832364815891"><ele>222.85714285714286</ele><time>2026-04-25T07:17:26Z</time></trkpt><trkpt lat="45.01566901514393" lon="8.402856604817147"><ele>223.0</ele><time>2026-04-25T07:17:27Z</time></trkpt><trkpt lat="45.0157348854457" lon="8.402874599726612"><ele>223.83333333333331</ele><time>2026-04-25T07:17:28Z</time></trkpt><trkpt lat="45.01583717469123" lon="8.402893983897409"><ele>224.66666666666666</ele><time>2026-04-25T07:17:30Z</time></trkpt><trkpt lat="45.01592807441799" lon="8.40287298949898"><ele>225.5</ele><time>2026-04-25T07:17:32Z</time></trkpt><trkpt lat="45.01599757734001" lon="8.402774318362976"><ele>226.33333333333331</ele><time>2026-04-25T07:17:34Z</time></trkpt><trkpt lat="45.015987740082615" lon="8.402660295356384"><ele>227.16666666666666</ele><time>2026-04-25T07:17:36Z</time></trkpt><trkpt lat="45.01594842435101" lon="8.402574013979363"><ele>228.0</ele><time>2026-04-25T07:17:37Z</time></trkpt><trkpt lat="45.0159659028347" lon="8.402382177173276"><ele>228.0</ele><time>2026-04-25T07:17:39Z</time></trkpt><trkpt lat="45.01592108009616" lon="8.402294141492952"><ele>228.0</ele><time>2026-04-25T07:17:40Z</time></trkpt><trkpt lat="45.015881873432356" lon="8.402213599313221"><ele>228.0</ele><time>2026-04-25T07:17:42Z</time></trkpt><trkpt lat="45.015844631650225" lon="8.402137093579489"><ele>228.0</ele><time>2026-04-25T07:17:58.999Z</time></trkpt><trkpt lat="45.01589625599584" lon="8.40222346090283"><ele>228.0</ele><time>2026-04-25T07:18:01.999Z</time></trkpt><trkpt lat="45.015929621493605" lon="8.402337946442408"><ele>228.0</ele><time>2026-04-25T07:18:02.999Z</time></trkpt><trkpt lat="45.01596775020097" lon="8.402453279400476"><ele>228.0</ele><time>2026-04-25T07:18:03.999Z</time></trkpt><trkpt lat="45.01601956835196" lon="8.40257106286141"><ele>228.0</ele><time>2026-04-25T07:18:04.999Z</time></trkpt><trkpt lat="45.01607580813874" lon="8.402713317300197"><ele>228.0</ele><time>2026-04-25T07:18:05.999Z</time></trkpt><trkpt lat="45.016132076304345" lon="8.402874043891478"><ele>228.0</ele><time>2026-04-25T07:18:06.999Z</time></trkpt><trkpt lat="45.01618458560353" lon="8.403044714684459"><ele>227.25</ele><time>2026-04-25T07:18:07.999Z</time></trkpt><trkpt lat="45.01623990905782" lon="8.403208108523375"><ele>226.5</ele><time>2026-04-25T07:18:08.999Z</time></trkpt><trkpt lat="45.01628334000018" lon="8.403385127906335"><ele>225.75</ele><time>2026-04-25T07:18:09.999Z</time></trkpt><trkpt lat="45.01632011706814" lon="8.40357111148813"><ele>225.0</ele><time>2026-04-25T07:18:10.999Z</time></trkpt><trkpt lat="45.01635340253098" lon="8.403757898070117"><ele>224.2</ele><time>2026-04-25T07:18:11.999Z</time></trkpt><trkpt lat="45.016389237039604" lon="8.403930975271077"><ele>223.4</ele><time>2026-04-25T07:18:12.999Z</time></trkpt><trkpt lat="45.016419636704555" lon="8.404104189665071"><ele>222.60000000000002</ele><time>2026-04-25T07:18:13.999Z</time></trkpt><trkpt lat="45.01644412446265" lon="8.404242678692215"><ele>221.8</ele><time>2026-04-25T07:18:14.999Z</time></trkpt><trkpt lat="45.016457839519184" lon="8.404330487293512"><ele>221.0</ele><time>2026-04-25T07:18:15.999Z</time></trkpt><trkpt lat="45.01646882292598" lon="8.404439475701333"><ele>221.0</ele><time>2026-04-25T07:18:18.999Z</time></trkpt><trkpt lat="45.01650465506088" lon="8.404558629132922"><ele>221.00000000000003</ele><time>2026-04-25T07:18:38.999Z</time></trkpt><trkpt lat="45.01651288708363" lon="8.404719361217056"><ele>221.00000000000003</ele><time>2026-04-25T07:18:40.999Z</time></trkpt><trkpt lat="45.01653088062311" lon="8.404833828702365"><ele>221.0</ele><time>2026-04-25T07:18:41.999Z</time></trkpt><trkpt lat="45.01654960122077" lon="8.40495292140975"><ele>221.0</ele><time>2026-04-25T07:18:42.999Z</time></trkpt><trkpt lat="45.01658659095471" lon="8.405088482151605"><ele>220.5</ele><time>2026-04-25T07:18:44Z</time></trkpt><trkpt lat="45.01659626291589" lon="8.40524976384062"><ele>220.0</ele><time>2026-04-25T07:18:45Z</time></trkpt><trkpt lat="45.01661878145305" lon="8.405411736527222"><ele>219.5</ele><time>2026-04-25T07:18:46Z</time></trkpt><trkpt lat="45.0166308520377" lon="8.405574830793269"><ele>219.0</ele><time>2026-04-25T07:18:47Z</time></trkpt><trkpt lat="45.01663124292443" lon="8.405722271519203"><ele>218.0</ele><time>2026-04-25T07:18:48Z</time></trkpt><trkpt lat="45.01662536511403" lon="8.405867854758288"><ele>217.0</ele><time>2026-04-25T07:18:49Z</time></trkpt><trkpt lat="45.01661694805615" lon="8.406027962411207"><ele>216.0</ele><time>2026-04-25T07:18:50Z</time></trkpt><trkpt lat="45.01660553525744" lon="8.406211815200859"><ele>215.0</ele><time>2026-04-25T07:18:51Z</time></trkpt><trkpt lat="45.01659278029027" lon="8.406396453136612"><ele>215.0</ele><time>2026-04-25T07:18:52Z</time></trkpt><trkpt lat="45.01658143604967" lon="8.40658856726877"><ele>215.0</ele><time>2026-04-25T07:18:53Z</time></trkpt><trkpt lat="45.016571632868626" lon="8.40678055235863"><ele>215.0</ele><time>2026-04-25T07:18:54Z</time></trkpt><trkpt lat="45.01656556691594" lon="8.406955228822765"><ele>215.0</ele><time>2026-04-25T07:18:55Z</time></trkpt><trkpt lat="45.01658279795506" lon="8.407117709004684"><ele>215.0</ele><time>2026-04-25T07:18:56Z</time></trkpt><trkpt lat="45.01659770615347" lon="8.407289193919219"><ele>215.0</ele><time>2026-04-25T07:18:57Z</time></trkpt><trkpt lat="45.01662702514731" lon="8.407454839797227"><ele>215.0</ele><time>2026-04-25T07:18:58Z</time></trkpt><trkpt lat="45.01667387937647" lon="8.407608191005728"><ele>215.0</ele><time>2026-04-25T07:18:59Z</time></trkpt><trkpt lat="45.01672953082149" lon="8.407749552884466"><ele>217.6</ele><time>2026-04-25T07:19:00Z</time></trkpt><trkpt lat="45.016755927420334" lon="8.40788826793035"><ele>220.2</ele><time>2026-04-25T07:19:01Z</time></trkpt><trkpt lat="45.016791368097024" lon="8.408006594630429"><ele>222.8</ele><time>2026-04-25T07:19:02Z</time></trkpt><trkpt lat="45.016821514537575" lon="8.408119988072286"><ele>225.4</ele><time>2026-04-25T07:19:03Z</time></trkpt><trkpt lat="45.01686027272709" lon="8.408244258449988"><ele>228.0</ele><time>2026-04-25T07:19:04Z</time></trkpt><trkpt lat="45.01687256620087" lon="8.408362471751946"><ele>228.0</ele><time>2026-04-25T07:19:05Z</time></trkpt><trkpt lat="45.016873562739235" lon="8.40849499891786"><ele>228.0</ele><time>2026-04-25T07:19:06Z</time></trkpt><trkpt lat="45.01685942963458" lon="8.408638842912357"><ele>228.0</ele><time>2026-04-25T07:19:07Z</time></trkpt><trkpt lat="45.01681742515132" lon="8.408784224039643"><ele>228.0</ele><time>2026-04-25T07:19:08Z</time></trkpt><trkpt lat="45.016795363500094" lon="8.408950371334017"><ele>228.0</ele><time>2026-04-25T07:19:09Z</time></trkpt><trkpt lat="45.01675152403327" lon="8.409102194561884"><ele>228.8</ele><time>2026-04-25T07:19:10Z</time></trkpt><trkpt lat="45.01671360682265" lon="8.409245246999577"><ele>229.60000000000002</ele><time>2026-04-25T07:19:11Z</time></trkpt><trkpt lat="45.01667833230448" lon="8.409383564949938"><ele>230.39999999999998</ele><time>2026-04-25T07:19:12Z</time></trkpt><trkpt lat="45.01664683920111" lon="8.409517223747603"><ele>231.2</ele><time>2026-04-25T07:19:13Z</time></trkpt><trkpt lat="45.016628440690525" lon="8.409644941958849"><ele>232.0</ele><time>2026-04-25T07:19:14Z</time></trkpt><trkpt lat="45.01662923133834" lon="8.409765752898522"><ele>231.2</ele><time>2026-04-25T07:19:15Z</time></trkpt><trkpt lat="45.01665277547011" lon="8.409884184818562"><ele>230.39999999999998</ele><time>2026-04-25T07:19:16Z</time></trkpt><trkpt lat="45.01668431276384" lon="8.410029346552582"><ele>229.60000000000002</ele><time>2026-04-25T07:19:16.999Z</time></trkpt><trkpt lat="45.01671179974292" lon="8.410174547992618"><ele>228.8</ele><time>2026-04-25T07:19:17.999Z</time></trkpt><trkpt lat="45.016735611305215" lon="8.410311467679577"><ele>228.0</ele><time>2026-04-25T07:19:18.999Z</time></trkpt><trkpt lat="45.01674301010214" lon="8.41044141498182"><ele>227.4</ele><time>2026-04-25T07:19:19.999Z</time></trkpt><trkpt lat="45.016754485269516" lon="8.410573663525799"><ele>226.8</ele><time>2026-04-25T07:19:20.999Z</time></trkpt><trkpt lat="45.01675583197259" lon="8.410713342767513"><ele>226.2</ele><time>2026-04-25T07:19:21.999Z</time></trkpt><trkpt lat="45.01674491934588" lon="8.410862466312693"><ele>225.6</ele><time>2026-04-25T07:19:22.999Z</time></trkpt><trkpt lat="45.016734819131926" lon="8.41102178625238"><ele>225.0</ele><time>2026-04-25T07:19:23.999Z</time></trkpt><trkpt lat="45.016704243270716" lon="8.41118914400617"><ele>225.0</ele><time>2026-04-25T07:19:24.999Z</time></trkpt><trkpt lat="45.016678886974105" lon="8.411359986416427"><ele>225.0</ele><time>2026-04-25T07:19:25.999Z</time></trkpt><trkpt lat="45.01665924397276" lon="8.411529619805332"><ele>225.0</ele><time>2026-04-25T07:19:26.999Z</time></trkpt><trkpt lat="45.01663893262455" lon="8.411677961201738"><ele>225.0</ele><time>2026-04-25T07:19:27.999Z</time></trkpt><trkpt lat="45.01661861302366" lon="8.411814599236353"><ele>224.4</ele><time>2026-04-25T07:19:28.999Z</time></trkpt><trkpt lat="45.01661033845474" lon="8.411942273465028"><ele>223.8</ele><time>2026-04-25T07:19:29.999Z</time></trkpt><trkpt lat="45.01661130838911" lon="8.412066531871519"><ele>223.2</ele><time>2026-04-25T07:19:30.999Z</time></trkpt><trkpt lat="45.01660840019482" lon="8.412180227948262"><ele>222.6</ele><time>2026-04-25T07:19:31.999Z</time></trkpt><trkpt lat="45.01660595759638" lon="8.412279576634889"><ele>222.0</ele><time>2026-04-25T07:19:32.999Z</time></trkpt><trkpt lat="45.0166091666312" lon="8.412461421142206"><ele>222.0</ele><time>2026-04-25T07:19:34.999Z</time></trkpt><trkpt lat="45.016602384418974" lon="8.412556236099046"><ele>222.0</ele><time>2026-04-25T07:19:35.999Z</time></trkpt><trkpt lat="45.01658679810402" lon="8.412663362875715"><ele>222.0</ele><time>2026-04-25T07:19:36.999Z</time></trkpt><trkpt lat="45.01654831440032" lon="8.412807558578677"><ele>222.0</ele><time>2026-04-25T07:19:38.999Z</time></trkpt><trkpt lat="45.01652077095041" lon="8.412887781325798"><ele>222.0</ele><time>2026-04-25T07:19:40.999Z</time></trkpt><trkpt lat="45.01649827196858" lon="8.413017346067143"><ele>222.0</ele><time>2026-04-25T07:21:57Z</time></trkpt><trkpt lat="45.01648569536218" lon="8.413118763112736"><ele>222.39999999999998</ele><time>2026-04-25T07:21:59Z</time></trkpt><trkpt lat="45.016465933992066" lon="8.413205177086361"><ele>222.79999999999998</ele><time>2026-04-25T07:22:00Z</time></trkpt><trkpt lat="45.01642264599407" lon="8.41330087272378"><ele>223.2</ele><time>2026-04-25T07:22:01Z</time></trkpt><trkpt lat="45.01635348707503" lon="8.413393989710709"><ele>223.6</ele><time>2026-04-25T07:22:02Z</time></trkpt><trkpt lat="45.0162864756909" lon="8.413503581965918"><ele>224.0</ele><time>2026-04-25T07:22:02.999Z</time></trkpt><trkpt lat="45.016210558196335" lon="8.413630770938708"><ele>224.0</ele><time>2026-04-25T07:22:03.999Z</time></trkpt><trkpt lat="45.016138004464814" lon="8.413772611625314"><ele>224.0</ele><time>2026-04-25T07:22:04.999Z</time></trkpt><trkpt lat="45.016061453849936" lon="8.413916584492132"><ele>224.0</ele><time>2026-04-25T07:22:05.999Z</time></trkpt><trkpt lat="45.0159858908413" lon="8.414067031015964"><ele>224.0</ele><time>2026-04-25T07:22:06.999Z</time></trkpt><trkpt lat="45.01590530917781" lon="8.414226892008474"><ele>223.0</ele><time>2026-04-25T07:22:07.999Z</time></trkpt><trkpt lat="45.01583991373587" lon="8.4143997037803"><ele>222.0</ele><time>2026-04-25T07:22:08.999Z</time></trkpt><trkpt lat="45.01578050254617" lon="8.41456634417142"><ele>221.0</ele><time>2026-04-25T07:22:09.999Z</time></trkpt><trkpt lat="45.01572450783387" lon="8.414707517464397"><ele>220.0</ele><time>2026-04-25T07:22:10.999Z</time></trkpt><trkpt lat="45.01566763202558" lon="8.41486180519022"><ele>219.75</ele><time>2026-04-25T07:22:11.999Z</time></trkpt><trkpt lat="45.015615532354765" lon="8.415019253287436"><ele>219.5</ele><time>2026-04-25T07:22:12.999Z</time></trkpt><trkpt lat="45.015564287820816" lon="8.415181817125498"><ele>219.25</ele><time>2026-04-25T07:22:13.999Z</time></trkpt><trkpt lat="45.01553195022309" lon="8.41534406291561"><ele>219.0</ele><time>2026-04-25T07:22:14.999Z</time></trkpt><trkpt lat="45.01551310567716" lon="8.415505835665764"><ele>220.6</ele><time>2026-04-25T07:22:15.999Z</time></trkpt><trkpt lat="45.015496578521756" lon="8.415661949723724"><ele>222.2</ele><time>2026-04-25T07:22:16.999Z</time></trkpt><trkpt lat="45.01546406641136" lon="8.41580773671995"><ele>223.79999999999998</ele><time>2026-04-25T07:22:17.999Z</time></trkpt><trkpt lat="45.01541957883837" lon="8.415948717945888"><ele>225.39999999999998</ele><time>2026-04-25T07:22:18.999Z</time></trkpt><trkpt lat="45.01534161298992" lon="8.416065070307402"><ele>227.0</ele><time>2026-04-25T07:22:19.999Z</time></trkpt><trkpt lat="45.015262236704444" lon="8.416187693522398"><ele>227.0</ele><time>2026-04-25T07:22:20.999Z</time></trkpt><trkpt lat="45.01517807410102" lon="8.416318207523432"><ele>227.0</ele><time>2026-04-25T07:22:21.999Z</time></trkpt><trkpt lat="45.015086321487566" lon="8.416425906496546"><ele>227.0</ele><time>2026-04-25T07:22:22.999Z</time></trkpt><trkpt lat="45.0150111112219" lon="8.416551939122266"><ele>227.0</ele><time>2026-04-25T07:22:23.999Z</time></trkpt><trkpt lat="45.01493298772263" lon="8.416689788188359"><ele>227.5</ele><time>2026-04-25T07:22:24.999Z</time></trkpt><trkpt lat="45.01486401195986" lon="8.416837338668277"><ele>228.0</ele><time>2026-04-25T07:22:25.999Z</time></trkpt><trkpt lat="45.01480935748614" lon="8.416995741452045"><ele>228.5</ele><time>2026-04-25T07:22:26.999Z</time></trkpt><trkpt lat="45.01475634310151" lon="8.4171603168395"><ele>229.0</ele><time>2026-04-25T07:22:27.999Z</time></trkpt><trkpt lat="45.014703301038374" lon="8.417335386010231"><ele>229.66666666666666</ele><time>2026-04-25T07:22:28.999Z</time></trkpt><trkpt lat="45.01463988213599" lon="8.417530917887278"><ele>230.33333333333331</ele><time>2026-04-25T07:22:29.999Z</time></trkpt><trkpt lat="45.01456639813514" lon="8.417761687973117"><ele>231.0</ele><time>2026-04-25T07:22:30.999Z</time></trkpt><trkpt lat="45.014486424278864" lon="8.418027313783506"><ele>232.75</ele><time>2026-04-25T07:22:31.999Z</time></trkpt><trkpt lat="45.01441829505119" lon="8.418226253692795"><ele>234.5</ele><time>2026-04-25T07:22:32.999Z</time></trkpt><trkpt lat="45.01436171842311" lon="8.418406047472143"><ele>236.25</ele><time>2026-04-25T07:22:33.999Z</time></trkpt><trkpt lat="45.014305642136065" lon="8.418542096226847"><ele>238.0</ele><time>2026-04-25T07:22:34.999Z</time></trkpt><trkpt lat="45.01421803953749" lon="8.418663200604993"><ele>237.0</ele><time>2026-04-25T07:22:35.999Z</time></trkpt><trkpt lat="45.01411075176627" lon="8.41876851464774"><ele>236.0</ele><time>2026-04-25T07:22:36.999Z</time></trkpt><trkpt lat="45.013995297982355" lon="8.418860348362683"><ele>235.0</ele><time>2026-04-25T07:22:37.999Z</time></trkpt><trkpt lat="45.01386433805543" lon="8.418912367765614"><ele>234.0</ele><time>2026-04-25T07:22:38.999Z</time></trkpt><trkpt lat="45.013750740221546" lon="8.418955171955337"><ele>232.79999999999998</ele><time>2026-04-25T07:22:39.999Z</time></trkpt><trkpt lat="45.013648644334104" lon="8.418960050532347"><ele>231.59999999999997</ele><time>2026-04-25T07:22:40.999Z</time></trkpt><trkpt lat="45.01354069505849" lon="8.418979557675504"><ele>230.4</ele><time>2026-04-25T07:22:41.999Z</time></trkpt><trkpt lat="45.013435103889876" lon="8.418960116778118"><ele>229.2</ele><time>2026-04-25T07:22:42.999Z</time></trkpt><trkpt lat="45.01334483535278" lon="8.41897250518634"><ele>228.0</ele><time>2026-04-25T07:22:43.999Z</time></trkpt><trkpt lat="45.01325882356961" lon="8.419031259560846"><ele>228.0</ele><time>2026-04-25T07:22:44.999Z</time></trkpt><trkpt lat="45.01318773098277" lon="8.41913772526008"><ele>228.0</ele><time>2026-04-25T07:22:45.999Z</time></trkpt><trkpt lat="45.01313767280854" lon="8.419291069957097"><ele>228.0</ele><time>2026-04-25T07:22:46.999Z</time></trkpt><trkpt lat="45.01310268857934" lon="8.41945355007907"><ele>228.0</ele><time>2026-04-25T07:22:47.999Z</time></trkpt><trkpt lat="45.01306935576512" lon="8.419644212719705"><ele>229.66666666666669</ele><time>2026-04-25T07:22:48.999Z</time></trkpt><trkpt lat="45.013027318238734" lon="8.419863732871692"><ele>231.33333333333334</ele><time>2026-04-25T07:22:49.999Z</time></trkpt><trkpt lat="45.01297522220395" lon="8.420126232876042"><ele>233.0</ele><time>2026-04-25T07:22:50.999Z</time></trkpt><trkpt lat="45.01291188217975" lon="8.420401209776362"><ele>235.25</ele><time>2026-04-25T07:22:51.999Z</time></trkpt><trkpt lat="45.012872178834314" lon="8.420631606739168"><ele>237.5</ele><time>2026-04-25T07:22:52.999Z</time></trkpt><trkpt lat="45.01283060814803" lon="8.420821229790242"><ele>239.75</ele><time>2026-04-25T07:22:53.999Z</time></trkpt><trkpt lat="45.012796330338944" lon="8.420996919142326"><ele>242.0</ele><time>2026-04-25T07:22:55Z</time></trkpt><trkpt lat="45.01276042800161" lon="8.421173933504308"><ele>243.5</ele><time>2026-04-25T07:22:56Z</time></trkpt><trkpt lat="45.012725133373046" lon="8.421354334930985"><ele>245.0</ele><time>2026-04-25T07:22:57Z</time></trkpt><trkpt lat="45.01269389835843" lon="8.421503260720534"><ele>246.5</ele><time>2026-04-25T07:22:58Z</time></trkpt><trkpt lat="45.01263832789791" lon="8.421628392257732"><ele>248.0</ele><time>2026-04-25T07:22:59Z</time></trkpt><trkpt lat="45.01257195910589" lon="8.421751711274593"><ele>249.75</ele><time>2026-04-25T07:23:00Z</time></trkpt><trkpt lat="45.01248371791499" lon="8.421878551200432"><ele>251.5</ele><time>2026-04-25T07:23:01Z</time></trkpt><trkpt lat="45.01238638194389" lon="8.422008872064913"><ele>253.25</ele><time>2026-04-25T07:23:02Z</time></trkpt><trkpt lat="45.01228352217576" lon="8.422142931009407"><ele>255.0</ele><time>2026-04-25T07:23:03Z</time></trkpt><trkpt lat="45.0121748854619" lon="8.422278002808614"><ele>256.25</ele><time>2026-04-25T07:23:04Z</time></trkpt><trkpt lat="45.01206376548347" lon="8.422415171531293"><ele>257.5</ele><time>2026-04-25T07:23:05Z</time></trkpt><trkpt lat="45.011972815919876" lon="8.422576620662118"><ele>258.75</ele><time>2026-04-25T07:23:06Z</time></trkpt><trkpt lat="45.01187720415664" lon="8.422737668677032"><ele>260.0</ele><time>2026-04-25T07:23:07Z</time></trkpt><trkpt lat="45.01179503180623" lon="8.42290496557109"><ele>258.75</ele><time>2026-04-25T07:23:08Z</time></trkpt><trkpt lat="45.01173338369675" lon="8.42308732725613"><ele>257.5</ele><time>2026-04-25T07:23:09Z</time></trkpt><trkpt lat="45.01166807723786" lon="8.423293571472087"><ele>256.25</ele><time>2026-04-25T07:23:10Z</time></trkpt><trkpt lat="45.01161946772727" lon="8.423480553778775"><ele>255.0</ele><time>2026-04-25T07:23:11Z</time></trkpt><trkpt lat="45.01158186081988" lon="8.423679540797568"><ele>255.0</ele><time>2026-04-25T07:23:12Z</time></trkpt><trkpt lat="45.01155993377799" lon="8.423904106263016"><ele>255.0</ele><time>2026-04-25T07:23:13Z</time></trkpt><trkpt lat="45.0115554422744" lon="8.424145731670766"><ele>255.0</ele><time>2026-04-25T07:23:14Z</time></trkpt><trkpt lat="45.011562717420674" lon="8.424423378429376"><ele>253.33333333333331</ele><time>2026-04-25T07:23:15Z</time></trkpt><trkpt lat="45.01155781991236" lon="8.424691284567263"><ele>251.66666666666666</ele><time>2026-04-25T07:23:16Z</time></trkpt><trkpt lat="45.01154792718322" lon="8.424963104871756"><ele>250.0</ele><time>2026-04-25T07:23:17Z</time></trkpt><trkpt lat="45.011541479296916" lon="8.425239149123758"><ele>245.33333333333331</ele><time>2026-04-25T07:23:18Z</time></trkpt><trkpt lat="45.011534379536094" lon="8.425509071271618"><ele>240.66666666666669</ele><time>2026-04-25T07:23:19Z</time></trkpt><trkpt lat="45.01152450966703" lon="8.425780463262711"><ele>236.0</ele><time>2026-04-25T07:23:20Z</time></trkpt><trkpt lat="45.0115194586695" lon="8.426052020463406"><ele>234.33333333333334</ele><time>2026-04-25T07:23:21Z</time></trkpt><trkpt lat="45.011521878615895" lon="8.426318608296175"><ele>232.66666666666669</ele><time>2026-04-25T07:23:22Z</time></trkpt><trkpt lat="45.01152568227559" lon="8.426550968871435"><ele>231.0</ele><time>2026-04-25T07:23:23Z</time></trkpt><trkpt lat="45.011539477435555" lon="8.42677042019017"><ele>231.0</ele><time>2026-04-25T07:23:24Z</time></trkpt><trkpt lat="45.01155005476846" lon="8.42697635363127"><ele>231.0</ele><time>2026-04-25T07:23:25Z</time></trkpt><trkpt lat="45.01155964670226" lon="8.427160528957833"><ele>231.0</ele><time>2026-04-25T07:23:26Z</time></trkpt><trkpt lat="45.01158576964506" lon="8.427320122929236"><ele>231.0</ele><time>2026-04-25T07:23:27Z</time></trkpt><trkpt lat="45.01163596281426" lon="8.427458766616486"><ele>233.33333333333334</ele><time>2026-04-25T07:23:28Z</time></trkpt><trkpt lat="45.011701994028726" lon="8.427560522931959"><ele>235.66666666666669</ele><time>2026-04-25T07:23:29Z</time></trkpt><trkpt lat="45.01176253939573" lon="8.42765682611922"><ele>238.0</ele><time>2026-04-25T07:23:30Z</time></trkpt><trkpt lat="45.01182454436619" lon="8.42772670065828"><ele>240.33333333333334</ele><time>2026-04-25T07:23:31Z</time></trkpt><trkpt lat="45.0118901287161" lon="8.427786581078704"><ele>242.66666666666669</ele><time>2026-04-25T07:23:32Z</time></trkpt><trkpt lat="45.011941694939466" lon="8.427843173573862"><ele>245.0</ele><time>2026-04-25T07:23:33Z</time></trkpt><trkpt lat="45.012036232018865" lon="8.427909438019832"><ele>245.33333333333334</ele><time>2026-04-25T07:23:35Z</time></trkpt><trkpt lat="45.012013456649434" lon="8.42804213872634"><ele>245.66666666666669</ele><time>2026-04-25T07:23:39Z</time></trkpt><trkpt lat="45.011949393522976" lon="8.428014081055728"><ele>246.0</ele><time>2026-04-25T07:23:40Z</time></trkpt><trkpt lat="45.01187952738363" lon="8.42802476460015"><ele>246.33333333333331</ele><time>2026-04-25T07:23:41Z</time></trkpt><trkpt lat="45.01180955727199" lon="8.428044507528234"><ele>246.66666666666666</ele><time>2026-04-25T07:23:42Z</time></trkpt><trkpt lat="45.011718936841476" lon="8.428059561102035"><ele>247.0</ele><time>2026-04-25T07:23:43Z</time></trkpt><trkpt lat="45.011625029151155" lon="8.428085374577755"><ele>247.0</ele><time>2026-04-25T07:23:44Z</time></trkpt><trkpt lat="45.011523299521826" lon="8.428131129073995"><ele>247.0</ele><time>2026-04-25T07:23:45Z</time></trkpt><trkpt lat="45.011432453467926" lon="8.428169653328146"><ele>247.0</ele><time>2026-04-25T07:23:46Z</time></trkpt><trkpt lat="45.0113402411966" lon="8.42822465882249"><ele>247.0</ele><time>2026-04-25T07:23:47Z</time></trkpt><trkpt lat="45.01123519370784" lon="8.428300611557539"><ele>247.0</ele><time>2026-04-25T07:23:48Z</time></trkpt><trkpt lat="45.01112839155785" lon="8.428390525754534"><ele>246.99999999999997</ele><time>2026-04-25T07:23:49Z</time></trkpt><trkpt lat="45.01104434650284" lon="8.428470383761777"><ele>247.0</ele><time>2026-04-25T07:23:50Z</time></trkpt><trkpt lat="45.010972947646366" lon="8.428542951020422"><ele>247.0</ele><time>2026-04-25T07:23:51Z</time></trkpt><trkpt lat="45.01092321434064" lon="8.42862907369506"><ele>247.0</ele><time>2026-04-25T07:23:52Z</time></trkpt><trkpt lat="45.010874214337754" lon="8.428725197224644"><ele>246.99999999999997</ele><time>2026-04-25T07:23:53Z</time></trkpt><trkpt lat="45.01081951930925" lon="8.428807884621536"><ele>247.0</ele><time>2026-04-25T07:23:54Z</time></trkpt><trkpt lat="45.01078689715581" lon="8.428896150766432"><ele>244.66666666666666</ele><time>2026-04-25T07:23:55Z</time></trkpt><trkpt lat="45.01075961465088" lon="8.428984374470994"><ele>242.33333333333331</ele><time>2026-04-25T07:23:56Z</time></trkpt><trkpt lat="45.01073617366887" lon="8.429069137406726"><ele>240.0</ele><time>2026-04-25T07:23:57Z</time></trkpt><trkpt lat="45.01071004859297" lon="8.429189234287726"><ele>237.66666666666669</ele><time>2026-04-25T07:23:58Z</time></trkpt><trkpt lat="45.01070505890084" lon="8.4293088667228"><ele>235.33333333333334</ele><time>2026-04-25T07:23:59Z</time></trkpt><trkpt lat="45.0106849565875" lon="8.429434379013607"><ele>233.0</ele><time>2026-04-25T07:24:00Z</time></trkpt><trkpt lat="45.010682228670795" lon="8.429589900763245"><ele>231.8</ele><time>2026-04-25T07:24:01Z</time></trkpt><trkpt lat="45.010686817676735" lon="8.429761822579433"><ele>230.60000000000002</ele><time>2026-04-25T07:24:02Z</time></trkpt><trkpt lat="45.01068083486638" lon="8.429928423106695"><ele>229.39999999999998</ele><time>2026-04-25T07:24:03Z</time></trkpt><trkpt lat="45.01068945762971" lon="8.43006699342678"><ele>228.2</ele><time>2026-04-25T07:24:04Z</time></trkpt><trkpt lat="45.01069812273348" lon="8.430206244138066"><ele>227.0</ele><time>2026-04-25T07:24:05Z</time></trkpt><trkpt lat="45.01070292468448" lon="8.430322404273207"><ele>227.0</ele><time>2026-04-25T07:24:06Z</time></trkpt><trkpt lat="45.01070406359437" lon="8.430457479401694"><ele>227.0</ele><time>2026-04-25T07:24:06.999Z</time></trkpt><trkpt lat="45.010690550201794" lon="8.430608084120985"><ele>227.0</ele><time>2026-04-25T07:24:07.999Z</time></trkpt><trkpt lat="45.01066429941517" lon="8.430772438362126"><ele>227.0</ele><time>2026-04-25T07:24:08.999Z</time></trkpt><trkpt lat="45.01062418192747" lon="8.430932219041958"><ele>227.0</ele><time>2026-04-25T07:24:09.999Z</time></trkpt><trkpt lat="45.01057671477175" lon="8.431092253116017"><ele>227.0</ele><time>2026-04-25T07:24:10.999Z</time></trkpt><trkpt lat="45.010525061604156" lon="8.431256021095388"><ele>227.0</ele><time>2026-04-25T07:24:11.999Z</time></trkpt><trkpt lat="45.01047324523502" lon="8.431420290803853"><ele>227.0</ele><time>2026-04-25T07:24:12.999Z</time></trkpt><trkpt lat="45.01042393109398" lon="8.431576221894847"><ele>227.0</ele><time>2026-04-25T07:24:13.999Z</time></trkpt><trkpt lat="45.01038223331597" lon="8.43175391622705"><ele>228.0</ele><time>2026-04-25T07:24:14.999Z</time></trkpt><trkpt lat="45.01032072432933" lon="8.431928252291092"><ele>229.0</ele><time>2026-04-25T07:24:15.999Z</time></trkpt><trkpt lat="45.01027235419354" lon="8.432086923235492"><ele>230.0</ele><time>2026-04-25T07:24:16.999Z</time></trkpt><trkpt lat="45.01020632772884" lon="8.432217770590384"><ele>231.0</ele><time>2026-04-25T07:24:17.999Z</time></trkpt><trkpt lat="45.0101496224131" lon="8.432334523689137"><ele>231.75</ele><time>2026-04-25T07:24:18.999Z</time></trkpt><trkpt lat="45.010069323780556" lon="8.43242850038582"><ele>232.5</ele><time>2026-04-25T07:24:19.999Z</time></trkpt><trkpt lat="45.009976767968276" lon="8.432532482856677"><ele>233.25</ele><time>2026-04-25T07:24:20.999Z</time></trkpt><trkpt lat="45.009879735741706" lon="8.432635972446644"><ele>234.0</ele><time>2026-04-25T07:24:21.999Z</time></trkpt><trkpt lat="45.00978244964357" lon="8.432742101458286"><ele>233.6</ele><time>2026-04-25T07:24:22.999Z</time></trkpt><trkpt lat="45.00969692173591" lon="8.432836900851276"><ele>233.2</ele><time>2026-04-25T07:24:23.999Z</time></trkpt><trkpt lat="45.00961676996878" lon="8.432927040749242"><ele>232.79999999999998</ele><time>2026-04-25T07:24:24.999Z</time></trkpt><trkpt lat="45.00953970695439" lon="8.43301370724095"><ele>232.39999999999998</ele><time>2026-04-25T07:24:25.999Z</time></trkpt><trkpt lat="45.00948055401374" lon="8.433113262812013"><ele>232.0</ele><time>2026-04-25T07:24:26.999Z</time></trkpt><trkpt lat="45.009403253227546" lon="8.433173124572193"><ele>231.99999999999997</ele><time>2026-04-25T07:24:27.999Z</time></trkpt><trkpt lat="45.00933308230187" lon="8.433251366228227"><ele>232.0</ele><time>2026-04-25T07:24:28.999Z</time></trkpt><trkpt lat="45.0092675217689" lon="8.433318436175561"><ele>232.0</ele><time>2026-04-25T07:24:29.999Z</time></trkpt><trkpt lat="45.00919304833583" lon="8.43336322391517"><ele>232.0</ele><time>2026-04-25T07:24:30.999Z</time></trkpt><trkpt lat="45.00910290379384" lon="8.433382986330193"><ele>231.99999999999997</ele><time>2026-04-25T07:24:31.999Z</time></trkpt><trkpt lat="45.009018271035096" lon="8.433360952150775"><ele>232.0</ele><time>2026-04-25T07:24:32.999Z</time></trkpt><trkpt lat="45.00893088687876" lon="8.433317860987337"><ele>230.6</ele><time>2026-04-25T07:24:33.999Z</time></trkpt><trkpt lat="45.00883824804803" lon="8.4332824167283"><ele>229.2</ele><time>2026-04-25T07:24:34.999Z</time></trkpt><trkpt lat="45.00875033477345" lon="8.433248780477644"><ele>227.8</ele><time>2026-04-25T07:24:35.999Z</time></trkpt><trkpt lat="45.00866268900855" lon="8.433215246610759"><ele>226.4</ele><time>2026-04-25T07:24:36.999Z</time></trkpt><trkpt lat="45.008577365279486" lon="8.433182601158808"><ele>225.0</ele><time>2026-04-25T07:24:37.999Z</time></trkpt><trkpt lat="45.00849380820147" lon="8.433151153746747"><ele>225.0</ele><time>2026-04-25T07:24:38.999Z</time></trkpt><trkpt lat="45.00840528765032" lon="8.43311850530865"><ele>225.0</ele><time>2026-04-25T07:24:39.999Z</time></trkpt><trkpt lat="45.00831891265372" lon="8.433086648196118"><ele>225.0</ele><time>2026-04-25T07:24:40.999Z</time></trkpt><trkpt lat="45.00823294141999" lon="8.433075143530466"><ele>225.0</ele><time>2026-04-25T07:24:41.999Z</time></trkpt><trkpt lat="45.008146063909045" lon="8.433044434970684"><ele>225.0</ele><time>2026-04-25T07:24:42.999Z</time></trkpt><trkpt lat="45.008067369489446" lon="8.432992803647947"><ele>225.0</ele><time>2026-04-25T07:24:43.999Z</time></trkpt><trkpt lat="45.007978495526025" lon="8.43295869952826"><ele>223.5</ele><time>2026-04-25T07:24:44.999Z</time></trkpt><trkpt lat="45.007887487333505" lon="8.432962912734661"><ele>222.0</ele><time>2026-04-25T07:24:45.999Z</time></trkpt><trkpt lat="45.00781850376858" lon="8.432959272071049"><ele>220.5</ele><time>2026-04-25T07:24:46.999Z</time></trkpt><trkpt lat="45.0077565815552" lon="8.432984271766951"><ele>219.0</ele><time>2026-04-25T07:24:47.999Z</time></trkpt><trkpt lat="45.00768076861895" lon="8.433081629412358"><ele>217.5</ele><time>2026-04-25T07:24:49.999Z</time></trkpt><trkpt lat="45.00765389004636" lon="8.43322824535065"><ele>216.0</ele><time>2026-04-25T07:24:51.999Z</time></trkpt><trkpt lat="45.00764101834079" lon="8.433402323875072"><ele>216.0</ele><time>2026-04-25T07:24:53.999Z</time></trkpt><trkpt lat="45.00763539443904" lon="8.433492668722641"><ele>216.0</ele><time>2026-04-25T07:24:54.999Z</time></trkpt><trkpt lat="45.0076345887973" lon="8.43358707014824"><ele>216.0</ele><time>2026-04-25T07:24:55.999Z</time></trkpt><trkpt lat="45.00762929842741" lon="8.433676820972623"><ele>216.0</ele><time>2026-04-25T07:24:56.999Z</time></trkpt><trkpt lat="45.00762579474345" lon="8.43376955729108"><ele>216.0</ele><time>2026-04-25T07:24:57.999Z</time></trkpt><trkpt lat="45.00762201427116" lon="8.433870722705507"><ele>216.0</ele><time>2026-04-25T07:24:58.999Z</time></trkpt><trkpt lat="45.00762046433887" lon="8.43396929271479"><ele>216.0</ele><time>2026-04-25T07:24:59.999Z</time></trkpt><trkpt lat="45.00761444457938" lon="8.434076800128276"><ele>215.42857142857142</ele><time>2026-04-25T07:25:01Z</time></trkpt><trkpt lat="45.007616901724106" lon="8.434172362615168"><ele>214.85714285714283</ele><time>2026-04-25T07:25:02Z</time></trkpt><trkpt lat="45.00761166092453" lon="8.434278592580512"><ele>214.28571428571428</ele><time>2026-04-25T07:25:03Z</time></trkpt><trkpt lat="45.00760563632753" lon="8.43438260775609"><ele>213.71428571428572</ele><time>2026-04-25T07:25:04Z</time></trkpt><trkpt lat="45.007599421733104" lon="8.434492653949887"><ele>213.14285714285714</ele><time>2026-04-25T07:25:05Z</time></trkpt><trkpt lat="45.007592577204306" lon="8.434598351786706"><ele>212.57142857142858</ele><time>2026-04-25T07:25:06Z</time></trkpt><trkpt lat="45.00758174837282" lon="8.434702885852081"><ele>212.0</ele><time>2026-04-25T07:25:07Z</time></trkpt><trkpt lat="45.007575959483155" lon="8.434817224210251"><ele>211.16666666666669</ele><time>2026-04-25T07:25:08Z</time></trkpt><trkpt lat="45.00757428568268" lon="8.434924791491882"><ele>210.33333333333334</ele><time>2026-04-25T07:25:09Z</time></trkpt><trkpt lat="45.00756204453827" lon="8.43503629107922"><ele>209.5</ele><time>2026-04-25T07:25:10Z</time></trkpt><trkpt lat="45.007558470180705" lon="8.435147958979552"><ele>208.66666666666669</ele><time>2026-04-25T07:25:11Z</time></trkpt><trkpt lat="45.00754842952437" lon="8.435252591590622"><ele>207.83333333333334</ele><time>2026-04-25T07:25:12Z</time></trkpt><trkpt lat="45.00751508924308" lon="8.435352337729743"><ele>207.0</ele><time>2026-04-25T07:25:13Z</time></trkpt><trkpt lat="45.0075175955786" lon="8.435477426650525"><ele>206.33333333333334</ele><time>2026-04-25T07:25:14Z</time></trkpt><trkpt lat="45.007499536933295" lon="8.435578946216772"><ele>205.66666666666669</ele><time>2026-04-25T07:25:15Z</time></trkpt><trkpt lat="45.00748251320172" lon="8.435665506984002"><ele>205.0</ele><time>2026-04-25T07:25:16Z</time></trkpt><trkpt lat="45.0074924680765" lon="8.435818121281697"><ele>204.33333333333334</ele><time>2026-04-25T07:25:17Z</time></trkpt><trkpt lat="45.00748505164118" lon="8.435929980776583"><ele>203.66666666666669</ele><time>2026-04-25T07:25:18Z</time></trkpt><trkpt lat="45.00747421827883" lon="8.436042857048406"><ele>203.0</ele><time>2026-04-25T07:25:19Z</time></trkpt><trkpt lat="45.007466631303224" lon="8.436150817075927"><ele>201.66666666666669</ele><time>2026-04-25T07:25:20Z</time></trkpt><trkpt lat="45.007465946748574" lon="8.436251215854622"><ele>200.33333333333334</ele><time>2026-04-25T07:25:21Z</time></trkpt><trkpt lat="45.007468270486996" lon="8.436347089593317"><ele>199.0</ele><time>2026-04-25T07:25:22Z</time></trkpt><trkpt lat="45.00746878855826" lon="8.436445697388315"><ele>197.66666666666669</ele><time>2026-04-25T07:25:23Z</time></trkpt><trkpt lat="45.00747376631535" lon="8.436543692504204"><ele>196.33333333333334</ele><time>2026-04-25T07:25:24Z</time></trkpt><trkpt lat="45.0074811836644" lon="8.436632924786654"><ele>195.0</ele><time>2026-04-25T07:25:25Z</time></trkpt><trkpt lat="45.00746587608067" lon="8.436793071098407"><ele>194.8</ele><time>2026-04-25T07:25:27Z</time></trkpt><trkpt lat="45.00745659539018" lon="8.436972944863584"><ele>194.6</ele><time>2026-04-25T07:25:29Z</time></trkpt><trkpt lat="45.0074452339442" lon="8.437084814887925"><ele>194.39999999999998</ele><time>2026-04-25T07:25:30Z</time></trkpt><trkpt lat="45.007427793355674" lon="8.43721295107045"><ele>194.2</ele><time>2026-04-25T07:25:31Z</time></trkpt><trkpt lat="45.0074070744911" lon="8.43733671491401"><ele>194.0</ele><time>2026-04-25T07:25:32Z</time></trkpt><trkpt lat="45.00738828805227" lon="8.437465889985463"><ele>194.00000000000003</ele><time>2026-04-25T07:25:33Z</time></trkpt><trkpt lat="45.007376330367876" lon="8.437590256499242"><ele>194.0</ele><time>2026-04-25T07:25:34Z</time></trkpt><trkpt lat="45.00736116401545" lon="8.437710978665788"><ele>194.0</ele><time>2026-04-25T07:25:35Z</time></trkpt><trkpt lat="45.00734293702733" lon="8.437815587000928"><ele>194.0</ele><time>2026-04-25T07:25:36Z</time></trkpt><trkpt lat="45.007307393541396" lon="8.437899915458273"><ele>194.00000000000003</ele><time>2026-04-25T07:25:37Z</time></trkpt><trkpt lat="45.00719779202654" lon="8.437994444316018"><ele>194.0</ele><time>2026-04-25T07:25:39Z</time></trkpt><trkpt lat="45.00711138153619" lon="8.437997447585904"><ele>194.39999999999998</ele><time>2026-04-25T07:25:40Z</time></trkpt><trkpt lat="45.007010902909975" lon="8.438011559719898"><ele>194.8</ele><time>2026-04-25T07:25:41Z</time></trkpt><trkpt lat="45.00690513237357" lon="8.438023020482676"><ele>195.2</ele><time>2026-04-25T07:25:42Z</time></trkpt><trkpt lat="45.006802918126525" lon="8.438033650109016"><ele>195.60000000000002</ele><time>2026-04-25T07:25:43Z</time></trkpt><trkpt lat="45.00671510655397" lon="8.438042780337724"><ele>196.0</ele><time>2026-04-25T07:25:44Z</time></trkpt><trkpt lat="45.006628431921406" lon="8.438051792294598"><ele>194.66666666666666</ele><time>2026-04-25T07:25:45Z</time></trkpt><trkpt lat="45.006551630698084" lon="8.438059777704419"><ele>193.33333333333331</ele><time>2026-04-25T07:25:46Z</time></trkpt><trkpt lat="45.00648019437231" lon="8.438067707200195"><ele>192.0</ele><time>2026-04-25T07:25:47Z</time></trkpt><trkpt lat="45.00640559250577" lon="8.438076721188756"><ele>190.66666666666666</ele><time>2026-04-25T07:25:48Z</time></trkpt><trkpt lat="45.00628527082986" lon="8.438091259376"><ele>189.33333333333331</ele><time>2026-04-25T07:25:50Z</time></trkpt><trkpt lat="45.00622163960707" lon="8.438098947804912"><ele>188.0</ele><time>2026-04-25T07:25:51Z</time></trkpt><trkpt lat="45.00610496674335" lon="8.438109783133484"><ele>188.0</ele><time>2026-04-25T07:25:53Z</time></trkpt><trkpt lat="45.00603839272984" lon="8.438114733695615"><ele>188.0</ele><time>2026-04-25T07:25:54Z</time></trkpt><trkpt lat="45.00592921262399" lon="8.438118549689502"><ele>188.0</ele><time>2026-04-25T07:25:56Z</time></trkpt><trkpt lat="45.00581568723186" lon="8.438137146416313"><ele>188.0</ele><time>2026-04-25T07:25:58Z</time></trkpt><trkpt lat="45.00574356884528" lon="8.438104582811043"><ele>188.0</ele><time>2026-04-25T07:25:59Z</time></trkpt><trkpt lat="45.005668874143836" lon="8.438092219665203"><ele>188.0</ele><time>2026-04-25T07:26:00Z</time></trkpt><trkpt lat="45.005598465768685" lon="8.438093913997527"><ele>188.0</ele><time>2026-04-25T07:26:01Z</time></trkpt><trkpt lat="45.00552180802704" lon="8.438056009054987"><ele>188.0</ele><time>2026-04-25T07:26:02Z</time></trkpt><trkpt lat="45.005376648607886" lon="8.438024686439736"><ele>188.0</ele><time>2026-04-25T07:26:04Z</time></trkpt><trkpt lat="45.00530682482595" lon="8.438000316594444"><ele>188.0</ele><time>2026-04-25T07:26:05Z</time></trkpt><trkpt lat="45.005226308459456" lon="8.43796610224196"><ele>188.0</ele><time>2026-04-25T07:26:06Z</time></trkpt><trkpt lat="45.0051252971376" lon="8.437937959881154"><ele>186.2</ele><time>2026-04-25T07:26:07Z</time></trkpt><trkpt lat="45.00502020881965" lon="8.43789875232978"><ele>184.4</ele><time>2026-04-25T07:26:08Z</time></trkpt><trkpt lat="45.004913891025964" lon="8.43785870347257"><ele>182.6</ele><time>2026-04-25T07:26:09Z</time></trkpt><trkpt lat="45.00480544124155" lon="8.437822290787162"><ele>180.79999999999998</ele><time>2026-04-25T07:26:10Z</time></trkpt><trkpt lat="45.00469730846846" lon="8.437784226349"><ele>179.0</ele><time>2026-04-25T07:26:11Z</time></trkpt><trkpt lat="45.00458979992719" lon="8.437748869193044"><ele>178.2</ele><time>2026-04-25T07:26:12Z</time></trkpt><trkpt lat="45.004499067777395" lon="8.43769378924817"><ele>177.39999999999998</ele><time>2026-04-25T07:26:13Z</time></trkpt><trkpt lat="45.00440372504914" lon="8.437659709006976"><ele>176.6</ele><time>2026-04-25T07:26:13.999Z</time></trkpt><trkpt lat="45.00431037686783" lon="8.437626341709175"><ele>175.8</ele><time>2026-04-25T07:26:14.999Z</time></trkpt><trkpt lat="45.004230456750726" lon="8.437597774271845"><ele>175.0</ele><time>2026-04-25T07:26:15.999Z</time></trkpt><trkpt lat="45.004137967358716" lon="8.437564713954714"><ele>175.0</ele><time>2026-04-25T07:26:16.999Z</time></trkpt><trkpt lat="45.00405053878699" lon="8.437533462616528"><ele>175.0</ele><time>2026-04-25T07:26:17.999Z</time></trkpt><trkpt lat="45.00396635726505" lon="8.437519260804011"><ele>175.0</ele><time>2026-04-25T07:26:18.999Z</time></trkpt><trkpt lat="45.003887149818944" lon="8.43749865933479"><ele>175.0</ele><time>2026-04-25T07:26:19.999Z</time></trkpt><trkpt lat="45.00380401264932" lon="8.437445762806457"><ele>175.0</ele><time>2026-04-25T07:26:20.999Z</time></trkpt><trkpt lat="45.003722598950375" lon="8.437433681881023"><ele>175.0</ele><time>2026-04-25T07:26:21.999Z</time></trkpt><trkpt lat="45.0036436514086" lon="8.43741073476879"><ele>175.0</ele><time>2026-04-25T07:26:22.999Z</time></trkpt><trkpt lat="45.00355570825458" lon="8.437381001934545"><ele>175.0</ele><time>2026-04-25T07:26:23.999Z</time></trkpt><trkpt lat="45.00347807427209" lon="8.43735037701688"><ele>175.0</ele><time>2026-04-25T07:26:24.999Z</time></trkpt><trkpt lat="45.00338747717568" lon="8.437322320719018"><ele>175.0</ele><time>2026-04-25T07:26:25.999Z</time></trkpt><trkpt lat="45.003307522205766" lon="8.437303052176764"><ele>175.0</ele><time>2026-04-25T07:26:26.999Z</time></trkpt><trkpt lat="45.00323631523137" lon="8.43728781793441"><ele>175.0</ele><time>2026-04-25T07:26:27.999Z</time></trkpt><trkpt lat="45.003155681296214" lon="8.437291703000215"><ele>173.5</ele><time>2026-04-25T07:26:28.999Z</time></trkpt><trkpt lat="45.00307563356744" lon="8.437272481177578"><ele>172.0</ele><time>2026-04-25T07:26:29.999Z</time></trkpt><trkpt lat="45.002993554471864" lon="8.437278866991141"><ele>170.5</ele><time>2026-04-25T07:26:30.999Z</time></trkpt><trkpt lat="45.002912020222645" lon="8.437292557266623"><ele>169.0</ele><time>2026-04-25T07:26:31.999Z</time></trkpt><trkpt lat="45.0028357404319" lon="8.437332445924397"><ele>167.5</ele><time>2026-04-25T07:26:32.999Z</time></trkpt><trkpt lat="45.00274975656422" lon="8.437336436181914"><ele>166.0</ele><time>2026-04-25T07:26:33.999Z</time></trkpt><trkpt lat="45.002678692783626" lon="8.43738502916241"><ele>166.0</ele><time>2026-04-25T07:26:34.999Z</time></trkpt><trkpt lat="45.00259404411988" lon="8.437398226070831"><ele>166.0</ele><time>2026-04-25T07:26:35.999Z</time></trkpt><trkpt lat="45.00251017569867" lon="8.437447858676219"><ele>166.0</ele><time>2026-04-25T07:26:36.999Z</time></trkpt><trkpt lat="45.0024372320851" lon="8.437496425043092"><ele>166.0</ele><time>2026-04-25T07:26:37.999Z</time></trkpt><trkpt lat="45.002362641524506" lon="8.437550954064333"><ele>166.0</ele><time>2026-04-25T07:26:38.999Z</time></trkpt><trkpt lat="45.00228434812651" lon="8.437612895387279"><ele>166.0</ele><time>2026-04-25T07:26:39.999Z</time></trkpt><trkpt lat="45.00221089645205" lon="8.4376703536211"><ele>163.8</ele><time>2026-04-25T07:26:40.999Z</time></trkpt><trkpt lat="45.00212778458269" lon="8.43774752925805"><ele>161.60000000000002</ele><time>2026-04-25T07:26:41.999Z</time></trkpt><trkpt lat="45.00205501482673" lon="8.437824280941813"><ele>159.4</ele><time>2026-04-25T07:26:42.999Z</time></trkpt><trkpt lat="45.00198570680639" lon="8.437907854954004"><ele>157.2</ele><time>2026-04-25T07:26:43.999Z</time></trkpt><trkpt lat="45.001924237875485" lon="8.437987380206357"><ele>155.0</ele><time>2026-04-25T07:26:44.999Z</time></trkpt><trkpt lat="45.001852748580696" lon="8.438081768151402"><ele>155.0</ele><time>2026-04-25T07:26:45.999Z</time></trkpt><trkpt lat="45.001792818408596" lon="8.438162980104964"><ele>155.0</ele><time>2026-04-25T07:26:46.999Z</time></trkpt><trkpt lat="45.0017317417515" lon="8.43824664525115"><ele>155.0</ele><time>2026-04-25T07:26:47.999Z</time></trkpt><trkpt lat="45.00166714837535" lon="8.438335972527753"><ele>155.0</ele><time>2026-04-25T07:26:48.999Z</time></trkpt><trkpt lat="45.00160635111613" lon="8.438423694190393"><ele>155.0</ele><time>2026-04-25T07:26:49.999Z</time></trkpt><trkpt lat="45.001559288668545" lon="8.438526701293384"><ele>155.0</ele><time>2026-04-25T07:26:50.999Z</time></trkpt><trkpt lat="45.00150448443572" lon="8.438600401306015"><ele>154.0</ele><time>2026-04-25T07:26:51.999Z</time></trkpt><trkpt lat="45.00145513212709" lon="8.43871436385601"><ele>153.0</ele><time>2026-04-25T07:26:52.999Z</time></trkpt><trkpt lat="45.00139583923963" lon="8.438797907088167"><ele>152.0</ele><time>2026-04-25T07:26:53.999Z</time></trkpt><trkpt lat="45.00134672467851" lon="8.438899780842812"><ele>151.0</ele><time>2026-04-25T07:26:54.999Z</time></trkpt><trkpt lat="45.00131176648393" lon="8.439012609508389"><ele>150.0</ele><time>2026-04-25T07:26:55.999Z</time></trkpt><trkpt lat="45.00126009413292" lon="8.439113701511545"><ele>149.0</ele><time>2026-04-25T07:26:56.999Z</time></trkpt><trkpt lat="45.0011982568989" lon="8.439199273537639"><ele>149.0</ele><time>2026-04-25T07:26:57.999Z</time></trkpt><trkpt lat="45.00115879413449" lon="8.439306351540063"><ele>149.0</ele><time>2026-04-25T07:26:58.999Z</time></trkpt><trkpt lat="45.00110507656231" lon="8.43940597238042"><ele>149.0</ele><time>2026-04-25T07:26:59.999Z</time></trkpt><trkpt lat="45.00105564853574" lon="8.439506569171396"><ele>149.0</ele><time>2026-04-25T07:27:00.999Z</time></trkpt><trkpt lat="45.00100724652644" lon="8.439607446211266"><ele>149.0</ele><time>2026-04-25T07:27:01.999Z</time></trkpt><trkpt lat="45.00095838318241" lon="8.439710141487442"><ele>149.0</ele><time>2026-04-25T07:27:02.999Z</time></trkpt><trkpt lat="45.00090866394649" lon="8.439801665725307"><ele>148.83333333333331</ele><time>2026-04-25T07:27:03.999Z</time></trkpt><trkpt lat="45.00086003876096" lon="8.43989776427855"><ele>148.66666666666666</ele><time>2026-04-25T07:27:04.999Z</time></trkpt><trkpt lat="45.0008111710997" lon="8.439995728686991"><ele>148.5</ele><time>2026-04-25T07:27:05.999Z</time></trkpt><trkpt lat="45.00076474816242" lon="8.440092430494971"><ele>148.33333333333334</ele><time>2026-04-25T07:27:07Z</time></trkpt><trkpt lat="45.00072081545757" lon="8.440185742725472"><ele>148.16666666666669</ele><time>2026-04-25T07:27:08Z</time></trkpt><trkpt lat="45.00066044622816" lon="8.440262896272607"><ele>148.0</ele><time>2026-04-25T07:27:09Z</time></trkpt><trkpt lat="45.000614039272065" lon="8.440352647998765"><ele>147.0</ele><time>2026-04-25T07:27:10Z</time></trkpt><trkpt lat="45.00057063779737" lon="8.440436587315983"><ele>146.0</ele><time>2026-04-25T07:27:11Z</time></trkpt><trkpt lat="45.00052198342016" lon="8.44051654003083"><ele>145.0</ele><time>2026-04-25T07:27:12Z</time></trkpt><trkpt lat="45.00047197313108" lon="8.440586893519532"><ele>144.0</ele><time>2026-04-25T07:27:13Z</time></trkpt><trkpt lat="45.000418837789525" lon="8.44065490895585"><ele>143.0</ele><time>2026-04-25T07:27:14Z</time></trkpt><trkpt lat="45.00036980772082" lon="8.440737161135228"><ele>142.0</ele><time>2026-04-25T07:27:15Z</time></trkpt><trkpt lat="45.00030136232088" lon="8.440778304012632"><ele>141.0</ele><time>2026-04-25T07:27:16Z</time></trkpt><trkpt lat="45.0002287269969" lon="8.44083015933249"><ele>141.0</ele><time>2026-04-25T07:27:17Z</time></trkpt><trkpt lat="45.000152807356805" lon="8.440881564854191"><ele>141.0</ele><time>2026-04-25T07:27:18Z</time></trkpt><trkpt lat="45.00006510667207" lon="8.440927824615457"><ele>141.0</ele><time>2026-04-25T07:27:19Z</time></trkpt><trkpt lat="44.999973124978474" lon="8.44097389713026"><ele>141.0</ele><time>2026-04-25T07:27:20Z</time></trkpt><trkpt lat="44.99988181190506" lon="8.441017304385248"><ele>141.0</ele><time>2026-04-25T07:27:21Z</time></trkpt><trkpt lat="44.99979040414938" lon="8.441059692728038"><ele>141.0</ele><time>2026-04-25T07:27:22Z</time></trkpt><trkpt lat="44.99969734388474" lon="8.441102560043449"><ele>141.0</ele><time>2026-04-25T07:27:23Z</time></trkpt><trkpt lat="44.99960144478843" lon="8.44114369248226"><ele>141.0</ele><time>2026-04-25T07:27:24Z</time></trkpt><trkpt lat="44.999504904595355" lon="8.441186459852869"><ele>141.0</ele><time>2026-04-25T07:27:25Z</time></trkpt><trkpt lat="44.999410356203015" lon="8.441228714771555"><ele>141.0</ele><time>2026-04-25T07:27:26Z</time></trkpt><trkpt lat="44.9993119195643" lon="8.44127270743209"><ele>140.6</ele><time>2026-04-25T07:27:27Z</time></trkpt><trkpt lat="44.99921964206008" lon="8.441337996837206"><ele>140.2</ele><time>2026-04-25T07:27:28Z</time></trkpt><trkpt lat="44.99912305719308" lon="8.441357112476178"><ele>139.8</ele><time>2026-04-25T07:27:29Z</time></trkpt><trkpt lat="44.99902754526407" lon="8.441399840912444"><ele>139.4</ele><time>2026-04-25T07:27:30Z</time></trkpt><trkpt lat="44.99894137972723" lon="8.441454132608794"><ele>139.0</ele><time>2026-04-25T07:27:31Z</time></trkpt><trkpt lat="44.99885969797216" lon="8.44149989729281"><ele>139.0</ele><time>2026-04-25T07:27:32Z</time></trkpt><trkpt lat="44.9987813448386" lon="8.441512754883352"><ele>139.0</ele><time>2026-04-25T07:27:33Z</time></trkpt><trkpt lat="44.99871483164621" lon="8.441543259575216"><ele>139.0</ele><time>2026-04-25T07:27:34Z</time></trkpt><trkpt lat="44.998648363554956" lon="8.441590847619137"><ele>139.0</ele><time>2026-04-25T07:27:35Z</time></trkpt><trkpt lat="44.99857532130685" lon="8.44161828544677"><ele>139.0</ele><time>2026-04-25T07:27:36Z</time></trkpt><trkpt lat="44.99850886854904" lon="8.441654833094212"><ele>139.0</ele><time>2026-04-25T07:27:37Z</time></trkpt><trkpt lat="44.998389531055764" lon="8.441701643163096"><ele>138.83333333333334</ele><time>2026-04-25T07:27:39Z</time></trkpt><trkpt lat="44.99829084513019" lon="8.441736739289743"><ele>138.66666666666669</ele><time>2026-04-25T07:27:41Z</time></trkpt><trkpt lat="44.998201706365364" lon="8.441792638547442"><ele>138.5</ele><time>2026-04-25T07:27:43Z</time></trkpt><trkpt lat="44.9981388405928" lon="8.441833043043216"><ele>138.33333333333334</ele><time>2026-04-25T07:27:45Z</time></trkpt><trkpt lat="44.99807662216" lon="8.441859402731863"><ele>138.16666666666666</ele><time>2026-04-25T07:27:48Z</time></trkpt><trkpt lat="44.99802862127833" lon="8.441975960923093"><ele>138.0</ele><time>2026-04-25T07:27:51Z</time></trkpt><trkpt lat="44.99801104545367" lon="8.442092617800006"><ele>137.6</ele><time>2026-04-25T07:27:53Z</time></trkpt><trkpt lat="44.997985773198415" lon="8.442273970932648"><ele>137.20000000000002</ele><time>2026-04-25T07:27:55Z</time></trkpt><trkpt lat="44.997961226624994" lon="8.442384617294469"><ele>136.8</ele><time>2026-04-25T07:27:56Z</time></trkpt><trkpt lat="44.99794809927655" lon="8.44250372128128"><ele>136.4</ele><time>2026-04-25T07:27:57Z</time></trkpt><trkpt lat="44.99790895601291" lon="8.442635698031133"><ele>136.0</ele><time>2026-04-25T07:27:58Z</time></trkpt><trkpt lat="44.997886943805504" lon="8.442759573975284"><ele>136.0</ele><time>2026-04-25T07:27:59Z</time></trkpt><trkpt lat="44.99786262619344" lon="8.442896423793279"><ele>136.0</ele><time>2026-04-25T07:28:00Z</time></trkpt><trkpt lat="44.99783711043961" lon="8.443040016392025"><ele>136.0</ele><time>2026-04-25T07:28:01Z</time></trkpt><trkpt lat="44.99781056472219" lon="8.443189404961878"><ele>136.0</ele><time>2026-04-25T07:28:02Z</time></trkpt><trkpt lat="44.99779834376244" lon="8.443341624765957"><ele>136.0</ele><time>2026-04-25T07:28:03Z</time></trkpt><trkpt lat="44.997771954122385" lon="8.443500211235818"><ele>136.2</ele><time>2026-04-25T07:28:04Z</time></trkpt><trkpt lat="44.997744768692385" lon="8.443661453121843"><ele>136.39999999999998</ele><time>2026-04-25T07:28:05Z</time></trkpt><trkpt lat="44.9977177445549" lon="8.4438137272527"><ele>136.6</ele><time>2026-04-25T07:28:06Z</time></trkpt><trkpt lat="44.99767717607416" lon="8.443954499485644"><ele>136.79999999999998</ele><time>2026-04-25T07:28:07Z</time></trkpt><trkpt lat="44.997654335981004" lon="8.444081455436187"><ele>137.0</ele><time>2026-04-25T07:28:08Z</time></trkpt><trkpt lat="44.997630465756096" lon="8.444214136761367"><ele>137.0</ele><time>2026-04-25T07:28:09Z</time></trkpt><trkpt lat="44.99762158047447" lon="8.444350859165844"><ele>137.0</ele><time>2026-04-25T07:28:10Z</time></trkpt><trkpt lat="44.99758290955562" lon="8.444480412228197"><ele>137.0</ele><time>2026-04-25T07:28:11Z</time></trkpt><trkpt lat="44.997561159682604" lon="8.444604417825099"><ele>137.0</ele><time>2026-04-25T07:28:12Z</time></trkpt><trkpt lat="44.99754098393912" lon="8.444719448670142"><ele>137.0</ele><time>2026-04-25T07:28:13Z</time></trkpt><trkpt lat="44.99753536095999" lon="8.44483528785454"><ele>137.0</ele><time>2026-04-25T07:28:14Z</time></trkpt><trkpt lat="44.99751653930924" lon="8.44493984153072"><ele>137.0</ele><time>2026-04-25T07:28:15Z</time></trkpt><trkpt lat="44.9974971358819" lon="8.445051653453344"><ele>137.0</ele><time>2026-04-25T07:28:16Z</time></trkpt><trkpt lat="44.997462868832756" lon="8.445159063247553"><ele>137.0</ele><time>2026-04-25T07:28:17Z</time></trkpt><trkpt lat="44.99745855095939" lon="8.445264612917002"><ele>137.0</ele><time>2026-04-25T07:28:17.999Z</time></trkpt><trkpt lat="44.99742889817501" lon="8.445353725539725"><ele>137.0</ele><time>2026-04-25T07:28:18.999Z</time></trkpt><trkpt lat="44.997399028149545" lon="8.445524889966254"><ele>136.6</ele><time>2026-04-25T07:28:20.999Z</time></trkpt><trkpt lat="44.99738231460203" lon="8.445675662209323"><ele>136.2</ele><time>2026-04-25T07:28:22.999Z</time></trkpt><trkpt lat="44.997362928477834" lon="8.445801010376023"><ele>135.8</ele><time>2026-04-25T07:28:24.999Z</time></trkpt><trkpt lat="44.997344377864096" lon="8.445922123835832"><ele>135.4</ele><time>2026-04-25T07:28:26.999Z</time></trkpt><trkpt lat="44.99731532522009" lon="8.446043605844169"><ele>135.0</ele><time>2026-04-25T07:28:28.999Z</time></trkpt><trkpt lat="44.99729335156448" lon="8.446189008231475"><ele>135.0</ele><time>2026-04-25T07:28:30.999Z</time></trkpt><trkpt lat="44.99726765393433" lon="8.44627770451804"><ele>135.0</ele><time>2026-04-25T07:28:32.999Z</time></trkpt><trkpt lat="44.99736094991846" lon="8.446322270291367"><ele>135.0</ele><time>2026-04-25T07:28:34.999Z</time></trkpt><trkpt lat="44.997421099447195" lon="8.446349098345424"><ele>135.0</ele><time>2026-04-25T07:28:35.999Z</time></trkpt><trkpt lat="44.99749647989884" lon="8.446402830416432"><ele>135.0</ele><time>2026-04-25T07:28:36.999Z</time></trkpt><trkpt lat="44.9975881961628" lon="8.446473324919022"><ele>135.0</ele><time>2026-04-25T07:28:37.999Z</time></trkpt><trkpt lat="44.99769056452331" lon="8.44654293134994"><ele>135.2</ele><time>2026-04-25T07:28:38.999Z</time></trkpt><trkpt lat="44.99779157582797" lon="8.446632050976422"><ele>135.4</ele><time>2026-04-25T07:28:39.999Z</time></trkpt><trkpt lat="44.99789465433247" lon="8.446689750137573"><ele>135.6</ele><time>2026-04-25T07:28:40.999Z</time></trkpt><trkpt lat="44.99799396290897" lon="8.44676101616837"><ele>135.8</ele><time>2026-04-25T07:28:41.999Z</time></trkpt><trkpt lat="44.998090364759506" lon="8.446826964197768"><ele>136.0</ele><time>2026-04-25T07:28:42.999Z</time></trkpt><trkpt lat="44.99818856609266" lon="8.44689232559024"><ele>136.0</ele><time>2026-04-25T07:28:43.999Z</time></trkpt><trkpt lat="44.998283411790396" lon="8.44696913138046"><ele>136.0</ele><time>2026-04-25T07:28:44.999Z</time></trkpt><trkpt lat="44.99838062209288" lon="8.447046269543783"><ele>136.0</ele><time>2026-04-25T07:28:45.999Z</time></trkpt><trkpt lat="44.998470058168806" lon="8.447129244641593"><ele>136.0</ele><time>2026-04-25T07:28:46.999Z</time></trkpt><trkpt lat="44.99857262013837" lon="8.447216238297816"><ele>136.0</ele><time>2026-04-25T07:28:47.999Z</time></trkpt><trkpt lat="44.99867228535941" lon="8.44732233385996"><ele>136.2</ele><time>2026-04-25T07:28:48.999Z</time></trkpt><trkpt lat="44.99876958756985" lon="8.447421425299805"><ele>136.39999999999998</ele><time>2026-04-25T07:28:49.999Z</time></trkpt><trkpt lat="44.99885977009327" lon="8.447524355257183"><ele>136.6</ele><time>2026-04-25T07:28:50.999Z</time></trkpt><trkpt lat="44.99894012845608" lon="8.447608052154543"><ele>136.79999999999998</ele><time>2026-04-25T07:28:51.999Z</time></trkpt><trkpt lat="44.9990370853023" lon="8.44768313458098"><ele>137.0</ele><time>2026-04-25T07:28:52.999Z</time></trkpt><trkpt lat="44.99913694634986" lon="8.447771339865026"><ele>136.79999999999998</ele><time>2026-04-25T07:28:53.999Z</time></trkpt><trkpt lat="44.99923723507381" lon="8.44783850915704"><ele>136.6</ele><time>2026-04-25T07:28:54.999Z</time></trkpt><trkpt lat="44.99933530174937" lon="8.447894690037465"><ele>136.39999999999998</ele><time>2026-04-25T07:28:55.999Z</time></trkpt><trkpt lat="44.99941936991234" lon="8.447961502081618"><ele>136.2</ele><time>2026-04-25T07:28:56.999Z</time></trkpt><trkpt lat="44.99950778715923" lon="8.448038025483108"><ele>136.0</ele><time>2026-04-25T07:28:57.999Z</time></trkpt><trkpt lat="44.99958568211273" lon="8.448112694137718"><ele>136.4</ele><time>2026-04-25T07:28:58.999Z</time></trkpt><trkpt lat="44.99965712572033" lon="8.448191401962884"><ele>136.8</ele><time>2026-04-25T07:28:59.999Z</time></trkpt><trkpt lat="44.999711495641165" lon="8.448304689354833"><ele>137.20000000000002</ele><time>2026-04-25T07:29:00.999Z</time></trkpt><trkpt lat="44.999759487177975" lon="8.448451800839027"><ele>137.6</ele><time>2026-04-25T07:29:01.999Z</time></trkpt><trkpt lat="44.999798540482864" lon="8.448593055611669"><ele>138.0</ele><time>2026-04-25T07:29:02.999Z</time></trkpt><trkpt lat="44.999834604496456" lon="8.448722893546506"><ele>138.0</ele><time>2026-04-25T07:29:03.999Z</time></trkpt><trkpt lat="44.99987753092783" lon="8.448825117227697"><ele>138.0</ele><time>2026-04-25T07:29:04.999Z</time></trkpt><trkpt lat="44.99994161723446" lon="8.448904337167685"><ele>138.0</ele><time>2026-04-25T07:29:05.999Z</time></trkpt><trkpt lat="45.000024769881335" lon="8.448977066972274"><ele>138.0</ele><time>2026-04-25T07:29:06.999Z</time></trkpt><trkpt lat="45.000105037562584" lon="8.449044768967289"><ele>138.0</ele><time>2026-04-25T07:29:07.999Z</time></trkpt><trkpt lat="45.000205540421426" lon="8.44912003465946"><ele>138.0</ele><time>2026-04-25T07:29:08.999Z</time></trkpt><trkpt lat="45.00031395889194" lon="8.449176879019378"><ele>138.0</ele><time>2026-04-25T07:29:09.999Z</time></trkpt><trkpt lat="45.000418859096655" lon="8.449238921462836"><ele>138.0</ele><time>2026-04-25T07:29:10.999Z</time></trkpt><trkpt lat="45.000517066485976" lon="8.449304834368972"><ele>138.0</ele><time>2026-04-25T07:29:11.999Z</time></trkpt><trkpt lat="45.0005996353323" lon="8.449360113679782"><ele>138.0</ele><time>2026-04-25T07:29:13Z</time></trkpt><trkpt lat="45.000692906496845" lon="8.44941434514452"><ele>138.0</ele><time>2026-04-25T07:29:14Z</time></trkpt><trkpt lat="45.00076268983141" lon="8.44945472106883"><ele>138.0</ele><time>2026-04-25T07:29:15Z</time></trkpt><trkpt lat="45.000833560588866" lon="8.44951178352422"><ele>138.0</ele><time>2026-04-25T07:29:16Z</time></trkpt><trkpt lat="45.000903538535155" lon="8.449632768394745"><ele>138.0</ele><time>2026-04-25T07:29:18Z</time></trkpt><trkpt lat="45.000949107339345" lon="8.449749390789275"><ele>138.0</ele><time>2026-04-25T07:29:20Z</time></trkpt><trkpt lat="45.00098854815861" lon="8.449835704140062"><ele>138.0</ele><time>2026-04-25T07:29:22Z</time></trkpt><trkpt lat="45.00105031917729" lon="8.449894295197224"><ele>138.4</ele><time>2026-04-25T07:29:24Z</time></trkpt><trkpt lat="45.001129799327394" lon="8.449883740747309"><ele>138.8</ele><time>2026-04-25T07:29:27Z</time></trkpt><trkpt lat="45.001215574097" lon="8.44987905135406"><ele>139.2</ele><time>2026-04-25T07:29:29Z</time></trkpt><trkpt lat="45.0013423810964" lon="8.4498181561939"><ele>139.6</ele><time>2026-04-25T07:29:31Z</time></trkpt><trkpt lat="45.00141786779498" lon="8.449778772805262"><ele>140.0</ele><time>2026-04-25T07:29:32Z</time></trkpt><trkpt lat="45.00149932733438" lon="8.449743924433646"><ele>140.0</ele><time>2026-04-25T07:29:33Z</time></trkpt><trkpt lat="45.00160326658751" lon="8.449692117869724"><ele>140.0</ele><time>2026-04-25T07:29:34Z</time></trkpt><trkpt lat="45.001681778192875" lon="8.449645413313958"><ele>140.0</ele><time>2026-04-25T07:29:35Z</time></trkpt><trkpt lat="45.00176226006012" lon="8.449620184216577"><ele>140.0</ele><time>2026-04-25T07:29:36Z</time></trkpt><trkpt lat="45.001829506930136" lon="8.449593320241506"><ele>140.0</ele><time>2026-04-25T07:29:37Z</time></trkpt><trkpt lat="45.00193150555535" lon="8.44958802285941"><ele>139.66666666666666</ele><time>2026-04-25T07:29:39Z</time></trkpt><trkpt lat="45.001978253629694" lon="8.449652890267949"><ele>139.33333333333331</ele><time>2026-04-25T07:29:40Z</time></trkpt><trkpt lat="45.00202454701423" lon="8.44972664158928"><ele>139.0</ele><time>2026-04-25T07:29:41Z</time></trkpt><trkpt lat="45.00204909900889" lon="8.449834326940893"><ele>138.66666666666666</ele><time>2026-04-25T07:29:42Z</time></trkpt><trkpt lat="45.00209747672401" lon="8.449965842880157"><ele>138.33333333333334</ele><time>2026-04-25T07:29:43Z</time></trkpt><trkpt lat="45.00214589950304" lon="8.450113267159963"><ele>138.0</ele><time>2026-04-25T07:29:44Z</time></trkpt><trkpt lat="45.00219429866006" lon="8.450244136776968"><ele>138.0</ele><time>2026-04-25T07:29:45Z</time></trkpt><trkpt lat="45.00224138646605" lon="8.450381366373882"><ele>138.0</ele><time>2026-04-25T07:29:46Z</time></trkpt><trkpt lat="45.00229629611619" lon="8.450507377258788"><ele>138.0</ele><time>2026-04-25T07:29:47Z</time></trkpt><trkpt lat="45.0023401964702" lon="8.450656131874046"><ele>138.0</ele><time>2026-04-25T07:29:48Z</time></trkpt><trkpt lat="45.00239351900046" lon="8.45082037557899"><ele>138.5</ele><time>2026-04-25T07:29:49Z</time></trkpt><trkpt lat="45.002441410199474" lon="8.451000901320246"><ele>139.0</ele><time>2026-04-25T07:29:50Z</time></trkpt><trkpt lat="45.002488799681245" lon="8.451195886530503"><ele>139.5</ele><time>2026-04-25T07:29:51Z</time></trkpt><trkpt lat="45.002539721761316" lon="8.45136648914224"><ele>140.0</ele><time>2026-04-25T07:29:53Z</time></trkpt><trkpt lat="45.00254161708097" lon="8.451515789165821"><ele>143.8</ele><time>2026-04-25T07:29:54Z</time></trkpt><trkpt lat="45.00253813861312" lon="8.451677179890615"><ele>147.6</ele><time>2026-04-25T07:29:55Z</time></trkpt><trkpt lat="45.0025368292929" lon="8.45183790863985"><ele>151.4</ele><time>2026-04-25T07:29:56Z</time></trkpt><trkpt lat="45.002542241763685" lon="8.451991273865117"><ele>155.2</ele><time>2026-04-25T07:29:57Z</time></trkpt><trkpt lat="45.00255389423985" lon="8.452148671207427"><ele>159.0</ele><time>2026-04-25T07:29:58Z</time></trkpt><trkpt lat="45.0025710387783" lon="8.452317841359172"><ele>160.25</ele><time>2026-04-25T07:29:59Z</time></trkpt><trkpt lat="45.0025945069056" lon="8.452502206927448"><ele>161.5</ele><time>2026-04-25T07:30:00Z</time></trkpt><trkpt lat="45.002621544523144" lon="8.452708477907404"><ele>162.75</ele><time>2026-04-25T07:30:01Z</time></trkpt><trkpt lat="45.00264501633572" lon="8.452913791624253"><ele>164.0</ele><time>2026-04-25T07:30:02Z</time></trkpt><trkpt lat="45.002667678702466" lon="8.453115545016264"><ele>166.0</ele><time>2026-04-25T07:30:03Z</time></trkpt><trkpt lat="45.00269064385114" lon="8.453314939663326"><ele>168.0</ele><time>2026-04-25T07:30:04Z</time></trkpt><trkpt lat="45.00270637656519" lon="8.453492838959525"><ele>170.0</ele><time>2026-04-25T07:30:05Z</time></trkpt><trkpt lat="45.002725019681264" lon="8.453667485823456"><ele>172.0</ele><time>2026-04-25T07:30:06Z</time></trkpt><trkpt lat="45.0027410639311" lon="8.453847384563195"><ele>173.6</ele><time>2026-04-25T07:30:07Z</time></trkpt><trkpt lat="45.00275033013714" lon="8.453986734736905"><ele>175.2</ele><time>2026-04-25T07:30:08Z</time></trkpt><trkpt lat="45.002760537570886" lon="8.454135266179346"><ele>176.8</ele><time>2026-04-25T07:30:09Z</time></trkpt><trkpt lat="45.002776167613185" lon="8.454304317474016"><ele>178.4</ele><time>2026-04-25T07:30:10Z</time></trkpt><trkpt lat="45.00278411298993" lon="8.454477014352939"><ele>180.0</ele><time>2026-04-25T07:30:11Z</time></trkpt><trkpt lat="45.00279327245595" lon="8.45465499696727"><ele>181.75</ele><time>2026-04-25T07:30:12Z</time></trkpt><trkpt lat="45.0028027719389" lon="8.454827560770932"><ele>183.5</ele><time>2026-04-25T07:30:13Z</time></trkpt><trkpt lat="45.00280919584422" lon="8.455000293228023"><ele>185.25</ele><time>2026-04-25T07:30:14Z</time></trkpt><trkpt lat="45.002820682948546" lon="8.45516918436948"><ele>187.0</ele><time>2026-04-25T07:30:15Z</time></trkpt><trkpt lat="45.0028232740924" lon="8.455336418290116"><ele>188.75</ele><time>2026-04-25T07:30:16Z</time></trkpt><trkpt lat="45.00281790433718" lon="8.455496757956778"><ele>190.5</ele><time>2026-04-25T07:30:17Z</time></trkpt><trkpt lat="45.002812360164576" lon="8.455656549511069"><ele>192.25</ele><time>2026-04-25T07:30:18Z</time></trkpt><trkpt lat="45.00280691495238" lon="8.455817352708209"><ele>194.0</ele><time>2026-04-25T07:30:19Z</time></trkpt><trkpt lat="45.00280021128323" lon="8.455982817290842"><ele>194.00000000000003</ele><time>2026-04-25T07:30:20Z</time></trkpt><trkpt lat="45.00279222010061" lon="8.45609870572105"><ele>194.0</ele><time>2026-04-25T07:30:21Z</time></trkpt><trkpt lat="45.002787206906845" lon="8.45619766322784"><ele>194.0</ele><time>2026-04-25T07:30:22Z</time></trkpt><trkpt lat="45.00280224885044" lon="8.456359613462643"><ele>194.0</ele><time>2026-04-25T07:30:24Z</time></trkpt><trkpt lat="45.00283668983855" lon="8.456434902035431"><ele>194.00000000000003</ele><time>2026-04-25T07:30:25Z</time></trkpt><trkpt lat="45.00290158158141" lon="8.45647605499518"><ele>194.0</ele><time>2026-04-25T07:30:26Z</time></trkpt><trkpt lat="45.002988530761975" lon="8.45649904809424"><ele>194.6</ele><time>2026-04-25T07:30:27Z</time></trkpt><trkpt lat="45.00309984349351" lon="8.456518148366769"><ele>195.2</ele><time>2026-04-25T07:30:28Z</time></trkpt><trkpt lat="45.00323214073315" lon="8.456562883021242"><ele>195.79999999999998</ele><time>2026-04-25T07:30:29Z</time></trkpt><trkpt lat="45.00333403946315" lon="8.45660104867683"><ele>196.39999999999998</ele><time>2026-04-25T07:30:29.999Z</time></trkpt><trkpt lat="45.003400463105415" lon="8.456633447475987"><ele>197.0</ele><time>2026-04-25T07:30:30.999Z</time></trkpt><trkpt lat="45.00349267122113" lon="8.456710156957184"><ele>197.0</ele><time>2026-04-25T07:30:32.999Z</time></trkpt><trkpt lat="45.00350919767468" lon="8.456833321246611"><ele>197.0</ele><time>2026-04-25T07:30:34.999Z</time></trkpt><trkpt lat="45.00347073867972" lon="8.456907538907124"><ele>197.0</ele><time>2026-04-25T07:30:35.999Z</time></trkpt><trkpt lat="45.00340896612333" lon="8.457019640798848"><ele>197.0</ele><time>2026-04-25T07:30:36.999Z</time></trkpt><trkpt lat="45.00334430154221" lon="8.45712700423079"><ele>197.0</ele><time>2026-04-25T07:30:37.999Z</time></trkpt><trkpt lat="45.00327147458393" lon="8.457245842182584"><ele>197.5</ele><time>2026-04-25T07:30:38.999Z</time></trkpt><trkpt lat="45.00318862283307" lon="8.45737938705415"><ele>198.0</ele><time>2026-04-25T07:30:39.999Z</time></trkpt><trkpt lat="45.003086972023006" lon="8.457515543349212"><ele>198.5</ele><time>2026-04-25T07:30:40.999Z</time></trkpt><trkpt lat="45.00299862674034" lon="8.45762000719929"><ele>199.0</ele><time>2026-04-25T07:30:41.999Z</time></trkpt><trkpt lat="45.00293368973141" lon="8.457738156953905"><ele>199.0</ele><time>2026-04-25T07:30:42.999Z</time></trkpt><trkpt lat="45.00288712583617" lon="8.457879055029311"><ele>199.0</ele><time>2026-04-25T07:30:43.999Z</time></trkpt><trkpt lat="45.00285047015071" lon="8.458038100002346"><ele>199.0</ele><time>2026-04-25T07:30:44.999Z</time></trkpt><trkpt lat="45.002811112679495" lon="8.458203106355665"><ele>199.0</ele><time>2026-04-25T07:30:45.999Z</time></trkpt><trkpt lat="45.00277283741433" lon="8.458371909179085"><ele>200.2</ele><time>2026-04-25T07:30:46.999Z</time></trkpt><trkpt lat="45.00273127256" lon="8.4585324773408"><ele>201.39999999999998</ele><time>2026-04-25T07:30:47.999Z</time></trkpt><trkpt lat="45.002695883963575" lon="8.458694104761312"><ele>202.6</ele><time>2026-04-25T07:30:48.999Z</time></trkpt><trkpt lat="45.00266806435751" lon="8.45881078182537"><ele>203.8</ele><time>2026-04-25T07:30:49.999Z</time></trkpt><trkpt lat="45.00264679819906" lon="8.458923636808896"><ele>205.0</ele><time>2026-04-25T07:30:50.999Z</time></trkpt><trkpt lat="45.00262557159517" lon="8.459017875050817"><ele>205.8</ele><time>2026-04-25T07:30:51.999Z</time></trkpt><trkpt lat="45.00257242544299" lon="8.459093228339958"><ele>206.6</ele><time>2026-04-25T07:30:53.999Z</time></trkpt><trkpt lat="45.00247130159967" lon="8.45907684818941"><ele>207.39999999999998</ele><time>2026-04-25T07:30:55.999Z</time></trkpt><trkpt lat="45.002387468727136" lon="8.45903598861081"><ele>208.2</ele><time>2026-04-25T07:30:56.999Z</time></trkpt><trkpt lat="45.002288851838614" lon="8.459000574734288"><ele>209.0</ele><time>2026-04-25T07:30:57.999Z</time></trkpt><trkpt lat="45.00218307130114" lon="8.458980904502768"><ele>211.25</ele><time>2026-04-25T07:30:58.999Z</time></trkpt><trkpt lat="45.00204311835882" lon="8.458954042401484"><ele>213.5</ele><time>2026-04-25T07:31:00.999Z</time></trkpt><trkpt lat="45.00193578257423" lon="8.458923562560773"><ele>215.75</ele><time>2026-04-25T07:31:01.999Z</time></trkpt><trkpt lat="45.00180245912035" lon="8.458881655828518"><ele>218.0</ele><time>2026-04-25T07:31:02.999Z</time></trkpt><trkpt lat="45.00165554099247" lon="8.458838479243253"><ele>216.25</ele><time>2026-04-25T07:31:03.999Z</time></trkpt><trkpt lat="45.00151188442846" lon="8.458805073768376"><ele>214.5</ele><time>2026-04-25T07:31:04.999Z</time></trkpt><trkpt lat="45.00140030351667" lon="8.45878216505688"><ele>212.75</ele><time>2026-04-25T07:31:05.999Z</time></trkpt><trkpt lat="45.001296107344295" lon="8.458770456740124"><ele>211.0</ele><time>2026-04-25T07:31:06.999Z</time></trkpt><trkpt lat="45.00118178379566" lon="8.458780265461993"><ele>213.25</ele><time>2026-04-25T07:31:07.999Z</time></trkpt><trkpt lat="45.00107167388223" lon="8.458813538672432"><ele>215.5</ele><time>2026-04-25T07:31:08.999Z</time></trkpt><trkpt lat="45.00097899535263" lon="8.458875118090782"><ele>217.75</ele><time>2026-04-25T07:31:09.999Z</time></trkpt><trkpt lat="45.000881444830924" lon="8.458976085280401"><ele>220.0</ele><time>2026-04-25T07:31:10.999Z</time></trkpt><trkpt lat="45.00077797688085" lon="8.45909503751031"><ele>220.0</ele><time>2026-04-25T07:31:11.999Z</time></trkpt><trkpt lat="45.00068558794882" lon="8.459223724647247"><ele>220.0</ele><time>2026-04-25T07:31:12.999Z</time></trkpt><trkpt lat="45.00059099157565" lon="8.459337329327264"><ele>220.0</ele><time>2026-04-25T07:31:13.999Z</time></trkpt><trkpt lat="45.000480604839495" lon="8.45938120495238"><ele>220.0</ele><time>2026-04-25T07:31:14.999Z</time></trkpt><trkpt lat="45.00035397276081" lon="8.459415630234197"><ele>220.0</ele><time>2026-04-25T07:31:15.999Z</time></trkpt><trkpt lat="45.000220821825295" lon="8.459497318667198"><ele>220.0</ele><time>2026-04-25T07:31:16.999Z</time></trkpt><trkpt lat="45.000090516381604" lon="8.459558828554366"><ele>220.0</ele><time>2026-04-25T07:31:17.999Z</time></trkpt><trkpt lat="44.999951758320215" lon="8.459601327125727"><ele>220.0</ele><time>2026-04-25T07:31:19Z</time></trkpt><trkpt lat="44.999799672424494" lon="8.45965564466301"><ele>224.66666666666666</ele><time>2026-04-25T07:31:20Z</time></trkpt><trkpt lat="44.99964400479672" lon="8.459719015293139"><ele>229.33333333333331</ele><time>2026-04-25T07:31:21Z</time></trkpt><trkpt lat="44.999486094261535" lon="8.45978493876563"><ele>234.0</ele><time>2026-04-25T07:31:22Z</time></trkpt><trkpt lat="44.99934352616786" lon="8.459835269835201"><ele>234.0</ele><time>2026-04-25T07:31:23Z</time></trkpt><trkpt lat="44.99920826323852" lon="8.459875577200496"><ele>234.0</ele><time>2026-04-25T07:31:24Z</time></trkpt><trkpt lat="44.99907946886346" lon="8.459909812661433"><ele>234.0</ele><time>2026-04-25T07:31:25Z</time></trkpt><trkpt lat="44.99895016033945" lon="8.459937627543535"><ele>234.0</ele><time>2026-04-25T07:31:26Z</time></trkpt><trkpt lat="44.99881611983491" lon="8.459985530560395"><ele>234.6</ele><time>2026-04-25T07:31:27Z</time></trkpt><trkpt lat="44.9986829014739" lon="8.460020824457278"><ele>235.2</ele><time>2026-04-25T07:31:28Z</time></trkpt><trkpt lat="44.9985794398622" lon="8.460046471500425"><ele>235.79999999999998</ele><time>2026-04-25T07:31:29Z</time></trkpt><trkpt lat="44.99849393183549" lon="8.460066381409897"><ele>236.39999999999998</ele><time>2026-04-25T07:31:30Z</time></trkpt><trkpt lat="44.998421716199246" lon="8.460090714535108"><ele>237.0</ele><time>2026-04-25T07:31:31Z</time></trkpt><trkpt lat="44.998330892371015" lon="8.4601087826554"><ele>238.39999999999998</ele><time>2026-04-25T07:31:32Z</time></trkpt><trkpt lat="44.998263187348606" lon="8.460113209826009"><ele>239.79999999999998</ele><time>2026-04-25T07:31:33Z</time></trkpt><trkpt lat="44.99820259599564" lon="8.460065578596065"><ele>241.2</ele><time>2026-04-25T07:31:34Z</time></trkpt><trkpt lat="44.99807494498561" lon="8.46003922510791"><ele>242.6</ele><time>2026-04-25T07:31:35Z</time></trkpt><trkpt lat="44.99797050031939" lon="8.459983347072196"><ele>244.0</ele><time>2026-04-25T07:31:36Z</time></trkpt><trkpt lat="44.99786310674838" lon="8.459972358196485"><ele>243.99999999999997</ele><time>2026-04-25T07:31:37Z</time></trkpt><trkpt lat="44.997769208972414" lon="8.459950815876363"><ele>244.0</ele><time>2026-04-25T07:31:38Z</time></trkpt><trkpt lat="44.99768640470226" lon="8.459872259366245"><ele>244.0</ele><time>2026-04-25T07:31:40Z</time></trkpt><trkpt lat="44.9976424315987" lon="8.459806660977067"><ele>244.0</ele><time>2026-04-25T07:31:41Z</time></trkpt><trkpt lat="44.99759422721913" lon="8.459707402927005"><ele>243.99999999999997</ele><time>2026-04-25T07:31:42Z</time></trkpt><trkpt lat="44.997560272200204" lon="8.459592471656931"><ele>244.0</ele><time>2026-04-25T07:31:43Z</time></trkpt><trkpt lat="44.99755757078342" lon="8.459471253558362"><ele>244.6</ele><time>2026-04-25T07:31:44Z</time></trkpt><trkpt lat="44.99752694905622" lon="8.459379280516606"><ele>245.2</ele><time>2026-04-25T07:31:45Z</time></trkpt><trkpt lat="44.99749877475315" lon="8.459230336443783"><ele>245.79999999999998</ele><time>2026-04-25T07:31:47Z</time></trkpt><trkpt lat="44.997417715101555" lon="8.459113111251005"><ele>246.39999999999998</ele><time>2026-04-25T07:31:51Z</time></trkpt><trkpt lat="44.99738528888591" lon="8.45901307249967"><ele>247.0</ele><time>2026-04-25T07:31:52Z</time></trkpt><trkpt lat="44.99732388330722" lon="8.45887777243779"><ele>246.0</ele><time>2026-04-25T07:31:53Z</time></trkpt><trkpt lat="44.99724098333282" lon="8.458736689108322"><ele>245.0</ele><time>2026-04-25T07:31:54Z</time></trkpt><trkpt lat="44.99712750254514" lon="8.45857350953951"><ele>244.0</ele><time>2026-04-25T07:31:55Z</time></trkpt><trkpt lat="44.99699909063655" lon="8.458414696818357"><ele>244.0</ele><time>2026-04-25T07:31:56Z</time></trkpt><trkpt lat="44.99690232766559" lon="8.458305876576928"><ele>243.99999999999997</ele><time>2026-04-25T07:31:57Z</time></trkpt><trkpt lat="44.99682725532362" lon="8.458228004832524"><ele>243.99999999999997</ele><time>2026-04-25T07:31:58Z</time></trkpt><trkpt lat="44.99675512451739" lon="8.4581509245112"><ele>244.0</ele><time>2026-04-25T07:31:59Z</time></trkpt><trkpt lat="44.996686211259366" lon="8.458066898318705"><ele>244.0</ele><time>2026-04-25T07:32:00Z</time></trkpt><trkpt lat="44.99661891319736" lon="8.457982654481869"><ele>247.2</ele><time>2026-04-25T07:32:01Z</time></trkpt><trkpt lat="44.996543770484344" lon="8.45791788503454"><ele>250.39999999999998</ele><time>2026-04-25T07:32:02Z</time></trkpt><trkpt lat="44.99648058315211" lon="8.457834574474132"><ele>253.6</ele><time>2026-04-25T07:32:03Z</time></trkpt><trkpt lat="44.99641424048146" lon="8.457737927457272"><ele>256.8</ele><time>2026-04-25T07:32:04Z</time></trkpt><trkpt lat="44.996347853310986" lon="8.457619966124716"><ele>260.0</ele><time>2026-04-25T07:32:05Z</time></trkpt><trkpt lat="44.99628665098012" lon="8.457529606239659"><ele>260.0</ele><time>2026-04-25T07:32:06Z</time></trkpt><trkpt lat="44.99623075901896" lon="8.457447086674156"><ele>260.0</ele><time>2026-04-25T07:32:07Z</time></trkpt><trkpt lat="44.99616799360876" lon="8.4573594102245"><ele>260.0</ele><time>2026-04-25T07:32:08Z</time></trkpt><trkpt lat="44.99608854311561" lon="8.45729576582603"><ele>260.0</ele><time>2026-04-25T07:32:09Z</time></trkpt><trkpt lat="44.996003743909434" lon="8.457207225838582"><ele>260.0</ele><time>2026-04-25T07:32:10Z</time></trkpt><trkpt lat="44.99590626572165" lon="8.45713980385272"><ele>258.2</ele><time>2026-04-25T07:32:11Z</time></trkpt><trkpt lat="44.99581096092033" lon="8.45708775496602"><ele>256.4</ele><time>2026-04-25T07:32:12Z</time></trkpt><trkpt lat="44.99573683540205" lon="8.457010936744746"><ele>254.60000000000002</ele><time>2026-04-25T07:32:13Z</time></trkpt><trkpt lat="44.99565579506813" lon="8.456974427995164"><ele>252.8</ele><time>2026-04-25T07:32:14Z</time></trkpt><trkpt lat="44.99557940916763" lon="8.45688923544822"><ele>251.0</ele><time>2026-04-25T07:32:15Z</time></trkpt><trkpt lat="44.995498580129464" lon="8.45687335544106"><ele>251.0</ele><time>2026-04-25T07:32:16Z</time></trkpt><trkpt lat="44.99540668732575" lon="8.456847205560837"><ele>251.00000000000003</ele><time>2026-04-25T07:32:17Z</time></trkpt><trkpt lat="44.995315468237806" lon="8.4568145514539"><ele>251.00000000000003</ele><time>2026-04-25T07:32:18Z</time></trkpt><trkpt lat="44.99522038748123" lon="8.456801352001781"><ele>251.0</ele><time>2026-04-25T07:32:19Z</time></trkpt><trkpt lat="44.99513534601124" lon="8.45678089032645"><ele>251.0</ele><time>2026-04-25T07:32:20Z</time></trkpt><trkpt lat="44.99505131108152" lon="8.45674392742019"><ele>249.60000000000002</ele><time>2026-04-25T07:32:21Z</time></trkpt><trkpt lat="44.99496405292147" lon="8.456712832674947"><ele>248.20000000000002</ele><time>2026-04-25T07:32:22Z</time></trkpt><trkpt lat="44.99488999044246" lon="8.45665235461501"><ele>246.79999999999998</ele><time>2026-04-25T07:32:23Z</time></trkpt><trkpt lat="44.99480100563837" lon="8.45661513517948"><ele>245.39999999999998</ele><time>2026-04-25T07:32:24Z</time></trkpt><trkpt lat="44.99469789548144" lon="8.456586606946408"><ele>244.0</ele><time>2026-04-25T07:32:25Z</time></trkpt><trkpt lat="44.99460767385633" lon="8.456626831760538"><ele>243.99999999999997</ele><time>2026-04-25T07:32:26Z</time></trkpt><trkpt lat="44.994517110701324" lon="8.456654636880844"><ele>244.0</ele><time>2026-04-25T07:32:27Z</time></trkpt><trkpt lat="44.994452795002026" lon="8.456697795359272"><ele>244.0</ele><time>2026-04-25T07:32:28Z</time></trkpt><trkpt lat="44.99437053484764" lon="8.456694679077849"><ele>244.0</ele><time>2026-04-25T07:32:29Z</time></trkpt><trkpt lat="44.99428338651699" lon="8.456709657350979"><ele>243.99999999999997</ele><time>2026-04-25T07:32:29.999Z</time></trkpt><trkpt lat="44.994183583053825" lon="8.45672681065263"><ele>244.0</ele><time>2026-04-25T07:32:30.999Z</time></trkpt><trkpt lat="44.99408675664266" lon="8.45674345229223"><ele>242.0</ele><time>2026-04-25T07:32:31.999Z</time></trkpt><trkpt lat="44.99398578868152" lon="8.45676080573964"><ele>239.99999999999997</ele><time>2026-04-25T07:32:32.999Z</time></trkpt><trkpt lat="44.99388512915033" lon="8.456767552663376"><ele>237.99999999999997</ele><time>2026-04-25T07:32:33.999Z</time></trkpt><trkpt lat="44.993796484711716" lon="8.456766162654215"><ele>236.0</ele><time>2026-04-25T07:32:34.999Z</time></trkpt><trkpt lat="44.99370972178625" lon="8.456765338516272"><ele>234.0</ele><time>2026-04-25T07:32:35.999Z</time></trkpt><trkpt lat="44.99363540086148" lon="8.456765338514758"><ele>234.0</ele><time>2026-04-25T07:32:36.999Z</time></trkpt><trkpt lat="44.99355901974924" lon="8.456765694874584"><ele>234.0</ele><time>2026-04-25T07:32:37.999Z</time></trkpt><trkpt lat="44.99349139288924" lon="8.456768112278183"><ele>234.0</ele><time>2026-04-25T07:32:38.999Z</time></trkpt><trkpt lat="44.99342091770955" lon="8.456770631498046"><ele>234.0</ele><time>2026-04-25T07:32:39.999Z</time></trkpt><trkpt lat="44.99335755865242" lon="8.456772896342535"><ele>234.0</ele><time>2026-04-25T07:32:40.999Z</time></trkpt><trkpt lat="44.99326165154957" lon="8.456763052997418"><ele>234.0</ele><time>2026-04-25T07:32:42.999Z</time></trkpt><trkpt lat="44.993180179480156" lon="8.456706738176672"><ele>234.0</ele><time>2026-04-25T07:32:45.999Z</time></trkpt><trkpt lat="44.99310474551531" lon="8.456614754998165"><ele>233.99999999999997</ele><time>2026-04-25T07:32:47.999Z</time></trkpt><trkpt lat="44.993089354271056" lon="8.45649493969248"><ele>233.99999999999997</ele><time>2026-04-25T07:32:50.999Z</time></trkpt><trkpt lat="44.993044925561094" lon="8.456392124458732"><ele>234.0</ele><time>2026-04-25T07:33:14.999Z</time></trkpt><trkpt lat="44.99295573999042" lon="8.456389896184083"><ele>234.0</ele><time>2026-04-25T07:33:17.999Z</time></trkpt><trkpt lat="44.99299248774959" lon="8.45656923354397"><ele>234.0</ele><time>2026-04-25T07:33:20.999Z</time></trkpt><trkpt lat="44.993051757091635" lon="8.456623028767986"><ele>234.0</ele><time>2026-04-25T07:33:21.999Z</time></trkpt><trkpt lat="44.99311115193321" lon="8.456671506384518"><ele>234.0</ele><time>2026-04-25T07:33:22.999Z</time></trkpt><trkpt lat="44.993172930304596" lon="8.456753387835779"><ele>234.0</ele><time>2026-04-25T07:33:25Z</time></trkpt><trkpt lat="44.99322877265443" lon="8.456818162988046"><ele>234.0</ele><time>2026-04-25T07:33:27Z</time></trkpt><trkpt lat="44.993199816381676" lon="8.457011410802899"><ele>234.0</ele><time>2026-04-25T07:33:29Z</time></trkpt><trkpt lat="44.99315059764116" lon="8.457101435900931"><ele>231.79999999999998</ele><time>2026-04-25T07:33:30Z</time></trkpt><trkpt lat="44.99310386690348" lon="8.457191794859442"><ele>229.59999999999997</ele><time>2026-04-25T07:33:31Z</time></trkpt><trkpt lat="44.993048996761544" lon="8.457290075172512"><ele>227.4</ele><time>2026-04-25T07:33:32Z</time></trkpt><trkpt lat="44.99297175419568" lon="8.457376434833806"><ele>225.2</ele><time>2026-04-25T07:33:33Z</time></trkpt><trkpt lat="44.99288924535768" lon="8.457428820638484"><ele>223.0</ele><time>2026-04-25T07:33:34Z</time></trkpt><trkpt lat="44.992799888815476" lon="8.457483365664093"><ele>223.0</ele><time>2026-04-25T07:33:35Z</time></trkpt><trkpt lat="44.992708117028585" lon="8.457521940288107"><ele>223.0</ele><time>2026-04-25T07:33:36Z</time></trkpt><trkpt lat="44.9925943548526" lon="8.457525708385418"><ele>223.0</ele><time>2026-04-25T07:33:37Z</time></trkpt><trkpt lat="44.99249278477965" lon="8.457529814568284"><ele>223.0</ele><time>2026-04-25T07:33:38Z</time></trkpt><trkpt lat="44.992400479120604" lon="8.45754943791864"><ele>223.0</ele><time>2026-04-25T07:33:39Z</time></trkpt><trkpt lat="44.992322074800775" lon="8.45756741267342"><ele>224.60000000000002</ele><time>2026-04-25T07:33:40Z</time></trkpt><trkpt lat="44.9922523863781" lon="8.457592774256897"><ele>226.20000000000002</ele><time>2026-04-25T07:33:41Z</time></trkpt><trkpt lat="44.99217205910126" lon="8.457631203095213"><ele>227.8</ele><time>2026-04-25T07:33:42Z</time></trkpt><trkpt lat="44.99208698034231" lon="8.457700843905535"><ele>229.4</ele><time>2026-04-25T07:33:43Z</time></trkpt><trkpt lat="44.9920085407054" lon="8.457786397427807"><ele>231.0</ele><time>2026-04-25T07:33:44Z</time></trkpt><trkpt lat="44.99193628692119" lon="8.457886260072828"><ele>228.8</ele><time>2026-04-25T07:33:45Z</time></trkpt><trkpt lat="44.991884729230954" lon="8.458016015499743"><ele>226.60000000000002</ele><time>2026-04-25T07:33:46Z</time></trkpt><trkpt lat="44.99184841014086" lon="8.458165871011703"><ele>224.4</ele><time>2026-04-25T07:33:47Z</time></trkpt><trkpt lat="44.99182434383815" lon="8.45832784136468"><ele>222.2</ele><time>2026-04-25T07:33:48Z</time></trkpt><trkpt lat="44.99182038308409" lon="8.458477467435916"><ele>220.0</ele><time>2026-04-25T07:33:49Z</time></trkpt><trkpt lat="44.991837169547495" lon="8.45860445847494"><ele>220.0</ele><time>2026-04-25T07:33:50Z</time></trkpt><trkpt lat="44.99185849797542" lon="8.45871470048372"><ele>220.0</ele><time>2026-04-25T07:33:51Z</time></trkpt><trkpt lat="44.991899367805125" lon="8.45883579201412"><ele>220.0</ele><time>2026-04-25T07:33:52Z</time></trkpt><trkpt lat="44.99196347989138" lon="8.458960351846066"><ele>220.0</ele><time>2026-04-25T07:33:53Z</time></trkpt><trkpt lat="44.992016745332336" lon="8.45906412141265"><ele>220.0</ele><time>2026-04-25T07:33:54Z</time></trkpt><trkpt lat="44.99204193104025" lon="8.45917752413013"><ele>218.4</ele><time>2026-04-25T07:33:55Z</time></trkpt><trkpt lat="44.99204172677272" lon="8.459304024717456"><ele>216.8</ele><time>2026-04-25T07:33:56Z</time></trkpt><trkpt lat="44.99201604615497" lon="8.459441427761666"><ele>215.2</ele><time>2026-04-25T07:33:57Z</time></trkpt><trkpt lat="44.991936089142214" lon="8.459576453393057"><ele>213.6</ele><time>2026-04-25T07:33:58Z</time></trkpt><trkpt lat="44.99184323703576" lon="8.459688866009738"><ele>212.0</ele><time>2026-04-25T07:33:59Z</time></trkpt><trkpt lat="44.99174492266451" lon="8.459796844341046"><ele>212.50000000000003</ele><time>2026-04-25T07:34:00Z</time></trkpt><trkpt lat="44.991659759635944" lon="8.459880052829696"><ele>213.0</ele><time>2026-04-25T07:34:01Z</time></trkpt><trkpt lat="44.99158317643676" lon="8.459963107264707"><ele>213.5</ele><time>2026-04-25T07:34:02Z</time></trkpt><trkpt lat="44.9915104237161" lon="8.460040516157088"><ele>214.0</ele><time>2026-04-25T07:34:03Z</time></trkpt><trkpt lat="44.99145144987614" lon="8.460110262760272"><ele>214.50000000000003</ele><time>2026-04-25T07:34:04Z</time></trkpt><trkpt lat="44.991406720108714" lon="8.46018786668602"><ele>215.0</ele><time>2026-04-25T07:34:05Z</time></trkpt><trkpt lat="44.991356276847185" lon="8.460262630543127"><ele>215.0</ele><time>2026-04-25T07:34:06Z</time></trkpt><trkpt lat="44.99132433824652" lon="8.460395627771451"><ele>215.0</ele><time>2026-04-25T07:34:07Z</time></trkpt><trkpt lat="44.9912807166099" lon="8.460553950048242"><ele>215.0</ele><time>2026-04-25T07:34:08Z</time></trkpt><trkpt lat="44.99127107318968" lon="8.460742603594822"><ele>215.0</ele><time>2026-04-25T07:34:09Z</time></trkpt><trkpt lat="44.991286669442374" lon="8.460935842808667"><ele>212.33333333333334</ele><time>2026-04-25T07:34:10Z</time></trkpt><trkpt lat="44.99136550535003" lon="8.46112116072286"><ele>209.66666666666669</ele><time>2026-04-25T07:34:11Z</time></trkpt><trkpt lat="44.99146271362393" lon="8.461296554804399"><ele>207.0</ele><time>2026-04-25T07:34:12Z</time></trkpt><trkpt lat="44.99154786537754" lon="8.461454150611136"><ele>206.5</ele><time>2026-04-25T07:34:13Z</time></trkpt><trkpt lat="44.99161462813578" lon="8.461605987728351"><ele>206.0</ele><time>2026-04-25T07:34:14Z</time></trkpt><trkpt lat="44.991654050165224" lon="8.46175523958438"><ele>205.5</ele><time>2026-04-25T07:34:15Z</time></trkpt><trkpt lat="44.9916461925886" lon="8.461909222467805"><ele>205.0</ele><time>2026-04-25T07:34:16Z</time></trkpt><trkpt lat="44.99160947236588" lon="8.462054725379293"><ele>201.75</ele><time>2026-04-25T07:34:17Z</time></trkpt><trkpt lat="44.99153899713993" lon="8.462160017678315"><ele>198.5</ele><time>2026-04-25T07:34:18Z</time></trkpt><trkpt lat="44.991458047327406" lon="8.462238831379656"><ele>195.25</ele><time>2026-04-25T07:34:19Z</time></trkpt><trkpt lat="44.99133329757862" lon="8.462243228833678"><ele>192.0</ele><time>2026-04-25T07:34:20Z</time></trkpt><trkpt lat="44.99118671049435" lon="8.462220027132958"><ele>192.0</ele><time>2026-04-25T07:34:21Z</time></trkpt><trkpt lat="44.99103681096723" lon="8.462210528292328"><ele>192.0</ele><time>2026-04-25T07:34:22Z</time></trkpt><trkpt lat="44.990881350918876" lon="8.46224168019532"><ele>192.0</ele><time>2026-04-25T07:34:23Z</time></trkpt><trkpt lat="44.990742924271274" lon="8.462335776097303"><ele>194.33333333333331</ele><time>2026-04-25T07:34:24Z</time></trkpt><trkpt lat="44.99058793580096" lon="8.462466959184692"><ele>196.66666666666666</ele><time>2026-04-25T07:34:25Z</time></trkpt><trkpt lat="44.99044459456306" lon="8.462591838431129"><ele>199.0</ele><time>2026-04-25T07:34:26Z</time></trkpt><trkpt lat="44.990309014874214" lon="8.46273327654318"><ele>199.0</ele><time>2026-04-25T07:34:27Z</time></trkpt><trkpt lat="44.99019477912071" lon="8.462840958697386"><ele>199.0</ele><time>2026-04-25T07:34:28Z</time></trkpt><trkpt lat="44.99008665700339" lon="8.462956157365575"><ele>199.0</ele><time>2026-04-25T07:34:29Z</time></trkpt><trkpt lat="44.98997685447673" lon="8.463068607588568"><ele>199.0</ele><time>2026-04-25T07:34:30Z</time></trkpt><trkpt lat="44.98986963932768" lon="8.463179666935513"><ele>197.33333333333331</ele><time>2026-04-25T07:34:31Z</time></trkpt><trkpt lat="44.989756476185434" lon="8.463306523488777"><ele>195.66666666666669</ele><time>2026-04-25T07:34:32Z</time></trkpt><trkpt lat="44.98962973218467" lon="8.463424186468673"><ele>194.0</ele><time>2026-04-25T07:34:33Z</time></trkpt><trkpt lat="44.98950108716022" lon="8.463552866842447"><ele>194.0</ele><time>2026-04-25T07:34:34Z</time></trkpt><trkpt lat="44.98938093698458" lon="8.463681276776768"><ele>194.0</ele><time>2026-04-25T07:34:35Z</time></trkpt><trkpt lat="44.98926698063992" lon="8.463792254072443"><ele>194.0</ele><time>2026-04-25T07:34:35.999Z</time></trkpt><trkpt lat="44.98914451366031" lon="8.463895370483433"><ele>194.0</ele><time>2026-04-25T07:34:36.999Z</time></trkpt><trkpt lat="44.989038116433825" lon="8.464000792092438"><ele>191.75</ele><time>2026-04-25T07:34:37.999Z</time></trkpt><trkpt lat="44.98893349310908" lon="8.464098357613194"><ele>189.5</ele><time>2026-04-25T07:34:38.999Z</time></trkpt><trkpt lat="44.98881749008964" lon="8.464179927634728"><ele>187.25</ele><time>2026-04-25T07:34:39.999Z</time></trkpt><trkpt lat="44.98869116200955" lon="8.46420875526962"><ele>185.0</ele><time>2026-04-25T07:34:40.999Z</time></trkpt><trkpt lat="44.98856039183723" lon="8.464193596958967"><ele>185.0</ele><time>2026-04-25T07:34:41.999Z</time></trkpt><trkpt lat="44.988426211239855" lon="8.464158537727009"><ele>185.0</ele><time>2026-04-25T07:34:42.999Z</time></trkpt><trkpt lat="44.98830806461403" lon="8.464158992707727"><ele>185.0</ele><time>2026-04-25T07:34:43.999Z</time></trkpt><trkpt lat="44.98819439264598" lon="8.464182879881225"><ele>185.0</ele><time>2026-04-25T07:34:44.999Z</time></trkpt><trkpt lat="44.98809339928969" lon="8.464247602159883"><ele>185.5</ele><time>2026-04-25T07:34:45.999Z</time></trkpt><trkpt lat="44.987999644566834" lon="8.464366220408886"><ele>186.0</ele><time>2026-04-25T07:34:46.999Z</time></trkpt><trkpt lat="44.98791936955126" lon="8.464523177440345"><ele>186.5</ele><time>2026-04-25T07:34:47.999Z</time></trkpt><trkpt lat="44.987854491634494" lon="8.464714766159833"><ele>187.0</ele><time>2026-04-25T07:34:48.999Z</time></trkpt><trkpt lat="44.98781947039493" lon="8.464924481491748"><ele>184.5</ele><time>2026-04-25T07:34:49.999Z</time></trkpt><trkpt lat="44.987796793228185" lon="8.465132438984313"><ele>182.0</ele><time>2026-04-25T07:34:50.999Z</time></trkpt><trkpt lat="44.987776507766796" lon="8.465318768085753"><ele>179.5</ele><time>2026-04-25T07:34:51.999Z</time></trkpt><trkpt lat="44.98772179631671" lon="8.465474721934227"><ele>177.0</ele><time>2026-04-25T07:34:52.999Z</time></trkpt><trkpt lat="44.9876803366934" lon="8.465635330922227"><ele>176.75</ele><time>2026-04-25T07:34:53.999Z</time></trkpt><trkpt lat="44.98761171852681" lon="8.465762618595132"><ele>176.5</ele><time>2026-04-25T07:34:54.999Z</time></trkpt><trkpt lat="44.987534154667664" lon="8.465889432422713"><ele>176.25</ele><time>2026-04-25T07:34:55.999Z</time></trkpt><trkpt lat="44.98744441119487" lon="8.466017411443197"><ele>176.0</ele><time>2026-04-25T07:34:56.999Z</time></trkpt><trkpt lat="44.98733517074782" lon="8.466113519804692"><ele>176.0</ele><time>2026-04-25T07:34:57.999Z</time></trkpt><trkpt lat="44.98722883024206" lon="8.466228821181701"><ele>176.0</ele><time>2026-04-25T07:34:58.999Z</time></trkpt><trkpt lat="44.987129185279855" lon="8.466333270377142"><ele>176.0</ele><time>2026-04-25T07:34:59.999Z</time></trkpt><trkpt lat="44.98704173771894" lon="8.466433813988592"><ele>176.0</ele><time>2026-04-25T07:35:00.999Z</time></trkpt><trkpt lat="44.98696912870819" lon="8.466547312852503"><ele>175.0</ele><time>2026-04-25T07:35:01.999Z</time></trkpt><trkpt lat="44.98690863643964" lon="8.466656332478685"><ele>174.0</ele><time>2026-04-25T07:35:02.999Z</time></trkpt><trkpt lat="44.986871703477156" lon="8.466824764949443"><ele>173.0</ele><time>2026-04-25T07:35:03.999Z</time></trkpt><trkpt lat="44.98686693577655" lon="8.467002460198408"><ele>172.0</ele><time>2026-04-25T07:35:04.999Z</time></trkpt><trkpt lat="44.986891490246734" lon="8.46718765430604"><ele>171.25</ele><time>2026-04-25T07:35:05.999Z</time></trkpt><trkpt lat="44.9869249082027" lon="8.467366459646781"><ele>170.5</ele><time>2026-04-25T07:35:06.999Z</time></trkpt><trkpt lat="44.986956159024906" lon="8.467543794276134"><ele>169.75</ele><time>2026-04-25T07:35:07.999Z</time></trkpt><trkpt lat="44.98698137403697" lon="8.467714918787333"><ele>169.0</ele><time>2026-04-25T07:35:08.999Z</time></trkpt><trkpt lat="44.9870111437945" lon="8.467883381887603"><ele>169.25</ele><time>2026-04-25T07:35:09.999Z</time></trkpt><trkpt lat="44.98703801526172" lon="8.468051532886497"><ele>169.5</ele><time>2026-04-25T07:35:10.999Z</time></trkpt><trkpt lat="44.987063403894766" lon="8.468210828203825"><ele>169.75</ele><time>2026-04-25T07:35:11.999Z</time></trkpt><trkpt lat="44.98708713007694" lon="8.46836468940327"><ele>170.0</ele><time>2026-04-25T07:35:12.999Z</time></trkpt><trkpt lat="44.987107762513176" lon="8.468515978693613"><ele>170.0</ele><time>2026-04-25T07:35:13.999Z</time></trkpt><trkpt lat="44.98712859738745" lon="8.46865251472279"><ele>170.0</ele><time>2026-04-25T07:35:14.999Z</time></trkpt><trkpt lat="44.98714947489479" lon="8.468794153351778"><ele>170.0</ele><time>2026-04-25T07:35:15.999Z</time></trkpt><trkpt lat="44.9871746976215" lon="8.46894556092839"><ele>170.0</ele><time>2026-04-25T07:35:16.999Z</time></trkpt><trkpt lat="44.98720658878389" lon="8.469126496578891"><ele>170.0</ele><time>2026-04-25T07:35:17.999Z</time></trkpt><trkpt lat="44.987234228213104" lon="8.4693067978234"><ele>170.0</ele><time>2026-04-25T07:35:18.999Z</time></trkpt><trkpt lat="44.98726049780472" lon="8.469495454860073"><ele>170.0</ele><time>2026-04-25T07:35:19.999Z</time></trkpt><trkpt lat="44.98729156956363" lon="8.469690385953808"><ele>170.0</ele><time>2026-04-25T07:35:20.999Z</time></trkpt><trkpt lat="44.987324957087516" lon="8.469886486260187"><ele>170.0</ele><time>2026-04-25T07:35:21.999Z</time></trkpt><trkpt lat="44.98735022020056" lon="8.470052250726914"><ele>170.5</ele><time>2026-04-25T07:35:22.999Z</time></trkpt><trkpt lat="44.987380800089376" lon="8.470240375046172"><ele>171.0</ele><time>2026-04-25T07:35:23.999Z</time></trkpt><trkpt lat="44.98740670317426" lon="8.470414917218633"><ele>171.5</ele><time>2026-04-25T07:35:24.999Z</time></trkpt><trkpt lat="44.98743531584407" lon="8.470594658063739"><ele>172.0</ele><time>2026-04-25T07:35:25.999Z</time></trkpt><trkpt lat="44.98746373361966" lon="8.47077840437679"><ele>172.5</ele><time>2026-04-25T07:35:26.999Z</time></trkpt><trkpt lat="44.987493894593925" lon="8.470969001095543"><ele>173.0</ele><time>2026-04-25T07:35:27.999Z</time></trkpt><trkpt lat="44.98752469028367" lon="8.471162383013759"><ele>173.5</ele><time>2026-04-25T07:35:29Z</time></trkpt><trkpt lat="44.987551634703635" lon="8.471343032530982"><ele>174.0</ele><time>2026-04-25T07:35:30Z</time></trkpt><trkpt lat="44.98758269333849" lon="8.47153705311498"><ele>175.75</ele><time>2026-04-25T07:35:31Z</time></trkpt><trkpt lat="44.987616702763326" lon="8.47172779426712"><ele>177.5</ele><time>2026-04-25T07:35:32Z</time></trkpt><trkpt lat="44.9876519653683" lon="8.47191680775595"><ele>179.25</ele><time>2026-04-25T07:35:33Z</time></trkpt><trkpt lat="44.98768007992781" lon="8.472109946302314"><ele>181.0</ele><time>2026-04-25T07:35:34Z</time></trkpt><trkpt lat="44.98771356322143" lon="8.472313394562635"><ele>181.0</ele><time>2026-04-25T07:35:35Z</time></trkpt><trkpt lat="44.98774353639158" lon="8.472523544895399"><ele>181.0</ele><time>2026-04-25T07:35:36Z</time></trkpt><trkpt lat="44.987773799669974" lon="8.47271143815764"><ele>181.0</ele><time>2026-04-25T07:35:37Z</time></trkpt><trkpt lat="44.987796167822104" lon="8.472890597543751"><ele>181.0</ele><time>2026-04-25T07:35:38Z</time></trkpt><trkpt lat="44.98783025775892" lon="8.4730552090757"><ele>178.75</ele><time>2026-04-25T07:35:39Z</time></trkpt><trkpt lat="44.98785604285419" lon="8.473220906307374"><ele>176.5</ele><time>2026-04-25T07:35:40Z</time></trkpt><trkpt lat="44.98787677098932" lon="8.473386268149754"><ele>174.25</ele><time>2026-04-25T07:35:41Z</time></trkpt><trkpt lat="44.98789747747688" lon="8.473535330487818"><ele>172.0</ele><time>2026-04-25T07:35:42Z</time></trkpt><trkpt lat="44.98792406736288" lon="8.473695843733186"><ele>171.5</ele><time>2026-04-25T07:35:43Z</time></trkpt><trkpt lat="44.98794875041902" lon="8.473859106443534"><ele>171.0</ele><time>2026-04-25T07:35:44Z</time></trkpt><trkpt lat="44.987978023195524" lon="8.474030706265985"><ele>170.5</ele><time>2026-04-25T07:35:45Z</time></trkpt><trkpt lat="44.988008984460535" lon="8.474199722216728"><ele>170.0</ele><time>2026-04-25T07:35:46Z</time></trkpt><trkpt lat="44.988039392498" lon="8.47438768259721"><ele>170.0</ele><time>2026-04-25T07:35:47Z</time></trkpt><trkpt lat="44.98806888403467" lon="8.474580588327632"><ele>170.0</ele><time>2026-04-25T07:35:48Z</time></trkpt><trkpt lat="44.98808924085419" lon="8.474772706910091"><ele>170.0</ele><time>2026-04-25T07:35:49Z</time></trkpt><trkpt lat="44.98811619132742" lon="8.474946683390696"><ele>170.0</ele><time>2026-04-25T07:35:50Z</time></trkpt><trkpt lat="44.98814923597804" lon="8.475127610663707"><ele>170.0</ele><time>2026-04-25T07:35:51Z</time></trkpt><trkpt lat="44.98818552998268" lon="8.475316077809012"><ele>170.0</ele><time>2026-04-25T07:35:51.999Z</time></trkpt><trkpt lat="44.98821914623808" lon="8.475511859006398"><ele>170.0</ele><time>2026-04-25T07:35:52.999Z</time></trkpt><trkpt lat="44.98824482407662" lon="8.475712231242847"><ele>170.0</ele><time>2026-04-25T07:35:53.999Z</time></trkpt><trkpt lat="44.98827197159253" lon="8.475888632714101"><ele>170.0</ele><time>2026-04-25T07:35:54.999Z</time></trkpt><trkpt lat="44.98829723221959" lon="8.47606900256084"><ele>170.0</ele><time>2026-04-25T07:35:55.999Z</time></trkpt><trkpt lat="44.9883287225439" lon="8.476247892277167"><ele>170.0</ele><time>2026-04-25T07:35:56.999Z</time></trkpt><trkpt lat="44.988358632903136" lon="8.476422747437425"><ele>170.0</ele><time>2026-04-25T07:35:57.999Z</time></trkpt><trkpt lat="44.98837953430746" lon="8.476576304068068"><ele>170.16666666666666</ele><time>2026-04-25T07:35:58.999Z</time></trkpt><trkpt lat="44.98840166638538" lon="8.476724323509737"><ele>170.33333333333331</ele><time>2026-04-25T07:35:59.999Z</time></trkpt><trkpt lat="44.98842680271876" lon="8.47685530945185"><ele>170.5</ele><time>2026-04-25T07:36:00.999Z</time></trkpt><trkpt lat="44.98844801981596" lon="8.476979032536986"><ele>170.66666666666666</ele><time>2026-04-25T07:36:01.999Z</time></trkpt><trkpt lat="44.988452484524004" lon="8.477082301063891"><ele>170.83333333333334</ele><time>2026-04-25T07:36:02.999Z</time></trkpt><trkpt lat="44.98846945337253" lon="8.47718371081123"><ele>171.0</ele><time>2026-04-25T07:36:03.999Z</time></trkpt><trkpt lat="44.98849051495899" lon="8.477305420989554"><ele>171.0</ele><time>2026-04-25T07:36:05.999Z</time></trkpt><trkpt lat="44.98850760621095" lon="8.4774026243057"><ele>171.0</ele><time>2026-04-25T07:36:08.999Z</time></trkpt><trkpt lat="44.98861052590577" lon="8.477454897519204"><ele>171.0</ele><time>2026-04-25T07:36:22.999Z</time></trkpt><trkpt lat="44.988676367768015" lon="8.477395150606299"><ele>171.0</ele><time>2026-04-25T07:36:23.999Z</time></trkpt><trkpt lat="44.98875558824755" lon="8.47735068744153"><ele>171.0</ele><time>2026-04-25T07:36:24.999Z</time></trkpt><trkpt lat="44.988845509915954" lon="8.47731069392555"><ele>171.0</ele><time>2026-04-25T07:36:25.999Z</time></trkpt><trkpt lat="44.98894680833505" lon="8.47726177162831"><ele>171.0</ele><time>2026-04-25T07:36:26.999Z</time></trkpt><trkpt lat="44.98905638841145" lon="8.477219155126148"><ele>171.0</ele><time>2026-04-25T07:36:27.999Z</time></trkpt><trkpt lat="44.98913418700162" lon="8.477206542519733"><ele>171.0</ele><time>2026-04-25T07:36:28.999Z</time></trkpt><trkpt lat="44.98920828378137" lon="8.477212553057013"><ele>171.0</ele><time>2026-04-25T07:36:29.999Z</time></trkpt><trkpt lat="44.98927677633093" lon="8.477217633488602"><ele>171.0</ele><time>2026-04-25T07:36:30.999Z</time></trkpt><trkpt lat="44.98937805392599" lon="8.477248354787614"><ele>171.0</ele><time>2026-04-25T07:36:32.999Z</time></trkpt><trkpt lat="44.98939324469235" lon="8.477014168515062"><ele>175.20000000000002</ele><time>2026-04-25T07:36:35.998Z</time></trkpt><trkpt lat="44.98945106906638" lon="8.476913569150044"><ele>179.4</ele><time>2026-04-25T07:36:37.998Z</time></trkpt><trkpt lat="44.98951553102401" lon="8.476856920252072"><ele>183.6</ele><time>2026-04-25T07:36:39.998Z</time></trkpt><trkpt lat="44.989599542748415" lon="8.476719616364948"><ele>187.8</ele><time>2026-04-25T07:36:41.998Z</time></trkpt><trkpt lat="44.98963925042431" lon="8.476637405518904"><ele>192.0</ele><time>2026-04-25T07:36:42.998Z</time></trkpt><trkpt lat="44.98971166027931" lon="8.476512584046537"><ele>192.0</ele><time>2026-04-25T07:36:44.998Z</time></trkpt><trkpt lat="44.98975672447253" lon="8.476443978380173"><ele>192.0</ele><time>2026-04-25T07:36:45.998Z</time></trkpt><trkpt lat="44.98980512010855" lon="8.476375364848366"><ele>192.0</ele><time>2026-04-25T07:36:46.998Z</time></trkpt><trkpt lat="44.9898535278054" lon="8.476308873379963"><ele>192.0</ele><time>2026-04-25T07:36:47.998Z</time></trkpt><trkpt lat="44.989925524190994" lon="8.476220124495581"><ele>192.0</ele><time>2026-04-25T07:36:49.998Z</time></trkpt><trkpt lat="44.98998697739868" lon="8.476109378522882"><ele>192.0</ele><time>2026-04-25T07:36:51.998Z</time></trkpt><trkpt lat="44.989998000125524" lon="8.475961619198493"><ele>193.66666666666666</ele><time>2026-04-25T07:36:53.998Z</time></trkpt><trkpt lat="44.98997514742574" lon="8.475874673409614"><ele>195.33333333333331</ele><time>2026-04-25T07:36:54.998Z</time></trkpt><trkpt lat="44.98992994434467" lon="8.47579172794921"><ele>197.0</ele><time>2026-04-25T07:36:55.998Z</time></trkpt><trkpt lat="44.989857641995705" lon="8.475675411617734"><ele>198.66666666666666</ele><time>2026-04-25T07:36:57.998Z</time></trkpt><trkpt lat="44.98983099091725" lon="8.475556236567067"><ele>200.33333333333331</ele><time>2026-04-25T07:36:59.998Z</time></trkpt><trkpt lat="44.98985353008479" lon="8.475427745177647"><ele>202.0</ele><time>2026-04-25T07:37:01.998Z</time></trkpt><trkpt lat="44.989889919541326" lon="8.47533209532614"><ele>202.33333333333331</ele><time>2026-04-25T07:37:02.998Z</time></trkpt><trkpt lat="44.989928420104114" lon="8.475257153586174"><ele>202.66666666666666</ele><time>2026-04-25T07:37:03.998Z</time></trkpt><trkpt lat="44.98996851021723" lon="8.475177872047047"><ele>203.0</ele><time>2026-04-25T07:37:04.998Z</time></trkpt><trkpt lat="44.99004449084478" lon="8.475066012757582"><ele>203.33333333333331</ele><time>2026-04-25T07:37:06.998Z</time></trkpt><trkpt lat="44.990131392875725" lon="8.475020923339253"><ele>203.66666666666666</ele><time>2026-04-25T07:37:08.998Z</time></trkpt><trkpt lat="44.99024161203692" lon="8.475038369407322"><ele>204.0</ele><time>2026-04-25T07:37:10.998Z</time></trkpt><trkpt lat="44.99034834157307" lon="8.475050746747291"><ele>206.33333333333334</ele><time>2026-04-25T07:37:12.998Z</time></trkpt><trkpt lat="44.99042728999048" lon="8.475029919580093"><ele>208.66666666666669</ele><time>2026-04-25T07:37:14.998Z</time></trkpt><trkpt lat="44.99052374418477" lon="8.47503776690713"><ele>211.0</ele><time>2026-04-25T07:37:25.998Z</time></trkpt><trkpt lat="44.99057413695256" lon="8.475113621871747"><ele>213.33333333333334</ele><time>2026-04-25T07:37:27.998Z</time></trkpt><trkpt lat="44.99061313571763" lon="8.475191683408008"><ele>215.66666666666669</ele><time>2026-04-25T07:37:28.998Z</time></trkpt><trkpt lat="44.990651471620524" lon="8.475284800365422"><ele>218.0</ele><time>2026-04-25T07:37:30.998Z</time></trkpt><trkpt lat="44.99073475636485" lon="8.475376803975701"><ele>218.00000000000003</ele><time>2026-04-25T07:37:32.998Z</time></trkpt><trkpt lat="44.99079555249405" lon="8.475414042336771"><ele>218.0</ele><time>2026-04-25T07:37:33.998Z</time></trkpt><trkpt lat="44.99090573384879" lon="8.475473018585173"><ele>218.0</ele><time>2026-04-25T07:37:35.999Z</time></trkpt><trkpt lat="44.990970232605605" lon="8.475498093994524"><ele>218.0</ele><time>2026-04-25T07:37:36.999Z</time></trkpt><trkpt lat="44.991034970846385" lon="8.475521640479512"><ele>218.00000000000003</ele><time>2026-04-25T07:37:37.999Z</time></trkpt><trkpt lat="44.991111492226956" lon="8.475552092196025"><ele>218.0</ele><time>2026-04-25T07:37:38.999Z</time></trkpt><trkpt lat="44.991196683183794" lon="8.47558246277737"><ele>221.00000000000003</ele><time>2026-04-25T07:37:39.999Z</time></trkpt><trkpt lat="44.99126397676272" lon="8.47561585601555"><ele>224.0</ele><time>2026-04-25T07:37:40.999Z</time></trkpt><trkpt lat="44.99135565108868" lon="8.47564190628456"><ele>227.0</ele><time>2026-04-25T07:37:42.999Z</time></trkpt><trkpt lat="44.99142703433631" lon="8.475666140866199"><ele>230.0</ele><time>2026-04-25T07:37:44.999Z</time></trkpt><trkpt lat="44.99150402587812" lon="8.475696074666011"><ele>233.00000000000003</ele><time>2026-04-25T07:37:48Z</time></trkpt><trkpt lat="44.99157870398768" lon="8.475725913231864"><ele>236.0</ele><time>2026-04-25T07:37:51Z</time></trkpt><trkpt lat="44.991534490886856" lon="8.475854209207917"><ele>236.00000000000003</ele><time>2026-04-25T07:37:54Z</time></trkpt><trkpt lat="44.991459518137106" lon="8.475861972848364"><ele>236.0</ele><time>2026-04-25T07:39:33.999Z</time></trkpt><trkpt lat="44.99142314542651" lon="8.475752392198093"><ele>236.0</ele><time>2026-04-25T07:39:36.998Z</time></trkpt><trkpt lat="44.99137599395111" lon="8.475664210584942"><ele>236.0</ele><time>2026-04-25T07:39:39.998Z</time></trkpt><trkpt lat="44.99130820690787" lon="8.47564036653496"><ele>236.00000000000003</ele><time>2026-04-25T07:39:42Z</time></trkpt><trkpt lat="44.99122478403356" lon="8.475628238596645"><ele>236.0</ele><time>2026-04-25T07:39:44Z</time></trkpt><trkpt lat="44.991129381384624" lon="8.47559684260907"><ele>236.00000000000003</ele><time>2026-04-25T07:39:47Z</time></trkpt><trkpt lat="44.99104750276455" lon="8.475563850076975"><ele>236.0</ele><time>2026-04-25T07:39:49Z</time></trkpt><trkpt lat="44.990962176318135" lon="8.475523418155328"><ele>236.0</ele><time>2026-04-25T07:39:52Z</time></trkpt><trkpt lat="44.9908861059225" lon="8.475494199294436"><ele>236.0</ele><time>2026-04-25T07:39:55Z</time></trkpt><trkpt lat="44.99080749641639" lon="8.47544676682539"><ele>236.00000000000003</ele><time>2026-04-25T07:39:58Z</time></trkpt><trkpt lat="44.99074649009882" lon="8.475392495454573"><ele>236.0</ele><time>2026-04-25T07:40:00Z</time></trkpt><trkpt lat="44.99068041031451" lon="8.475326821829597"><ele>232.4</ele><time>2026-04-25T07:40:02Z</time></trkpt><trkpt lat="44.990615638077976" lon="8.47526425357004"><ele>228.8</ele><time>2026-04-25T07:40:04Z</time></trkpt><trkpt lat="44.99055929633387" lon="8.475154290158647"><ele>225.20000000000002</ele><time>2026-04-25T07:40:07Z</time></trkpt><trkpt lat="44.99049592115571" lon="8.475061211986592"><ele>221.60000000000002</ele><time>2026-04-25T07:40:10Z</time></trkpt><trkpt lat="44.990393727426486" lon="8.47502376803432"><ele>218.0</ele><time>2026-04-25T07:40:12Z</time></trkpt><trkpt lat="44.99029529739929" lon="8.475072006664492"><ele>218.00000000000003</ele><time>2026-04-25T07:40:14Z</time></trkpt><trkpt lat="44.99020858576177" lon="8.475060576678315"><ele>218.0</ele><time>2026-04-25T07:40:16Z</time></trkpt><trkpt lat="44.990145043750914" lon="8.475057727762175"><ele>218.0</ele><time>2026-04-25T07:40:18Z</time></trkpt><trkpt lat="44.99005300359666" lon="8.475073283674702"><ele>218.0</ele><time>2026-04-25T07:40:21Z</time></trkpt><trkpt lat="44.989995588179454" lon="8.475150734232436"><ele>218.00000000000003</ele><time>2026-04-25T07:40:23Z</time></trkpt><trkpt lat="44.9899508718426" lon="8.47525292472556"><ele>218.0</ele><time>2026-04-25T07:40:25Z</time></trkpt><trkpt lat="44.989907425589" lon="8.47532556323131"><ele>216.0</ele><time>2026-04-25T07:40:27Z</time></trkpt><trkpt lat="44.98987042919042" lon="8.475433936844944"><ele>214.0</ele><time>2026-04-25T07:40:29Z</time></trkpt><trkpt lat="44.98984477406272" lon="8.475537539196736"><ele>212.0</ele><time>2026-04-25T07:40:31Z</time></trkpt><trkpt lat="44.98986423255063" lon="8.475645038469374"><ele>210.0</ele><time>2026-04-25T07:40:33Z</time></trkpt><trkpt lat="44.98990296372857" lon="8.475727413054468"><ele>208.0</ele><time>2026-04-25T07:40:35Z</time></trkpt><trkpt lat="44.98994433161371" lon="8.475803105609076"><ele>206.0</ele><time>2026-04-25T07:40:37Z</time></trkpt><trkpt lat="44.989980972729064" lon="8.475886077121174"><ele>204.0</ele><time>2026-04-25T07:40:39Z</time></trkpt><trkpt lat="44.989999441584615" lon="8.475974699575978"><ele>203.6</ele><time>2026-04-25T07:40:41Z</time></trkpt><trkpt lat="44.98999345506235" lon="8.476079879078624"><ele>203.2</ele><time>2026-04-25T07:40:44Z</time></trkpt><trkpt lat="44.98995780601769" lon="8.476231082648809"><ele>202.79999999999998</ele><time>2026-04-25T07:40:47Z</time></trkpt><trkpt lat="44.98990334019893" lon="8.476284874456455"><ele>202.39999999999998</ele><time>2026-04-25T07:40:48Z</time></trkpt><trkpt lat="44.9898218526844" lon="8.476376188659504"><ele>202.0</ele><time>2026-04-25T07:40:49.999Z</time></trkpt><trkpt lat="44.98975466237904" lon="8.476479043709976"><ele>199.5</ele><time>2026-04-25T07:40:51.999Z</time></trkpt><trkpt lat="44.98967703567294" lon="8.476591101568884"><ele>197.0</ele><time>2026-04-25T07:40:53.999Z</time></trkpt><trkpt lat="44.98961559031268" lon="8.476724431159981"><ele>194.5</ele><time>2026-04-25T07:40:55.999Z</time></trkpt><trkpt lat="44.98953551018188" lon="8.476849071681016"><ele>192.0</ele><time>2026-04-25T07:40:57.999Z</time></trkpt><trkpt lat="44.989450712917275" lon="8.476965323735236"><ele>192.0</ele><time>2026-04-25T07:40:59.999Z</time></trkpt><trkpt lat="44.98938213993" lon="8.477071716162115"><ele>192.0</ele><time>2026-04-25T07:41:01.999Z</time></trkpt><trkpt lat="44.989374175600304" lon="8.477172951562702"><ele>192.0</ele><time>2026-04-25T07:41:04.999Z</time></trkpt><trkpt lat="44.989317829067275" lon="8.477247197187658"><ele>192.0</ele><time>2026-04-25T07:41:11.999Z</time></trkpt><trkpt lat="44.98924245936848" lon="8.477238254252175"><ele>192.0</ele><time>2026-04-25T07:41:12.999Z</time></trkpt><trkpt lat="44.989163232334604" lon="8.477171339916042"><ele>192.0</ele><time>2026-04-25T07:41:13.999Z</time></trkpt><trkpt lat="44.98907510730255" lon="8.477187370373022"><ele>187.8</ele><time>2026-04-25T07:41:14.999Z</time></trkpt><trkpt lat="44.98897962873173" lon="8.477215311670875"><ele>183.6</ele><time>2026-04-25T07:41:15.999Z</time></trkpt><trkpt lat="44.98889110414982" lon="8.477261539954606"><ele>179.4</ele><time>2026-04-25T07:41:16.999Z</time></trkpt><trkpt lat="44.988806845796375" lon="8.477298687013786"><ele>175.20000000000002</ele><time>2026-04-25T07:41:17.999Z</time></trkpt><trkpt lat="44.98871677514891" lon="8.477343782572873"><ele>171.0</ele><time>2026-04-25T07:41:18.999Z</time></trkpt><trkpt lat="44.98864131426962" lon="8.47738149964"><ele>171.0</ele><time>2026-04-25T07:41:19.999Z</time></trkpt><trkpt lat="44.98857545174429" lon="8.477410725940967"><ele>171.0</ele><time>2026-04-25T07:41:20.999Z</time></trkpt><trkpt lat="44.98846696103041" lon="8.477458840029824"><ele>171.0</ele><time>2026-04-25T07:41:22.999Z</time></trkpt><trkpt lat="44.9883764841341" lon="8.477508521946467"><ele>171.0</ele><time>2026-04-25T07:41:24.999Z</time></trkpt><trkpt lat="44.9882972331445" lon="8.477547308366622"><ele>171.0</ele><time>2026-04-25T07:41:26.999Z</time></trkpt><trkpt lat="44.988224866949956" lon="8.477579263765536"><ele>171.0</ele><time>2026-04-25T07:41:29.999Z</time></trkpt><trkpt lat="44.98814712083768" lon="8.477621491003731"><ele>170.75</ele><time>2026-04-25T07:41:38.999Z</time></trkpt><trkpt lat="44.988174933539725" lon="8.477879961266382"><ele>170.5</ele><time>2026-04-25T07:41:40.999Z</time></trkpt><trkpt lat="44.988139222953514" lon="8.47802948184139"><ele>170.25</ele><time>2026-04-25T07:41:42.999Z</time></trkpt><trkpt lat="44.98813049335096" lon="8.478135283577148"><ele>170.0</ele><time>2026-04-25T07:41:43.999Z</time></trkpt><trkpt lat="44.988148322788604" lon="8.478289294121582"><ele>170.0</ele><time>2026-04-25T07:41:45.999Z</time></trkpt><trkpt lat="44.988178917810664" lon="8.47836728765495"><ele>170.0</ele><time>2026-04-25T07:41:47Z</time></trkpt><trkpt lat="44.988259637151025" lon="8.4785158901556"><ele>170.0</ele><time>2026-04-25T07:41:49Z</time></trkpt><trkpt lat="44.98829666943707" lon="8.478598913426177"><ele>170.0</ele><time>2026-04-25T07:41:50Z</time></trkpt><trkpt lat="44.98833216653649" lon="8.478677975447876"><ele>170.0</ele><time>2026-04-25T07:41:51Z</time></trkpt><trkpt lat="44.98838044603651" lon="8.478767642388172"><ele>170.0</ele><time>2026-04-25T07:41:52Z</time></trkpt><trkpt lat="44.988407108820105" lon="8.47887283038271"><ele>171.66666666666666</ele><time>2026-04-25T07:41:53Z</time></trkpt><trkpt lat="44.988447201690704" lon="8.47896630013346"><ele>173.33333333333331</ele><time>2026-04-25T07:41:54Z</time></trkpt><trkpt lat="44.98848830777001" lon="8.47905519477363"><ele>175.0</ele><time>2026-04-25T07:41:55Z</time></trkpt><trkpt lat="44.98851670250231" lon="8.47913860097709"><ele>176.66666666666666</ele><time>2026-04-25T07:41:56Z</time></trkpt><trkpt lat="44.988570530243564" lon="8.47928505924445"><ele>178.33333333333334</ele><time>2026-04-25T07:41:58Z</time></trkpt><trkpt lat="44.98859364230888" lon="8.479376819768229"><ele>180.0</ele><time>2026-04-25T07:41:59Z</time></trkpt><trkpt lat="44.988620384086715" lon="8.479489091183765"><ele>181.4</ele><time>2026-04-25T07:42:00Z</time></trkpt><trkpt lat="44.98865617528362" lon="8.479645031837464"><ele>182.8</ele><time>2026-04-25T07:42:02Z</time></trkpt><trkpt lat="44.98868529969083" lon="8.479732971142134"><ele>184.2</ele><time>2026-04-25T07:42:03Z</time></trkpt><trkpt lat="44.98874101071474" lon="8.479905386405749"><ele>185.6</ele><time>2026-04-25T07:42:05Z</time></trkpt><trkpt lat="44.98878522936764" lon="8.479991539867655"><ele>187.0</ele><time>2026-04-25T07:42:06Z</time></trkpt><trkpt lat="44.98884257970101" lon="8.480086170273008"><ele>187.0</ele><time>2026-04-25T07:42:07Z</time></trkpt><trkpt lat="44.988886122280796" lon="8.480179132233507"><ele>187.0</ele><time>2026-04-25T07:42:08Z</time></trkpt><trkpt lat="44.98897813887173" lon="8.480324392237142"><ele>187.0</ele><time>2026-04-25T07:42:10Z</time></trkpt><trkpt lat="44.989026458196165" lon="8.480398483996462"><ele>187.0</ele><time>2026-04-25T07:42:11Z</time></trkpt><trkpt lat="44.98908934831872" lon="8.480478005383343"><ele>187.0</ele><time>2026-04-25T07:42:12Z</time></trkpt><trkpt lat="44.98913515376324" lon="8.480542909828806"><ele>187.0</ele><time>2026-04-25T07:42:13Z</time></trkpt><trkpt lat="44.9891820360541" lon="8.48060790994894"><ele>188.7142857142857</ele><time>2026-04-25T07:42:14Z</time></trkpt><trkpt lat="44.98923620685286" lon="8.480670622765444"><ele>190.42857142857144</ele><time>2026-04-25T07:42:15Z</time></trkpt><trkpt lat="44.9892912897721" lon="8.480742829170973"><ele>192.14285714285714</ele><time>2026-04-25T07:42:16Z</time></trkpt><trkpt lat="44.98935256894633" lon="8.48082170893415"><ele>193.85714285714283</ele><time>2026-04-25T07:42:17Z</time></trkpt><trkpt lat="44.989410605926665" lon="8.48086541908627"><ele>195.57142857142856</ele><time>2026-04-25T07:42:18Z</time></trkpt><trkpt lat="44.98946790660428" lon="8.480923027721431"><ele>197.28571428571428</ele><time>2026-04-25T07:42:19Z</time></trkpt><trkpt lat="44.98952173793193" lon="8.481008756545664"><ele>199.0</ele><time>2026-04-25T07:42:20Z</time></trkpt><trkpt lat="44.989586472017976" lon="8.481072641044669"><ele>199.0</ele><time>2026-04-25T07:42:21Z</time></trkpt><trkpt lat="44.989676760685036" lon="8.481158820194949"><ele>199.0</ele><time>2026-04-25T07:42:23Z</time></trkpt><trkpt lat="44.98972543496506" lon="8.481217239932137"><ele>199.0</ele><time>2026-04-25T07:42:25Z</time></trkpt><trkpt lat="44.989846989666006" lon="8.481255664356844"><ele>199.0</ele><time>2026-04-25T07:42:28Z</time></trkpt><trkpt lat="44.9899398576348" lon="8.481257981179999"><ele>199.0</ele><time>2026-04-25T07:42:29Z</time></trkpt><trkpt lat="44.990030818895605" lon="8.48133438133608"><ele>200.25</ele><time>2026-04-25T07:42:30Z</time></trkpt><trkpt lat="44.99012583345707" lon="8.481415875110509"><ele>201.5</ele><time>2026-04-25T07:42:31Z</time></trkpt><trkpt lat="44.99022693430427" lon="8.481506185773958"><ele>202.75</ele><time>2026-04-25T07:42:32Z</time></trkpt><trkpt lat="44.99032910849304" lon="8.481600597603885"><ele>204.0</ele><time>2026-04-25T07:42:33Z</time></trkpt><trkpt lat="44.990441884263724" lon="8.48167581831501"><ele>204.0</ele><time>2026-04-25T07:42:34Z</time></trkpt><trkpt lat="44.99055467527079" lon="8.48178514002549"><ele>204.0</ele><time>2026-04-25T07:42:35Z</time></trkpt><trkpt lat="44.990673120960096" lon="8.481889062235341"><ele>204.0</ele><time>2026-04-25T07:42:36Z</time></trkpt><trkpt lat="44.99079608274107" lon="8.48200082468751"><ele>204.0</ele><time>2026-04-25T07:42:37Z</time></trkpt><trkpt lat="44.99093075338497" lon="8.48211802071351"><ele>205.66666666666669</ele><time>2026-04-25T07:42:38Z</time></trkpt><trkpt lat="44.99105944019075" lon="8.482232091344017"><ele>207.33333333333334</ele><time>2026-04-25T07:42:39Z</time></trkpt><trkpt lat="44.991184427224255" lon="8.482360441554928"><ele>209.0</ele><time>2026-04-25T07:42:40Z</time></trkpt><trkpt lat="44.99132449347563" lon="8.482466046898605"><ele>209.0</ele><time>2026-04-25T07:42:41Z</time></trkpt><trkpt lat="44.9914607007507" lon="8.48255742259543"><ele>209.0</ele><time>2026-04-25T07:42:42Z</time></trkpt><trkpt lat="44.99159706942984" lon="8.4826384577514"><ele>209.0</ele><time>2026-04-25T07:42:43Z</time></trkpt><trkpt lat="44.991745669493945" lon="8.482706130844987"><ele>210.0</ele><time>2026-04-25T07:42:44Z</time></trkpt><trkpt lat="44.99189007756478" lon="8.482796262279015"><ele>211.0</ele><time>2026-04-25T07:42:45Z</time></trkpt><trkpt lat="44.992014847203464" lon="8.482906925056332"><ele>212.0</ele><time>2026-04-25T07:42:46Z</time></trkpt><trkpt lat="44.99215155780702" lon="8.482986205756843"><ele>212.0</ele><time>2026-04-25T07:42:47Z</time></trkpt><trkpt lat="44.9922814595859" lon="8.4830784533643"><ele>212.0</ele><time>2026-04-25T07:42:48Z</time></trkpt><trkpt lat="44.99240937431772" lon="8.483159361928212"><ele>212.0</ele><time>2026-04-25T07:42:49Z</time></trkpt><trkpt lat="44.99252910665589" lon="8.483241166930352"><ele>212.0</ele><time>2026-04-25T07:42:50Z</time></trkpt><trkpt lat="44.99263502438004" lon="8.483323973202689"><ele>213.50000000000003</ele><time>2026-04-25T07:42:51Z</time></trkpt><trkpt lat="44.99271217947638" lon="8.483411875658689"><ele>215.0</ele><time>2026-04-25T07:42:52Z</time></trkpt><trkpt lat="44.992782010376715" lon="8.483485962192338"><ele>216.5</ele><time>2026-04-25T07:42:53Z</time></trkpt><trkpt lat="44.99284001777687" lon="8.483560102110982"><ele>218.0</ele><time>2026-04-25T07:42:53.999Z</time></trkpt><trkpt lat="44.99290139838858" lon="8.483623587128022"><ele>219.50000000000003</ele><time>2026-04-25T07:42:54.999Z</time></trkpt><trkpt lat="44.99295057291038" lon="8.483701722041529"><ele>221.0</ele><time>2026-04-25T07:42:55.999Z</time></trkpt><trkpt lat="44.993006286260076" lon="8.48377467100707"><ele>221.0</ele><time>2026-04-25T07:42:56.999Z</time></trkpt><trkpt lat="44.99308036049652" lon="8.483892304232613"><ele>221.00000000000003</ele><time>2026-04-25T07:42:57.999Z</time></trkpt><trkpt lat="44.99316145878691" lon="8.483981993158444"><ele>221.00000000000003</ele><time>2026-04-25T07:42:58.999Z</time></trkpt><trkpt lat="44.99323591681658" lon="8.484061034174179"><ele>221.0</ele><time>2026-04-25T07:42:59.999Z</time></trkpt><trkpt lat="44.99333268261405" lon="8.484123060530159"><ele>221.0</ele><time>2026-04-25T07:43:00.999Z</time></trkpt><trkpt lat="44.993451079865835" lon="8.48419574702409"><ele>223.60000000000002</ele><time>2026-04-25T07:43:01.999Z</time></trkpt><trkpt lat="44.99354883409719" lon="8.484256960610297"><ele>226.20000000000002</ele><time>2026-04-25T07:43:02.999Z</time></trkpt><trkpt lat="44.993655560746326" lon="8.484295735030244"><ele>228.79999999999998</ele><time>2026-04-25T07:43:03.999Z</time></trkpt><trkpt lat="44.993762068901084" lon="8.484330882938284"><ele>231.39999999999998</ele><time>2026-04-25T07:43:04.999Z</time></trkpt><trkpt lat="44.993862775133685" lon="8.484354125674669"><ele>234.0</ele><time>2026-04-25T07:43:05.999Z</time></trkpt><trkpt lat="44.993974250393244" lon="8.484386104349598"><ele>234.0</ele><time>2026-04-25T07:43:06.999Z</time></trkpt><trkpt lat="44.994097302536595" lon="8.484387840038204"><ele>234.0</ele><time>2026-04-25T07:43:07.999Z</time></trkpt><trkpt lat="44.994229614671596" lon="8.484396840504612"><ele>234.0</ele><time>2026-04-25T07:43:08.999Z</time></trkpt><trkpt lat="44.99436020271432" lon="8.484402654440501"><ele>234.0</ele><time>2026-04-25T07:43:09.999Z</time></trkpt><trkpt lat="44.99448002910813" lon="8.484395013632058"><ele>235.66666666666666</ele><time>2026-04-25T07:43:10.999Z</time></trkpt><trkpt lat="44.994561407264264" lon="8.484384138690368"><ele>237.33333333333331</ele><time>2026-04-25T07:43:11.999Z</time></trkpt><trkpt lat="44.99464970072756" lon="8.484406175918902"><ele>239.0</ele><time>2026-04-25T07:43:13.999Z</time></trkpt><trkpt lat="44.99472189595145" lon="8.484411104942"><ele>240.66666666666666</ele><time>2026-04-25T07:43:15.999Z</time></trkpt><trkpt lat="44.99478372916606" lon="8.484449020822742"><ele>242.33333333333331</ele><time>2026-04-25T07:43:17.999Z</time></trkpt><trkpt lat="44.994661499653965" lon="8.484466472534576"><ele>244.0</ele><time>2026-04-25T07:43:20.999Z</time></trkpt><trkpt lat="44.99458085765299" lon="8.484470194470516"><ele>243.99999999999997</ele><time>2026-04-25T07:43:21.999Z</time></trkpt><trkpt lat="44.99449118338928" lon="8.484476606422069"><ele>244.0</ele><time>2026-04-25T07:43:22.999Z</time></trkpt><trkpt lat="44.99439598629269" lon="8.48448521749202"><ele>244.0</ele><time>2026-04-25T07:43:23.999Z</time></trkpt><trkpt lat="44.994314270497966" lon="8.484492609109363"><ele>244.0</ele><time>2026-04-25T07:43:24.999Z</time></trkpt><trkpt lat="44.99423780663875" lon="8.48449952566251"><ele>243.99999999999997</ele><time>2026-04-25T07:43:25.999Z</time></trkpt><trkpt lat="44.99416846119017" lon="8.484505881932991"><ele>244.0</ele><time>2026-04-25T07:43:26.999Z</time></trkpt><trkpt lat="44.99409109954088" lon="8.484533582620212"><ele>242.33333333333331</ele><time>2026-04-25T07:43:27.999Z</time></trkpt><trkpt lat="44.994017819044515" lon="8.484540354855497"><ele>240.66666666666666</ele><time>2026-04-25T07:43:28.999Z</time></trkpt><trkpt lat="44.99395288721071" lon="8.484543691803417"><ele>239.0</ele><time>2026-04-25T07:43:29.999Z</time></trkpt><trkpt lat="44.99383103903641" lon="8.484546343795248"><ele>237.33333333333331</ele><time>2026-04-25T07:43:31.999Z</time></trkpt><trkpt lat="44.993766433267695" lon="8.484559951571244"><ele>235.66666666666666</ele><time>2026-04-25T07:43:32.999Z</time></trkpt><trkpt lat="44.99367260032297" lon="8.484589564887859"><ele>234.0</ele><time>2026-04-25T07:43:34.999Z</time></trkpt><trkpt lat="44.99378177047457" lon="8.48456998992214"><ele>234.0</ele><time>2026-04-25T07:43:58Z</time></trkpt><trkpt lat="44.993884426257964" lon="8.484537045224949"><ele>234.00000000000003</ele><time>2026-04-25T07:44:00Z</time></trkpt><trkpt lat="44.99395433210326" lon="8.484524869631784"><ele>234.0</ele><time>2026-04-25T07:44:01Z</time></trkpt><trkpt lat="44.9940216061214" lon="8.484518103894189"><ele>234.0</ele><time>2026-04-25T07:44:02Z</time></trkpt><trkpt lat="44.99408893607888" lon="8.484509192534794"><ele>234.00000000000003</ele><time>2026-04-25T07:44:03Z</time></trkpt><trkpt lat="44.99415214014985" lon="8.484507399128729"><ele>234.0</ele><time>2026-04-25T07:44:04Z</time></trkpt><trkpt lat="44.99421802692168" lon="8.484501273755875"><ele>234.0</ele><time>2026-04-25T07:44:06Z</time></trkpt><trkpt lat="44.99407556208381" lon="8.484514518723989"><ele>234.0</ele><time>2026-04-25T07:44:26Z</time></trkpt><trkpt lat="44.99399078371893" lon="8.48452218350384"><ele>234.0</ele><time>2026-04-25T07:44:28Z</time></trkpt><trkpt lat="44.993885991466094" lon="8.484536772724766"><ele>234.0</ele><time>2026-04-25T07:44:30Z</time></trkpt><trkpt lat="44.99377352397062" lon="8.484556653185628"><ele>234.0</ele><time>2026-04-25T07:44:32Z</time></trkpt><trkpt lat="44.99370680718379" lon="8.484575003273193"><ele>234.0</ele><time>2026-04-25T07:44:33Z</time></trkpt><trkpt lat="44.99364396340506" lon="8.484596495819588"><ele>234.0</ele><time>2026-04-25T07:44:34Z</time></trkpt><trkpt lat="44.99357892788826" lon="8.484623628138838"><ele>233.79999999999998</ele><time>2026-04-25T07:44:35Z</time></trkpt><trkpt lat="44.99346726637206" lon="8.484672892375428"><ele>233.59999999999997</ele><time>2026-04-25T07:44:37Z</time></trkpt><trkpt lat="44.99340714891834" lon="8.48470061959018"><ele>233.4</ele><time>2026-04-25T07:44:38Z</time></trkpt><trkpt lat="44.99329531349686" lon="8.484752199998336"><ele>233.2</ele><time>2026-04-25T07:44:40Z</time></trkpt><trkpt lat="44.993196398009104" lon="8.484795630296182"><ele>233.0</ele><time>2026-04-25T07:44:42Z</time></trkpt><trkpt lat="44.993131027720906" lon="8.484823074354088"><ele>233.0</ele><time>2026-04-25T07:44:45Z</time></trkpt><trkpt lat="44.99323953342429" lon="8.485276296367168"><ele>233.0</ele><time>2026-04-25T07:44:56.999Z</time></trkpt><trkpt lat="44.99322547576003" lon="8.48507172202088"><ele>233.0</ele><time>2026-04-25T07:45:18.999Z</time></trkpt><trkpt lat="44.9932852062557" lon="8.484830913298627"><ele>233.0</ele><time>2026-04-25T07:45:20.999Z</time></trkpt><trkpt lat="44.99340545123015" lon="8.484775454287151"><ele>233.0</ele><time>2026-04-25T07:45:22.999Z</time></trkpt><trkpt lat="44.99352920632463" lon="8.484719342766954"><ele>233.0</ele><time>2026-04-25T07:45:24.999Z</time></trkpt><trkpt lat="44.99359984597366" lon="8.484688143117122"><ele>233.16666666666669</ele><time>2026-04-25T07:45:25.999Z</time></trkpt><trkpt lat="44.993663208876484" lon="8.484661887587691"><ele>233.33333333333334</ele><time>2026-04-25T07:45:26.999Z</time></trkpt><trkpt lat="44.99374531323695" lon="8.484636852120204"><ele>233.5</ele><time>2026-04-25T07:45:28.999Z</time></trkpt><trkpt lat="44.993811594151055" lon="8.484621262711812"><ele>233.66666666666669</ele><time>2026-04-25T07:45:31.999Z</time></trkpt><trkpt lat="44.99394103103415" lon="8.484598100396846"><ele>233.83333333333334</ele><time>2026-04-25T07:45:47.999Z</time></trkpt><trkpt lat="44.99402001161011" lon="8.48459021478501"><ele>234.0</ele><time>2026-04-25T07:45:49.999Z</time></trkpt><trkpt lat="44.99409740068052" lon="8.484583019975272"><ele>234.0</ele><time>2026-04-25T07:45:51.999Z</time></trkpt><trkpt lat="44.99416096870846" lon="8.484577110077666"><ele>233.99999999999997</ele><time>2026-04-25T07:45:53.999Z</time></trkpt><trkpt lat="44.99423069542882" lon="8.484586407168845"><ele>233.99999999999997</ele><time>2026-04-25T07:45:57Z</time></trkpt><trkpt lat="44.994104098692695" lon="8.484557620767594"><ele>234.0</ele><time>2026-04-25T07:46:05Z</time></trkpt><trkpt lat="44.9940407370146" lon="8.484334689903621"><ele>234.0</ele><time>2026-04-25T07:46:06Z</time></trkpt><trkpt lat="44.99397364795645" lon="8.484362012585786"><ele>234.0</ele><time>2026-04-25T07:46:07Z</time></trkpt><trkpt lat="44.99386112546635" lon="8.484327776304962"><ele>233.99999999999997</ele><time>2026-04-25T07:46:08Z</time></trkpt><trkpt lat="44.99375453469596" lon="8.484301210523661"><ele>233.99999999999997</ele><time>2026-04-25T07:46:09Z</time></trkpt><trkpt lat="44.9936780958791" lon="8.484273880197497"><ele>234.0</ele><time>2026-04-25T07:46:10Z</time></trkpt><trkpt lat="44.993578299281374" lon="8.48424950994213"><ele>234.0</ele><time>2026-04-25T07:46:11Z</time></trkpt><trkpt lat="44.99350943036657" lon="8.484224944675523"><ele>234.0</ele><time>2026-04-25T07:46:12Z</time></trkpt><trkpt lat="44.99338380792574" lon="8.484196094302106"><ele>234.0</ele><time>2026-04-25T07:46:14Z</time></trkpt><trkpt lat="44.99308810953883" lon="8.484882599147253"><ele>233.79999999999998</ele><time>2026-04-25T07:46:15Z</time></trkpt><trkpt lat="44.992986167302746" lon="8.484931255727396"><ele>233.59999999999997</ele><time>2026-04-25T07:46:16Z</time></trkpt><trkpt lat="44.992889971685976" lon="8.484974873769199"><ele>233.4</ele><time>2026-04-25T07:46:17Z</time></trkpt><trkpt lat="44.992813651339" lon="8.485009953663472"><ele>233.2</ele><time>2026-04-25T07:46:18Z</time></trkpt><trkpt lat="44.99272626195282" lon="8.485056271112528"><ele>233.0</ele><time>2026-04-25T07:46:19Z</time></trkpt><trkpt lat="44.992639128443585" lon="8.48510124360748"><ele>233.0</ele><time>2026-04-25T07:46:20Z</time></trkpt><trkpt lat="44.99254333340441" lon="8.485154892254286"><ele>233.0</ele><time>2026-04-25T07:46:21Z</time></trkpt><trkpt lat="44.99246027840731" lon="8.485211846928737"><ele>233.0</ele><time>2026-04-25T07:46:22Z</time></trkpt><trkpt lat="44.99238198538225" lon="8.485280181179007"><ele>233.0</ele><time>2026-04-25T07:46:23Z</time></trkpt><trkpt lat="44.99229421272107" lon="8.485386114026111"><ele>233.0</ele><time>2026-04-25T07:46:24Z</time></trkpt><trkpt lat="44.99221057208034" lon="8.485511408878029"><ele>232.0</ele><time>2026-04-25T07:46:25Z</time></trkpt><trkpt lat="44.99212987994933" lon="8.48567722732195"><ele>231.0</ele><time>2026-04-25T07:46:26Z</time></trkpt><trkpt lat="44.99203442764826" lon="8.485779509258704"><ele>230.0</ele><time>2026-04-25T07:46:27Z</time></trkpt><trkpt lat="44.991959222621205" lon="8.485892395620667"><ele>229.0</ele><time>2026-04-25T07:46:28Z</time></trkpt><trkpt lat="44.9919065117063" lon="8.485997686111917"><ele>229.0</ele><time>2026-04-25T07:46:29Z</time></trkpt><trkpt lat="44.991847285189145" lon="8.48609091758972"><ele>228.99999999999997</ele><time>2026-04-25T07:46:30Z</time></trkpt><trkpt lat="44.991816131288466" lon="8.486209163539776"><ele>228.99999999999997</ele><time>2026-04-25T07:46:31Z</time></trkpt><trkpt lat="44.99177446944708" lon="8.486377675531859"><ele>229.0</ele><time>2026-04-25T07:46:32Z</time></trkpt><trkpt lat="44.99172739132551" lon="8.486546811139792"><ele>229.0</ele><time>2026-04-25T07:46:33Z</time></trkpt><trkpt lat="44.99164964727953" lon="8.486712571778687"><ele>225.0</ele><time>2026-04-25T07:46:34Z</time></trkpt><trkpt lat="44.99154090170836" lon="8.48691414505406"><ele>221.0</ele><time>2026-04-25T07:46:35Z</time></trkpt><trkpt lat="44.99142429564603" lon="8.487147992553597"><ele>217.0</ele><time>2026-04-25T07:46:36Z</time></trkpt><trkpt lat="44.99131393617104" lon="8.487372272230969"><ele>216.66666666666666</ele><time>2026-04-25T07:46:37Z</time></trkpt><trkpt lat="44.991223008648895" lon="8.48756428788542"><ele>216.33333333333331</ele><time>2026-04-25T07:46:38Z</time></trkpt><trkpt lat="44.99112981603484" lon="8.487759177361868"><ele>216.0</ele><time>2026-04-25T07:46:39Z</time></trkpt><trkpt lat="44.991064884538744" lon="8.487941295721539"><ele>215.33333333333331</ele><time>2026-04-25T07:46:40Z</time></trkpt><trkpt lat="44.9909869666558" lon="8.488144910312316"><ele>214.66666666666666</ele><time>2026-04-25T07:46:41Z</time></trkpt><trkpt lat="44.99092296105055" lon="8.488370389657778"><ele>214.0</ele><time>2026-04-25T07:46:42Z</time></trkpt><trkpt lat="44.99087470622795" lon="8.4886414556773"><ele>211.0</ele><time>2026-04-25T07:46:43Z</time></trkpt><trkpt lat="44.99083607611136" lon="8.488934939551283"><ele>208.0</ele><time>2026-04-25T07:46:44Z</time></trkpt><trkpt lat="44.99075970678696" lon="8.489174198525944"><ele>205.0</ele><time>2026-04-25T07:46:45Z</time></trkpt><trkpt lat="44.99067172378621" lon="8.489458384717128"><ele>205.0</ele><time>2026-04-25T07:46:46Z</time></trkpt><trkpt lat="44.990610648753616" lon="8.489701378727997"><ele>205.0</ele><time>2026-04-25T07:46:47Z</time></trkpt><trkpt lat="44.99053075057661" lon="8.489898176133023"><ele>205.0</ele><time>2026-04-25T07:46:48Z</time></trkpt><trkpt lat="44.990484627071204" lon="8.490090442169853"><ele>205.0</ele><time>2026-04-25T07:46:49Z</time></trkpt><trkpt lat="44.99040602430365" lon="8.49025676144705"><ele>205.0</ele><time>2026-04-25T07:46:50Z</time></trkpt><trkpt lat="44.99033083542163" lon="8.490446500690428"><ele>205.0</ele><time>2026-04-25T07:46:51Z</time></trkpt><trkpt lat="44.99024713206082" lon="8.490620012162427"><ele>205.0</ele><time>2026-04-25T07:46:52Z</time></trkpt><trkpt lat="44.99016600317353" lon="8.49076376502222"><ele>204.6</ele><time>2026-04-25T07:46:53Z</time></trkpt><trkpt lat="44.990091499604226" lon="8.490874477676345"><ele>204.2</ele><time>2026-04-25T07:46:54Z</time></trkpt><trkpt lat="44.990030097972706" lon="8.490961954066513"><ele>203.8</ele><time>2026-04-25T07:46:55Z</time></trkpt><trkpt lat="44.98998282063377" lon="8.491025119672464"><ele>203.4</ele><time>2026-04-25T07:46:56Z</time></trkpt><trkpt lat="44.98991502543848" lon="8.491115699413038"><ele>203.0</ele><time>2026-04-25T07:46:58Z</time></trkpt><trkpt lat="44.98997548792551" lon="8.491296663977062"><ele>202.0</ele><time>2026-04-25T07:46:59Z</time></trkpt><trkpt lat="44.98999497867486" lon="8.491443691155697"><ele>201.0</ele><time>2026-04-25T07:47:00Z</time></trkpt><trkpt lat="44.98997914146077" lon="8.491581420004188"><ele>200.0</ele><time>2026-04-25T07:47:01Z</time></trkpt><trkpt lat="44.98999207184009" lon="8.491730762240413"><ele>199.0</ele><time>2026-04-25T07:47:02Z</time></trkpt><trkpt lat="44.98997348814597" lon="8.491860103217242"><ele>198.0</ele><time>2026-04-25T07:47:03Z</time></trkpt><trkpt lat="44.98997057196841" lon="8.491998851764244"><ele>196.2</ele><time>2026-04-25T07:47:03.999Z</time></trkpt><trkpt lat="44.98998170960535" lon="8.49215282431676"><ele>194.4</ele><time>2026-04-25T07:47:04.999Z</time></trkpt><trkpt lat="44.989975241291766" lon="8.49229331453176"><ele>192.6</ele><time>2026-04-25T07:47:05.999Z</time></trkpt><trkpt lat="44.98997065901013" lon="8.492432505182004"><ele>190.79999999999998</ele><time>2026-04-25T07:47:06.999Z</time></trkpt><trkpt lat="44.98996376698394" lon="8.49257673928603"><ele>189.0</ele><time>2026-04-25T07:47:07.999Z</time></trkpt><trkpt lat="44.98995903764267" lon="8.492720035229006"><ele>189.0</ele><time>2026-04-25T07:47:08.999Z</time></trkpt><trkpt lat="44.98995727647139" lon="8.49284871469352"><ele>189.0</ele><time>2026-04-25T07:47:09.999Z</time></trkpt><trkpt lat="44.98994916131371" lon="8.492982219247708"><ele>189.0</ele><time>2026-04-25T07:47:10.999Z</time></trkpt><trkpt lat="44.989943747004965" lon="8.4930981353323"><ele>189.0</ele><time>2026-04-25T07:47:11.999Z</time></trkpt><trkpt lat="44.989939074829294" lon="8.493224513952486"><ele>189.0</ele><time>2026-04-25T07:47:12.999Z</time></trkpt><trkpt lat="44.98993869360473" lon="8.493333052453266"><ele>189.0</ele><time>2026-04-25T07:47:13.999Z</time></trkpt><trkpt lat="44.989934515524276" lon="8.493432376050125"><ele>188.0</ele><time>2026-04-25T07:47:14.999Z</time></trkpt><trkpt lat="44.98992811905378" lon="8.493581419257865"><ele>187.0</ele><time>2026-04-25T07:47:16.999Z</time></trkpt><trkpt lat="44.989920070004345" lon="8.493738164815785"><ele>186.0</ele><time>2026-04-25T07:47:18.999Z</time></trkpt><trkpt lat="44.98992169634401" lon="8.493913955871937"><ele>185.0</ele><time>2026-04-25T07:47:20.999Z</time></trkpt><trkpt lat="44.98991638293296" lon="8.494025229324219"><ele>184.0</ele><time>2026-04-25T07:47:21.999Z</time></trkpt><trkpt lat="44.98990077559009" lon="8.49414632960474"><ele>183.2</ele><time>2026-04-25T07:47:22.999Z</time></trkpt><trkpt lat="44.9899147414151" lon="8.494283027644345"><ele>182.39999999999998</ele><time>2026-04-25T07:47:23.999Z</time></trkpt><trkpt lat="44.989913474126915" lon="8.49441307153455"><ele>181.6</ele><time>2026-04-25T07:47:24.999Z</time></trkpt><trkpt lat="44.989913206607106" lon="8.494563791076228"><ele>180.8</ele><time>2026-04-25T07:47:25.999Z</time></trkpt><trkpt lat="44.989917001536405" lon="8.494702484986583"><ele>180.0</ele><time>2026-04-25T07:47:26.999Z</time></trkpt><trkpt lat="44.989922734379626" lon="8.494833828017388"><ele>179.4</ele><time>2026-04-25T07:47:27.999Z</time></trkpt><trkpt lat="44.98991690586413" lon="8.494942491694701"><ele>178.8</ele><time>2026-04-25T07:47:28.999Z</time></trkpt><trkpt lat="44.98989839396699" lon="8.495044872524412"><ele>178.2</ele><time>2026-04-25T07:47:29.999Z</time></trkpt><trkpt lat="44.98988531128217" lon="8.495141631193471"><ele>177.6</ele><time>2026-04-25T07:47:30.999Z</time></trkpt><trkpt lat="44.98983780607471" lon="8.495310393751668"><ele>177.0</ele><time>2026-04-25T07:47:31.999Z</time></trkpt><trkpt lat="44.98981906892328" lon="8.495455368791873"><ele>176.2</ele><time>2026-04-25T07:47:32.999Z</time></trkpt><trkpt lat="44.98982658368107" lon="8.495582797723783"><ele>175.39999999999998</ele><time>2026-04-25T07:47:33.999Z</time></trkpt><trkpt lat="44.98983003875831" lon="8.49571361404468"><ele>174.60000000000002</ele><time>2026-04-25T07:47:34.999Z</time></trkpt><trkpt lat="44.98985570166636" lon="8.495835759629099"><ele>173.8</ele><time>2026-04-25T07:47:35.999Z</time></trkpt><trkpt lat="44.989886267616605" lon="8.495981642582214"><ele>173.0</ele><time>2026-04-25T07:47:36.999Z</time></trkpt><trkpt lat="44.98991167251786" lon="8.496095950675864"><ele>173.0</ele><time>2026-04-25T07:47:37.999Z</time></trkpt><trkpt lat="44.98994339349072" lon="8.496199709506001"><ele>173.0</ele><time>2026-04-25T07:47:38.999Z</time></trkpt><trkpt lat="44.98997992913769" lon="8.496293674874869"><ele>173.0</ele><time>2026-04-25T07:47:39.999Z</time></trkpt><trkpt lat="44.9900011978398" lon="8.496391307462577"><ele>173.0</ele><time>2026-04-25T07:47:40.999Z</time></trkpt><trkpt lat="44.99004384852045" lon="8.49648503202596"><ele>173.0</ele><time>2026-04-25T07:47:41.999Z</time></trkpt><trkpt lat="44.99009016360813" lon="8.496569281165508"><ele>173.0</ele><time>2026-04-25T07:47:42.999Z</time></trkpt><trkpt lat="44.99015075658239" lon="8.496632015053182"><ele>171.42857142857142</ele><time>2026-04-25T07:47:43.999Z</time></trkpt><trkpt lat="44.99019856069345" lon="8.49670805098142"><ele>169.85714285714286</ele><time>2026-04-25T07:47:44.999Z</time></trkpt><trkpt lat="44.990250323695186" lon="8.496783584473508"><ele>168.28571428571428</ele><time>2026-04-25T07:47:45.999Z</time></trkpt><trkpt lat="44.990303199409816" lon="8.496855953662077"><ele>166.71428571428572</ele><time>2026-04-25T07:47:46.999Z</time></trkpt><trkpt lat="44.99035880897269" lon="8.4969277511195"><ele>165.14285714285714</ele><time>2026-04-25T07:47:47.999Z</time></trkpt><trkpt lat="44.99041247771346" lon="8.49699620339892"><ele>163.57142857142858</ele><time>2026-04-25T07:47:48.999Z</time></trkpt><trkpt lat="44.990465647444594" lon="8.497066257007173"><ele>162.0</ele><time>2026-04-25T07:47:49.999Z</time></trkpt><trkpt lat="44.990517480240506" lon="8.497134702170115"><ele>162.0</ele><time>2026-04-25T07:47:50.999Z</time></trkpt><trkpt lat="44.990590992087114" lon="8.49725677661515"><ele>162.0</ele><time>2026-04-25T07:47:52.999Z</time></trkpt><trkpt lat="44.990672317420916" lon="8.497320634661136"><ele>162.0</ele><time>2026-04-25T07:47:54.999Z</time></trkpt><trkpt lat="44.99077949286109" lon="8.49716852224979"><ele>162.0</ele><time>2026-04-25T07:47:58.999Z</time></trkpt><trkpt lat="44.99079537448471" lon="8.497015480376723"><ele>162.0</ele><time>2026-04-25T07:47:59.999Z</time></trkpt><trkpt lat="44.99084599031656" lon="8.496843040206596"><ele>162.0</ele><time>2026-04-25T07:48:00.999Z</time></trkpt><trkpt lat="44.990923876660794" lon="8.496693185469216"><ele>162.0</ele><time>2026-04-25T07:48:01.999Z</time></trkpt><trkpt lat="44.99103313510579" lon="8.496576467815101"><ele>162.0</ele><time>2026-04-25T07:48:03Z</time></trkpt><trkpt lat="44.9911834729641" lon="8.496463044615068"><ele>162.0</ele><time>2026-04-25T07:48:04Z</time></trkpt><trkpt lat="44.99135999149217" lon="8.496347528229935"><ele>162.0</ele><time>2026-04-25T07:48:05Z</time></trkpt><trkpt lat="44.991582749976416" lon="8.496200643037067"><ele>162.0</ele><time>2026-04-25T07:48:06Z</time></trkpt><trkpt lat="44.991791118449434" lon="8.496055929164477"><ele>163.66666666666666</ele><time>2026-04-25T07:48:07Z</time></trkpt><trkpt lat="44.9919308768005" lon="8.495974648998786"><ele>165.33333333333331</ele><time>2026-04-25T07:48:08Z</time></trkpt><trkpt lat="44.99208172683644" lon="8.495884614824957"><ele>167.0</ele><time>2026-04-25T07:48:09Z</time></trkpt><trkpt lat="44.99224003822009" lon="8.495785056276567"><ele>167.0</ele><time>2026-04-25T07:48:10Z</time></trkpt><trkpt lat="44.99240630260697" lon="8.495669381543498"><ele>167.0</ele><time>2026-04-25T07:48:11Z</time></trkpt><trkpt lat="44.992590033639466" lon="8.495525975318541"><ele>167.0</ele><time>2026-04-25T07:48:12Z</time></trkpt><trkpt lat="44.99277404415736" lon="8.495368702490012"><ele>168.0</ele><time>2026-04-25T07:48:13Z</time></trkpt><trkpt lat="44.992959760465595" lon="8.495210876915888"><ele>169.0</ele><time>2026-04-25T07:48:14Z</time></trkpt><trkpt lat="44.993123592953836" lon="8.495073175075792"><ele>170.0</ele><time>2026-04-25T07:48:15Z</time></trkpt><trkpt lat="44.99328164191541" lon="8.494942150999162"><ele>170.33333333333331</ele><time>2026-04-25T07:48:16Z</time></trkpt><trkpt lat="44.993437856457014" lon="8.494806361208097"><ele>170.66666666666666</ele><time>2026-04-25T07:48:17Z</time></trkpt><trkpt lat="44.99359950454664" lon="8.494675288113024"><ele>171.0</ele><time>2026-04-25T07:48:18Z</time></trkpt><trkpt lat="44.99376265184988" lon="8.494569725811719"><ele>172.0</ele><time>2026-04-25T07:48:19Z</time></trkpt><trkpt lat="44.993916643334636" lon="8.49444456027527"><ele>173.0</ele><time>2026-04-25T07:48:20Z</time></trkpt><trkpt lat="44.994063251684686" lon="8.494341922403423"><ele>174.0</ele><time>2026-04-25T07:48:21Z</time></trkpt><trkpt lat="44.99421236649212" lon="8.494250683693728"><ele>174.0</ele><time>2026-04-25T07:48:22Z</time></trkpt><trkpt lat="44.99436729543068" lon="8.49417202371223"><ele>174.0</ele><time>2026-04-25T07:48:23Z</time></trkpt><trkpt lat="44.9945363194643" lon="8.494092855630695"><ele>174.0</ele><time>2026-04-25T07:48:24Z</time></trkpt><trkpt lat="44.99472642338128" lon="8.494002653360631"><ele>174.0</ele><time>2026-04-25T07:48:25Z</time></trkpt><trkpt lat="44.99492803963104" lon="8.49387518538819"><ele>174.0</ele><time>2026-04-25T07:48:26Z</time></trkpt><trkpt lat="44.9950935633957" lon="8.493795883604541"><ele>174.0</ele><time>2026-04-25T07:48:27Z</time></trkpt><trkpt lat="44.99524098687017" lon="8.493741999684278"><ele>176.66666666666666</ele><time>2026-04-25T07:48:28Z</time></trkpt><trkpt lat="44.995368094395964" lon="8.493651000271653"><ele>179.33333333333331</ele><time>2026-04-25T07:48:29Z</time></trkpt><trkpt lat="44.995504773559034" lon="8.49358177211884"><ele>182.0</ele><time>2026-04-25T07:48:30Z</time></trkpt><trkpt lat="44.99565907704814" lon="8.493492731107295"><ele>182.0</ele><time>2026-04-25T07:48:31Z</time></trkpt><trkpt lat="44.995824781179195" lon="8.493389043855027"><ele>182.0</ele><time>2026-04-25T07:48:32Z</time></trkpt><trkpt lat="44.99599701957812" lon="8.493259990460189"><ele>182.0</ele><time>2026-04-25T07:48:33Z</time></trkpt><trkpt lat="44.99619711136645" lon="8.493109788491777"><ele>181.5</ele><time>2026-04-25T07:48:34Z</time></trkpt><trkpt lat="44.996429075665354" lon="8.492941711000066"><ele>181.0</ele><time>2026-04-25T07:48:35Z</time></trkpt><trkpt lat="44.996617630923915" lon="8.492804488234349"><ele>181.66666666666669</ele><time>2026-04-25T07:48:36Z</time></trkpt><trkpt lat="44.99677531900015" lon="8.492694900694492"><ele>182.33333333333334</ele><time>2026-04-25T07:48:37Z</time></trkpt><trkpt lat="44.99691568887161" lon="8.492593039025078"><ele>183.0</ele><time>2026-04-25T07:48:38Z</time></trkpt><trkpt lat="44.99704481074223" lon="8.49249915572863"><ele>183.0</ele><time>2026-04-25T07:48:39Z</time></trkpt><trkpt lat="44.997158691203104" lon="8.492416310432208"><ele>183.0</ele><time>2026-04-25T07:48:40Z</time></trkpt><trkpt lat="44.99727496181321" lon="8.49234399903459"><ele>183.0</ele><time>2026-04-25T07:48:41Z</time></trkpt><trkpt lat="44.9973865237958" lon="8.492255785378143"><ele>183.0</ele><time>2026-04-25T07:48:42Z</time></trkpt><trkpt lat="44.997497004068194" lon="8.492140834405813"><ele>183.66666666666666</ele><time>2026-04-25T07:48:43Z</time></trkpt><trkpt lat="44.99760954898823" lon="8.491998508011003"><ele>184.33333333333331</ele><time>2026-04-25T07:48:44Z</time></trkpt><trkpt lat="44.99772494813716" lon="8.491814403586622"><ele>185.0</ele><time>2026-04-25T07:48:45Z</time></trkpt><trkpt lat="44.997819920124556" lon="8.491657591066412"><ele>185.0</ele><time>2026-04-25T07:48:46Z</time></trkpt><trkpt lat="44.997904891965526" lon="8.491508975471536"><ele>185.0</ele><time>2026-04-25T07:48:47Z</time></trkpt><trkpt lat="44.997972491038496" lon="8.491344544639814"><ele>185.0</ele><time>2026-04-25T07:48:48Z</time></trkpt><trkpt lat="44.99801398424705" lon="8.491186531360775"><ele>185.0</ele><time>2026-04-25T07:48:49Z</time></trkpt><trkpt lat="44.9980389092681" lon="8.491022845387723"><ele>185.25</ele><time>2026-04-25T07:48:50Z</time></trkpt><trkpt lat="44.99804067709664" lon="8.490844485626024"><ele>185.5</ele><time>2026-04-25T07:48:51Z</time></trkpt><trkpt lat="44.99801749845227" lon="8.49061426238139"><ele>185.75</ele><time>2026-04-25T07:48:52Z</time></trkpt><trkpt lat="44.99800864642368" lon="8.490414904718643"><ele>186.0</ele><time>2026-04-25T07:48:53Z</time></trkpt><trkpt lat="44.99801900187127" lon="8.49028844358431"><ele>186.8</ele><time>2026-04-25T07:48:54Z</time></trkpt><trkpt lat="44.99805146441375" lon="8.490199863274725"><ele>187.60000000000002</ele><time>2026-04-25T07:48:55Z</time></trkpt><trkpt lat="44.99811323050715" lon="8.49012961231127"><ele>188.4</ele><time>2026-04-25T07:48:56Z</time></trkpt><trkpt lat="44.99820254220067" lon="8.490073646637931"><ele>189.2</ele><time>2026-04-25T07:48:57Z</time></trkpt><trkpt lat="44.9983264756283" lon="8.490035291379881"><ele>190.0</ele><time>2026-04-25T07:48:58Z</time></trkpt><trkpt lat="44.99849866228823" lon="8.489991557772571"><ele>191.33333333333334</ele><time>2026-04-25T07:48:59Z</time></trkpt><trkpt lat="44.9986980018917" lon="8.489941482195098"><ele>192.66666666666669</ele><time>2026-04-25T07:49:00Z</time></trkpt><trkpt lat="44.99889361451969" lon="8.48986658730239"><ele>194.0</ele><time>2026-04-25T07:49:01Z</time></trkpt><trkpt lat="44.999036369593824" lon="8.489805064186422"><ele>194.0</ele><time>2026-04-25T07:49:02Z</time></trkpt><trkpt lat="44.99913881387435" lon="8.489744354392252"><ele>194.0</ele><time>2026-04-25T07:49:03Z</time></trkpt><trkpt lat="44.99922478536308" lon="8.489673169309745"><ele>194.0</ele><time>2026-04-25T07:49:04Z</time></trkpt><trkpt lat="44.99930358079419" lon="8.489586926624503"><ele>194.0</ele><time>2026-04-25T07:49:05Z</time></trkpt><trkpt lat="44.99940260966415" lon="8.489452781736375"><ele>194.0</ele><time>2026-04-25T07:49:06Z</time></trkpt><trkpt lat="44.9995031036142" lon="8.489287148129439"><ele>199.33333333333334</ele><time>2026-04-25T07:49:07Z</time></trkpt><trkpt lat="44.99962740146523" lon="8.489114686601893"><ele>204.66666666666669</ele><time>2026-04-25T07:49:08Z</time></trkpt><trkpt lat="44.999753647079196" lon="8.488914369458728"><ele>210.0</ele><time>2026-04-25T07:49:09Z</time></trkpt><trkpt lat="44.999874619550134" lon="8.488735503067423"><ele>211.75</ele><time>2026-04-25T07:49:10Z</time></trkpt><trkpt lat="44.99998039692389" lon="8.488587783327135"><ele>213.5</ele><time>2026-04-25T07:49:11Z</time></trkpt><trkpt lat="45.00008471779027" lon="8.488463113182231"><ele>215.25</ele><time>2026-04-25T07:49:12Z</time></trkpt><trkpt lat="45.00020442837133" lon="8.488339877425997"><ele>217.0</ele><time>2026-04-25T07:49:13Z</time></trkpt><trkpt lat="45.00032639070495" lon="8.488218429346245"><ele>217.0</ele><time>2026-04-25T07:49:14Z</time></trkpt><trkpt lat="45.00044372511354" lon="8.48810214377565"><ele>217.0</ele><time>2026-04-25T07:49:15Z</time></trkpt><trkpt lat="45.00054814705634" lon="8.488001598919306"><ele>217.0</ele><time>2026-04-25T07:49:16Z</time></trkpt><trkpt lat="45.00064000615444" lon="8.487927118738119"><ele>217.0</ele><time>2026-04-25T07:49:17Z</time></trkpt><trkpt lat="45.00074757672077" lon="8.487878564318734"><ele>219.0</ele><time>2026-04-25T07:49:18Z</time></trkpt><trkpt lat="45.00086313383762" lon="8.487857347089497"><ele>221.0</ele><time>2026-04-25T07:49:19Z</time></trkpt><trkpt lat="45.00100079124878" lon="8.487846742964456"><ele>223.0</ele><time>2026-04-25T07:49:20Z</time></trkpt><trkpt lat="45.00113839276758" lon="8.487889415734042"><ele>225.0</ele><time>2026-04-25T07:49:20.999Z</time></trkpt><trkpt lat="45.00127886556269" lon="8.487952656619216"><ele>225.0</ele><time>2026-04-25T07:49:21.999Z</time></trkpt><trkpt lat="45.001384358558155" lon="8.488000288335275"><ele>225.0</ele><time>2026-04-25T07:49:22.999Z</time></trkpt><trkpt lat="45.001464150768776" lon="8.488028863030673"><ele>225.0</ele><time>2026-04-25T07:49:23.999Z</time></trkpt><trkpt lat="45.0015437644428" lon="8.488030343457899"><ele>225.0</ele><time>2026-04-25T07:49:24.999Z</time></trkpt><trkpt lat="45.001650038435066" lon="8.488057523223155"><ele>225.0</ele><time>2026-04-25T07:49:25.999Z</time></trkpt><trkpt lat="45.001783867099036" lon="8.488104022371122"><ele>227.75</ele><time>2026-04-25T07:49:26.999Z</time></trkpt><trkpt lat="45.00188055048977" lon="8.488135016453572"><ele>230.5</ele><time>2026-04-25T07:49:27.999Z</time></trkpt><trkpt lat="45.001995233740416" lon="8.488203973463223"><ele>233.25</ele><time>2026-04-25T07:49:29.999Z</time></trkpt><trkpt lat="45.00201742935806" lon="8.488472367239622"><ele>236.0</ele><time>2026-04-25T07:49:30.999Z</time></trkpt><trkpt lat="45.00206874122448" lon="8.488673972255114"><ele>234.33333333333334</ele><time>2026-04-25T07:49:31.999Z</time></trkpt><trkpt lat="45.002137538143884" lon="8.48888901041211"><ele>232.66666666666669</ele><time>2026-04-25T07:49:32.999Z</time></trkpt><trkpt lat="45.002220338297086" lon="8.489124277260764"><ele>231.0</ele><time>2026-04-25T07:49:33.999Z</time></trkpt><trkpt lat="45.002299965926326" lon="8.489376931641955"><ele>229.33333333333331</ele><time>2026-04-25T07:49:34.999Z</time></trkpt><trkpt lat="45.00238423412743" lon="8.489630083606333"><ele>227.66666666666666</ele><time>2026-04-25T07:49:35.999Z</time></trkpt><trkpt lat="45.00247337141518" lon="8.489891571639555"><ele>226.0</ele><time>2026-04-25T07:49:36.999Z</time></trkpt><trkpt lat="45.00256763485218" lon="8.490144581309158"><ele>230.0</ele><time>2026-04-25T07:49:37.999Z</time></trkpt><trkpt lat="45.002656781922816" lon="8.490370134566211"><ele>234.0</ele><time>2026-04-25T07:49:38.999Z</time></trkpt><trkpt lat="45.00275253036661" lon="8.49058469355731"><ele>238.0</ele><time>2026-04-25T07:49:39.999Z</time></trkpt><trkpt lat="45.002823412792374" lon="8.490776301260835"><ele>238.0</ele><time>2026-04-25T07:49:40.999Z</time></trkpt><trkpt lat="45.00291459435381" lon="8.490969965709104"><ele>238.0</ele><time>2026-04-25T07:49:41.999Z</time></trkpt><trkpt lat="45.00300421466473" lon="8.49115109465717"><ele>238.0</ele><time>2026-04-25T07:49:42.999Z</time></trkpt><trkpt lat="45.00307083316004" lon="8.49134313171131"><ele>238.5</ele><time>2026-04-25T07:49:43.999Z</time></trkpt><trkpt lat="45.00309827023824" lon="8.491511563622055"><ele>239.0</ele><time>2026-04-25T07:49:44.999Z</time></trkpt><trkpt lat="45.003098359581685" lon="8.491693908643017"><ele>239.5</ele><time>2026-04-25T07:49:45.999Z</time></trkpt><trkpt lat="45.00306283101457" lon="8.491896034069137"><ele>240.0</ele><time>2026-04-25T07:49:46.999Z</time></trkpt><trkpt lat="45.00300560118499" lon="8.492112335351006"><ele>242.66666666666669</ele><time>2026-04-25T07:49:47.999Z</time></trkpt><trkpt lat="45.00291836516881" lon="8.49236816679977"><ele>245.33333333333334</ele><time>2026-04-25T07:49:48.999Z</time></trkpt><trkpt lat="45.00285784409523" lon="8.492571678806696"><ele>248.0</ele><time>2026-04-25T07:49:49.999Z</time></trkpt><trkpt lat="45.00282627396703" lon="8.492718159578034"><ele>248.00000000000003</ele><time>2026-04-25T07:49:50.999Z</time></trkpt><trkpt lat="45.00282579602633" lon="8.49285483154663"><ele>248.0</ele><time>2026-04-25T07:49:51.999Z</time></trkpt><trkpt lat="45.00287654695933" lon="8.492951881672711"><ele>248.0</ele><time>2026-04-25T07:49:52.999Z</time></trkpt><trkpt lat="45.00294363243638" lon="8.49301757725464"><ele>248.0</ele><time>2026-04-25T07:49:53.999Z</time></trkpt><trkpt lat="45.00299138088345" lon="8.493110791544424"><ele>248.00000000000003</ele><time>2026-04-25T07:49:54.999Z</time></trkpt><trkpt lat="45.00303555523306" lon="8.49317501286237"><ele>248.0</ele><time>2026-04-25T07:49:55.999Z</time></trkpt><trkpt lat="45.003090134928335" lon="8.493254361850042"><ele>249.2</ele><time>2026-04-25T07:50:02.999Z</time></trkpt><trkpt lat="45.003169264353375" lon="8.49315946792026"><ele>250.4</ele><time>2026-04-25T07:50:03.999Z</time></trkpt><trkpt lat="45.00322011445319" lon="8.493072785667216"><ele>251.59999999999997</ele><time>2026-04-25T07:50:04.999Z</time></trkpt><trkpt lat="45.003273685524235" lon="8.492990968261761"><ele>252.79999999999998</ele><time>2026-04-25T07:50:05.999Z</time></trkpt><trkpt lat="45.00336879169255" lon="8.49287154291197"><ele>254.0</ele><time>2026-04-25T07:50:07.999Z</time></trkpt><trkpt lat="45.00343234277949" lon="8.492797401626225"><ele>255.16666666666669</ele><time>2026-04-25T07:50:09Z</time></trkpt><trkpt lat="45.003478378226454" lon="8.492718560081803"><ele>256.33333333333337</ele><time>2026-04-25T07:50:10Z</time></trkpt><trkpt lat="45.003530373279354" lon="8.49266710417015"><ele>257.5</ele><time>2026-04-25T07:50:11Z</time></trkpt><trkpt lat="45.00362179888793" lon="8.492636007863863"><ele>258.6666666666667</ele><time>2026-04-25T07:50:13Z</time></trkpt><trkpt lat="45.00367458025503" lon="8.492747760765978"><ele>259.8333333333333</ele><time>2026-04-25T07:50:15Z</time></trkpt><trkpt lat="45.003571982164765" lon="8.49282829097072"><ele>261.0</ele><time>2026-04-25T07:50:17Z</time></trkpt><trkpt lat="45.00351295568874" lon="8.492958665726883"><ele>261.0</ele><time>2026-04-25T07:50:19Z</time></trkpt><trkpt lat="45.00347728460628" lon="8.493079691673321"><ele>261.0</ele><time>2026-04-25T07:50:20Z</time></trkpt><trkpt lat="45.003445953467185" lon="8.49319858288223"><ele>261.0</ele><time>2026-04-25T07:50:21Z</time></trkpt><trkpt lat="45.003439735468355" lon="8.493370398372189"><ele>261.0</ele><time>2026-04-25T07:50:23Z</time></trkpt><trkpt lat="45.00347053762047" lon="8.493462085632746"><ele>261.0</ele><time>2026-04-25T07:50:24Z</time></trkpt><trkpt lat="45.00353308695762" lon="8.49355658196261"><ele>261.0</ele><time>2026-04-25T07:50:25Z</time></trkpt><trkpt lat="45.003588998446816" lon="8.493631557328166"><ele>261.0</ele><time>2026-04-25T07:50:26Z</time></trkpt><trkpt lat="45.00365697971537" lon="8.493678373529372"><ele>261.0</ele><time>2026-04-25T07:50:27Z</time></trkpt><trkpt lat="45.00372266032058" lon="8.493720749671288"><ele>261.0</ele><time>2026-04-25T07:50:28Z</time></trkpt><trkpt lat="45.00379238852347" lon="8.493734445788888"><ele>261.0</ele><time>2026-04-25T07:50:29Z</time></trkpt><trkpt lat="45.00386522974478" lon="8.493764698349223"><ele>261.0</ele><time>2026-04-25T07:50:30Z</time></trkpt><trkpt lat="45.00392984212706" lon="8.49381269731672"><ele>261.0</ele><time>2026-04-25T07:50:31Z</time></trkpt><trkpt lat="45.003970541511535" lon="8.493900574429128"><ele>259.7142857142857</ele><time>2026-04-25T07:50:32Z</time></trkpt><trkpt lat="45.0039984592359" lon="8.493990318357513"><ele>258.42857142857144</ele><time>2026-04-25T07:50:33Z</time></trkpt><trkpt lat="45.0040348942152" lon="8.494083067231454"><ele>257.1428571428571</ele><time>2026-04-25T07:50:34Z</time></trkpt><trkpt lat="45.00405463423787" lon="8.494185695103594"><ele>255.85714285714286</ele><time>2026-04-25T07:50:35Z</time></trkpt><trkpt lat="45.00405275406346" lon="8.494290053588172"><ele>254.57142857142856</ele><time>2026-04-25T07:50:36Z</time></trkpt><trkpt lat="45.00407014045869" lon="8.494396288995793"><ele>253.28571428571428</ele><time>2026-04-25T07:50:37Z</time></trkpt><trkpt lat="45.00409129390631" lon="8.494495271148196"><ele>252.0</ele><time>2026-04-25T07:50:38Z</time></trkpt><trkpt lat="45.004123780114675" lon="8.494593710765969"><ele>250.14285714285714</ele><time>2026-04-25T07:50:39Z</time></trkpt><trkpt lat="45.004161920373356" lon="8.49467307939228"><ele>248.28571428571428</ele><time>2026-04-25T07:50:40Z</time></trkpt><trkpt lat="45.00422588463234" lon="8.494740810302982"><ele>246.42857142857144</ele><time>2026-04-25T07:50:41Z</time></trkpt><trkpt lat="45.004285556553604" lon="8.494791806830232"><ele>244.57142857142858</ele><time>2026-04-25T07:50:42Z</time></trkpt><trkpt lat="45.00434839207417" lon="8.494848256613313"><ele>242.71428571428572</ele><time>2026-04-25T07:50:43Z</time></trkpt><trkpt lat="45.00441275282977" lon="8.494898388087526"><ele>240.8571428571429</ele><time>2026-04-25T07:50:44Z</time></trkpt><trkpt lat="45.004482091003766" lon="8.494954154905848"><ele>239.00000000000003</ele><time>2026-04-25T07:50:45Z</time></trkpt><trkpt lat="45.00454189171954" lon="8.495014634863477"><ele>239.00000000000003</ele><time>2026-04-25T07:50:46Z</time></trkpt><trkpt lat="45.00459004116101" lon="8.495074669925717"><ele>239.0</ele><time>2026-04-25T07:50:47Z</time></trkpt><trkpt lat="45.00463677355605" lon="8.495146325251259"><ele>239.00000000000003</ele><time>2026-04-25T07:50:48Z</time></trkpt><trkpt lat="45.004684367105575" lon="8.495207124660455"><ele>239.00000000000003</ele><time>2026-04-25T07:50:49Z</time></trkpt><trkpt lat="45.00469612887451" lon="8.495306985921268"><ele>239.0</ele><time>2026-04-25T07:50:50Z</time></trkpt><trkpt lat="45.004713920430774" lon="8.495417999187573"><ele>239.00000000000003</ele><time>2026-04-25T07:50:51Z</time></trkpt><trkpt lat="45.00473131168332" lon="8.49552564476265"><ele>239.00000000000003</ele><time>2026-04-25T07:50:52Z</time></trkpt><trkpt lat="45.00471811470927" lon="8.495678155041011"><ele>237.0</ele><time>2026-04-25T07:50:53Z</time></trkpt><trkpt lat="45.00469435569314" lon="8.495806027153206"><ele>234.99999999999997</ele><time>2026-04-25T07:50:54Z</time></trkpt><trkpt lat="45.00467282288956" lon="8.495940556025548"><ele>232.99999999999997</ele><time>2026-04-25T07:50:55Z</time></trkpt><trkpt lat="45.00464647564468" lon="8.496055073531467"><ele>231.0</ele><time>2026-04-25T07:50:56Z</time></trkpt><trkpt lat="45.00461216295692" lon="8.496176948821887"><ele>229.0</ele><time>2026-04-25T07:50:57Z</time></trkpt><trkpt lat="45.00457012643211" lon="8.49630314106453"><ele>227.39999999999998</ele><time>2026-04-25T07:50:58Z</time></trkpt><trkpt lat="45.004522979053846" lon="8.496416386555643"><ele>225.79999999999998</ele><time>2026-04-25T07:50:59Z</time></trkpt><trkpt lat="45.00449909036421" lon="8.496528209176477"><ele>224.20000000000002</ele><time>2026-04-25T07:51:00Z</time></trkpt><trkpt lat="45.0044762131754" lon="8.496651085901934"><ele>222.60000000000002</ele><time>2026-04-25T07:51:01Z</time></trkpt><trkpt lat="45.00444575270397" lon="8.496778049027292"><ele>221.0</ele><time>2026-04-25T07:51:02Z</time></trkpt><trkpt lat="45.00444709472827" lon="8.496919932705797"><ele>221.0</ele><time>2026-04-25T07:51:03Z</time></trkpt><trkpt lat="45.004424012256536" lon="8.497059511529143"><ele>221.00000000000003</ele><time>2026-04-25T07:51:04Z</time></trkpt><trkpt lat="45.00441257801846" lon="8.49721827567175"><ele>221.00000000000003</ele><time>2026-04-25T07:51:05Z</time></trkpt><trkpt lat="45.00440559588704" lon="8.497318975117807"><ele>221.0</ele><time>2026-04-25T07:51:06Z</time></trkpt><trkpt lat="45.00439877494532" lon="8.497441392892718"><ele>221.0</ele><time>2026-04-25T07:51:07Z</time></trkpt><trkpt lat="45.00439208158131" lon="8.497574084576016"><ele>219.60000000000002</ele><time>2026-04-25T07:51:08Z</time></trkpt><trkpt lat="45.004387607215655" lon="8.497705332586673"><ele>218.20000000000002</ele><time>2026-04-25T07:51:09Z</time></trkpt><trkpt lat="45.00438333793191" lon="8.497830564783579"><ele>216.79999999999998</ele><time>2026-04-25T07:51:10Z</time></trkpt><trkpt lat="45.004379607740184" lon="8.497957690077389"><ele>215.39999999999998</ele><time>2026-04-25T07:51:11Z</time></trkpt><trkpt lat="45.0043764833501" lon="8.498093283394974"><ele>214.0</ele><time>2026-04-25T07:51:12Z</time></trkpt><trkpt lat="45.004388684769374" lon="8.498228057243052"><ele>213.16666666666666</ele><time>2026-04-25T07:51:13Z</time></trkpt><trkpt lat="45.00438248613347" lon="8.498350734893707"><ele>212.33333333333331</ele><time>2026-04-25T07:51:14Z</time></trkpt><trkpt lat="45.00437755672958" lon="8.498488937615964"><ele>211.5</ele><time>2026-04-25T07:51:15Z</time></trkpt><trkpt lat="45.00437729489883" lon="8.498612858551514"><ele>210.66666666666669</ele><time>2026-04-25T07:51:16Z</time></trkpt><trkpt lat="45.004373425956025" lon="8.498737601776712"><ele>209.83333333333334</ele><time>2026-04-25T07:51:17Z</time></trkpt><trkpt lat="45.004354319407256" lon="8.498847098629046"><ele>209.0</ele><time>2026-04-25T07:51:18Z</time></trkpt><trkpt lat="45.00434676157718" lon="8.498956860088501"><ele>208.66666666666669</ele><time>2026-04-25T07:51:19Z</time></trkpt><trkpt lat="45.00432793703964" lon="8.499062806144027"><ele>208.33333333333334</ele><time>2026-04-25T07:51:20Z</time></trkpt><trkpt lat="45.00430154259436" lon="8.499169931653036"><ele>208.0</ele><time>2026-04-25T07:51:21Z</time></trkpt><trkpt lat="45.004263038748896" lon="8.49927404322715"><ele>207.66666666666669</ele><time>2026-04-25T07:51:22Z</time></trkpt><trkpt lat="45.004212124628985" lon="8.499390220108086"><ele>207.33333333333334</ele><time>2026-04-25T07:51:23Z</time></trkpt><trkpt lat="45.0041590088019" lon="8.499493747674705"><ele>207.0</ele><time>2026-04-25T07:51:24Z</time></trkpt><trkpt lat="45.0041036898322" lon="8.499600562898364"><ele>205.66666666666666</ele><time>2026-04-25T07:51:25Z</time></trkpt><trkpt lat="45.00405220529313" lon="8.49970741578398"><ele>204.33333333333331</ele><time>2026-04-25T07:51:26Z</time></trkpt><trkpt lat="45.00400863891852" lon="8.499797834950613"><ele>203.0</ele><time>2026-04-25T07:51:27Z</time></trkpt><trkpt lat="45.00396149126103" lon="8.499903679342308"><ele>201.66666666666666</ele><time>2026-04-25T07:51:28Z</time></trkpt><trkpt lat="45.00392113795282" lon="8.500008296643882"><ele>200.33333333333331</ele><time>2026-04-25T07:51:29Z</time></trkpt><trkpt lat="45.003878035883915" lon="8.500126844637329"><ele>199.0</ele><time>2026-04-25T07:51:30Z</time></trkpt><trkpt lat="45.00385707456579" lon="8.50023906462538"><ele>199.0</ele><time>2026-04-25T07:51:31Z</time></trkpt><trkpt lat="45.003813455444295" lon="8.500340225624495"><ele>199.0</ele><time>2026-04-25T07:51:31.999Z</time></trkpt><trkpt lat="45.00378166651447" lon="8.500456886458073"><ele>199.0</ele><time>2026-04-25T07:51:32.999Z</time></trkpt><trkpt lat="45.00374391551148" lon="8.500572826895786"><ele>199.0</ele><time>2026-04-25T07:51:33.999Z</time></trkpt><trkpt lat="45.003708860612896" lon="8.500704204712225"><ele>199.0</ele><time>2026-04-25T07:51:34.999Z</time></trkpt><trkpt lat="45.00368165808061" lon="8.500831440901758"><ele>198.2</ele><time>2026-04-25T07:51:35.999Z</time></trkpt><trkpt lat="45.00365699217632" lon="8.500954132570829"><ele>197.39999999999998</ele><time>2026-04-25T07:51:36.999Z</time></trkpt><trkpt lat="45.003632577929146" lon="8.501086831621025"><ele>196.6</ele><time>2026-04-25T07:51:37.999Z</time></trkpt><trkpt lat="45.00359610811459" lon="8.501211021629794"><ele>195.8</ele><time>2026-04-25T07:51:38.999Z</time></trkpt><trkpt lat="45.003581603934094" lon="8.50134390722725"><ele>195.0</ele><time>2026-04-25T07:51:39.999Z</time></trkpt><trkpt lat="45.00358636229202" lon="8.501476776615549"><ele>194.0</ele><time>2026-04-25T07:51:40.999Z</time></trkpt><trkpt lat="45.003566938979496" lon="8.501605495392177"><ele>193.0</ele><time>2026-04-25T07:51:41.999Z</time></trkpt><trkpt lat="45.003554683763014" lon="8.501737028723774"><ele>192.0</ele><time>2026-04-25T07:51:42.999Z</time></trkpt><trkpt lat="45.00354011987629" lon="8.50186661094483"><ele>191.0</ele><time>2026-04-25T07:51:43.999Z</time></trkpt><trkpt lat="45.003519919331474" lon="8.50199724249868"><ele>190.0</ele><time>2026-04-25T07:51:44.999Z</time></trkpt><trkpt lat="45.003514154486886" lon="8.502124016465388"><ele>189.6</ele><time>2026-04-25T07:51:45.999Z</time></trkpt><trkpt lat="45.003494404385485" lon="8.50227322553242"><ele>189.2</ele><time>2026-04-25T07:51:46.999Z</time></trkpt><trkpt lat="45.00351627668199" lon="8.502406175980902"><ele>188.8</ele><time>2026-04-25T07:51:47.999Z</time></trkpt><trkpt lat="45.003534202920214" lon="8.502554828968751"><ele>188.4</ele><time>2026-04-25T07:51:48.999Z</time></trkpt><trkpt lat="45.003544393552716" lon="8.502682807543577"><ele>188.0</ele><time>2026-04-25T07:51:49.999Z</time></trkpt><trkpt lat="45.003557752317" lon="8.502818142614775"><ele>186.8</ele><time>2026-04-25T07:51:50.999Z</time></trkpt><trkpt lat="45.003565618821234" lon="8.502948233574875"><ele>185.60000000000002</ele><time>2026-04-25T07:51:51.999Z</time></trkpt><trkpt lat="45.00359379883457" lon="8.503159416097546"><ele>184.39999999999998</ele><time>2026-04-25T07:51:52.999Z</time></trkpt><trkpt lat="45.00360067902523" lon="8.50330000248156"><ele>183.2</ele><time>2026-04-25T07:51:53.999Z</time></trkpt><trkpt lat="45.00361540393756" lon="8.503446193007392"><ele>182.0</ele><time>2026-04-25T07:51:54.999Z</time></trkpt><trkpt lat="45.00362081077698" lon="8.503584416289998"><ele>182.0</ele><time>2026-04-25T07:51:55.999Z</time></trkpt><trkpt lat="45.0036485648885" lon="8.503741442440676"><ele>182.0</ele><time>2026-04-25T07:51:56.999Z</time></trkpt><trkpt lat="45.00369772754918" lon="8.503879738687688"><ele>182.0</ele><time>2026-04-25T07:51:57.999Z</time></trkpt><trkpt lat="45.00373190349539" lon="8.504026423717054"><ele>182.0</ele><time>2026-04-25T07:51:58.999Z</time></trkpt><trkpt lat="45.00376848497613" lon="8.504177268008956"><ele>182.0</ele><time>2026-04-25T07:51:59.999Z</time></trkpt><trkpt lat="45.003806182021265" lon="8.504336413359482"><ele>181.0</ele><time>2026-04-25T07:52:00.999Z</time></trkpt><trkpt lat="45.00384285862045" lon="8.504465760943075"><ele>180.0</ele><time>2026-04-25T07:52:01.999Z</time></trkpt><trkpt lat="45.00386434827723" lon="8.504603430859778"><ele>179.0</ele><time>2026-04-25T07:52:02.999Z</time></trkpt><trkpt lat="45.00388374676932" lon="8.504715876916775"><ele>178.0</ele><time>2026-04-25T07:52:03.999Z</time></trkpt><trkpt lat="45.003888388252676" lon="8.504827776174794"><ele>177.0</ele><time>2026-04-25T07:52:04.999Z</time></trkpt><trkpt lat="45.00388300897275" lon="8.504928431201588"><ele>176.0</ele><time>2026-04-25T07:52:05.999Z</time></trkpt><trkpt lat="45.003862028789094" lon="8.505041603840693"><ele>175.8</ele><time>2026-04-25T07:52:06.999Z</time></trkpt><trkpt lat="45.003833312794626" lon="8.505167720791443"><ele>175.60000000000002</ele><time>2026-04-25T07:52:07.999Z</time></trkpt><trkpt lat="45.00379608226952" lon="8.505303369332188"><ele>175.4</ele><time>2026-04-25T07:52:08.999Z</time></trkpt><trkpt lat="45.00375375503097" lon="8.505452067163088"><ele>175.2</ele><time>2026-04-25T07:52:09.999Z</time></trkpt><trkpt lat="45.00370784496592" lon="8.505604025451891"><ele>175.0</ele><time>2026-04-25T07:52:10.999Z</time></trkpt><trkpt lat="45.003663425285886" lon="8.50575456933022"><ele>175.8</ele><time>2026-04-25T07:52:11.999Z</time></trkpt><trkpt lat="45.00362188993162" lon="8.505900620184564"><ele>176.6</ele><time>2026-04-25T07:52:12.999Z</time></trkpt><trkpt lat="45.00360545359971" lon="8.50604671402429"><ele>177.39999999999998</ele><time>2026-04-25T07:52:13.999Z</time></trkpt><trkpt lat="45.0035795910438" lon="8.506186009012154"><ele>178.2</ele><time>2026-04-25T07:52:15Z</time></trkpt><trkpt lat="45.00357029539207" lon="8.506334359950296"><ele>179.0</ele><time>2026-04-25T07:52:16Z</time></trkpt><trkpt lat="45.003571190409595" lon="8.506481314520443"><ele>180.39999999999998</ele><time>2026-04-25T07:52:17Z</time></trkpt><trkpt lat="45.00359388978581" lon="8.50662864121911"><ele>181.8</ele><time>2026-04-25T07:52:18Z</time></trkpt><trkpt lat="45.003588197758866" lon="8.506777848501242"><ele>183.2</ele><time>2026-04-25T07:52:19Z</time></trkpt><trkpt lat="45.003589160173284" lon="8.50693499615942"><ele>184.60000000000002</ele><time>2026-04-25T07:52:20Z</time></trkpt><trkpt lat="45.00358605646033" lon="8.507104761390716"><ele>186.0</ele><time>2026-04-25T07:52:21Z</time></trkpt><trkpt lat="45.00358255314218" lon="8.507296383977895"><ele>188.75</ele><time>2026-04-25T07:52:22Z</time></trkpt><trkpt lat="45.00357726213117" lon="8.507477903554722"><ele>191.5</ele><time>2026-04-25T07:52:23Z</time></trkpt><trkpt lat="45.003568969650644" lon="8.50767570227092"><ele>194.25</ele><time>2026-04-25T07:52:24Z</time></trkpt><trkpt lat="45.00355635163069" lon="8.507867081877237"><ele>197.0</ele><time>2026-04-25T07:52:25Z</time></trkpt><trkpt lat="45.00354008679611" lon="8.508039742857637"><ele>199.5</ele><time>2026-04-25T07:52:26Z</time></trkpt><trkpt lat="45.003517903575535" lon="8.508192653256357"><ele>202.0</ele><time>2026-04-25T07:52:27Z</time></trkpt><trkpt lat="45.003492212906885" lon="8.508354433175386"><ele>204.5</ele><time>2026-04-25T07:52:28Z</time></trkpt><trkpt lat="45.003462807954456" lon="8.508533633336397"><ele>207.0</ele><time>2026-04-25T07:52:29Z</time></trkpt><trkpt lat="45.00343670688289" lon="8.508690171266347"><ele>208.16666666666666</ele><time>2026-04-25T07:52:30Z</time></trkpt><trkpt lat="45.00341040862831" lon="8.508837011174089"><ele>209.33333333333331</ele><time>2026-04-25T07:52:31Z</time></trkpt><trkpt lat="45.00338591999304" lon="8.508973746888763"><ele>210.5</ele><time>2026-04-25T07:52:32Z</time></trkpt><trkpt lat="45.00336629453349" lon="8.509074996445316"><ele>211.66666666666666</ele><time>2026-04-25T07:52:33Z</time></trkpt><trkpt lat="45.00334761307117" lon="8.509171244488016"><ele>212.83333333333331</ele><time>2026-04-25T07:52:34Z</time></trkpt><trkpt lat="45.003328407264284" lon="8.509261086761564"><ele>214.0</ele><time>2026-04-25T07:52:35Z</time></trkpt><trkpt lat="45.00330963665643" lon="8.509394692928135"><ele>214.0</ele><time>2026-04-25T07:52:48Z</time></trkpt><trkpt lat="45.00329999702561" lon="8.50949221681716"><ele>213.99999999999997</ele><time>2026-04-25T07:52:49Z</time></trkpt><trkpt lat="45.00329989200175" lon="8.509596667864772"><ele>213.99999999999997</ele><time>2026-04-25T07:52:50Z</time></trkpt><trkpt lat="45.003292438931595" lon="8.50973832620249"><ele>214.0</ele><time>2026-04-25T07:52:51Z</time></trkpt><trkpt lat="45.003291606077056" lon="8.509883284197764"><ele>214.0</ele><time>2026-04-25T07:52:52Z</time></trkpt><trkpt lat="45.00329085156708" lon="8.51005586763539"><ele>213.2</ele><time>2026-04-25T07:52:53Z</time></trkpt><trkpt lat="45.0032899169454" lon="8.510207938836599"><ele>212.39999999999998</ele><time>2026-04-25T07:52:54Z</time></trkpt><trkpt lat="45.00328658202865" lon="8.510362398007777"><ele>211.6</ele><time>2026-04-25T07:52:55Z</time></trkpt><trkpt lat="45.003283371379474" lon="8.510511101669108"><ele>210.8</ele><time>2026-04-25T07:52:56Z</time></trkpt><trkpt lat="45.00328039200666" lon="8.51065239069585"><ele>210.0</ele><time>2026-04-25T07:52:57Z</time></trkpt><trkpt lat="45.00327793725152" lon="8.510788071633469"><ele>209.4</ele><time>2026-04-25T07:52:58Z</time></trkpt><trkpt lat="45.003275361228404" lon="8.510930455365076"><ele>208.8</ele><time>2026-04-25T07:52:59Z</time></trkpt><trkpt lat="45.003273329926515" lon="8.511085732485919"><ele>208.2</ele><time>2026-04-25T07:53:00Z</time></trkpt><trkpt lat="45.003293949121726" lon="8.511236269114956"><ele>207.6</ele><time>2026-04-25T07:53:01Z</time></trkpt><trkpt lat="45.00329760561864" lon="8.511378845195514"><ele>207.0</ele><time>2026-04-25T07:53:02Z</time></trkpt><trkpt lat="45.00333920563567" lon="8.511509975499196"><ele>207.0</ele><time>2026-04-25T07:53:03Z</time></trkpt><trkpt lat="45.003360716077104" lon="8.511645338302838"><ele>207.0</ele><time>2026-04-25T07:53:04Z</time></trkpt><trkpt lat="45.0033731484012" lon="8.511793220833145"><ele>207.0</ele><time>2026-04-25T07:53:05Z</time></trkpt><trkpt lat="45.003383545727765" lon="8.511910922606159"><ele>207.0</ele><time>2026-04-25T07:53:06Z</time></trkpt><trkpt lat="45.00340933484975" lon="8.51203628048048"><ele>207.0</ele><time>2026-04-25T07:53:07Z</time></trkpt><trkpt lat="45.00340113869324" lon="8.51215390063703"><ele>205.8</ele><time>2026-04-25T07:53:08Z</time></trkpt><trkpt lat="45.003409910535076" lon="8.512277630231308"><ele>204.6</ele><time>2026-04-25T07:53:09Z</time></trkpt><trkpt lat="45.00342106799429" lon="8.512403562212876"><ele>203.4</ele><time>2026-04-25T07:53:10Z</time></trkpt><trkpt lat="45.00343892016199" lon="8.512555140196152"><ele>202.20000000000002</ele><time>2026-04-25T07:53:11Z</time></trkpt><trkpt lat="45.003460383944315" lon="8.512709487172122"><ele>201.0</ele><time>2026-04-25T07:53:12Z</time></trkpt><trkpt lat="45.00348049677667" lon="8.512844635422413"><ele>200.25</ele><time>2026-04-25T07:53:13Z</time></trkpt><trkpt lat="45.003515659802986" lon="8.512972326500943"><ele>199.5</ele><time>2026-04-25T07:53:14Z</time></trkpt><trkpt lat="45.00356915975099" lon="8.513102336552835"><ele>198.75</ele><time>2026-04-25T07:53:15Z</time></trkpt><trkpt lat="45.00364048175607" lon="8.513240503861699"><ele>198.0</ele><time>2026-04-25T07:53:16Z</time></trkpt><trkpt lat="45.00373064116789" lon="8.513382871429492"><ele>198.0</ele><time>2026-04-25T07:53:17Z</time></trkpt><trkpt lat="45.00381695439588" lon="8.513505912254555"><ele>198.0</ele><time>2026-04-25T07:53:18Z</time></trkpt><trkpt lat="45.003894646345096" lon="8.51361920770608"><ele>198.0</ele><time>2026-04-25T07:53:19Z</time></trkpt><trkpt lat="45.00396437622031" lon="8.513736508128707"><ele>198.0</ele><time>2026-04-25T07:53:20Z</time></trkpt><trkpt lat="45.00403666814048" lon="8.51384777727787"><ele>198.0</ele><time>2026-04-25T07:53:21Z</time></trkpt><trkpt lat="45.004102438214055" lon="8.513955633599842"><ele>196.25</ele><time>2026-04-25T07:53:22Z</time></trkpt><trkpt lat="45.0041561224267" lon="8.514089354098102"><ele>194.5</ele><time>2026-04-25T07:53:23Z</time></trkpt><trkpt lat="45.0042157192498" lon="8.51422363931551"><ele>192.75</ele><time>2026-04-25T07:53:24Z</time></trkpt><trkpt lat="45.0042690050743" lon="8.514362165181828"><ele>191.0</ele><time>2026-04-25T07:53:25Z</time></trkpt><trkpt lat="45.00425736004921" lon="8.514536270394057"><ele>190.75</ele><time>2026-04-25T07:53:26Z</time></trkpt><trkpt lat="45.00425657217561" lon="8.514722148753798"><ele>190.5</ele><time>2026-04-25T07:53:27Z</time></trkpt><trkpt lat="45.00425261043815" lon="8.514932060185414"><ele>190.25</ele><time>2026-04-25T07:53:28Z</time></trkpt><trkpt lat="45.00424668947168" lon="8.51511895376052"><ele>190.0</ele><time>2026-04-25T07:53:29Z</time></trkpt><trkpt lat="45.00423820399546" lon="8.515290229612969"><ele>188.75</ele><time>2026-04-25T07:53:30Z</time></trkpt><trkpt lat="45.00422824250286" lon="8.515449735864376"><ele>187.5</ele><time>2026-04-25T07:53:31Z</time></trkpt><trkpt lat="45.00421389439882" lon="8.515598716340929"><ele>186.25</ele><time>2026-04-25T07:53:32Z</time></trkpt><trkpt lat="45.00420443651759" lon="8.51576258327294"><ele>185.0</ele><time>2026-04-25T07:53:33Z</time></trkpt><trkpt lat="45.00415562283134" lon="8.51593166651994"><ele>183.0</ele><time>2026-04-25T07:53:34Z</time></trkpt><trkpt lat="45.004117509211554" lon="8.516084523144492"><ele>181.0</ele><time>2026-04-25T07:53:35Z</time></trkpt><trkpt lat="45.00406770726263" lon="8.516225064316052"><ele>179.0</ele><time>2026-04-25T07:53:36Z</time></trkpt><trkpt lat="45.00401376793838" lon="8.516352377833927"><ele>177.0</ele><time>2026-04-25T07:53:37Z</time></trkpt><trkpt lat="45.003956046936835" lon="8.516485222757861"><ele>175.0</ele><time>2026-04-25T07:53:38Z</time></trkpt><trkpt lat="45.003902009907804" lon="8.516615826301534"><ele>174.0</ele><time>2026-04-25T07:53:39Z</time></trkpt><trkpt lat="45.00386509620602" lon="8.516754263378653"><ele>173.0</ele><time>2026-04-25T07:53:40Z</time></trkpt><trkpt lat="45.00383649114586" lon="8.516896634890491"><ele>172.0</ele><time>2026-04-25T07:53:41Z</time></trkpt><trkpt lat="45.0038393385158" lon="8.517043898679091"><ele>171.0</ele><time>2026-04-25T07:53:42Z</time></trkpt><trkpt lat="45.00383258452631" lon="8.517171365122236"><ele>170.0</ele><time>2026-04-25T07:53:43Z</time></trkpt><trkpt lat="45.003818870969816" lon="8.517319050045915"><ele>169.2</ele><time>2026-04-25T07:53:44Z</time></trkpt><trkpt lat="45.00382173459128" lon="8.51749461644753"><ele>168.4</ele><time>2026-04-25T07:53:44.999Z</time></trkpt><trkpt lat="45.00382571951096" lon="8.517653845596426"><ele>167.60000000000002</ele><time>2026-04-25T07:53:45.999Z</time></trkpt><trkpt lat="45.00382795356338" lon="8.517801925290403"><ele>166.8</ele><time>2026-04-25T07:53:46.999Z</time></trkpt><trkpt lat="45.00382795355963" lon="8.51794250093021"><ele>166.0</ele><time>2026-04-25T07:53:47.999Z</time></trkpt><trkpt lat="45.0038456436508" lon="8.518093136572046"><ele>164.4</ele><time>2026-04-25T07:53:48.999Z</time></trkpt><trkpt lat="45.00385491004391" lon="8.51821829749824"><ele>162.8</ele><time>2026-04-25T07:53:49.999Z</time></trkpt><trkpt lat="45.00388548857481" lon="8.518344728177171"><ele>161.20000000000002</ele><time>2026-04-25T07:53:50.999Z</time></trkpt><trkpt lat="45.00391317822642" lon="8.518496451785673"><ele>159.60000000000002</ele><time>2026-04-25T07:53:51.999Z</time></trkpt><trkpt lat="45.003957031891304" lon="8.518657421726738"><ele>158.0</ele><time>2026-04-25T07:53:52.999Z</time></trkpt><trkpt lat="45.004004438069316" lon="8.51880357479777"><ele>156.75</ele><time>2026-04-25T07:53:53.999Z</time></trkpt><trkpt lat="45.00405602351223" lon="8.518965488555288"><ele>155.5</ele><time>2026-04-25T07:53:54.999Z</time></trkpt><trkpt lat="45.0040988319661" lon="8.519110238585528"><ele>154.25</ele><time>2026-04-25T07:53:55.999Z</time></trkpt><trkpt lat="45.00412848527819" lon="8.519263157344081"><ele>153.0</ele><time>2026-04-25T07:53:56.999Z</time></trkpt><trkpt lat="45.004164184540514" lon="8.519397003344437"><ele>152.5</ele><time>2026-04-25T07:53:57.999Z</time></trkpt><trkpt lat="45.004198315055646" lon="8.519525038969771"><ele>152.0</ele><time>2026-04-25T07:53:58.999Z</time></trkpt><trkpt lat="45.00423250921752" lon="8.519639667885581"><ele>151.5</ele><time>2026-04-25T07:53:59.999Z</time></trkpt><trkpt lat="45.00425646301196" lon="8.519727209013459"><ele>151.0</ele><time>2026-04-25T07:54:00.999Z</time></trkpt><trkpt lat="45.00429377162646" lon="8.519852978786968"><ele>150.5</ele><time>2026-04-25T07:54:02.999Z</time></trkpt><trkpt lat="45.00423236531023" lon="8.519960284891402"><ele>150.0</ele><time>2026-04-25T07:54:04.999Z</time></trkpt><trkpt lat="45.00416128642093" lon="8.519932124538634"><ele>150.0</ele><time>2026-04-25T07:54:05.999Z</time></trkpt><trkpt lat="45.004087279279325" lon="8.519949230279769"><ele>150.0</ele><time>2026-04-25T07:54:06.999Z</time></trkpt><trkpt lat="45.00401820902602" lon="8.519987855010402"><ele>150.0</ele><time>2026-04-25T07:54:07.999Z</time></trkpt><trkpt lat="45.00395457428098" lon="8.519975285728439"><ele>150.0</ele><time>2026-04-25T07:54:08.999Z</time></trkpt><trkpt lat="45.003869904534255" lon="8.520007393054058"><ele>150.0</ele><time>2026-04-25T07:54:09.999Z</time></trkpt><trkpt lat="45.003792040950536" lon="8.520028617910349"><ele>150.0</ele><time>2026-04-25T07:54:10.999Z</time></trkpt><trkpt lat="45.003701590389646" lon="8.520052660659957"><ele>150.0</ele><time>2026-04-25T07:54:11.999Z</time></trkpt><trkpt lat="45.00362763748963" lon="8.52008329785434"><ele>150.0</ele><time>2026-04-25T07:54:12.999Z</time></trkpt><trkpt lat="45.00355717350569" lon="8.52011132502635"><ele>150.0</ele><time>2026-04-25T07:54:13.999Z</time></trkpt><trkpt lat="45.003470628293336" lon="8.52016079260384"><ele>150.0</ele><time>2026-04-25T07:54:15.999Z</time></trkpt><trkpt lat="45.00345694643208" lon="8.520306091222954"><ele>150.0</ele><time>2026-04-25T07:54:17.999Z</time></trkpt><trkpt lat="45.003481504505" lon="8.520391692832536"><ele>150.0</ele><time>2026-04-25T07:54:18.999Z</time></trkpt><trkpt lat="45.0035417623576" lon="8.520508185360983"><ele>151.0</ele><time>2026-04-25T07:54:19.999Z</time></trkpt><trkpt lat="45.00362069935722" lon="8.520669912203799"><ele>152.0</ele><time>2026-04-25T07:54:21Z</time></trkpt><trkpt lat="45.003691972561796" lon="8.520822817977251"><ele>153.0</ele><time>2026-04-25T07:54:22Z</time></trkpt><trkpt lat="45.003750989970854" lon="8.520952703202685"><ele>154.0</ele><time>2026-04-25T07:54:23Z</time></trkpt><trkpt lat="45.00381381495089" lon="8.521052098375963"><ele>154.0</ele><time>2026-04-25T07:54:24Z</time></trkpt><trkpt lat="45.00389018120552" lon="8.521133773909547"><ele>154.0</ele><time>2026-04-25T07:54:25Z</time></trkpt><trkpt lat="45.003985377314656" lon="8.521185743975225"><ele>154.0</ele><time>2026-04-25T07:54:26Z</time></trkpt><trkpt lat="45.00411937914465" lon="8.52121803232145"><ele>154.0</ele><time>2026-04-25T07:54:27Z</time></trkpt><trkpt lat="45.00426831793552" lon="8.521246036453933"><ele>151.0</ele><time>2026-04-25T07:54:28Z</time></trkpt><trkpt lat="45.00444216076591" lon="8.521256269570447"><ele>148.0</ele><time>2026-04-25T07:54:29Z</time></trkpt><trkpt lat="45.00461259163141" lon="8.521279010388813"><ele>145.0</ele><time>2026-04-25T07:54:30Z</time></trkpt><trkpt lat="45.00480173463209" lon="8.521308053277988"><ele>145.0</ele><time>2026-04-25T07:54:31Z</time></trkpt><trkpt lat="45.00496528488786" lon="8.52133422150972"><ele>145.0</ele><time>2026-04-25T07:54:32Z</time></trkpt><trkpt lat="45.00513095720413" lon="8.521360332259821"><ele>145.0</ele><time>2026-04-25T07:54:33Z</time></trkpt><trkpt lat="45.00530480261833" lon="8.521383504883033"><ele>145.66666666666669</ele><time>2026-04-25T07:54:34Z</time></trkpt><trkpt lat="45.00547699687086" lon="8.521403983499793"><ele>146.33333333333334</ele><time>2026-04-25T07:54:35Z</time></trkpt><trkpt lat="45.00563874148812" lon="8.521433397701491"><ele>147.0</ele><time>2026-04-25T07:54:36Z</time></trkpt><trkpt lat="45.00580608167675" lon="8.521448680545307"><ele>147.33333333333334</ele><time>2026-04-25T07:54:37Z</time></trkpt><trkpt lat="45.0059682236368" lon="8.521495030917272"><ele>147.66666666666669</ele><time>2026-04-25T07:54:38Z</time></trkpt><trkpt lat="45.00614209427445" lon="8.521498466027033"><ele>148.0</ele><time>2026-04-25T07:54:39Z</time></trkpt><trkpt lat="45.006307112889466" lon="8.521519431035292"><ele>148.0</ele><time>2026-04-25T07:54:40Z</time></trkpt><trkpt lat="45.00647275722911" lon="8.521558981587033"><ele>148.0</ele><time>2026-04-25T07:54:41Z</time></trkpt><trkpt lat="45.00665317182465" lon="8.52156930938034"><ele>148.0</ele><time>2026-04-25T07:54:42Z</time></trkpt><trkpt lat="45.006811095292335" lon="8.52157092042248"><ele>146.66666666666669</ele><time>2026-04-25T07:54:43Z</time></trkpt><trkpt lat="45.006980460020635" lon="8.521569955379768"><ele>145.33333333333334</ele><time>2026-04-25T07:54:44Z</time></trkpt><trkpt lat="45.00713167702881" lon="8.521564763747715"><ele>144.0</ele><time>2026-04-25T07:54:45Z</time></trkpt><trkpt lat="45.007271025811555" lon="8.521564719309858"><ele>144.0</ele><time>2026-04-25T07:54:46Z</time></trkpt><trkpt lat="45.00741917973237" lon="8.521579093911157"><ele>144.0</ele><time>2026-04-25T07:54:47Z</time></trkpt><trkpt lat="45.007558605428315" lon="8.521606309958653"><ele>144.0</ele><time>2026-04-25T07:54:48Z</time></trkpt><trkpt lat="45.00770924907113" lon="8.52164062942579"><ele>144.0</ele><time>2026-04-25T07:54:49Z</time></trkpt><trkpt lat="45.00786636901591" lon="8.521677802788554"><ele>143.33333333333334</ele><time>2026-04-25T07:54:50Z</time></trkpt><trkpt lat="45.00802738604602" lon="8.52171859557223"><ele>142.66666666666669</ele><time>2026-04-25T07:54:51Z</time></trkpt><trkpt lat="45.008183178705856" lon="8.521758195538258"><ele>142.0</ele><time>2026-04-25T07:54:52Z</time></trkpt><trkpt lat="45.00833995484858" lon="8.521798045490046"><ele>141.66666666666669</ele><time>2026-04-25T07:54:53Z</time></trkpt><trkpt lat="45.00849958260971" lon="8.521838620277041"><ele>141.33333333333334</ele><time>2026-04-25T07:54:54Z</time></trkpt><trkpt lat="45.008651695196335" lon="8.521875515896832"><ele>141.0</ele><time>2026-04-25T07:54:55Z</time></trkpt><trkpt lat="45.00879450528776" lon="8.521910064995383"><ele>141.0</ele><time>2026-04-25T07:54:56Z</time></trkpt><trkpt lat="45.008932633079624" lon="8.521944178435925"><ele>141.0</ele><time>2026-04-25T07:54:57Z</time></trkpt><trkpt lat="45.00906660246593" lon="8.521980180710367"><ele>141.0</ele><time>2026-04-25T07:54:58Z</time></trkpt><trkpt lat="45.00919314924833" lon="8.522016720729228"><ele>141.0</ele><time>2026-04-25T07:54:59Z</time></trkpt><trkpt lat="45.00930317918576" lon="8.522052293688416"><ele>140.75</ele><time>2026-04-25T07:55:00Z</time></trkpt><trkpt lat="45.009407142088996" lon="8.52209912555036"><ele>140.5</ele><time>2026-04-25T07:55:01Z</time></trkpt><trkpt lat="45.009508544627955" lon="8.522166997764423"><ele>140.25</ele><time>2026-04-25T07:55:02Z</time></trkpt><trkpt lat="45.009623965282145" lon="8.522259275371297"><ele>140.0</ele><time>2026-04-25T07:55:03Z</time></trkpt><trkpt lat="45.0097428698655" lon="8.522364273912594"><ele>140.0</ele><time>2026-04-25T07:55:04Z</time></trkpt><trkpt lat="45.00986700459" lon="8.522473537406624"><ele>140.0</ele><time>2026-04-25T07:55:05Z</time></trkpt><trkpt lat="45.00996951352756" lon="8.522569217637528"><ele>140.0</ele><time>2026-04-25T07:55:06Z</time></trkpt><trkpt lat="45.010057978463436" lon="8.522664263914741"><ele>140.0</ele><time>2026-04-25T07:55:07Z</time></trkpt><trkpt lat="45.010146094433566" lon="8.522774673882408"><ele>139.75</ele><time>2026-04-25T07:55:08Z</time></trkpt><trkpt lat="45.01022651169545" lon="8.52289560957159"><ele>139.5</ele><time>2026-04-25T07:55:09Z</time></trkpt><trkpt lat="45.01028744506771" lon="8.523009891228286"><ele>139.25</ele><time>2026-04-25T07:55:10Z</time></trkpt><trkpt lat="45.01036135326064" lon="8.523145841623098"><ele>139.0</ele><time>2026-04-25T07:55:11Z</time></trkpt><trkpt lat="45.01045206246717" lon="8.52327802926173"><ele>139.0</ele><time>2026-04-25T07:55:12Z</time></trkpt><trkpt lat="45.01050842076583" lon="8.52341142786064"><ele>139.0</ele><time>2026-04-25T07:55:13Z</time></trkpt><trkpt lat="45.01059071949727" lon="8.523543984604286"><ele>139.0</ele><time>2026-04-25T07:55:14Z</time></trkpt><trkpt lat="45.01069210142664" lon="8.523678893362327"><ele>139.0</ele><time>2026-04-25T07:55:15Z</time></trkpt><trkpt lat="45.01080548855679" lon="8.523803311843666"><ele>138.0</ele><time>2026-04-25T07:55:16Z</time></trkpt><trkpt lat="45.010924293455965" lon="8.523929153579529"><ele>137.0</ele><time>2026-04-25T07:55:17Z</time></trkpt><trkpt lat="45.01106450288846" lon="8.52406368339209"><ele>136.0</ele><time>2026-04-25T07:55:18Z</time></trkpt><trkpt lat="45.011187905340435" lon="8.524183912818634"><ele>136.0</ele><time>2026-04-25T07:55:19Z</time></trkpt><trkpt lat="45.01130231838837" lon="8.52429617348679"><ele>136.0</ele><time>2026-04-25T07:55:20Z</time></trkpt><trkpt lat="45.01141863279011" lon="8.52442367567642"><ele>136.0</ele><time>2026-04-25T07:55:21Z</time></trkpt><trkpt lat="45.01152975698309" lon="8.524537233299526"><ele>136.0</ele><time>2026-04-25T07:55:22Z</time></trkpt><trkpt lat="45.01162377539573" lon="8.524666177661903"><ele>135.75</ele><time>2026-04-25T07:55:23Z</time></trkpt><trkpt lat="45.011719416725235" lon="8.52476926012407"><ele>135.5</ele><time>2026-04-25T07:55:24Z</time></trkpt><trkpt lat="45.01182892715564" lon="8.524851989192026"><ele>135.25</ele><time>2026-04-25T07:55:25Z</time></trkpt><trkpt lat="45.011931176589684" lon="8.524956514055084"><ele>135.0</ele><time>2026-04-25T07:55:26Z</time></trkpt><trkpt lat="45.012033177021536" lon="8.525038303832195"><ele>135.0</ele><time>2026-04-25T07:55:27Z</time></trkpt><trkpt lat="45.01213897187484" lon="8.525123570806846"><ele>135.0</ele><time>2026-04-25T07:55:28Z</time></trkpt><trkpt lat="45.01224940215516" lon="8.525201927988284"><ele>135.0</ele><time>2026-04-25T07:55:29Z</time></trkpt><trkpt lat="45.01235077959364" lon="8.525283645772957"><ele>135.0</ele><time>2026-04-25T07:55:30Z</time></trkpt><trkpt lat="45.01244394662224" lon="8.525343554655894"><ele>134.66666666666666</ele><time>2026-04-25T07:55:31Z</time></trkpt><trkpt lat="45.01252042798373" lon="8.52541678799585"><ele>134.33333333333334</ele><time>2026-04-25T07:55:32Z</time></trkpt><trkpt lat="45.01259682931451" lon="8.525470668305545"><ele>134.0</ele><time>2026-04-25T07:55:33Z</time></trkpt><trkpt lat="45.01267293269527" lon="8.525524340153305"><ele>133.66666666666669</ele><time>2026-04-25T07:55:34Z</time></trkpt><trkpt lat="45.01274321898817" lon="8.52557390803566"><ele>133.33333333333334</ele><time>2026-04-25T07:55:35Z</time></trkpt><trkpt lat="45.01280052299568" lon="8.525614320404207"><ele>133.0</ele><time>2026-04-25T07:55:36Z</time></trkpt><trkpt lat="45.01292722805974" lon="8.525687413398854"><ele>133.0</ele><time>2026-04-25T07:55:38Z</time></trkpt><trkpt lat="45.0130088976716" lon="8.525742173651409"><ele>133.0</ele><time>2026-04-25T07:55:39Z</time></trkpt><trkpt lat="45.01310164615674" lon="8.525793998706696"><ele>133.0</ele><time>2026-04-25T07:55:40Z</time></trkpt><trkpt lat="45.013197328234774" lon="8.525865011833991"><ele>133.0</ele><time>2026-04-25T07:55:41Z</time></trkpt><trkpt lat="45.0132914262412" lon="8.525932286287583"><ele>133.0</ele><time>2026-04-25T07:55:42Z</time></trkpt><trkpt lat="45.01340419260698" lon="8.525974033176405"><ele>132.75</ele><time>2026-04-25T07:55:43Z</time></trkpt><trkpt lat="45.013521844477545" lon="8.526046540526721"><ele>132.5</ele><time>2026-04-25T07:55:44Z</time></trkpt><trkpt lat="45.013642719638334" lon="8.526129530353408"><ele>132.25</ele><time>2026-04-25T07:55:45Z</time></trkpt><trkpt lat="45.01376770926622" lon="8.526211778833863"><ele>132.0</ele><time>2026-04-25T07:55:46Z</time></trkpt><trkpt lat="45.01388272900565" lon="8.526293916608495"><ele>132.5</ele><time>2026-04-25T07:55:46.999Z</time></trkpt><trkpt lat="45.01399467717502" lon="8.526384149101945"><ele>133.0</ele><time>2026-04-25T07:55:47.999Z</time></trkpt><trkpt lat="45.01411397844566" lon="8.526488309641499"><ele>133.5</ele><time>2026-04-25T07:55:48.999Z</time></trkpt><trkpt lat="45.0142288766974" lon="8.52658598862398"><ele>134.0</ele><time>2026-04-25T07:55:49.999Z</time></trkpt><trkpt lat="45.01434169625209" lon="8.526675124247978"><ele>133.0</ele><time>2026-04-25T07:55:50.999Z</time></trkpt><trkpt lat="45.01444715819853" lon="8.526766776549534"><ele>132.0</ele><time>2026-04-25T07:55:51.999Z</time></trkpt><trkpt lat="45.01455203899622" lon="8.526859697048907"><ele>131.0</ele><time>2026-04-25T07:55:52.999Z</time></trkpt><trkpt lat="45.0146541581776" lon="8.526946781445131"><ele>130.0</ele><time>2026-04-25T07:55:53.999Z</time></trkpt><trkpt lat="45.01476512479507" lon="8.52703941573418"><ele>130.25</ele><time>2026-04-25T07:55:54.999Z</time></trkpt><trkpt lat="45.014865816962974" lon="8.52714727590294"><ele>130.5</ele><time>2026-04-25T07:55:55.999Z</time></trkpt><trkpt lat="45.01497227004125" lon="8.527219556690465"><ele>130.75</ele><time>2026-04-25T07:55:56.999Z</time></trkpt><trkpt lat="45.01508043425167" lon="8.527310045599712"><ele>131.0</ele><time>2026-04-25T07:55:57.999Z</time></trkpt><trkpt lat="45.015179021296156" lon="8.527381887180445"><ele>131.0</ele><time>2026-04-25T07:55:58.999Z</time></trkpt><trkpt lat="45.01528672751049" lon="8.527467301808699"><ele>131.0</ele><time>2026-04-25T07:55:59.999Z</time></trkpt><trkpt lat="45.015391025083325" lon="8.527578274792612"><ele>131.0</ele><time>2026-04-25T07:56:00.999Z</time></trkpt><trkpt lat="45.015502582060606" lon="8.527668502446481"><ele>131.0</ele><time>2026-04-25T07:56:01.999Z</time></trkpt><trkpt lat="45.01563076437643" lon="8.527747689087363"><ele>131.0</ele><time>2026-04-25T07:56:02.999Z</time></trkpt><trkpt lat="45.01574408160958" lon="8.527848155026053"><ele>131.0</ele><time>2026-04-25T07:56:03.999Z</time></trkpt><trkpt lat="45.015849910863366" lon="8.527932381098939"><ele>131.0</ele><time>2026-04-25T07:56:04.999Z</time></trkpt><trkpt lat="45.015926251247464" lon="8.528021317204185"><ele>131.0</ele><time>2026-04-25T07:56:05.999Z</time></trkpt><trkpt lat="45.01600673836396" lon="8.528070015997702"><ele>131.0</ele><time>2026-04-25T07:56:06.999Z</time></trkpt><trkpt lat="45.01606627971386" lon="8.528151575240788"><ele>130.8</ele><time>2026-04-25T07:56:07.999Z</time></trkpt><trkpt lat="45.016169309088525" lon="8.52822871061165"><ele>130.6</ele><time>2026-04-25T07:56:09.999Z</time></trkpt><trkpt lat="45.01623246375724" lon="8.528299566795297"><ele>130.4</ele><time>2026-04-25T07:56:11.999Z</time></trkpt><trkpt lat="45.016181155556424" lon="8.528421684571423"><ele>130.2</ele><time>2026-04-25T07:56:14.999Z</time></trkpt><trkpt lat="45.01612905741197" lon="8.528482954503504"><ele>130.0</ele><time>2026-04-25T07:56:15.999Z</time></trkpt><trkpt lat="45.01605244015205" lon="8.528563246437667"><ele>130.0</ele><time>2026-04-25T07:56:16.999Z</time></trkpt><trkpt lat="45.01598370070968" lon="8.528630174489976"><ele>130.0</ele><time>2026-04-25T07:56:17.999Z</time></trkpt><trkpt lat="45.01590552529776" lon="8.528703909909112"><ele>130.0</ele><time>2026-04-25T07:56:18.999Z</time></trkpt><trkpt lat="45.01584841736144" lon="8.528754999353637"><ele>130.0</ele><time>2026-04-25T07:56:19.999Z</time></trkpt><trkpt lat="45.015790973343215" lon="8.528800767316453"><ele>130.0</ele><time>2026-04-25T07:56:20.999Z</time></trkpt><trkpt lat="45.01570888620853" lon="8.528871297517055"><ele>130.0</ele><time>2026-04-25T07:56:22.999Z</time></trkpt><trkpt lat="45.01564205227317" lon="8.528893668733607"><ele>130.33333333333334</ele><time>2026-04-25T07:56:26Z</time></trkpt><trkpt lat="45.01561016866398" lon="8.528816047655475"><ele>130.66666666666669</ele><time>2026-04-25T07:56:32Z</time></trkpt><trkpt lat="45.015505939510334" lon="8.528695434640289"><ele>131.0</ele><time>2026-04-25T07:56:34Z</time></trkpt><trkpt lat="45.01544043671907" lon="8.528648898525258"><ele>131.33333333333334</ele><time>2026-04-25T07:56:35Z</time></trkpt><trkpt lat="45.01538238766293" lon="8.528576040284511"><ele>131.66666666666666</ele><time>2026-04-25T07:56:36Z</time></trkpt><trkpt lat="45.01531699840312" lon="8.528491270918098"><ele>132.0</ele><time>2026-04-25T07:56:37Z</time></trkpt><trkpt lat="45.0152576049272" lon="8.528388504404395"><ele>132.0</ele><time>2026-04-25T07:56:38Z</time></trkpt><trkpt lat="45.01517867252328" lon="8.528322121799878"><ele>132.0</ele><time>2026-04-25T07:56:39Z</time></trkpt><trkpt lat="45.01511077808373" lon="8.528238775161107"><ele>132.0</ele><time>2026-04-25T07:56:40Z</time></trkpt><trkpt lat="45.01505168656783" lon="8.528148368131017"><ele>132.0</ele><time>2026-04-25T07:56:41Z</time></trkpt><trkpt lat="45.01497773664937" lon="8.528068471524264"><ele>132.0</ele><time>2026-04-25T07:56:42Z</time></trkpt><trkpt lat="45.01490594579562" lon="8.5279914700397"><ele>132.2</ele><time>2026-04-25T07:56:43Z</time></trkpt><trkpt lat="45.01482318192851" lon="8.52793368171605"><ele>132.39999999999998</ele><time>2026-04-25T07:56:44Z</time></trkpt><trkpt lat="45.01475587251347" lon="8.527836191084221"><ele>132.60000000000002</ele><time>2026-04-25T07:56:45Z</time></trkpt><trkpt lat="45.014671365724936" lon="8.527778165127776"><ele>132.8</ele><time>2026-04-25T07:56:46Z</time></trkpt><trkpt lat="45.01459460976443" lon="8.52769789428973"><ele>133.0</ele><time>2026-04-25T07:56:47Z</time></trkpt><trkpt lat="45.014534025357285" lon="8.527619155002238"><ele>133.0</ele><time>2026-04-25T07:56:48Z</time></trkpt><trkpt lat="45.01443280985341" lon="8.527550458218403"><ele>133.0</ele><time>2026-04-25T07:56:49Z</time></trkpt><trkpt lat="45.014346730926825" lon="8.527446154388258"><ele>133.0</ele><time>2026-04-25T07:56:50Z</time></trkpt><trkpt lat="45.014252612216936" lon="8.52736117561455"><ele>133.0</ele><time>2026-04-25T07:56:51Z</time></trkpt><trkpt lat="45.01415408384475" lon="8.5272730972275"><ele>133.20000000000002</ele><time>2026-04-25T07:56:52Z</time></trkpt><trkpt lat="45.014051975151396" lon="8.527212448926827"><ele>133.4</ele><time>2026-04-25T07:56:53Z</time></trkpt><trkpt lat="45.01396522184771" lon="8.527138840607172"><ele>133.60000000000002</ele><time>2026-04-25T07:56:54Z</time></trkpt><trkpt lat="45.01388451672486" lon="8.527076086635759"><ele>133.8</ele><time>2026-04-25T07:56:55Z</time></trkpt><trkpt lat="45.01380259106002" lon="8.526992240019347"><ele>134.0</ele><time>2026-04-25T07:56:56Z</time></trkpt><trkpt lat="45.01370452402457" lon="8.526948391756772"><ele>134.0</ele><time>2026-04-25T07:56:57Z</time></trkpt><trkpt lat="45.01360778589228" lon="8.526885431061638"><ele>134.0</ele><time>2026-04-25T07:56:58Z</time></trkpt><trkpt lat="45.013522292940465" lon="8.526830965671639"><ele>134.0</ele><time>2026-04-25T07:56:59Z</time></trkpt><trkpt lat="45.01343168441608" lon="8.526751965304886"><ele>134.0</ele><time>2026-04-25T07:57:00Z</time></trkpt><trkpt lat="45.01336196953842" lon="8.526710873138848"><ele>134.0</ele><time>2026-04-25T07:57:01Z</time></trkpt><trkpt lat="45.013289060176085" lon="8.52666969587673"><ele>134.8</ele><time>2026-04-25T07:57:02Z</time></trkpt><trkpt lat="45.01322801926608" lon="8.526635221620886"><ele>135.60000000000002</ele><time>2026-04-25T07:57:03Z</time></trkpt><trkpt lat="45.01316226438995" lon="8.526622560494515"><ele>136.4</ele><time>2026-04-25T07:57:04Z</time></trkpt><trkpt lat="45.013044359213566" lon="8.526527417057359"><ele>137.20000000000002</ele><time>2026-04-25T07:57:06Z</time></trkpt><trkpt lat="45.01291630334796" lon="8.526460543526357"><ele>138.0</ele><time>2026-04-25T07:57:08Z</time></trkpt><trkpt lat="45.01286072844664" lon="8.526394414269777"><ele>138.0</ele><time>2026-04-25T07:57:12Z</time></trkpt><trkpt lat="45.01277435159843" lon="8.526322975616255"><ele>138.0</ele><time>2026-04-25T07:57:14Z</time></trkpt><trkpt lat="45.01267207216626" lon="8.526239511242883"><ele>138.0</ele><time>2026-04-25T07:57:16Z</time></trkpt><trkpt lat="45.012583746561006" lon="8.526170176019786"><ele>138.0</ele><time>2026-04-25T07:57:18Z</time></trkpt><trkpt lat="45.01250498613386" lon="8.526108349369622"><ele>138.0</ele><time>2026-04-25T07:57:20Z</time></trkpt><trkpt lat="45.012421053399564" lon="8.526042462500246"><ele>138.33333333333334</ele><time>2026-04-25T07:57:22Z</time></trkpt><trkpt lat="45.0123657417118" lon="8.525999043046184"><ele>138.66666666666669</ele><time>2026-04-25T07:57:24Z</time></trkpt><trkpt lat="45.01221910305916" lon="8.526482891673737"><ele>139.0</ele><time>2026-04-25T07:57:29Z</time></trkpt><trkpt lat="45.01228101948172" lon="8.526511648773532"><ele>139.0</ele><time>2026-04-25T07:57:30Z</time></trkpt><trkpt lat="45.01238240463298" lon="8.526530395483116"><ele>139.0</ele><time>2026-04-25T07:57:32Z</time></trkpt><trkpt lat="45.01244637289432" lon="8.526529573064584"><ele>139.0</ele><time>2026-04-25T07:57:33Z</time></trkpt><trkpt lat="45.012563836056295" lon="8.526523937486463"><ele>139.0</ele><time>2026-04-25T07:57:35Z</time></trkpt><trkpt lat="45.01267983804659" lon="8.526514564749503"><ele>139.0</ele><time>2026-04-25T07:57:37Z</time></trkpt><trkpt lat="45.01274559591722" lon="8.52650761588716"><ele>138.8</ele><time>2026-04-25T07:57:38Z</time></trkpt><trkpt lat="45.01283279008511" lon="8.526520004394847"><ele>138.60000000000002</ele><time>2026-04-25T07:57:40Z</time></trkpt><trkpt lat="45.01282597936138" lon="8.526411579571619"><ele>138.4</ele><time>2026-04-25T07:57:44.999Z</time></trkpt><trkpt lat="45.01273997175015" lon="8.526294921796843"><ele>138.20000000000002</ele><time>2026-04-25T07:57:46.999Z</time></trkpt><trkpt lat="45.01268405240811" lon="8.52624929183175"><ele>138.0</ele><time>2026-04-25T07:57:47.999Z</time></trkpt><trkpt lat="45.01259151030138" lon="8.52617627052895"><ele>138.20000000000002</ele><time>2026-04-25T07:57:49.999Z</time></trkpt><trkpt lat="45.01252874985371" lon="8.526127003829192"><ele>138.4</ele><time>2026-04-25T07:57:50.999Z</time></trkpt><trkpt lat="45.01243466298468" lon="8.526053145964154"><ele>138.60000000000002</ele><time>2026-04-25T07:57:52.999Z</time></trkpt><trkpt lat="45.01233320755832" lon="8.525973503883279"><ele>138.8</ele><time>2026-04-25T07:57:54.999Z</time></trkpt><trkpt lat="45.012265873845976" lon="8.525945842872652"><ele>139.0</ele><time>2026-04-25T07:57:55.999Z</time></trkpt><trkpt lat="45.01218820834408" lon="8.525879351460901"><ele>139.0</ele><time>2026-04-25T07:57:57.999Z</time></trkpt><trkpt lat="45.01213268565518" lon="8.52583578700356"><ele>139.0</ele><time>2026-04-25T07:57:58.999Z</time></trkpt><trkpt lat="45.01204885577846" lon="8.525777716171202"><ele>139.0</ele><time>2026-04-25T07:58:00.999Z</time></trkpt><trkpt lat="45.01199981470709" lon="8.52571460594767"><ele>139.0</ele><time>2026-04-25T07:58:03.999Z</time></trkpt><trkpt lat="45.01209074278297" lon="8.525815953068708"><ele>139.0</ele><time>2026-04-25T07:58:08.999Z</time></trkpt><trkpt lat="45.012193822745644" lon="8.525882743002516"><ele>139.0</ele><time>2026-04-25T07:58:10.999Z</time></trkpt><trkpt lat="45.0122883250656" lon="8.525978125254044"><ele>139.0</ele><time>2026-04-25T07:58:12.999Z</time></trkpt><trkpt lat="45.01235353349904" lon="8.52602616448464"><ele>139.0</ele><time>2026-04-25T07:58:13.999Z</time></trkpt><trkpt lat="45.01241835391454" lon="8.526082937831696"><ele>139.0</ele><time>2026-04-25T07:58:14.999Z</time></trkpt><trkpt lat="45.012484335368676" lon="8.526129392806027"><ele>139.0</ele><time>2026-04-25T07:58:15.999Z</time></trkpt><trkpt lat="45.01255014456318" lon="8.526185238130864"><ele>139.0</ele><time>2026-04-25T07:58:16.999Z</time></trkpt><trkpt lat="45.01260693340576" lon="8.52622632660395"><ele>138.83333333333334</ele><time>2026-04-25T07:58:17.999Z</time></trkpt><trkpt lat="45.012706164822944" lon="8.526300822264286"><ele>138.66666666666669</ele><time>2026-04-25T07:58:19.999Z</time></trkpt><trkpt lat="45.01276397180693" lon="8.526347684188687"><ele>138.5</ele><time>2026-04-25T07:58:20.999Z</time></trkpt><trkpt lat="45.012818468028" lon="8.526396092075212"><ele>138.33333333333334</ele><time>2026-04-25T07:58:21.999Z</time></trkpt><trkpt lat="45.01290615525846" lon="8.526463546908948"><ele>138.16666666666666</ele><time>2026-04-25T07:58:23.999Z</time></trkpt><trkpt lat="45.012983434958" lon="8.52652275620255"><ele>138.0</ele><time>2026-04-25T07:58:25.999Z</time></trkpt><trkpt lat="45.01309546809357" lon="8.526585105931826"><ele>138.0</ele><time>2026-04-25T07:58:27.999Z</time></trkpt><trkpt lat="45.01317473076165" lon="8.526655687964608"><ele>138.0</ele><time>2026-04-25T07:58:28.999Z</time></trkpt><trkpt lat="45.01324936561006" lon="8.526697839715792"><ele>138.0</ele><time>2026-04-25T07:58:29.999Z</time></trkpt><trkpt lat="45.013319946520625" lon="8.52673770192931"><ele>138.0</ele><time>2026-04-25T07:58:30.999Z</time></trkpt><trkpt lat="45.01340332519536" lon="8.52676213659254"><ele>138.0</ele><time>2026-04-25T07:58:32Z</time></trkpt><trkpt lat="45.013473127767746" lon="8.526828352237176"><ele>138.0</ele><time>2026-04-25T07:58:33Z</time></trkpt><trkpt lat="45.013542311105354" lon="8.526872561555207"><ele>138.33333333333334</ele><time>2026-04-25T07:58:34Z</time></trkpt><trkpt lat="45.013619572203176" lon="8.52692193271416"><ele>138.66666666666666</ele><time>2026-04-25T07:58:35Z</time></trkpt><trkpt lat="45.01369466747754" lon="8.526971439250454"><ele>139.0</ele><time>2026-04-25T07:58:36Z</time></trkpt><trkpt lat="45.01377542115502" lon="8.527001522715352"><ele>139.33333333333331</ele><time>2026-04-25T07:58:37Z</time></trkpt><trkpt lat="45.01385617449377" lon="8.527062444836613"><ele>139.66666666666666</ele><time>2026-04-25T07:58:38Z</time></trkpt><trkpt lat="45.01393864232456" lon="8.527127639362046"><ele>140.0</ele><time>2026-04-25T07:58:39Z</time></trkpt><trkpt lat="45.01401841379203" lon="8.527198200271386"><ele>140.0</ele><time>2026-04-25T07:58:40Z</time></trkpt><trkpt lat="45.01409818874619" lon="8.527259470387797"><ele>140.0</ele><time>2026-04-25T07:58:41Z</time></trkpt><trkpt lat="45.01418225930315" lon="8.527328001009018"><ele>140.0</ele><time>2026-04-25T07:58:42Z</time></trkpt><trkpt lat="45.01428780799568" lon="8.527424308656055"><ele>140.0</ele><time>2026-04-25T07:58:43Z</time></trkpt><trkpt lat="45.01438351334838" lon="8.527535812463153"><ele>140.0</ele><time>2026-04-25T07:58:44Z</time></trkpt><trkpt lat="45.014440041295366" lon="8.527587583805492"><ele>138.8</ele><time>2026-04-25T07:58:45Z</time></trkpt><trkpt lat="45.01452590256447" lon="8.52766792886037"><ele>137.6</ele><time>2026-04-25T07:58:46Z</time></trkpt><trkpt lat="45.014614719538294" lon="8.527752350680048"><ele>136.4</ele><time>2026-04-25T07:58:47Z</time></trkpt><trkpt lat="45.014716064714236" lon="8.527826241558317"><ele>135.2</ele><time>2026-04-25T07:58:48Z</time></trkpt><trkpt lat="45.01479370915859" lon="8.52793329361057"><ele>134.0</ele><time>2026-04-25T07:58:49Z</time></trkpt><trkpt lat="45.014885397462564" lon="8.528028406196702"><ele>134.0</ele><time>2026-04-25T07:58:50Z</time></trkpt><trkpt lat="45.01497213211478" lon="8.528121436106085"><ele>134.0</ele><time>2026-04-25T07:58:51Z</time></trkpt><trkpt lat="45.01505992089028" lon="8.528195359898564"><ele>134.0</ele><time>2026-04-25T07:58:52Z</time></trkpt><trkpt lat="45.015127688674575" lon="8.528266801138596"><ele>134.0</ele><time>2026-04-25T07:58:53Z</time></trkpt><trkpt lat="45.015180626718376" lon="8.528355793997276"><ele>134.0</ele><time>2026-04-25T07:58:54Z</time></trkpt><trkpt lat="45.01523903303962" lon="8.52842748450613"><ele>133.83333333333331</ele><time>2026-04-25T07:58:55Z</time></trkpt><trkpt lat="45.015313358736186" lon="8.52852333976944"><ele>133.66666666666666</ele><time>2026-04-25T07:58:56Z</time></trkpt><trkpt lat="45.01537959593186" lon="8.528608186624592"><ele>133.5</ele><time>2026-04-25T07:58:57Z</time></trkpt><trkpt lat="45.01546385077174" lon="8.528682049352527"><ele>133.33333333333334</ele><time>2026-04-25T07:58:58Z</time></trkpt><trkpt lat="45.0155255504803" lon="8.528751060762238"><ele>133.16666666666669</ele><time>2026-04-25T07:58:59Z</time></trkpt><trkpt lat="45.01556835426157" lon="8.528823610340464"><ele>133.0</ele><time>2026-04-25T07:59:00Z</time></trkpt><trkpt lat="45.015614956638906" lon="8.528890652028599"><ele>133.0</ele><time>2026-04-25T07:59:02Z</time></trkpt><trkpt lat="45.015636120626354" lon="8.528979613126486"><ele>133.0</ele><time>2026-04-25T07:59:06Z</time></trkpt><trkpt lat="45.0155332901969" lon="8.529100450917726"><ele>133.0</ele><time>2026-04-25T07:59:09Z</time></trkpt><trkpt lat="45.01543284063071" lon="8.529204452706669"><ele>133.0</ele><time>2026-04-25T07:59:11Z</time></trkpt><trkpt lat="45.01536875358667" lon="8.529287390870756"><ele>133.0</ele><time>2026-04-25T07:59:12Z</time></trkpt><trkpt lat="45.01530017145078" lon="8.52937464642398"><ele>133.0</ele><time>2026-04-25T07:59:13Z</time></trkpt><trkpt lat="45.01522752081273" lon="8.529465612343623"><ele>133.0</ele><time>2026-04-25T07:59:14Z</time></trkpt><trkpt lat="45.01515675939244" lon="8.529562617690546"><ele>133.0</ele><time>2026-04-25T07:59:15Z</time></trkpt><trkpt lat="45.01510381188836" lon="8.529675088094638"><ele>133.0</ele><time>2026-04-25T07:59:16Z</time></trkpt><trkpt lat="45.0150361727588" lon="8.529789706958741"><ele>133.0</ele><time>2026-04-25T07:59:17Z</time></trkpt><trkpt lat="45.01497997064063" lon="8.529914349835208"><ele>134.6</ele><time>2026-04-25T07:59:18Z</time></trkpt><trkpt lat="45.014924064710065" lon="8.53003915191772"><ele>136.20000000000002</ele><time>2026-04-25T07:59:19Z</time></trkpt><trkpt lat="45.01485638445859" lon="8.53014639973804"><ele>137.8</ele><time>2026-04-25T07:59:20Z</time></trkpt><trkpt lat="45.01479808640736" lon="8.530269560694823"><ele>139.4</ele><time>2026-04-25T07:59:21Z</time></trkpt><trkpt lat="45.01474521948766" lon="8.53039173829558"><ele>141.0</ele><time>2026-04-25T07:59:22Z</time></trkpt><trkpt lat="45.014693723025985" lon="8.530516333445272"><ele>141.2</ele><time>2026-04-25T07:59:23Z</time></trkpt><trkpt lat="45.01465102573006" lon="8.530660237904463"><ele>141.39999999999998</ele><time>2026-04-25T07:59:24Z</time></trkpt><trkpt lat="45.014613029530636" lon="8.530785530072922"><ele>141.6</ele><time>2026-04-25T07:59:25Z</time></trkpt><trkpt lat="45.01458698921418" lon="8.530931089576633"><ele>141.79999999999998</ele><time>2026-04-25T07:59:26Z</time></trkpt><trkpt lat="45.01456896100435" lon="8.531093940409733"><ele>142.0</ele><time>2026-04-25T07:59:27Z</time></trkpt><trkpt lat="45.014556286611366" lon="8.531266696644257"><ele>142.0</ele><time>2026-04-25T07:59:28Z</time></trkpt><trkpt lat="45.014525587168954" lon="8.53144089337416"><ele>142.0</ele><time>2026-04-25T07:59:29Z</time></trkpt><trkpt lat="45.01451736457475" lon="8.531622493180665"><ele>142.0</ele><time>2026-04-25T07:59:30Z</time></trkpt><trkpt lat="45.014502903456446" lon="8.531802165093486"><ele>142.0</ele><time>2026-04-25T07:59:31Z</time></trkpt><trkpt lat="45.014488674126525" lon="8.531986744329734"><ele>141.75</ele><time>2026-04-25T07:59:32Z</time></trkpt><trkpt lat="45.01446845820019" lon="8.53217808324689"><ele>141.5</ele><time>2026-04-25T07:59:33Z</time></trkpt><trkpt lat="45.01444929638192" lon="8.532378685083133"><ele>141.25</ele><time>2026-04-25T07:59:34Z</time></trkpt><trkpt lat="45.01442806744647" lon="8.532580613764559"><ele>141.0</ele><time>2026-04-25T07:59:35Z</time></trkpt><trkpt lat="45.01441951132661" lon="8.532745973161322"><ele>140.8</ele><time>2026-04-25T07:59:36Z</time></trkpt><trkpt lat="45.01440201872738" lon="8.532905947048675"><ele>140.6</ele><time>2026-04-25T07:59:37Z</time></trkpt><trkpt lat="45.014391227411515" lon="8.533052128159738"><ele>140.4</ele><time>2026-04-25T07:59:38Z</time></trkpt><trkpt lat="45.01437849886549" lon="8.533180521342784"><ele>140.2</ele><time>2026-04-25T07:59:39Z</time></trkpt><trkpt lat="45.01436995109233" lon="8.533296825783122"><ele>140.0</ele><time>2026-04-25T07:59:40Z</time></trkpt><trkpt lat="45.014358300543854" lon="8.533399989069773"><ele>140.0</ele><time>2026-04-25T07:59:41Z</time></trkpt><trkpt lat="45.014348452987385" lon="8.533543754181617"><ele>140.0</ele><time>2026-04-25T07:59:43Z</time></trkpt><trkpt lat="45.01432066499184" lon="8.533667555840971"><ele>140.0</ele><time>2026-04-25T07:59:46Z</time></trkpt><trkpt lat="45.014238685252174" lon="8.533592031761076"><ele>140.0</ele><time>2026-04-25T07:59:49Z</time></trkpt><trkpt lat="45.014140952157675" lon="8.533544053705205"><ele>140.0</ele><time>2026-04-25T07:59:51Z</time></trkpt><trkpt lat="45.01407626416094" lon="8.533512297784986"><ele>140.42857142857142</ele><time>2026-04-25T07:59:51.999Z</time></trkpt><trkpt lat="45.01400849000309" lon="8.533479026834028"><ele>140.85714285714286</ele><time>2026-04-25T07:59:52.999Z</time></trkpt><trkpt lat="45.01394696535522" lon="8.533448823824221"><ele>141.28571428571428</ele><time>2026-04-25T07:59:53.999Z</time></trkpt><trkpt lat="45.01388484365836" lon="8.533421003353903"><ele>141.71428571428572</ele><time>2026-04-25T07:59:54.999Z</time></trkpt><trkpt lat="45.01382259539007" lon="8.533404418348807"><ele>142.14285714285714</ele><time>2026-04-25T07:59:55.999Z</time></trkpt><trkpt lat="45.013753139424644" lon="8.53344529602383"><ele>142.57142857142856</ele><time>2026-04-25T07:59:56.999Z</time></trkpt><trkpt lat="45.013680156469206" lon="8.533424569444048"><ele>143.0</ele><time>2026-04-25T07:59:57.999Z</time></trkpt><trkpt lat="45.01360709328239" lon="8.533406896812613"><ele>143.0</ele><time>2026-04-25T07:59:58.999Z</time></trkpt><trkpt lat="45.01353448084952" lon="8.533394691853017"><ele>143.0</ele><time>2026-04-25T07:59:59.999Z</time></trkpt><trkpt lat="45.01345690900822" lon="8.533400301516005"><ele>143.0</ele><time>2026-04-25T08:00:00.999Z</time></trkpt><trkpt lat="45.01336724409957" lon="8.533385292040798"><ele>143.0</ele><time>2026-04-25T08:00:01.999Z</time></trkpt><trkpt lat="45.013271168682024" lon="8.533380517307155"><ele>143.0</ele><time>2026-04-25T08:00:02.999Z</time></trkpt><trkpt lat="45.01318446448726" lon="8.533399044183014"><ele>143.0</ele><time>2026-04-25T08:00:03.999Z</time></trkpt><trkpt lat="45.01307358592362" lon="8.53339051866247"><ele>144.25</ele><time>2026-04-25T08:00:04.999Z</time></trkpt><trkpt lat="45.01296061358898" lon="8.533362838286264"><ele>145.5</ele><time>2026-04-25T08:00:05.999Z</time></trkpt><trkpt lat="45.01285672590125" lon="8.53335659863835"><ele>146.75</ele><time>2026-04-25T08:00:06.999Z</time></trkpt><trkpt lat="45.0127388469861" lon="8.533349888946914"><ele>148.0</ele><time>2026-04-25T08:00:07.999Z</time></trkpt><trkpt lat="45.01261916530857" lon="8.533369575554442"><ele>148.0</ele><time>2026-04-25T08:00:08.999Z</time></trkpt><trkpt lat="45.012519410733525" lon="8.533367793335259"><ele>148.0</ele><time>2026-04-25T08:00:09.999Z</time></trkpt><trkpt lat="45.01241944317057" lon="8.533344384393057"><ele>148.0</ele><time>2026-04-25T08:00:10.999Z</time></trkpt><trkpt lat="45.01232800148061" lon="8.533339668007761"><ele>148.0</ele><time>2026-04-25T08:00:11.999Z</time></trkpt><trkpt lat="45.012252374212935" lon="8.533334261906223"><ele>148.0</ele><time>2026-04-25T08:00:12.999Z</time></trkpt><trkpt lat="45.01218682377649" lon="8.533316361460587"><ele>148.0</ele><time>2026-04-25T08:00:13.999Z</time></trkpt><trkpt lat="45.012108620823675" lon="8.533285547329182"><ele>148.4</ele><time>2026-04-25T08:00:14.999Z</time></trkpt><trkpt lat="45.01202114650408" lon="8.533241161336464"><ele>148.8</ele><time>2026-04-25T08:00:15.999Z</time></trkpt><trkpt lat="45.011926841974876" lon="8.533187220835687"><ele>149.2</ele><time>2026-04-25T08:00:16.999Z</time></trkpt><trkpt lat="45.011832921939025" lon="8.533153626854563"><ele>149.6</ele><time>2026-04-25T08:00:17.999Z</time></trkpt><trkpt lat="45.01174284006245" lon="8.533068501868087"><ele>150.0</ele><time>2026-04-25T08:00:18.999Z</time></trkpt><trkpt lat="45.011643164494494" lon="8.532999223728726"><ele>150.8</ele><time>2026-04-25T08:00:19.999Z</time></trkpt><trkpt lat="45.01154980637493" lon="8.532938735482604"><ele>151.6</ele><time>2026-04-25T08:00:20.999Z</time></trkpt><trkpt lat="45.0114587165886" lon="8.53288599086458"><ele>152.4</ele><time>2026-04-25T08:00:21.999Z</time></trkpt><trkpt lat="45.01135819579369" lon="8.53283104509203"><ele>153.2</ele><time>2026-04-25T08:00:22.999Z</time></trkpt><trkpt lat="45.01126843082357" lon="8.532805790982364"><ele>154.0</ele><time>2026-04-25T08:00:23.999Z</time></trkpt><trkpt lat="45.01116854438755" lon="8.5327533059904"><ele>155.4</ele><time>2026-04-25T08:00:24.999Z</time></trkpt><trkpt lat="45.01108301771968" lon="8.53268896010332"><ele>156.8</ele><time>2026-04-25T08:00:25.999Z</time></trkpt><trkpt lat="45.01098624652704" lon="8.532665255552969"><ele>158.20000000000002</ele><time>2026-04-25T08:00:26.999Z</time></trkpt><trkpt lat="45.01089908288452" lon="8.532618713253223"><ele>159.60000000000002</ele><time>2026-04-25T08:00:27.999Z</time></trkpt><trkpt lat="45.01081008263394" lon="8.532554679882292"><ele>161.0</ele><time>2026-04-25T08:00:28.999Z</time></trkpt><trkpt lat="45.01071006408166" lon="8.532530481558927"><ele>161.0</ele><time>2026-04-25T08:00:29.999Z</time></trkpt><trkpt lat="45.01061227506888" lon="8.532480672012717"><ele>161.0</ele><time>2026-04-25T08:00:30.999Z</time></trkpt><trkpt lat="45.010527620606204" lon="8.532436914999808"><ele>161.0</ele><time>2026-04-25T08:00:31.999Z</time></trkpt><trkpt lat="45.01044500828604" lon="8.532396182597017"><ele>161.0</ele><time>2026-04-25T08:00:32.999Z</time></trkpt><trkpt lat="45.010379496942434" lon="8.532358823003866"><ele>161.0</ele><time>2026-04-25T08:00:33.999Z</time></trkpt><trkpt lat="45.01031040171984" lon="8.532323944768006"><ele>161.0</ele><time>2026-04-25T08:00:34.999Z</time></trkpt><trkpt lat="45.0102456933188" lon="8.532296668722463"><ele>161.0</ele><time>2026-04-25T08:00:35.999Z</time></trkpt><trkpt lat="45.01017883103004" lon="8.532242158654016"><ele>161.0</ele><time>2026-04-25T08:00:36.999Z</time></trkpt><trkpt lat="45.010108549556236" lon="8.532229932789322"><ele>161.0</ele><time>2026-04-25T08:00:38Z</time></trkpt><trkpt lat="45.01005450074933" lon="8.532177896818292"><ele>161.0</ele><time>2026-04-25T08:00:39Z</time></trkpt><trkpt lat="45.009939894347454" lon="8.53211866091536"><ele>161.0</ele><time>2026-04-25T08:00:41Z</time></trkpt><trkpt lat="45.00987198686434" lon="8.5321035774076"><ele>161.0</ele><time>2026-04-25T08:00:42Z</time></trkpt><trkpt lat="45.009769584402385" lon="8.531995106057074"><ele>162.83333333333331</ele><time>2026-04-25T08:00:44Z</time></trkpt><trkpt lat="45.00972720596171" lon="8.53192539001462"><ele>164.66666666666666</ele><time>2026-04-25T08:00:45Z</time></trkpt><trkpt lat="45.009685831875416" lon="8.531854551544583"><ele>166.5</ele><time>2026-04-25T08:00:46Z</time></trkpt><trkpt lat="45.00964209944983" lon="8.531770381166206"><ele>168.33333333333334</ele><time>2026-04-25T08:00:47Z</time></trkpt><trkpt lat="45.009597965255715" lon="8.531689005650883"><ele>170.16666666666669</ele><time>2026-04-25T08:00:48Z</time></trkpt><trkpt lat="45.00955114922862" lon="8.531624693590773"><ele>172.0</ele><time>2026-04-25T08:00:49Z</time></trkpt><trkpt lat="45.00944142405772" lon="8.531541049839836"><ele>172.0</ele><time>2026-04-25T08:00:51Z</time></trkpt><trkpt lat="45.00936657339914" lon="8.531500453702991"><ele>172.0</ele><time>2026-04-25T08:00:52Z</time></trkpt><trkpt lat="45.009298310307734" lon="8.531462361767176"><ele>172.0</ele><time>2026-04-25T08:00:53Z</time></trkpt><trkpt lat="45.00921855407464" lon="8.531405933381574"><ele>172.0</ele><time>2026-04-25T08:00:54Z</time></trkpt><trkpt lat="45.009145723069786" lon="8.531378244769027"><ele>172.0</ele><time>2026-04-25T08:00:55Z</time></trkpt><trkpt lat="45.009086647691376" lon="8.531341751255896"><ele>172.0</ele><time>2026-04-25T08:00:56Z</time></trkpt><trkpt lat="45.00901711610006" lon="8.531335534386873"><ele>173.0</ele><time>2026-04-25T08:00:57Z</time></trkpt><trkpt lat="45.00893120637198" lon="8.531319256347365"><ele>174.0</ele><time>2026-04-25T08:00:58Z</time></trkpt><trkpt lat="45.0088496155554" lon="8.531309079377213"><ele>175.0</ele><time>2026-04-25T08:00:59Z</time></trkpt><trkpt lat="45.00874137864099" lon="8.53127570653538"><ele>176.0</ele><time>2026-04-25T08:01:01Z</time></trkpt><trkpt lat="45.008640389443144" lon="8.531320578957981"><ele>177.0</ele><time>2026-04-25T08:01:02Z</time></trkpt><trkpt lat="45.008542326317475" lon="8.531356973449522"><ele>177.0</ele><time>2026-04-25T08:01:03Z</time></trkpt><trkpt lat="45.00844856050508" lon="8.531333063379773"><ele>177.0</ele><time>2026-04-25T08:01:04Z</time></trkpt><trkpt lat="45.0083585378551" lon="8.531339231901953"><ele>177.0</ele><time>2026-04-25T08:01:05Z</time></trkpt><trkpt lat="45.008278600292385" lon="8.531345862953657"><ele>177.0</ele><time>2026-04-25T08:01:06Z</time></trkpt><trkpt lat="45.00819839183547" lon="8.531346932807912"><ele>177.0</ele><time>2026-04-25T08:01:07Z</time></trkpt><trkpt lat="45.0081192934543" lon="8.531352445258385"><ele>177.0</ele><time>2026-04-25T08:01:08Z</time></trkpt><trkpt lat="45.00804847856581" lon="8.531352769421316"><ele>177.71428571428572</ele><time>2026-04-25T08:01:09Z</time></trkpt><trkpt lat="45.00797039781937" lon="8.531359939711185"><ele>178.42857142857142</ele><time>2026-04-25T08:01:10Z</time></trkpt><trkpt lat="45.0079011988644" lon="8.53136582048652"><ele>179.14285714285714</ele><time>2026-04-25T08:01:11Z</time></trkpt><trkpt lat="45.007835810091876" lon="8.531370381035304"><ele>179.85714285714286</ele><time>2026-04-25T08:01:12Z</time></trkpt><trkpt lat="45.00776461888226" lon="8.531373712916524"><ele>180.57142857142856</ele><time>2026-04-25T08:01:13Z</time></trkpt><trkpt lat="45.0076927823909" lon="8.53137666614731"><ele>181.28571428571428</ele><time>2026-04-25T08:01:14Z</time></trkpt><trkpt lat="45.00762899818443" lon="8.531382744896113"><ele>182.0</ele><time>2026-04-25T08:01:15Z</time></trkpt><trkpt lat="45.007557267076024" lon="8.531394024682218"><ele>182.25</ele><time>2026-04-25T08:01:16Z</time></trkpt><trkpt lat="45.00743784240518" lon="8.531431895345712"><ele>182.5</ele><time>2026-04-25T08:01:18Z</time></trkpt><trkpt lat="45.0073212316984" lon="8.531485420856391"><ele>182.75</ele><time>2026-04-25T08:01:20Z</time></trkpt><trkpt lat="45.007221468064046" lon="8.53153237013211"><ele>183.0</ele><time>2026-04-25T08:01:22Z</time></trkpt><trkpt lat="45.007098334563665" lon="8.531568281900897"><ele>183.0</ele><time>2026-04-25T08:01:24Z</time></trkpt><trkpt lat="45.007031909305496" lon="8.531579960515582"><ele>183.0</ele><time>2026-04-25T08:01:25Z</time></trkpt><trkpt lat="45.00694236252238" lon="8.531587237357066"><ele>183.0</ele><time>2026-04-25T08:01:27Z</time></trkpt><trkpt lat="45.00687818595484" lon="8.531594697032814"><ele>183.0</ele><time>2026-04-25T08:01:29Z</time></trkpt><trkpt lat="45.006782861192974" lon="8.53159448507478"><ele>183.0</ele><time>2026-04-25T08:01:32Z</time></trkpt><trkpt lat="45.006696787560166" lon="8.531595815287595"><ele>183.0</ele><time>2026-04-25T08:01:34Z</time></trkpt><trkpt lat="45.0066051889433" lon="8.531607558604412"><ele>184.4</ele><time>2026-04-25T08:01:36Z</time></trkpt><trkpt lat="45.00649386659096" lon="8.531620575590937"><ele>185.8</ele><time>2026-04-25T08:01:38Z</time></trkpt><trkpt lat="45.006420285536855" lon="8.531648474709549"><ele>187.2</ele><time>2026-04-25T08:01:40Z</time></trkpt><trkpt lat="45.0063248532994" lon="8.531658535746155"><ele>188.6</ele><time>2026-04-25T08:01:42Z</time></trkpt><trkpt lat="45.00622531747493" lon="8.53168676358018"><ele>190.0</ele><time>2026-04-25T08:01:44Z</time></trkpt><trkpt lat="45.006131101171285" lon="8.53170522954239"><ele>190.0</ele><time>2026-04-25T08:01:46Z</time></trkpt><trkpt lat="45.006058270752455" lon="8.531712244855475"><ele>190.0</ele><time>2026-04-25T08:01:49Z</time></trkpt><trkpt lat="45.0059921425321" lon="8.531724162771468"><ele>190.0</ele><time>2026-04-25T08:01:51Z</time></trkpt><trkpt lat="45.00590461507893" lon="8.531732324324597"><ele>190.0</ele><time>2026-04-25T08:01:53Z</time></trkpt><trkpt lat="45.00580975229947" lon="8.531696345316837"><ele>190.0</ele><time>2026-04-25T08:01:54.999Z</time></trkpt><trkpt lat="45.00573657754703" lon="8.5316591523509"><ele>190.0</ele><time>2026-04-25T08:01:56.999Z</time></trkpt><trkpt lat="45.00565977447622" lon="8.531622586341364"><ele>189.33333333333334</ele><time>2026-04-25T08:01:58.999Z</time></trkpt><trkpt lat="45.00556893845468" lon="8.531571087949906"><ele>188.66666666666669</ele><time>2026-04-25T08:02:00.999Z</time></trkpt><trkpt lat="45.005496417453195" lon="8.531534158251219"><ele>188.0</ele><time>2026-04-25T08:02:02.999Z</time></trkpt><trkpt lat="45.00541933250701" lon="8.531486624240651"><ele>187.33333333333334</ele><time>2026-04-25T08:02:04.999Z</time></trkpt><trkpt lat="45.00534536313009" lon="8.531448402202574"><ele>186.66666666666666</ele><time>2026-04-25T08:02:06.999Z</time></trkpt><trkpt lat="45.005260331411066" lon="8.531410016623706"><ele>186.0</ele><time>2026-04-25T08:02:08.999Z</time></trkpt><trkpt lat="45.00517300701768" lon="8.531360401385156"><ele>186.0</ele><time>2026-04-25T08:02:10.999Z</time></trkpt><trkpt lat="45.00509457468565" lon="8.531326781012526"><ele>186.0</ele><time>2026-04-25T08:02:12.999Z</time></trkpt><trkpt lat="45.00500075403264" lon="8.53126671120114"><ele>186.0</ele><time>2026-04-25T08:02:14.999Z</time></trkpt><trkpt lat="45.004914799687775" lon="8.531226082289958"><ele>186.0</ele><time>2026-04-25T08:02:16.999Z</time></trkpt><trkpt lat="45.004860961494884" lon="8.53117393215533"><ele>186.0</ele><time>2026-04-25T08:02:19.999Z</time></trkpt><trkpt lat="45.00479824388501" lon="8.531130397535598"><ele>186.0</ele><time>2026-04-25T08:02:21.999Z</time></trkpt><trkpt lat="45.0047131150671" lon="8.531090045941532"><ele>189.4</ele><time>2026-04-25T08:02:23.999Z</time></trkpt><trkpt lat="45.00461519531967" lon="8.531043491474772"><ele>192.8</ele><time>2026-04-25T08:02:25.999Z</time></trkpt><trkpt lat="45.00450502465383" lon="8.531004286305528"><ele>196.20000000000002</ele><time>2026-04-25T08:02:27.999Z</time></trkpt><trkpt lat="45.004441477584656" lon="8.531017264940699"><ele>199.60000000000002</ele><time>2026-04-25T08:02:28.999Z</time></trkpt><trkpt lat="45.00437262450071" lon="8.531046471038325"><ele>203.0</ele><time>2026-04-25T08:02:29.999Z</time></trkpt><trkpt lat="45.00426459720448" lon="8.531121526240819"><ele>203.0</ele><time>2026-04-25T08:02:31.999Z</time></trkpt><trkpt lat="45.00416416085735" lon="8.531200127793246"><ele>203.0</ele><time>2026-04-25T08:02:33.999Z</time></trkpt><trkpt lat="45.00405541236008" lon="8.53124666877433"><ele>203.0</ele><time>2026-04-25T08:02:35.999Z</time></trkpt><trkpt lat="45.003939628690866" lon="8.531254516804058"><ele>203.0</ele><time>2026-04-25T08:02:37.999Z</time></trkpt><trkpt lat="45.00381101441062" lon="8.531265745575947"><ele>202.50000000000003</ele><time>2026-04-25T08:02:39.999Z</time></trkpt><trkpt lat="45.00374217464548" lon="8.531244882246893"><ele>202.0</ele><time>2026-04-25T08:02:40.999Z</time></trkpt><trkpt lat="45.00367323796443" lon="8.53122174384576"><ele>201.5</ele><time>2026-04-25T08:02:41.999Z</time></trkpt><trkpt lat="45.00354968533757" lon="8.531158121232943"><ele>201.0</ele><time>2026-04-25T08:02:44Z</time></trkpt><trkpt lat="45.00347918852522" lon="8.531119247441033"><ele>200.50000000000003</ele><time>2026-04-25T08:02:46Z</time></trkpt><trkpt lat="45.00341168570358" lon="8.53108780673982"><ele>200.0</ele><time>2026-04-25T08:02:48Z</time></trkpt><trkpt lat="45.003340393404486" lon="8.531101917790354"><ele>198.66666666666669</ele><time>2026-04-25T08:02:50Z</time></trkpt><trkpt lat="45.003266384374776" lon="8.531165758755042"><ele>197.33333333333334</ele><time>2026-04-25T08:02:53Z</time></trkpt><trkpt lat="45.00321550301071" lon="8.531234768687291"><ele>196.0</ele><time>2026-04-25T08:02:55Z</time></trkpt><trkpt lat="45.00316860447132" lon="8.531304739885622"><ele>194.66666666666669</ele><time>2026-04-25T08:02:57Z</time></trkpt><trkpt lat="45.003107331998066" lon="8.53142177646582"><ele>193.33333333333334</ele><time>2026-04-25T08:02:59Z</time></trkpt><trkpt lat="45.00304962318932" lon="8.53155987298359"><ele>192.0</ele><time>2026-04-25T08:03:01Z</time></trkpt><trkpt lat="45.00301790013556" lon="8.53164889508924"><ele>191.99999999999997</ele><time>2026-04-25T08:03:02Z</time></trkpt><trkpt lat="45.00298624546185" lon="8.531746014880598"><ele>192.0</ele><time>2026-04-25T08:03:03Z</time></trkpt><trkpt lat="45.00295955070277" lon="8.53182751976648"><ele>192.0</ele><time>2026-04-25T08:03:04Z</time></trkpt><trkpt lat="45.002927691822656" lon="8.531920478446578"><ele>192.0</ele><time>2026-04-25T08:03:05Z</time></trkpt><trkpt lat="45.002904883013535" lon="8.532027097184672"><ele>192.0</ele><time>2026-04-25T08:03:06Z</time></trkpt><trkpt lat="45.002882902582485" lon="8.532119600514873"><ele>191.99999999999997</ele><time>2026-04-25T08:03:07Z</time></trkpt><trkpt lat="45.002860798489344" lon="8.532209847219796"><ele>192.0</ele><time>2026-04-25T08:03:08Z</time></trkpt><trkpt lat="45.00282400980364" lon="8.532351041647836"><ele>192.33333333333334</ele><time>2026-04-25T08:03:10Z</time></trkpt><trkpt lat="45.002783317136966" lon="8.532502240882424"><ele>192.66666666666669</ele><time>2026-04-25T08:03:12Z</time></trkpt><trkpt lat="45.00275314997409" lon="8.532590385706722"><ele>193.0</ele><time>2026-04-25T08:03:13Z</time></trkpt><trkpt lat="45.00272337974169" lon="8.53267615549834"><ele>193.33333333333334</ele><time>2026-04-25T08:03:14Z</time></trkpt><trkpt lat="45.002686935758724" lon="8.532767952338334"><ele>193.66666666666669</ele><time>2026-04-25T08:03:15Z</time></trkpt><trkpt lat="45.002660794877954" lon="8.532851138500163"><ele>194.0</ele><time>2026-04-25T08:03:16Z</time></trkpt><trkpt lat="45.002628735362194" lon="8.532938593611933"><ele>194.0</ele><time>2026-04-25T08:03:17Z</time></trkpt><trkpt lat="45.00258045387838" lon="8.533076764941155"><ele>194.0</ele><time>2026-04-25T08:03:19Z</time></trkpt><trkpt lat="45.00254690791285" lon="8.533272422882144"><ele>194.0</ele><time>2026-04-25T08:03:21Z</time></trkpt><trkpt lat="45.00252749562294" lon="8.533393701099024"><ele>194.0</ele><time>2026-04-25T08:03:22Z</time></trkpt><trkpt lat="45.002456720935754" lon="8.533542020792268"><ele>194.00000000000003</ele><time>2026-04-25T08:03:24Z</time></trkpt><trkpt lat="45.00240600003563" lon="8.533624766841719"><ele>194.0</ele><time>2026-04-25T08:03:25Z</time></trkpt><trkpt lat="45.00235616381317" lon="8.533700092754895"><ele>194.0</ele><time>2026-04-25T08:03:26Z</time></trkpt><trkpt lat="45.00230230282533" lon="8.533785290262303"><ele>194.0</ele><time>2026-04-25T08:03:27Z</time></trkpt><trkpt lat="45.00225554009371" lon="8.533853035728653"><ele>194.00000000000003</ele><time>2026-04-25T08:03:28Z</time></trkpt><trkpt lat="45.002181752080645" lon="8.533974770720835"><ele>194.0</ele><time>2026-04-25T08:03:30Z</time></trkpt><trkpt lat="45.00211508562636" lon="8.53410019560571"><ele>193.83333333333334</ele><time>2026-04-25T08:03:32Z</time></trkpt><trkpt lat="45.002041826705785" lon="8.534201656789687"><ele>193.66666666666669</ele><time>2026-04-25T08:03:34Z</time></trkpt><trkpt lat="45.001976553486486" lon="8.53428248993189"><ele>193.5</ele><time>2026-04-25T08:03:36Z</time></trkpt><trkpt lat="45.001893963539274" lon="8.534324871062603"><ele>193.33333333333331</ele><time>2026-04-25T08:03:39Z</time></trkpt><trkpt lat="45.001833048852454" lon="8.534377926516946"><ele>193.16666666666666</ele><time>2026-04-25T08:03:42Z</time></trkpt><trkpt lat="45.00176361676987" lon="8.53441298202426"><ele>193.0</ele><time>2026-04-25T08:04:05.999Z</time></trkpt><trkpt lat="45.00168651203652" lon="8.534497611699578"><ele>192.0</ele><time>2026-04-25T08:04:07.999Z</time></trkpt><trkpt lat="45.00159793420532" lon="8.534577972218791"><ele>191.0</ele><time>2026-04-25T08:04:10.999Z</time></trkpt><trkpt lat="45.00153615280266" lon="8.534609412662842"><ele>190.0</ele><time>2026-04-25T08:04:12.999Z</time></trkpt><trkpt lat="45.001424076380424" lon="8.534658469013092"><ele>189.0</ele><time>2026-04-25T08:04:15.999Z</time></trkpt><trkpt lat="45.00136760257358" lon="8.534742778019616"><ele>188.0</ele><time>2026-04-25T08:04:16.999Z</time></trkpt><trkpt lat="45.0012862659334" lon="8.534864427258418"><ele>188.0</ele><time>2026-04-25T08:04:17.999Z</time></trkpt><trkpt lat="45.00120775780562" lon="8.535013212673716"><ele>188.0</ele><time>2026-04-25T08:04:18.999Z</time></trkpt><trkpt lat="45.00111761992861" lon="8.535152562386825"><ele>188.0</ele><time>2026-04-25T08:04:19.999Z</time></trkpt><trkpt lat="45.00101193385128" lon="8.535305528752815"><ele>188.0</ele><time>2026-04-25T08:04:20.999Z</time></trkpt><trkpt lat="45.00088698715431" lon="8.53543004910806"><ele>188.0</ele><time>2026-04-25T08:04:21.999Z</time></trkpt><trkpt lat="45.000739048585594" lon="8.535617954147439"><ele>188.0</ele><time>2026-04-25T08:04:22.999Z</time></trkpt><trkpt lat="45.000599480181805" lon="8.535801817003824"><ele>188.0</ele><time>2026-04-25T08:04:23.999Z</time></trkpt><trkpt lat="45.00048673203688" lon="8.535954680670628"><ele>188.0</ele><time>2026-04-25T08:04:24.999Z</time></trkpt><trkpt lat="45.0003826211261" lon="8.536100100616158"><ele>188.0</ele><time>2026-04-25T08:04:25.999Z</time></trkpt><trkpt lat="45.0002797807619" lon="8.536232747611217"><ele>188.0</ele><time>2026-04-25T08:04:26.999Z</time></trkpt><trkpt lat="45.000176379953004" lon="8.536360900188242"><ele>188.0</ele><time>2026-04-25T08:04:27.999Z</time></trkpt><trkpt lat="45.00007244435018" lon="8.536481427830449"><ele>188.75</ele><time>2026-04-25T08:04:28.999Z</time></trkpt><trkpt lat="44.999959562326666" lon="8.536598466369576"><ele>189.5</ele><time>2026-04-25T08:04:29.999Z</time></trkpt><trkpt lat="44.99983596189449" lon="8.536705111915447"><ele>190.25</ele><time>2026-04-25T08:04:30.999Z</time></trkpt><trkpt lat="44.99970574040412" lon="8.536809789128483"><ele>191.0</ele><time>2026-04-25T08:04:31.999Z</time></trkpt><trkpt lat="44.99957710816507" lon="8.536907059155544"><ele>191.0</ele><time>2026-04-25T08:04:32.999Z</time></trkpt><trkpt lat="44.999458525943965" lon="8.537020691562386"><ele>191.0</ele><time>2026-04-25T08:04:33.999Z</time></trkpt><trkpt lat="44.99931407138633" lon="8.537119767946637"><ele>191.0</ele><time>2026-04-25T08:04:34.999Z</time></trkpt><trkpt lat="44.999177412866885" lon="8.537266739838309"><ele>192.0</ele><time>2026-04-25T08:04:35.999Z</time></trkpt><trkpt lat="44.99902601415352" lon="8.537384618601957"><ele>193.0</ele><time>2026-04-25T08:04:36.999Z</time></trkpt><trkpt lat="44.998904432998096" lon="8.537497481960395"><ele>194.0</ele><time>2026-04-25T08:04:37.999Z</time></trkpt><trkpt lat="44.99879768989939" lon="8.537583154313158"><ele>195.0</ele><time>2026-04-25T08:04:38.999Z</time></trkpt><trkpt lat="44.99869734928248" lon="8.537659115605448"><ele>195.0</ele><time>2026-04-25T08:04:39.999Z</time></trkpt><trkpt lat="44.99860981838781" lon="8.537734770992449"><ele>195.0</ele><time>2026-04-25T08:04:40.999Z</time></trkpt><trkpt lat="44.99854953217479" lon="8.537812316795533"><ele>195.0</ele><time>2026-04-25T08:04:41.999Z</time></trkpt><trkpt lat="44.99848426396421" lon="8.537904427739589"><ele>195.0</ele><time>2026-04-25T08:04:42.999Z</time></trkpt><trkpt lat="44.998419470935104" lon="8.538046767721415"><ele>195.0</ele><time>2026-04-25T08:04:43.999Z</time></trkpt><trkpt lat="44.998325494024364" lon="8.538237810153344"><ele>196.0</ele><time>2026-04-25T08:04:44.999Z</time></trkpt><trkpt lat="44.99821065786858" lon="8.538457425302383"><ele>197.0</ele><time>2026-04-25T08:04:45.999Z</time></trkpt><trkpt lat="44.998105947280244" lon="8.538651154796543"><ele>198.0</ele><time>2026-04-25T08:04:46.999Z</time></trkpt><trkpt lat="44.99801812363569" lon="8.53882141355714"><ele>196.5</ele><time>2026-04-25T08:04:47.999Z</time></trkpt><trkpt lat="44.99792645409212" lon="8.539014406146558"><ele>195.0</ele><time>2026-04-25T08:04:48.999Z</time></trkpt><trkpt lat="44.997847046216215" lon="8.539199359415186"><ele>193.5</ele><time>2026-04-25T08:04:50Z</time></trkpt><trkpt lat="44.997777201422124" lon="8.5393511205536"><ele>192.0</ele><time>2026-04-25T08:04:51Z</time></trkpt><trkpt lat="44.99769339029016" lon="8.539473421044915"><ele>191.39999999999998</ele><time>2026-04-25T08:04:52Z</time></trkpt><trkpt lat="44.997608843451935" lon="8.539617719283132"><ele>190.79999999999998</ele><time>2026-04-25T08:04:53Z</time></trkpt><trkpt lat="44.99754243343857" lon="8.539767658251883"><ele>190.2</ele><time>2026-04-25T08:04:54Z</time></trkpt><trkpt lat="44.99748180087488" lon="8.539876538011493"><ele>189.6</ele><time>2026-04-25T08:04:55Z</time></trkpt><trkpt lat="44.9974383901854" lon="8.5399932342398"><ele>189.0</ele><time>2026-04-25T08:04:56Z</time></trkpt><trkpt lat="44.997402995766855" lon="8.540099842601022"><ele>190.5</ele><time>2026-04-25T08:04:57Z</time></trkpt><trkpt lat="44.99737368617244" lon="8.540194056444438"><ele>192.0</ele><time>2026-04-25T08:04:58Z</time></trkpt><trkpt lat="44.99735326260155" lon="8.540338171699535"><ele>193.5</ele><time>2026-04-25T08:05:00Z</time></trkpt><trkpt lat="44.997354410711566" lon="8.540439975025373"><ele>195.0</ele><time>2026-04-25T08:05:02Z</time></trkpt><trkpt lat="44.99734985795527" lon="8.540543655773888"><ele>196.5</ele><time>2026-04-25T08:05:03Z</time></trkpt><trkpt lat="44.997364932612875" lon="8.540655068283385"><ele>198.0</ele><time>2026-04-25T08:05:04Z</time></trkpt><trkpt lat="44.99740130473815" lon="8.540784216550268"><ele>198.0</ele><time>2026-04-25T08:05:05Z</time></trkpt><trkpt lat="44.99742439786139" lon="8.540929648167605"><ele>198.0</ele><time>2026-04-25T08:05:06Z</time></trkpt><trkpt lat="44.99746105257632" lon="8.541083765705254"><ele>198.0</ele><time>2026-04-25T08:05:07Z</time></trkpt><trkpt lat="44.99749762532841" lon="8.541242498284664"><ele>198.0</ele><time>2026-04-25T08:05:08Z</time></trkpt><trkpt lat="44.99753868910288" lon="8.541414446673464"><ele>197.25</ele><time>2026-04-25T08:05:09Z</time></trkpt><trkpt lat="44.997584147787656" lon="8.541583812410941"><ele>196.5</ele><time>2026-04-25T08:05:10Z</time></trkpt><trkpt lat="44.997628960478465" lon="8.541756961032743"><ele>195.75</ele><time>2026-04-25T08:05:11Z</time></trkpt><trkpt lat="44.99767941604567" lon="8.541943435372952"><ele>195.0</ele><time>2026-04-25T08:05:12Z</time></trkpt><trkpt lat="44.997714106854204" lon="8.542105257524666"><ele>195.0</ele><time>2026-04-25T08:05:13Z</time></trkpt><trkpt lat="44.997747507545206" lon="8.542227751828484"><ele>195.0</ele><time>2026-04-25T08:05:14Z</time></trkpt><trkpt lat="44.997767263522235" lon="8.542335110518128"><ele>195.0</ele><time>2026-04-25T08:05:15Z</time></trkpt><trkpt lat="44.99778203294593" lon="8.542454223971744"><ele>195.0</ele><time>2026-04-25T08:05:16Z</time></trkpt><trkpt lat="44.99781792583736" lon="8.542590037587157"><ele>195.0</ele><time>2026-04-25T08:05:17Z</time></trkpt><trkpt lat="44.99782804335008" lon="8.542739011104144"><ele>195.0</ele><time>2026-04-25T08:05:18Z</time></trkpt><trkpt lat="44.99784316545685" lon="8.54286765323576"><ele>195.0</ele><time>2026-04-25T08:05:19Z</time></trkpt><trkpt lat="44.99785245247404" lon="8.542981736896596"><ele>195.0</ele><time>2026-04-25T08:05:20Z</time></trkpt><trkpt lat="44.997855094637856" lon="8.543116357932995"><ele>195.0</ele><time>2026-04-25T08:05:21Z</time></trkpt><trkpt lat="44.99785495364191" lon="8.543220698333714"><ele>195.0</ele><time>2026-04-25T08:05:22Z</time></trkpt><trkpt lat="44.99784955673668" lon="8.543334340432493"><ele>195.0</ele><time>2026-04-25T08:05:23Z</time></trkpt><trkpt lat="44.99783519132799" lon="8.543482634666594"><ele>196.25</ele><time>2026-04-25T08:05:24Z</time></trkpt><trkpt lat="44.99780513781063" lon="8.54366269168932"><ele>197.5</ele><time>2026-04-25T08:05:25Z</time></trkpt><trkpt lat="44.99776518744119" lon="8.543841496261999"><ele>198.75</ele><time>2026-04-25T08:05:26Z</time></trkpt><trkpt lat="44.99771891824011" lon="8.544001010147017"><ele>200.0</ele><time>2026-04-25T08:05:27Z</time></trkpt><trkpt lat="44.997660249900235" lon="8.54417767929394"><ele>200.2</ele><time>2026-04-25T08:05:28Z</time></trkpt><trkpt lat="44.99761124647291" lon="8.544324863753381"><ele>200.4</ele><time>2026-04-25T08:05:29Z</time></trkpt><trkpt lat="44.99757161748051" lon="8.544443735972028"><ele>200.60000000000002</ele><time>2026-04-25T08:05:30Z</time></trkpt><trkpt lat="44.99752210401702" lon="8.544567014569646"><ele>200.8</ele><time>2026-04-25T08:05:31Z</time></trkpt><trkpt lat="44.99745786459524" lon="8.544692596922662"><ele>201.0</ele><time>2026-04-25T08:05:32Z</time></trkpt><trkpt lat="44.9973809750821" lon="8.544831264353673"><ele>203.66666666666669</ele><time>2026-04-25T08:05:33Z</time></trkpt><trkpt lat="44.997293785124704" lon="8.544987757825027"><ele>206.33333333333334</ele><time>2026-04-25T08:05:34Z</time></trkpt><trkpt lat="44.99719420400312" lon="8.545169103758203"><ele>209.0</ele><time>2026-04-25T08:05:35Z</time></trkpt><trkpt lat="44.99708675088186" lon="8.54537165928644"><ele>209.33333333333334</ele><time>2026-04-25T08:05:36Z</time></trkpt><trkpt lat="44.99698723898665" lon="8.54557404482588"><ele>209.66666666666669</ele><time>2026-04-25T08:05:37Z</time></trkpt><trkpt lat="44.99693064882081" lon="8.545771370797242"><ele>210.0</ele><time>2026-04-25T08:05:38Z</time></trkpt><trkpt lat="44.99684462235016" lon="8.545977795697066"><ele>209.66666666666669</ele><time>2026-04-25T08:05:39Z</time></trkpt><trkpt lat="44.99676326738325" lon="8.546235677360063"><ele>209.33333333333334</ele><time>2026-04-25T08:05:40Z</time></trkpt><trkpt lat="44.99668694087507" lon="8.546482917008543"><ele>209.0</ele><time>2026-04-25T08:05:41Z</time></trkpt><trkpt lat="44.99662850969426" lon="8.546677640848795"><ele>211.00000000000003</ele><time>2026-04-25T08:05:42Z</time></trkpt><trkpt lat="44.99658453619353" lon="8.546813794436106"><ele>213.0</ele><time>2026-04-25T08:05:43Z</time></trkpt><trkpt lat="44.99654346759477" lon="8.546925096702852"><ele>215.0</ele><time>2026-04-25T08:05:44Z</time></trkpt><trkpt lat="44.99650548745083" lon="8.547015397494143"><ele>217.0</ele><time>2026-04-25T08:05:45Z</time></trkpt><trkpt lat="44.99646814368752" lon="8.547090291706557"><ele>219.00000000000003</ele><time>2026-04-25T08:05:46Z</time></trkpt><trkpt lat="44.99641188414309" lon="8.547182609177352"><ele>221.0</ele><time>2026-04-25T08:05:48Z</time></trkpt><trkpt lat="44.99634122253005" lon="8.547263365386645"><ele>221.4</ele><time>2026-04-25T08:05:50Z</time></trkpt><trkpt lat="44.99627900070386" lon="8.547330129505081"><ele>221.8</ele><time>2026-04-25T08:06:46.999Z</time></trkpt><trkpt lat="44.996261139929004" lon="8.547530032289757"><ele>222.20000000000002</ele><time>2026-04-25T08:06:48.999Z</time></trkpt><trkpt lat="44.996256690215745" lon="8.54764921796431"><ele>222.60000000000002</ele><time>2026-04-25T08:06:49.999Z</time></trkpt><trkpt lat="44.99626100683296" lon="8.547779019684997"><ele>223.0</ele><time>2026-04-25T08:06:50.999Z</time></trkpt><trkpt lat="44.99626367606889" lon="8.547930273982333"><ele>223.0</ele><time>2026-04-25T08:06:51.999Z</time></trkpt><trkpt lat="44.99626470457228" lon="8.548098533857958"><ele>223.0</ele><time>2026-04-25T08:06:52.999Z</time></trkpt><trkpt lat="44.996274247215474" lon="8.548277314163638"><ele>223.0</ele><time>2026-04-25T08:06:53.999Z</time></trkpt><trkpt lat="44.996290246938955" lon="8.548467724105974"><ele>223.0</ele><time>2026-04-25T08:06:54.999Z</time></trkpt><trkpt lat="44.99630646835297" lon="8.54866333051138"><ele>221.75</ele><time>2026-04-25T08:06:56Z</time></trkpt><trkpt lat="44.996312006446786" lon="8.54887022718585"><ele>220.5</ele><time>2026-04-25T08:06:57Z</time></trkpt><trkpt lat="44.99631508588461" lon="8.549065354805789"><ele>219.25</ele><time>2026-04-25T08:06:58Z</time></trkpt><trkpt lat="44.99629716776604" lon="8.549290612331832"><ele>218.0</ele><time>2026-04-25T08:06:59Z</time></trkpt><trkpt lat="44.99628209543568" lon="8.549507357989926"><ele>217.33333333333334</ele><time>2026-04-25T08:07:00Z</time></trkpt><trkpt lat="44.9962652792274" lon="8.549711066268799"><ele>216.66666666666669</ele><time>2026-04-25T08:07:01Z</time></trkpt><trkpt lat="44.99625276661805" lon="8.549924152938525"><ele>216.0</ele><time>2026-04-25T08:07:02Z</time></trkpt><trkpt lat="44.9962387354574" lon="8.5501418566561"><ele>216.0</ele><time>2026-04-25T08:07:03Z</time></trkpt><trkpt lat="44.99622979977699" lon="8.550357476497602"><ele>216.0</ele><time>2026-04-25T08:07:04Z</time></trkpt><trkpt lat="44.99621976008991" lon="8.550539639906736"><ele>216.0</ele><time>2026-04-25T08:07:05Z</time></trkpt><trkpt lat="44.99621099011677" lon="8.550721981584916"><ele>216.0</ele><time>2026-04-25T08:07:06Z</time></trkpt><trkpt lat="44.996203170053406" lon="8.550894285046285"><ele>215.0</ele><time>2026-04-25T08:07:07Z</time></trkpt><trkpt lat="44.996194245678076" lon="8.551053548635876"><ele>214.00000000000003</ele><time>2026-04-25T08:07:08Z</time></trkpt><trkpt lat="44.99618871924775" lon="8.551209254292171"><ele>213.0</ele><time>2026-04-25T08:07:09Z</time></trkpt><trkpt lat="44.99618058003975" lon="8.551359081323442"><ele>212.0</ele><time>2026-04-25T08:07:10Z</time></trkpt><trkpt lat="44.99618365029775" lon="8.551509584814179"><ele>211.0</ele><time>2026-04-25T08:07:11Z</time></trkpt><trkpt lat="44.99618817392807" lon="8.551679671456876"><ele>210.5</ele><time>2026-04-25T08:07:12Z</time></trkpt><trkpt lat="44.996202668713686" lon="8.551854409734052"><ele>210.0</ele><time>2026-04-25T08:07:13Z</time></trkpt><trkpt lat="44.9962290886345" lon="8.552042103640325"><ele>209.5</ele><time>2026-04-25T08:07:14Z</time></trkpt><trkpt lat="44.99625701970971" lon="8.552241605702223"><ele>209.0</ele><time>2026-04-25T08:07:15Z</time></trkpt><trkpt lat="44.99628264251305" lon="8.552430053707742"><ele>208.5</ele><time>2026-04-25T08:07:16Z</time></trkpt><trkpt lat="44.99630782331211" lon="8.552609339094019"><ele>208.0</ele><time>2026-04-25T08:07:17Z</time></trkpt><trkpt lat="44.99634030523242" lon="8.5528156343987"><ele>207.5</ele><time>2026-04-25T08:07:18Z</time></trkpt><trkpt lat="44.99636582903529" lon="8.553006020830408"><ele>207.0</ele><time>2026-04-25T08:07:19Z</time></trkpt><trkpt lat="44.996396597354405" lon="8.553209884819106"><ele>206.5</ele><time>2026-04-25T08:07:20Z</time></trkpt><trkpt lat="44.99642517822307" lon="8.553409854327784"><ele>206.0</ele><time>2026-04-25T08:07:21Z</time></trkpt><trkpt lat="44.996473487134274" lon="8.553610591661545"><ele>205.5</ele><time>2026-04-25T08:07:22Z</time></trkpt><trkpt lat="44.99653063341072" lon="8.553800842823032"><ele>205.0</ele><time>2026-04-25T08:07:23Z</time></trkpt><trkpt lat="44.996593638869605" lon="8.55399468984325"><ele>204.75</ele><time>2026-04-25T08:07:24Z</time></trkpt><trkpt lat="44.99666200271558" lon="8.554180762649885"><ele>204.5</ele><time>2026-04-25T08:07:25Z</time></trkpt><trkpt lat="44.99673986482069" lon="8.554364132867871"><ele>204.25</ele><time>2026-04-25T08:07:26Z</time></trkpt><trkpt lat="44.99681715482939" lon="8.55454545280038"><ele>204.0</ele><time>2026-04-25T08:07:27Z</time></trkpt><trkpt lat="44.99689006585695" lon="8.554721563173967"><ele>203.75</ele><time>2026-04-25T08:07:28Z</time></trkpt><trkpt lat="44.996966964080165" lon="8.554885119654593"><ele>203.5</ele><time>2026-04-25T08:07:29Z</time></trkpt><trkpt lat="44.99704679830947" lon="8.555054851144021"><ele>203.25</ele><time>2026-04-25T08:07:30Z</time></trkpt><trkpt lat="44.99712859452647" lon="8.555219850351254"><ele>203.0</ele><time>2026-04-25T08:07:31Z</time></trkpt><trkpt lat="44.99721490443944" lon="8.55541323444204"><ele>204.0</ele><time>2026-04-25T08:07:32Z</time></trkpt><trkpt lat="44.99729663428981" lon="8.55558905120495"><ele>205.0</ele><time>2026-04-25T08:07:33Z</time></trkpt><trkpt lat="44.99738237884715" lon="8.555780534749696"><ele>206.0</ele><time>2026-04-25T08:07:34Z</time></trkpt><trkpt lat="44.99746612805837" lon="8.555961172838066"><ele>205.66666666666669</ele><time>2026-04-25T08:07:35Z</time></trkpt><trkpt lat="44.99755370941114" lon="8.556160075974224"><ele>205.33333333333331</ele><time>2026-04-25T08:07:36Z</time></trkpt><trkpt lat="44.99764070897914" lon="8.55634648493739"><ele>205.0</ele><time>2026-04-25T08:07:37Z</time></trkpt><trkpt lat="44.997729777659" lon="8.55653223890463"><ele>206.66666666666666</ele><time>2026-04-25T08:07:38Z</time></trkpt><trkpt lat="44.99780951094387" lon="8.556709875821637"><ele>208.33333333333331</ele><time>2026-04-25T08:07:39Z</time></trkpt><trkpt lat="44.997897189545796" lon="8.556890156119787"><ele>210.0</ele><time>2026-04-25T08:07:40Z</time></trkpt><trkpt lat="44.997983424278914" lon="8.55706497680499"><ele>210.5</ele><time>2026-04-25T08:07:41Z</time></trkpt><trkpt lat="44.9980619208992" lon="8.557234728397878"><ele>211.0</ele><time>2026-04-25T08:07:42Z</time></trkpt><trkpt lat="44.99814303302355" lon="8.55742359883287"><ele>211.5</ele><time>2026-04-25T08:07:43Z</time></trkpt><trkpt lat="44.99821428601337" lon="8.557585036723207"><ele>212.0</ele><time>2026-04-25T08:07:44Z</time></trkpt><trkpt lat="44.99827149932335" lon="8.557751433758325"><ele>212.5</ele><time>2026-04-25T08:07:45Z</time></trkpt><trkpt lat="44.998325907125604" lon="8.557911478232588"><ele>213.0</ele><time>2026-04-25T08:07:46Z</time></trkpt><trkpt lat="44.998358430835474" lon="8.558089347587858"><ele>213.5</ele><time>2026-04-25T08:07:47Z</time></trkpt><trkpt lat="44.99836940684891" lon="8.558283556888814"><ele>214.0</ele><time>2026-04-25T08:07:48Z</time></trkpt><trkpt lat="44.99836983261602" lon="8.558479182790949"><ele>216.33333333333331</ele><time>2026-04-25T08:07:49Z</time></trkpt><trkpt lat="44.998388080080474" lon="8.55869927134665"><ele>218.66666666666669</ele><time>2026-04-25T08:07:50Z</time></trkpt><trkpt lat="44.99838270643795" lon="8.55891577509876"><ele>221.0</ele><time>2026-04-25T08:07:51Z</time></trkpt><trkpt lat="44.99836785138665" lon="8.559128274569195"><ele>221.25</ele><time>2026-04-25T08:07:52Z</time></trkpt><trkpt lat="44.99834618017478" lon="8.559322048268168"><ele>221.5</ele><time>2026-04-25T08:07:53Z</time></trkpt><trkpt lat="44.99832237727533" lon="8.559514666644317"><ele>221.75</ele><time>2026-04-25T08:07:54Z</time></trkpt><trkpt lat="44.99828866831381" lon="8.559696670001841"><ele>222.0</ele><time>2026-04-25T08:07:55Z</time></trkpt><trkpt lat="44.99824751535483" lon="8.559895611581014"><ele>221.75</ele><time>2026-04-25T08:07:56Z</time></trkpt><trkpt lat="44.99820580444741" lon="8.560087757720227"><ele>221.5</ele><time>2026-04-25T08:07:57Z</time></trkpt><trkpt lat="44.99817644533504" lon="8.560291550012108"><ele>221.25</ele><time>2026-04-25T08:07:58Z</time></trkpt><trkpt lat="44.99811587729571" lon="8.560491492730643"><ele>221.0</ele><time>2026-04-25T08:07:59Z</time></trkpt><trkpt lat="44.99808352332911" lon="8.560696098347783"><ele>221.0</ele><time>2026-04-25T08:08:00Z</time></trkpt><trkpt lat="44.998013120160785" lon="8.560873221706993"><ele>221.0</ele><time>2026-04-25T08:08:01Z</time></trkpt><trkpt lat="44.997954773583515" lon="8.561045244769065"><ele>221.0</ele><time>2026-04-25T08:08:02Z</time></trkpt><trkpt lat="44.99788989567905" lon="8.561231090485192"><ele>221.0</ele><time>2026-04-25T08:08:03Z</time></trkpt><trkpt lat="44.99782880373762" lon="8.56140342730272"><ele>221.5</ele><time>2026-04-25T08:08:04Z</time></trkpt><trkpt lat="44.99776355857038" lon="8.561584494117394"><ele>222.0</ele><time>2026-04-25T08:08:05Z</time></trkpt><trkpt lat="44.99770028310869" lon="8.561756647398736"><ele>222.5</ele><time>2026-04-25T08:08:06Z</time></trkpt><trkpt lat="44.997653631832094" lon="8.561926781228147"><ele>223.0</ele><time>2026-04-25T08:08:07Z</time></trkpt><trkpt lat="44.997584191759536" lon="8.56206651192806"><ele>221.8</ele><time>2026-04-25T08:08:08Z</time></trkpt><trkpt lat="44.99753486345567" lon="8.56220265736753"><ele>220.60000000000002</ele><time>2026-04-25T08:08:09Z</time></trkpt><trkpt lat="44.997489774352054" lon="8.562330261184403"><ele>219.39999999999998</ele><time>2026-04-25T08:08:09.999Z</time></trkpt><trkpt lat="44.99746197528217" lon="8.562460870749792"><ele>218.2</ele><time>2026-04-25T08:08:10.999Z</time></trkpt><trkpt lat="44.99740565226662" lon="8.562566266615356"><ele>217.0</ele><time>2026-04-25T08:08:11.999Z</time></trkpt><trkpt lat="44.99736438006695" lon="8.562678492213935"><ele>216.99999999999997</ele><time>2026-04-25T08:08:12.999Z</time></trkpt><trkpt lat="44.99734031044673" lon="8.562793809775105"><ele>217.0</ele><time>2026-04-25T08:08:13.999Z</time></trkpt><trkpt lat="44.99727828315458" lon="8.562912603211023"><ele>217.0</ele><time>2026-04-25T08:08:14.999Z</time></trkpt><trkpt lat="44.99724042739897" lon="8.563021989278305"><ele>217.0</ele><time>2026-04-25T08:08:15.999Z</time></trkpt><trkpt lat="44.99720958446157" lon="8.563117783586899"><ele>216.99999999999997</ele><time>2026-04-25T08:08:16.999Z</time></trkpt><trkpt lat="44.997186874591094" lon="8.563201847216808"><ele>217.0</ele><time>2026-04-25T08:08:17.999Z</time></trkpt><trkpt lat="44.99716491612619" lon="8.563288803892005"><ele>217.0</ele><time>2026-04-25T08:08:19.999Z</time></trkpt><trkpt lat="44.997066198350865" lon="8.56340463649395"><ele>217.0</ele><time>2026-04-25T08:08:21.999Z</time></trkpt><trkpt lat="44.99698031996669" lon="8.563496299732503"><ele>217.0</ele><time>2026-04-25T08:08:22.999Z</time></trkpt><trkpt lat="44.996873988739345" lon="8.563617610666046"><ele>217.0</ele><time>2026-04-25T08:08:23.999Z</time></trkpt><trkpt lat="44.99676274710302" lon="8.563743894975762"><ele>216.0</ele><time>2026-04-25T08:08:24.999Z</time></trkpt><trkpt lat="44.996691067701896" lon="8.56386781073242"><ele>215.0</ele><time>2026-04-25T08:08:25.999Z</time></trkpt><trkpt lat="44.99660425975055" lon="8.5639823423739"><ele>214.0</ele><time>2026-04-25T08:08:26.999Z</time></trkpt><trkpt lat="44.996512826091056" lon="8.564097634122277"><ele>213.0</ele><time>2026-04-25T08:08:27.999Z</time></trkpt><trkpt lat="44.99642501288023" lon="8.564239252393294"><ele>213.0</ele><time>2026-04-25T08:08:28.999Z</time></trkpt><trkpt lat="44.99633562041692" lon="8.5643767149317"><ele>213.0</ele><time>2026-04-25T08:08:29.999Z</time></trkpt><trkpt lat="44.996246126121946" lon="8.564504175017431"><ele>213.0</ele><time>2026-04-25T08:08:30.999Z</time></trkpt><trkpt lat="44.99617070059523" lon="8.56465617373308"><ele>213.0</ele><time>2026-04-25T08:08:31.999Z</time></trkpt><trkpt lat="44.99609382673364" lon="8.564774690253232"><ele>211.8</ele><time>2026-04-25T08:08:32.999Z</time></trkpt><trkpt lat="44.99603692203398" lon="8.56488867242013"><ele>210.60000000000002</ele><time>2026-04-25T08:08:33.999Z</time></trkpt><trkpt lat="44.99597706504435" lon="8.564987107384274"><ele>209.39999999999998</ele><time>2026-04-25T08:08:34.999Z</time></trkpt><trkpt lat="44.99592569071876" lon="8.565097095999743"><ele>208.2</ele><time>2026-04-25T08:08:35.999Z</time></trkpt><trkpt lat="44.99587614557158" lon="8.565212507294724"><ele>207.0</ele><time>2026-04-25T08:08:36.999Z</time></trkpt><trkpt lat="44.99583302971986" lon="8.565317303513295"><ele>208.6</ele><time>2026-04-25T08:08:37.999Z</time></trkpt><trkpt lat="44.99579650758501" lon="8.565403486463058"><ele>210.2</ele><time>2026-04-25T08:08:38.999Z</time></trkpt><trkpt lat="44.99573683113916" lon="8.565541480686669"><ele>211.8</ele><time>2026-04-25T08:08:40.999Z</time></trkpt><trkpt lat="44.99568170940699" lon="8.56566893365015"><ele>213.4</ele><time>2026-04-25T08:08:42.999Z</time></trkpt><trkpt lat="44.99563724775538" lon="8.56577173494735"><ele>215.0</ele><time>2026-04-25T08:08:44.999Z</time></trkpt><trkpt lat="44.99558327193966" lon="8.565893425670284"><ele>215.00000000000003</ele><time>2026-04-25T08:08:46.999Z</time></trkpt><trkpt lat="44.995533159220784" lon="8.566000062653092"><ele>215.0</ele><time>2026-04-25T08:08:48.999Z</time></trkpt><trkpt lat="44.99548307044775" lon="8.566103940477198"><ele>215.0</ele><time>2026-04-25T08:08:50.999Z</time></trkpt><trkpt lat="44.99541873286922" lon="8.566208556361781"><ele>215.0</ele><time>2026-04-25T08:08:53.999Z</time></trkpt><trkpt lat="44.9953558339648" lon="8.566301565050503"><ele>215.00000000000003</ele><time>2026-04-25T08:08:55.999Z</time></trkpt><trkpt lat="44.99529523159621" lon="8.566364422713772"><ele>215.0</ele><time>2026-04-25T08:08:57.999Z</time></trkpt><trkpt lat="44.9952464736805" lon="8.566421053465355"><ele>215.33333333333334</ele><time>2026-04-25T08:08:59.999Z</time></trkpt><trkpt lat="44.995186968545184" lon="8.566481669735033"><ele>215.66666666666669</ele><time>2026-04-25T08:09:02Z</time></trkpt><trkpt lat="44.99511030806672" lon="8.566521338711597"><ele>216.0</ele><time>2026-04-25T08:09:05Z</time></trkpt><trkpt lat="44.99502165845466" lon="8.56650419246247"><ele>216.33333333333331</ele><time>2026-04-25T08:09:08Z</time></trkpt><trkpt lat="44.99497302474844" lon="8.566424248692316"><ele>216.66666666666666</ele><time>2026-04-25T08:09:10Z</time></trkpt><trkpt lat="44.99489854448328" lon="8.566322792601497"><ele>217.0</ele><time>2026-04-25T08:09:13Z</time></trkpt><trkpt lat="44.99481383102256" lon="8.566233222257663"><ele>215.66666666666666</ele><time>2026-04-25T08:09:15Z</time></trkpt><trkpt lat="44.99476375754451" lon="8.566179041006736"><ele>214.33333333333331</ele><time>2026-04-25T08:09:16Z</time></trkpt><trkpt lat="44.99466516028387" lon="8.566072355331771"><ele>213.0</ele><time>2026-04-25T08:09:18Z</time></trkpt><trkpt lat="44.99460922031983" lon="8.56601195440794"><ele>211.66666666666669</ele><time>2026-04-25T08:09:19Z</time></trkpt><trkpt lat="44.99455064977035" lon="8.56595118008915"><ele>210.33333333333334</ele><time>2026-04-25T08:09:20Z</time></trkpt><trkpt lat="44.994492380224074" lon="8.565890718106903"><ele>209.0</ele><time>2026-04-25T08:09:21Z</time></trkpt><trkpt lat="44.99443941971233" lon="8.565835764910844"><ele>209.0</ele><time>2026-04-25T08:09:22Z</time></trkpt><trkpt lat="44.99436327873679" lon="8.565753480771923"><ele>209.0</ele><time>2026-04-25T08:09:24Z</time></trkpt><trkpt lat="44.99427128889843" lon="8.565668371724408"><ele>209.0</ele><time>2026-04-25T08:09:26Z</time></trkpt><trkpt lat="44.99419386410539" lon="8.565554760401886"><ele>209.0</ele><time>2026-04-25T08:09:28Z</time></trkpt><trkpt lat="44.9941498179154" lon="8.56542011637861"><ele>209.0</ele><time>2026-04-25T08:09:30Z</time></trkpt><trkpt lat="44.99409371725893" lon="8.565260751212879"><ele>208.66666666666669</ele><time>2026-04-25T08:09:32Z</time></trkpt><trkpt lat="44.994063438589635" lon="8.56517141335818"><ele>208.33333333333334</ele><time>2026-04-25T08:09:33Z</time></trkpt><trkpt lat="44.9940213424815" lon="8.565083349780716"><ele>208.0</ele><time>2026-04-25T08:09:34Z</time></trkpt><trkpt lat="44.99399319602399" lon="8.564977540965128"><ele>207.66666666666669</ele><time>2026-04-25T08:09:35Z</time></trkpt><trkpt lat="44.993943995819734" lon="8.56486880518852"><ele>207.33333333333334</ele><time>2026-04-25T08:09:36Z</time></trkpt><trkpt lat="44.993868827832536" lon="8.564775465836899"><ele>207.0</ele><time>2026-04-25T08:09:37Z</time></trkpt><trkpt lat="44.993782303828105" lon="8.56469269572924"><ele>207.0</ele><time>2026-04-25T08:09:38Z</time></trkpt><trkpt lat="44.9936841879358" lon="8.56463599395729"><ele>207.0</ele><time>2026-04-25T08:09:39Z</time></trkpt><trkpt lat="44.99359273730456" lon="8.564577423897049"><ele>207.0</ele><time>2026-04-25T08:09:40Z</time></trkpt><trkpt lat="44.993512591784516" lon="8.564535797664163"><ele>207.0</ele><time>2026-04-25T08:09:41Z</time></trkpt><trkpt lat="44.99344089809603" lon="8.564492389899748"><ele>207.0</ele><time>2026-04-25T08:09:42Z</time></trkpt><trkpt lat="44.99336367730043" lon="8.5644337124562"><ele>206.39999999999998</ele><time>2026-04-25T08:09:43Z</time></trkpt><trkpt lat="44.99328508761837" lon="8.564353384218817"><ele>205.79999999999998</ele><time>2026-04-25T08:09:44Z</time></trkpt><trkpt lat="44.99321418884896" lon="8.564257760943077"><ele>205.2</ele><time>2026-04-25T08:09:45Z</time></trkpt><trkpt lat="44.993144540768554" lon="8.564145765567494"><ele>204.6</ele><time>2026-04-25T08:09:46Z</time></trkpt><trkpt lat="44.99307649606279" lon="8.56403701547418"><ele>204.0</ele><time>2026-04-25T08:09:47Z</time></trkpt><trkpt lat="44.9930039376721" lon="8.56393654982013"><ele>204.0</ele><time>2026-04-25T08:09:48Z</time></trkpt><trkpt lat="44.99292955177851" lon="8.56384625909802"><ele>204.0</ele><time>2026-04-25T08:09:49Z</time></trkpt><trkpt lat="44.99285340592933" lon="8.563766523198048"><ele>204.0</ele><time>2026-04-25T08:09:50Z</time></trkpt><trkpt lat="44.992772387321445" lon="8.563717463554465"><ele>204.0</ele><time>2026-04-25T08:09:51Z</time></trkpt><trkpt lat="44.99268328428913" lon="8.563681739652857"><ele>204.0</ele><time>2026-04-25T08:09:52Z</time></trkpt><trkpt lat="44.992587954577324" lon="8.563674477393183"><ele>205.0</ele><time>2026-04-25T08:09:53Z</time></trkpt><trkpt lat="44.992489613245176" lon="8.563683014639013"><ele>206.0</ele><time>2026-04-25T08:09:54Z</time></trkpt><trkpt lat="44.99239927137908" lon="8.56371514501414"><ele>207.0</ele><time>2026-04-25T08:09:55Z</time></trkpt><trkpt lat="44.992313835146845" lon="8.563782493814264"><ele>208.0</ele><time>2026-04-25T08:09:56Z</time></trkpt><trkpt lat="44.99223840617663" lon="8.563875037011098"><ele>209.0</ele><time>2026-04-25T08:09:57Z</time></trkpt><trkpt lat="44.992165428568015" lon="8.563968854648815"><ele>209.0</ele><time>2026-04-25T08:09:58Z</time></trkpt><trkpt lat="44.992104175793116" lon="8.564072296575496"><ele>209.0</ele><time>2026-04-25T08:09:59Z</time></trkpt><trkpt lat="44.99205616825709" lon="8.564188772859893"><ele>209.0</ele><time>2026-04-25T08:10:00Z</time></trkpt><trkpt lat="44.992008678262444" lon="8.564322193156592"><ele>209.0</ele><time>2026-04-25T08:10:01Z</time></trkpt><trkpt lat="44.99196389817987" lon="8.564434765529205"><ele>209.0</ele><time>2026-04-25T08:10:02Z</time></trkpt><trkpt lat="44.991910316342015" lon="8.564547192767556"><ele>208.0</ele><time>2026-04-25T08:10:03Z</time></trkpt><trkpt lat="44.991857860431466" lon="8.56465879420114"><ele>207.0</ele><time>2026-04-25T08:10:04Z</time></trkpt><trkpt lat="44.99180158683018" lon="8.564767163278104"><ele>206.0</ele><time>2026-04-25T08:10:05Z</time></trkpt><trkpt lat="44.991739712376" lon="8.564872936120041"><ele>205.0</ele><time>2026-04-25T08:10:06Z</time></trkpt><trkpt lat="44.99167077848495" lon="8.564968756525142"><ele>204.0</ele><time>2026-04-25T08:10:07Z</time></trkpt><trkpt lat="44.9915902545295" lon="8.565047969557524"><ele>204.0</ele><time>2026-04-25T08:10:08Z</time></trkpt><trkpt lat="44.991496407817834" lon="8.565092702567894"><ele>204.0</ele><time>2026-04-25T08:10:09Z</time></trkpt><trkpt lat="44.99138324868161" lon="8.565100994551115"><ele>204.0</ele><time>2026-04-25T08:10:10Z</time></trkpt><trkpt lat="44.99127780538073" lon="8.565065692396564"><ele>204.0</ele><time>2026-04-25T08:10:11Z</time></trkpt><trkpt lat="44.991174731251924" lon="8.565014028459098"><ele>204.0</ele><time>2026-04-25T08:10:12Z</time></trkpt><trkpt lat="44.99107429302596" lon="8.564966199922933"><ele>204.0</ele><time>2026-04-25T08:10:13Z</time></trkpt><trkpt lat="44.99098093200911" lon="8.56494678792157"><ele>204.0</ele><time>2026-04-25T08:10:14Z</time></trkpt><trkpt lat="44.99089827600878" lon="8.564943915855963"><ele>204.0</ele><time>2026-04-25T08:10:15Z</time></trkpt><trkpt lat="44.990801262495644" lon="8.564952490784341"><ele>204.0</ele><time>2026-04-25T08:10:16Z</time></trkpt><trkpt lat="44.990698325018144" lon="8.564986704062724"><ele>204.0</ele><time>2026-04-25T08:10:17Z</time></trkpt><trkpt lat="44.990597454834116" lon="8.565060712484945"><ele>203.25</ele><time>2026-04-25T08:10:18Z</time></trkpt><trkpt lat="44.99050216975973" lon="8.565162768430424"><ele>202.5</ele><time>2026-04-25T08:10:19Z</time></trkpt><trkpt lat="44.99041604546862" lon="8.56529857199957"><ele>201.75</ele><time>2026-04-25T08:10:19.999Z</time></trkpt><trkpt lat="44.99033338313459" lon="8.56543201432732"><ele>201.0</ele><time>2026-04-25T08:10:20.999Z</time></trkpt><trkpt lat="44.99025109050959" lon="8.565561185356543"><ele>200.8</ele><time>2026-04-25T08:10:21.999Z</time></trkpt><trkpt lat="44.99017554277726" lon="8.565671317311926"><ele>200.60000000000002</ele><time>2026-04-25T08:10:22.999Z</time></trkpt><trkpt lat="44.9901029738651" lon="8.565767223015701"><ele>200.4</ele><time>2026-04-25T08:10:23.999Z</time></trkpt><trkpt lat="44.99003597301572" lon="8.565859462946094"><ele>200.2</ele><time>2026-04-25T08:10:24.999Z</time></trkpt><trkpt lat="44.989960443986654" lon="8.565924089949405"><ele>200.0</ele><time>2026-04-25T08:10:25.999Z</time></trkpt><trkpt lat="44.98986681220108" lon="8.565979030455907"><ele>200.0</ele><time>2026-04-25T08:10:26.999Z</time></trkpt><trkpt lat="44.98975744266066" lon="8.566019312016813"><ele>200.0</ele><time>2026-04-25T08:10:27.999Z</time></trkpt><trkpt lat="44.98963907500442" lon="8.566016483202198"><ele>200.0</ele><time>2026-04-25T08:10:28.999Z</time></trkpt><trkpt lat="44.989524667268526" lon="8.565950800285632"><ele>200.0</ele><time>2026-04-25T08:10:29.999Z</time></trkpt><trkpt lat="44.9894103924493" lon="8.565886504384913"><ele>200.0</ele><time>2026-04-25T08:10:30.999Z</time></trkpt><trkpt lat="44.989291184105745" lon="8.565830162253"><ele>200.0</ele><time>2026-04-25T08:10:31.999Z</time></trkpt><trkpt lat="44.98918061602487" lon="8.565758966948502"><ele>200.0</ele><time>2026-04-25T08:10:32.999Z</time></trkpt><trkpt lat="44.989087618309846" lon="8.565692257038185"><ele>200.0</ele><time>2026-04-25T08:10:33.999Z</time></trkpt><trkpt lat="44.98900344469852" lon="8.56563844656084"><ele>200.0</ele><time>2026-04-25T08:10:34.999Z</time></trkpt><trkpt lat="44.98892721841078" lon="8.565586678413345"><ele>200.2</ele><time>2026-04-25T08:10:35.999Z</time></trkpt><trkpt lat="44.98886707469594" lon="8.56555543889926"><ele>200.4</ele><time>2026-04-25T08:10:36.999Z</time></trkpt><trkpt lat="44.98878936082999" lon="8.565517031267175"><ele>200.60000000000002</ele><time>2026-04-25T08:10:38.999Z</time></trkpt><trkpt lat="44.988769669703814" lon="8.565724545449832"><ele>200.8</ele><time>2026-04-25T08:10:40.999Z</time></trkpt><trkpt lat="44.98879519368198" lon="8.565813348019658"><ele>201.0</ele><time>2026-04-25T08:10:41.999Z</time></trkpt><trkpt lat="44.98883808688084" lon="8.565923990783713"><ele>201.0</ele><time>2026-04-25T08:10:42.999Z</time></trkpt><trkpt lat="44.988872505233346" lon="8.566052277669478"><ele>201.0</ele><time>2026-04-25T08:10:43.999Z</time></trkpt><trkpt lat="44.988898305546726" lon="8.566218600459935"><ele>201.0</ele><time>2026-04-25T08:10:44.999Z</time></trkpt><trkpt lat="44.988919517315104" lon="8.566401114825297"><ele>201.0</ele><time>2026-04-25T08:10:45.999Z</time></trkpt><trkpt lat="44.988955184148146" lon="8.566552244607225"><ele>202.5</ele><time>2026-04-25T08:10:46.999Z</time></trkpt><trkpt lat="44.988975897883975" lon="8.566701888878205"><ele>204.0</ele><time>2026-04-25T08:10:47.999Z</time></trkpt><trkpt lat="44.98900014954363" lon="8.566807515244932"><ele>205.5</ele><time>2026-04-25T08:10:48.999Z</time></trkpt><trkpt lat="44.98904367768027" lon="8.56688297501915"><ele>207.0</ele><time>2026-04-25T08:10:49.999Z</time></trkpt><trkpt lat="44.989108608254185" lon="8.566958673221215"><ele>208.5</ele><time>2026-04-25T08:10:51.999Z</time></trkpt><trkpt lat="44.98915951846317" lon="8.567029475694058"><ele>210.0</ele><time>2026-04-25T08:10:55.999Z</time></trkpt><trkpt lat="44.98928977864623" lon="8.567055327097398"><ele>211.16666666666666</ele><time>2026-04-25T08:10:57.999Z</time></trkpt><trkpt lat="44.98935266452998" lon="8.567101587400025"><ele>212.33333333333331</ele><time>2026-04-25T08:10:58.999Z</time></trkpt><trkpt lat="44.98943302871819" lon="8.567153980811886"><ele>213.5</ele><time>2026-04-25T08:10:59.999Z</time></trkpt><trkpt lat="44.98951583964599" lon="8.567197917406025"><ele>214.66666666666666</ele><time>2026-04-25T08:11:00.999Z</time></trkpt><trkpt lat="44.989606371854684" lon="8.567240203463877"><ele>215.83333333333331</ele><time>2026-04-25T08:11:01.999Z</time></trkpt><trkpt lat="44.9897041153322" lon="8.567272697120291"><ele>217.0</ele><time>2026-04-25T08:11:02.999Z</time></trkpt><trkpt lat="44.989803953567026" lon="8.567287796803335"><ele>216.99999999999997</ele><time>2026-04-25T08:11:03.999Z</time></trkpt><trkpt lat="44.98989255973629" lon="8.567291970717212"><ele>217.0</ele><time>2026-04-25T08:11:04.999Z</time></trkpt><trkpt lat="44.98996612198539" lon="8.567302091719831"><ele>217.0</ele><time>2026-04-25T08:11:05.999Z</time></trkpt><trkpt lat="44.990062568737045" lon="8.56733342536064"><ele>217.0</ele><time>2026-04-25T08:11:08Z</time></trkpt><trkpt lat="44.99007016570766" lon="8.56744102186618"><ele>216.99999999999997</ele><time>2026-04-25T08:11:10Z</time></trkpt><trkpt lat="44.99005762898826" lon="8.567538108985339"><ele>217.0</ele><time>2026-04-25T08:11:11Z</time></trkpt><trkpt lat="44.9899971078621" lon="8.567667084822851"><ele>216.39999999999998</ele><time>2026-04-25T08:11:13Z</time></trkpt><trkpt lat="44.99002722820229" lon="8.567758696775376"><ele>215.79999999999998</ele><time>2026-04-25T08:11:14Z</time></trkpt><trkpt lat="44.99010520786325" lon="8.567835900777142"><ele>215.2</ele><time>2026-04-25T08:11:15Z</time></trkpt><trkpt lat="44.99019779541981" lon="8.567878883155778"><ele>214.6</ele><time>2026-04-25T08:11:16Z</time></trkpt><trkpt lat="44.990290322021856" lon="8.567900921036136"><ele>214.0</ele><time>2026-04-25T08:11:17Z</time></trkpt><trkpt lat="44.990388446233105" lon="8.567950317933798"><ele>214.0</ele><time>2026-04-25T08:11:18Z</time></trkpt><trkpt lat="44.990479428912344" lon="8.568028029680638"><ele>213.99999999999997</ele><time>2026-04-25T08:11:19Z</time></trkpt><trkpt lat="44.99056714011859" lon="8.568109759810431"><ele>213.99999999999997</ele><time>2026-04-25T08:11:20Z</time></trkpt><trkpt lat="44.99066727386585" lon="8.568194222993412"><ele>214.0</ele><time>2026-04-25T08:11:21Z</time></trkpt><trkpt lat="44.99076528932773" lon="8.568267046930227"><ele>214.0</ele><time>2026-04-25T08:11:22Z</time></trkpt><trkpt lat="44.99086140482743" lon="8.56834254211564"><ele>213.49999999999997</ele><time>2026-04-25T08:11:23Z</time></trkpt><trkpt lat="44.990947151475474" lon="8.56841094894833"><ele>213.0</ele><time>2026-04-25T08:11:24Z</time></trkpt><trkpt lat="44.99102182948839" lon="8.568477423379662"><ele>212.5</ele><time>2026-04-25T08:11:25Z</time></trkpt><trkpt lat="44.99109263943568" lon="8.568544375097476"><ele>212.0</ele><time>2026-04-25T08:11:26Z</time></trkpt><trkpt lat="44.99115531896045" lon="8.568605812750995"><ele>211.49999999999997</ele><time>2026-04-25T08:11:27Z</time></trkpt><trkpt lat="44.99122008346116" lon="8.568657264634153"><ele>211.0</ele><time>2026-04-25T08:11:28Z</time></trkpt><trkpt lat="44.99131735186643" lon="8.568754827520053"><ele>211.0</ele><time>2026-04-25T08:11:30Z</time></trkpt><trkpt lat="44.99137101692471" lon="8.568841031827406"><ele>211.0</ele><time>2026-04-25T08:11:31Z</time></trkpt><trkpt lat="44.991439011120946" lon="8.568912820410002"><ele>211.0</ele><time>2026-04-25T08:11:32Z</time></trkpt><trkpt lat="44.99153131080275" lon="8.56896587616864"><ele>211.0</ele><time>2026-04-25T08:11:33Z</time></trkpt><trkpt lat="44.99161897955927" lon="8.56902811871709"><ele>211.0</ele><time>2026-04-25T08:11:34Z</time></trkpt><trkpt lat="44.99171243274053" lon="8.569084191550521"><ele>212.0</ele><time>2026-04-25T08:11:35Z</time></trkpt><trkpt lat="44.99180480220538" lon="8.56913665160081"><ele>213.0</ele><time>2026-04-25T08:11:36Z</time></trkpt><trkpt lat="44.991894187216815" lon="8.569205841938741"><ele>214.00000000000003</ele><time>2026-04-25T08:11:37Z</time></trkpt><trkpt lat="44.99197512405388" lon="8.569252435455436"><ele>215.0</ele><time>2026-04-25T08:11:38Z</time></trkpt><trkpt lat="44.99205602087911" lon="8.569296619462135"><ele>216.0</ele><time>2026-04-25T08:11:39Z</time></trkpt><trkpt lat="44.99215328964234" lon="8.569346469522383"><ele>216.0</ele><time>2026-04-25T08:11:40Z</time></trkpt><trkpt lat="44.99224321281529" lon="8.569385598917258"><ele>216.00000000000003</ele><time>2026-04-25T08:11:41Z</time></trkpt><trkpt lat="44.99234386109338" lon="8.569406525150796"><ele>216.00000000000003</ele><time>2026-04-25T08:11:42Z</time></trkpt><trkpt lat="44.99243808188163" lon="8.569431609611769"><ele>216.0</ele><time>2026-04-25T08:11:43Z</time></trkpt><trkpt lat="44.99253177542785" lon="8.569473067676046"><ele>216.0</ele><time>2026-04-25T08:11:44Z</time></trkpt><trkpt lat="44.99263721471157" lon="8.569463323324067"><ele>213.5</ele><time>2026-04-25T08:11:45Z</time></trkpt><trkpt lat="44.99275002459394" lon="8.56945244707807"><ele>211.0</ele><time>2026-04-25T08:11:46Z</time></trkpt><trkpt lat="44.99285770375652" lon="8.569409321643496"><ele>208.5</ele><time>2026-04-25T08:11:47Z</time></trkpt><trkpt lat="44.99297435312309" lon="8.569358600176919"><ele>206.0</ele><time>2026-04-25T08:11:48Z</time></trkpt><trkpt lat="44.99307781284686" lon="8.569342437150645"><ele>206.00000000000003</ele><time>2026-04-25T08:11:49Z</time></trkpt><trkpt lat="44.993159133380914" lon="8.569312735873579"><ele>206.0</ele><time>2026-04-25T08:11:50Z</time></trkpt><trkpt lat="44.9932385699633" lon="8.569280874761967"><ele>206.0</ele><time>2026-04-25T08:11:51Z</time></trkpt><trkpt lat="44.993301931728794" lon="8.569255461170698"><ele>206.0</ele><time>2026-04-25T08:11:52Z</time></trkpt><trkpt lat="44.993389505048206" lon="8.569211940315784"><ele>206.00000000000003</ele><time>2026-04-25T08:11:54Z</time></trkpt><trkpt lat="44.9934745283131" lon="8.569171558783609"><ele>206.0</ele><time>2026-04-25T08:11:56Z</time></trkpt><trkpt lat="44.99356168440094" lon="8.569144579293093"><ele>204.0</ele><time>2026-04-25T08:11:58Z</time></trkpt><trkpt lat="44.993680913667056" lon="8.569145251142539"><ele>202.0</ele><time>2026-04-25T08:12:00Z</time></trkpt><trkpt lat="44.993747583826114" lon="8.569126254964125"><ele>200.0</ele><time>2026-04-25T08:12:01Z</time></trkpt><trkpt lat="44.9938157013731" lon="8.569145394296179"><ele>198.0</ele><time>2026-04-25T08:12:02Z</time></trkpt><trkpt lat="44.99394260636449" lon="8.569129417889963"><ele>196.0</ele><time>2026-04-25T08:12:04Z</time></trkpt><trkpt lat="44.99400754783929" lon="8.569112876133781"><ele>195.99999999999997</ele><time>2026-04-25T08:12:05Z</time></trkpt><trkpt lat="44.99413258681837" lon="8.56908035421591"><ele>196.0</ele><time>2026-04-25T08:12:07Z</time></trkpt><trkpt lat="44.99419656671866" lon="8.569065525371032"><ele>196.0</ele><time>2026-04-25T08:12:08Z</time></trkpt><trkpt lat="44.994261510236946" lon="8.569055066065127"><ele>196.0</ele><time>2026-04-25T08:12:09Z</time></trkpt><trkpt lat="44.99433911328169" lon="8.569050769392323"><ele>195.99999999999997</ele><time>2026-04-25T08:12:10Z</time></trkpt><trkpt lat="44.99440506005441" lon="8.569033376747196"><ele>196.0</ele><time>2026-04-25T08:12:11Z</time></trkpt><trkpt lat="44.99447398463748" lon="8.5690346127236"><ele>196.83333333333331</ele><time>2026-04-25T08:12:12Z</time></trkpt><trkpt lat="44.99454535993891" lon="8.569063262533223"><ele>197.66666666666666</ele><time>2026-04-25T08:12:13Z</time></trkpt><trkpt lat="44.9946204457795" lon="8.569065659367014"><ele>198.5</ele><time>2026-04-25T08:12:14Z</time></trkpt><trkpt lat="44.99475105480869" lon="8.569065957373956"><ele>199.33333333333331</ele><time>2026-04-25T08:12:16Z</time></trkpt><trkpt lat="44.994830234108285" lon="8.569070147139847"><ele>200.16666666666666</ele><time>2026-04-25T08:12:17Z</time></trkpt><trkpt lat="44.99490091779616" lon="8.569075483675903"><ele>201.0</ele><time>2026-04-25T08:12:18Z</time></trkpt><trkpt lat="44.99497781430439" lon="8.569087577643208"><ele>201.0</ele><time>2026-04-25T08:12:20Z</time></trkpt><trkpt lat="44.995056490363716" lon="8.569096132516373"><ele>201.0</ele><time>2026-04-25T08:12:23.999Z</time></trkpt><trkpt lat="44.99511889310881" lon="8.56907968302151"><ele>201.0</ele><time>2026-04-25T08:12:26.999Z</time></trkpt><trkpt lat="44.99514553913238" lon="8.568986692723222"><ele>201.0</ele><time>2026-04-25T08:12:28.999Z</time></trkpt><trkpt lat="44.99509668474298" lon="8.568815189350042"><ele>201.0</ele><time>2026-04-25T08:12:30.999Z</time></trkpt><trkpt lat="44.99504817667434" lon="8.568733227475569"><ele>201.0</ele><time>2026-04-25T08:12:31.999Z</time></trkpt><trkpt lat="44.99492266648867" lon="8.568702006980155"><ele>201.0</ele><time>2026-04-25T08:12:33.999Z</time></trkpt><trkpt lat="44.99483447259804" lon="8.568727965560646"><ele>201.0</ele><time>2026-04-25T08:12:35.999Z</time></trkpt><trkpt lat="44.994726884725225" lon="8.568712340920682"><ele>201.0</ele><time>2026-04-25T08:12:37.999Z</time></trkpt><trkpt lat="44.99462587182853" lon="8.568660216160445"><ele>201.0</ele><time>2026-04-25T08:12:39.999Z</time></trkpt><trkpt lat="44.99458498704779" lon="8.568583723727134"><ele>201.0</ele><time>2026-04-25T08:12:40.999Z</time></trkpt><trkpt lat="44.99456802813041" lon="8.568477748078601"><ele>202.5</ele><time>2026-04-25T08:12:41.999Z</time></trkpt><trkpt lat="44.994563158031085" lon="8.568373245860645"><ele>204.0</ele><time>2026-04-25T08:12:42.999Z</time></trkpt><trkpt lat="44.99455523945869" lon="8.568260383159341"><ele>205.5</ele><time>2026-04-25T08:12:43.999Z</time></trkpt><trkpt lat="44.99453775942009" lon="8.56814341724198"><ele>207.0</ele><time>2026-04-25T08:12:44.999Z</time></trkpt><trkpt lat="44.9945364743476" lon="8.568038096202264"><ele>208.5</ele><time>2026-04-25T08:12:45.999Z</time></trkpt><trkpt lat="44.99454699418453" lon="8.567903323364828"><ele>210.0</ele><time>2026-04-25T08:12:47.999Z</time></trkpt><trkpt lat="44.99462977472845" lon="8.567850764353265"><ele>211.16666666666666</ele><time>2026-04-25T08:12:49.999Z</time></trkpt><trkpt lat="44.994675272933094" lon="8.567785238453862"><ele>212.33333333333331</ele><time>2026-04-25T08:12:50.999Z</time></trkpt><trkpt lat="44.994733633104445" lon="8.567742408940248"><ele>213.5</ele><time>2026-04-25T08:12:51.999Z</time></trkpt><trkpt lat="44.994807431819346" lon="8.567698868137992"><ele>214.66666666666666</ele><time>2026-04-25T08:12:52.999Z</time></trkpt><trkpt lat="44.99485974685865" lon="8.567640666529813"><ele>215.83333333333331</ele><time>2026-04-25T08:12:53.999Z</time></trkpt><trkpt lat="44.99491533904722" lon="8.567530903854328"><ele>217.0</ele><time>2026-04-25T08:12:55.999Z</time></trkpt><trkpt lat="44.994962792238354" lon="8.567438938758789"><ele>216.99999999999997</ele><time>2026-04-25T08:12:57.999Z</time></trkpt><trkpt lat="44.994980186983796" lon="8.567311349845193"><ele>217.0</ele><time>2026-04-25T08:13:00.999Z</time></trkpt><trkpt lat="44.99504205345566" lon="8.567246274798451"><ele>217.0</ele><time>2026-04-25T08:13:03.999Z</time></trkpt><trkpt lat="44.99511939716068" lon="8.567234665141836"><ele>217.0</ele><time>2026-04-25T08:13:05.999Z</time></trkpt><trkpt lat="44.995193699338486" lon="8.567216520011202"><ele>216.99999999999997</ele><time>2026-04-25T08:13:07.999Z</time></trkpt><trkpt lat="44.99526491001653" lon="8.56720020299135"><ele>217.0</ele><time>2026-04-25T08:13:09.999Z</time></trkpt><trkpt lat="44.99536174743699" lon="8.567178269380621"><ele>218.16666666666666</ele><time>2026-04-25T08:13:11.999Z</time></trkpt><trkpt lat="44.995446867282986" lon="8.567180748971312"><ele>219.33333333333331</ele><time>2026-04-25T08:13:15Z</time></trkpt><trkpt lat="44.99551025694804" lon="8.567209306291707"><ele>220.5</ele><time>2026-04-25T08:13:17Z</time></trkpt><trkpt lat="44.99556767545673" lon="8.567312031334371"><ele>221.66666666666669</ele><time>2026-04-25T08:13:18Z</time></trkpt><trkpt lat="44.995621717156624" lon="8.567428129836369"><ele>222.83333333333334</ele><time>2026-04-25T08:13:19Z</time></trkpt><trkpt lat="44.9957194853327" lon="8.56748832301536"><ele>224.0</ele><time>2026-04-25T08:13:20Z</time></trkpt><trkpt lat="44.99582418285122" lon="8.567530766274896"><ele>225.79999999999998</ele><time>2026-04-25T08:13:21Z</time></trkpt><trkpt lat="44.99592134033905" lon="8.567522761701367"><ele>227.59999999999997</ele><time>2026-04-25T08:13:22Z</time></trkpt><trkpt lat="44.99602743848301" lon="8.567504598225003"><ele>229.4</ele><time>2026-04-25T08:13:23Z</time></trkpt><trkpt lat="44.99611229035618" lon="8.567516733801398"><ele>231.2</ele><time>2026-04-25T08:13:24Z</time></trkpt><trkpt lat="44.996204509217364" lon="8.567495720334968"><ele>233.0</ele><time>2026-04-25T08:13:25Z</time></trkpt><trkpt lat="44.99628312529709" lon="8.567482750435095"><ele>233.0</ele><time>2026-04-25T08:13:26Z</time></trkpt><trkpt lat="44.99635604798246" lon="8.567478540792498"><ele>233.0</ele><time>2026-04-25T08:13:27Z</time></trkpt><trkpt lat="44.99642367377943" lon="8.567476248580125"><ele>233.0</ele><time>2026-04-25T08:13:29Z</time></trkpt><trkpt lat="44.99643141705539" lon="8.567220265164321"><ele>233.0</ele><time>2026-04-25T08:13:31Z</time></trkpt><trkpt lat="44.99642539095853" lon="8.567089920603584"><ele>233.0</ele><time>2026-04-25T08:13:32Z</time></trkpt><trkpt lat="44.99644234547265" lon="8.566945734411126"><ele>233.50000000000003</ele><time>2026-04-25T08:13:33Z</time></trkpt><trkpt lat="44.99646450970854" lon="8.566834028082967"><ele>234.0</ele><time>2026-04-25T08:13:34Z</time></trkpt><trkpt lat="44.9964945469928" lon="8.56672092481158"><ele>234.5</ele><time>2026-04-25T08:13:35Z</time></trkpt><trkpt lat="44.99652134709585" lon="8.566633117914566"><ele>235.0</ele><time>2026-04-25T08:13:36Z</time></trkpt><trkpt lat="44.996574596399405" lon="8.566514816348116"><ele>235.50000000000003</ele><time>2026-04-25T08:13:38Z</time></trkpt><trkpt lat="44.996613470406345" lon="8.566425835777212"><ele>236.0</ele><time>2026-04-25T08:13:40Z</time></trkpt><trkpt lat="44.99655167509757" lon="8.566392196212002"><ele>236.0</ele><time>2026-04-25T08:13:45Z</time></trkpt><trkpt lat="44.99647848441133" lon="8.566459836092246"><ele>236.0</ele><time>2026-04-25T08:13:47Z</time></trkpt><trkpt lat="44.996437466824126" lon="8.566534155255626"><ele>236.0</ele><time>2026-04-25T08:13:49Z</time></trkpt><trkpt lat="44.996570913567325" lon="8.566606632370231"><ele>236.0</ele><time>2026-04-25T08:13:51Z</time></trkpt><trkpt lat="44.99659254131512" lon="8.56651848684429"><ele>236.0</ele><time>2026-04-25T08:13:54Z</time></trkpt></trkseg></trk></gpx>